<?xml version="1.0" encoding="UTF-8" standalone="no" ?>
<gpx xmlns="http://www.topografix.com/GPX/1/1" xmlns:xsi="http://www.w3.org/2001/XMLSchema-instance" xsi:schemaLocation="http://www.topografix.com/GPX/1/1 http://www.topografix.com/GPX/1/1/gpx.xsd" version="1.1" creator="VisuGPX - https://www.visugpx.com">
  <metadata>
    <name>Chancel, Brêche Pacave, 3200, Chalvachère</name>
    <desc><![CDATA[Export from GpsPrune]]></desc>
  </metadata>
  <trk>
    <name><![CDATA[20170624-run-chancel-pacave-ruillans-chalvachere]]></name>
    <trkseg>
      <trkpt lat="45.04413" lon="6.3023">
        <ele>1476.72</ele>
        <time>2017-06-24T07:47:28Z</time>
      </trkpt>
      <trkpt lat="45.04416" lon="6.30253">
        <ele>1478.16</ele>
        <time>2017-06-24T07:47:36Z</time>
      </trkpt>
      <trkpt lat="45.04424" lon="6.30272">
        <ele>1476.72</ele>
        <time>2017-06-24T07:47:43Z</time>
      </trkpt>
      <trkpt lat="45.04434" lon="6.30293">
        <ele>1474.8</ele>
        <time>2017-06-24T07:47:51Z</time>
      </trkpt>
      <trkpt lat="45.0444" lon="6.30304">
        <ele>1473.84</ele>
        <time>2017-06-24T07:47:56Z</time>
      </trkpt>
      <trkpt lat="45.04445" lon="6.30327">
        <ele>1471.92</ele>
        <time>2017-06-24T07:48:04Z</time>
      </trkpt>
      <trkpt lat="45.04446" lon="6.30333">
        <ele>1472.88</ele>
        <time>2017-06-24T07:48:06Z</time>
      </trkpt>
      <trkpt lat="45.04446" lon="6.30342">
        <ele>1474.32</ele>
        <time>2017-06-24T07:48:12Z</time>
      </trkpt>
      <trkpt lat="45.04447" lon="6.30348">
        <ele>1472.4</ele>
        <time>2017-06-24T07:48:17Z</time>
      </trkpt>
      <trkpt lat="45.04458" lon="6.30363">
        <ele>1467.11</ele>
        <time>2017-06-24T07:48:27Z</time>
      </trkpt>
      <trkpt lat="45.04459" lon="6.30365">
        <ele>1466.63</ele>
        <time>2017-06-24T07:48:28Z</time>
      </trkpt>
      <trkpt lat="45.0446" lon="6.30376">
        <ele>1464.71</ele>
        <time>2017-06-24T07:48:32Z</time>
      </trkpt>
      <trkpt lat="45.04461" lon="6.30391">
        <ele>1462.78</ele>
        <time>2017-06-24T07:48:37Z</time>
      </trkpt>
      <trkpt lat="45.04455" lon="6.30385">
        <ele>1457.98</ele>
        <time>2017-06-24T07:48:45Z</time>
      </trkpt>
      <trkpt lat="45.04452" lon="6.30376">
        <ele>1452.21</ele>
        <time>2017-06-24T07:48:58Z</time>
      </trkpt>
      <trkpt lat="45.04449" lon="6.30394">
        <ele>1446.92</ele>
        <time>2017-06-24T07:49:08Z</time>
      </trkpt>
      <trkpt lat="45.04454" lon="6.30402">
        <ele>1447.88</ele>
        <time>2017-06-24T07:49:16Z</time>
      </trkpt>
      <trkpt lat="45.04458" lon="6.30408">
        <ele>1448.84</ele>
        <time>2017-06-24T07:49:23Z</time>
      </trkpt>
      <trkpt lat="45.04458" lon="6.30411">
        <ele>1448.36</ele>
        <time>2017-06-24T07:49:28Z</time>
      </trkpt>
      <trkpt lat="45.04458" lon="6.30418">
        <ele>1449.32</ele>
        <time>2017-06-24T07:49:36Z</time>
      </trkpt>
      <trkpt lat="45.04453" lon="6.30427">
        <ele>1448.36</ele>
        <time>2017-06-24T07:49:44Z</time>
      </trkpt>
      <trkpt lat="45.04451" lon="6.30422">
        <ele>1445.96</ele>
        <time>2017-06-24T07:49:51Z</time>
      </trkpt>
      <trkpt lat="45.04449" lon="6.3042">
        <ele>1443.56</ele>
        <time>2017-06-24T07:49:57Z</time>
      </trkpt>
      <trkpt lat="45.04439" lon="6.30412">
        <ele>1439.71</ele>
        <time>2017-06-24T07:50:04Z</time>
      </trkpt>
      <trkpt lat="45.04438" lon="6.30411">
        <ele>1439.23</ele>
        <time>2017-06-24T07:50:05Z</time>
      </trkpt>
      <trkpt lat="45.04432" lon="6.30405">
        <ele>1436.83</ele>
        <time>2017-06-24T07:50:10Z</time>
      </trkpt>
      <trkpt lat="45.04419" lon="6.30391">
        <ele>1433.94</ele>
        <time>2017-06-24T07:50:16Z</time>
      </trkpt>
      <trkpt lat="45.04406" lon="6.3039">
        <ele>1434.42</ele>
        <time>2017-06-24T07:50:22Z</time>
      </trkpt>
      <trkpt lat="45.04404" lon="6.30391">
        <ele>1434.42</ele>
        <time>2017-06-24T07:50:23Z</time>
      </trkpt>
      <trkpt lat="45.0439" lon="6.30391">
        <ele>1433.94</ele>
        <time>2017-06-24T07:50:29Z</time>
      </trkpt>
      <trkpt lat="45.04378" lon="6.30406">
        <ele>1432.5</ele>
        <time>2017-06-24T07:50:35Z</time>
      </trkpt>
      <trkpt lat="45.04376" lon="6.30409">
        <ele>1432.5</ele>
        <time>2017-06-24T07:50:36Z</time>
      </trkpt>
      <trkpt lat="45.04356" lon="6.30429">
        <ele>1432.5</ele>
        <time>2017-06-24T07:50:42Z</time>
      </trkpt>
      <trkpt lat="45.0434" lon="6.30436">
        <ele>1430.1</ele>
        <time>2017-06-24T07:50:48Z</time>
      </trkpt>
      <trkpt lat="45.04321" lon="6.3044">
        <ele>1430.58</ele>
        <time>2017-06-24T07:50:56Z</time>
      </trkpt>
      <trkpt lat="45.04314" lon="6.30442">
        <ele>1431.06</ele>
        <time>2017-06-24T07:50:59Z</time>
      </trkpt>
      <trkpt lat="45.04294" lon="6.30429">
        <ele>1428.66</ele>
        <time>2017-06-24T07:51:06Z</time>
      </trkpt>
      <trkpt lat="45.04281" lon="6.30424">
        <ele>1425.77</ele>
        <time>2017-06-24T07:51:12Z</time>
      </trkpt>
      <trkpt lat="45.04273" lon="6.30418">
        <ele>1424.81</ele>
        <time>2017-06-24T07:51:16Z</time>
      </trkpt>
      <trkpt lat="45.04262" lon="6.30408">
        <ele>1423.37</ele>
        <time>2017-06-24T07:51:22Z</time>
      </trkpt>
      <trkpt lat="45.04253" lon="6.30398">
        <ele>1420.97</ele>
        <time>2017-06-24T07:51:28Z</time>
      </trkpt>
      <trkpt lat="45.04244" lon="6.30385">
        <ele>1418.08</ele>
        <time>2017-06-24T07:51:34Z</time>
      </trkpt>
      <trkpt lat="45.04233" lon="6.30368">
        <ele>1415.2</ele>
        <time>2017-06-24T07:51:41Z</time>
      </trkpt>
      <trkpt lat="45.04223" lon="6.30343">
        <ele>1414.72</ele>
        <time>2017-06-24T07:51:48Z</time>
      </trkpt>
      <trkpt lat="45.04217" lon="6.30319">
        <ele>1416.16</ele>
        <time>2017-06-24T07:51:54Z</time>
      </trkpt>
      <trkpt lat="45.04216" lon="6.30294">
        <ele>1417.6</ele>
        <time>2017-06-24T07:52:00Z</time>
      </trkpt>
      <trkpt lat="45.04211" lon="6.30265">
        <ele>1418.08</ele>
        <time>2017-06-24T07:52:07Z</time>
      </trkpt>
      <trkpt lat="45.04201" lon="6.30245">
        <ele>1419.52</ele>
        <time>2017-06-24T07:52:13Z</time>
      </trkpt>
      <trkpt lat="45.04188" lon="6.3023">
        <ele>1420</ele>
        <time>2017-06-24T07:52:19Z</time>
      </trkpt>
      <trkpt lat="45.04182" lon="6.30212">
        <ele>1420.97</ele>
        <time>2017-06-24T07:52:26Z</time>
      </trkpt>
      <trkpt lat="45.04176" lon="6.30196">
        <ele>1421.45</ele>
        <time>2017-06-24T07:52:33Z</time>
      </trkpt>
      <trkpt lat="45.04168" lon="6.30176">
        <ele>1421.45</ele>
        <time>2017-06-24T07:52:39Z</time>
      </trkpt>
      <trkpt lat="45.04159" lon="6.30153">
        <ele>1421.93</ele>
        <time>2017-06-24T07:52:46Z</time>
      </trkpt>
      <trkpt lat="45.04151" lon="6.30128">
        <ele>1421.93</ele>
        <time>2017-06-24T07:52:53Z</time>
      </trkpt>
      <trkpt lat="45.04144" lon="6.30109">
        <ele>1420.97</ele>
        <time>2017-06-24T07:52:59Z</time>
      </trkpt>
      <trkpt lat="45.04136" lon="6.30095">
        <ele>1420.97</ele>
        <time>2017-06-24T07:53:04Z</time>
      </trkpt>
      <trkpt lat="45.04126" lon="6.30077">
        <ele>1420.49</ele>
        <time>2017-06-24T07:53:10Z</time>
      </trkpt>
      <trkpt lat="45.0412" lon="6.30052">
        <ele>1420.49</ele>
        <time>2017-06-24T07:53:17Z</time>
      </trkpt>
      <trkpt lat="45.04118" lon="6.30031">
        <ele>1420</ele>
        <time>2017-06-24T07:53:23Z</time>
      </trkpt>
      <trkpt lat="45.04113" lon="6.30009">
        <ele>1418.08</ele>
        <time>2017-06-24T07:53:30Z</time>
      </trkpt>
      <trkpt lat="45.04104" lon="6.29993">
        <ele>1415.2</ele>
        <time>2017-06-24T07:53:36Z</time>
      </trkpt>
      <trkpt lat="45.04097" lon="6.29978">
        <ele>1412.31</ele>
        <time>2017-06-24T07:53:42Z</time>
      </trkpt>
      <trkpt lat="45.04089" lon="6.29958">
        <ele>1409.43</ele>
        <time>2017-06-24T07:53:49Z</time>
      </trkpt>
      <trkpt lat="45.04086" lon="6.29939">
        <ele>1407.51</ele>
        <time>2017-06-24T07:53:55Z</time>
      </trkpt>
      <trkpt lat="45.04086" lon="6.29935">
        <ele>1407.51</ele>
        <time>2017-06-24T07:53:56Z</time>
      </trkpt>
      <trkpt lat="45.04085" lon="6.29922">
        <ele>1406.55</ele>
        <time>2017-06-24T07:54:00Z</time>
      </trkpt>
      <trkpt lat="45.04084" lon="6.29896">
        <ele>1406.55</ele>
        <time>2017-06-24T07:54:08Z</time>
      </trkpt>
      <trkpt lat="45.04084" lon="6.29893">
        <ele>1406.55</ele>
        <time>2017-06-24T07:54:09Z</time>
      </trkpt>
      <trkpt lat="45.04088" lon="6.29875">
        <ele>1408.95</ele>
        <time>2017-06-24T07:54:15Z</time>
      </trkpt>
      <trkpt lat="45.0409" lon="6.29857">
        <ele>1409.43</ele>
        <time>2017-06-24T07:54:22Z</time>
      </trkpt>
      <trkpt lat="45.04095" lon="6.29842">
        <ele>1409.43</ele>
        <time>2017-06-24T07:54:28Z</time>
      </trkpt>
      <trkpt lat="45.04095" lon="6.29837">
        <ele>1409.43</ele>
        <time>2017-06-24T07:54:30Z</time>
      </trkpt>
      <trkpt lat="45.04093" lon="6.2982">
        <ele>1408.95</ele>
        <time>2017-06-24T07:54:36Z</time>
      </trkpt>
      <trkpt lat="45.04093" lon="6.29816">
        <ele>1408.47</ele>
        <time>2017-06-24T07:54:37Z</time>
      </trkpt>
      <trkpt lat="45.04092" lon="6.29809">
        <ele>1408.47</ele>
        <time>2017-06-24T07:54:39Z</time>
      </trkpt>
      <trkpt lat="45.04092" lon="6.29786">
        <ele>1409.43</ele>
        <time>2017-06-24T07:54:47Z</time>
      </trkpt>
      <trkpt lat="45.04091" lon="6.29777">
        <ele>1409.43</ele>
        <time>2017-06-24T07:54:50Z</time>
      </trkpt>
      <trkpt lat="45.04093" lon="6.29757">
        <ele>1410.87</ele>
        <time>2017-06-24T07:54:58Z</time>
      </trkpt>
      <trkpt lat="45.04095" lon="6.29744">
        <ele>1410.39</ele>
        <time>2017-06-24T07:55:04Z</time>
      </trkpt>
      <trkpt lat="45.04099" lon="6.29727">
        <ele>1409.91</ele>
        <time>2017-06-24T07:55:09Z</time>
      </trkpt>
      <trkpt lat="45.04105" lon="6.297">
        <ele>1410.39</ele>
        <time>2017-06-24T07:55:17Z</time>
      </trkpt>
      <trkpt lat="45.04108" lon="6.29695">
        <ele>1409.91</ele>
        <time>2017-06-24T07:55:19Z</time>
      </trkpt>
      <trkpt lat="45.04114" lon="6.29677">
        <ele>1408.47</ele>
        <time>2017-06-24T07:55:26Z</time>
      </trkpt>
      <trkpt lat="45.04116" lon="6.29671">
        <ele>1407.99</ele>
        <time>2017-06-24T07:55:28Z</time>
      </trkpt>
      <trkpt lat="45.04128" lon="6.29647">
        <ele>1407.51</ele>
        <time>2017-06-24T07:55:35Z</time>
      </trkpt>
      <trkpt lat="45.0414" lon="6.29621">
        <ele>1408.47</ele>
        <time>2017-06-24T07:55:42Z</time>
      </trkpt>
      <trkpt lat="45.04148" lon="6.296">
        <ele>1410.87</ele>
        <time>2017-06-24T07:55:48Z</time>
      </trkpt>
      <trkpt lat="45.04154" lon="6.29578">
        <ele>1409.43</ele>
        <time>2017-06-24T07:55:55Z</time>
      </trkpt>
      <trkpt lat="45.04158" lon="6.29556">
        <ele>1407.51</ele>
        <time>2017-06-24T07:56:02Z</time>
      </trkpt>
      <trkpt lat="45.04161" lon="6.29533">
        <ele>1406.55</ele>
        <time>2017-06-24T07:56:09Z</time>
      </trkpt>
      <trkpt lat="45.04161" lon="6.29514">
        <ele>1407.51</ele>
        <time>2017-06-24T07:56:14Z</time>
      </trkpt>
      <trkpt lat="45.04157" lon="6.29493">
        <ele>1405.58</ele>
        <time>2017-06-24T07:56:21Z</time>
      </trkpt>
      <trkpt lat="45.04155" lon="6.29479">
        <ele>1402.7</ele>
        <time>2017-06-24T07:56:26Z</time>
      </trkpt>
      <trkpt lat="45.04155" lon="6.29458">
        <ele>1399.82</ele>
        <time>2017-06-24T07:56:32Z</time>
      </trkpt>
      <trkpt lat="45.04155" lon="6.29439">
        <ele>1395.49</ele>
        <time>2017-06-24T07:56:38Z</time>
      </trkpt>
      <trkpt lat="45.04155" lon="6.29433">
        <ele>1394.53</ele>
        <time>2017-06-24T07:56:40Z</time>
      </trkpt>
      <trkpt lat="45.04155" lon="6.29426">
        <ele>1393.57</ele>
        <time>2017-06-24T07:56:42Z</time>
      </trkpt>
      <trkpt lat="45.04159" lon="6.29398">
        <ele>1392.61</ele>
        <time>2017-06-24T07:56:50Z</time>
      </trkpt>
      <trkpt lat="45.04163" lon="6.29371">
        <ele>1391.17</ele>
        <time>2017-06-24T07:56:58Z</time>
      </trkpt>
      <trkpt lat="45.04168" lon="6.29349">
        <ele>1391.65</ele>
        <time>2017-06-24T07:57:04Z</time>
      </trkpt>
      <trkpt lat="45.04169" lon="6.29345">
        <ele>1392.13</ele>
        <time>2017-06-24T07:57:05Z</time>
      </trkpt>
      <trkpt lat="45.0417" lon="6.2932">
        <ele>1392.61</ele>
        <time>2017-06-24T07:57:13Z</time>
      </trkpt>
      <trkpt lat="45.0417" lon="6.29296">
        <ele>1391.17</ele>
        <time>2017-06-24T07:57:20Z</time>
      </trkpt>
      <trkpt lat="45.04173" lon="6.29275">
        <ele>1390.68</ele>
        <time>2017-06-24T07:57:26Z</time>
      </trkpt>
      <trkpt lat="45.0418" lon="6.29242">
        <ele>1391.65</ele>
        <time>2017-06-24T07:57:34Z</time>
      </trkpt>
      <trkpt lat="45.04185" lon="6.29211">
        <ele>1395.49</ele>
        <time>2017-06-24T07:57:41Z</time>
      </trkpt>
      <trkpt lat="45.04188" lon="6.29188">
        <ele>1398.37</ele>
        <time>2017-06-24T07:57:47Z</time>
      </trkpt>
      <trkpt lat="45.04188" lon="6.29168">
        <ele>1397.41</ele>
        <time>2017-06-24T07:57:53Z</time>
      </trkpt>
      <trkpt lat="45.04188" lon="6.29149">
        <ele>1395.97</ele>
        <time>2017-06-24T07:57:59Z</time>
      </trkpt>
      <trkpt lat="45.04184" lon="6.29126">
        <ele>1394.53</ele>
        <time>2017-06-24T07:58:06Z</time>
      </trkpt>
      <trkpt lat="45.04183" lon="6.291">
        <ele>1392.13</ele>
        <time>2017-06-24T07:58:13Z</time>
      </trkpt>
      <trkpt lat="45.04181" lon="6.2908">
        <ele>1390.68</ele>
        <time>2017-06-24T07:58:19Z</time>
      </trkpt>
      <trkpt lat="45.04178" lon="6.29061">
        <ele>1390.2</ele>
        <time>2017-06-24T07:58:25Z</time>
      </trkpt>
      <trkpt lat="45.04176" lon="6.29048">
        <ele>1389.72</ele>
        <time>2017-06-24T07:58:29Z</time>
      </trkpt>
      <trkpt lat="45.0417" lon="6.29025">
        <ele>1389.72</ele>
        <time>2017-06-24T07:58:36Z</time>
      </trkpt>
      <trkpt lat="45.04168" lon="6.29007">
        <ele>1389.72</ele>
        <time>2017-06-24T07:58:41Z</time>
      </trkpt>
      <trkpt lat="45.04166" lon="6.28985">
        <ele>1390.2</ele>
        <time>2017-06-24T07:58:47Z</time>
      </trkpt>
      <trkpt lat="45.04164" lon="6.28957">
        <ele>1391.65</ele>
        <time>2017-06-24T07:58:54Z</time>
      </trkpt>
      <trkpt lat="45.04163" lon="6.28936">
        <ele>1391.65</ele>
        <time>2017-06-24T07:59:00Z</time>
      </trkpt>
      <trkpt lat="45.04162" lon="6.28916">
        <ele>1391.17</ele>
        <time>2017-06-24T07:59:06Z</time>
      </trkpt>
      <trkpt lat="45.0416" lon="6.28892">
        <ele>1392.61</ele>
        <time>2017-06-24T07:59:13Z</time>
      </trkpt>
      <trkpt lat="45.04159" lon="6.28871">
        <ele>1393.57</ele>
        <time>2017-06-24T07:59:19Z</time>
      </trkpt>
      <trkpt lat="45.04158" lon="6.28851">
        <ele>1394.05</ele>
        <time>2017-06-24T07:59:25Z</time>
      </trkpt>
      <trkpt lat="45.04157" lon="6.28829">
        <ele>1394.53</ele>
        <time>2017-06-24T07:59:32Z</time>
      </trkpt>
      <trkpt lat="45.04155" lon="6.28807">
        <ele>1395.01</ele>
        <time>2017-06-24T07:59:39Z</time>
      </trkpt>
      <trkpt lat="45.04153" lon="6.28785">
        <ele>1395.01</ele>
        <time>2017-06-24T07:59:46Z</time>
      </trkpt>
      <trkpt lat="45.0415" lon="6.2876">
        <ele>1395.49</ele>
        <time>2017-06-24T07:59:54Z</time>
      </trkpt>
      <trkpt lat="45.04148" lon="6.28742">
        <ele>1395.49</ele>
        <time>2017-06-24T08:00:00Z</time>
      </trkpt>
      <trkpt lat="45.04146" lon="6.28729">
        <ele>1395.01</ele>
        <time>2017-06-24T08:00:04Z</time>
      </trkpt>
      <trkpt lat="45.04142" lon="6.28716">
        <ele>1393.57</ele>
        <time>2017-06-24T08:00:09Z</time>
      </trkpt>
      <trkpt lat="45.04139" lon="6.28696">
        <ele>1389.72</ele>
        <time>2017-06-24T08:00:16Z</time>
      </trkpt>
      <trkpt lat="45.0414" lon="6.2867">
        <ele>1387.8</ele>
        <time>2017-06-24T08:00:23Z</time>
      </trkpt>
      <trkpt lat="45.04143" lon="6.2865">
        <ele>1387.32</ele>
        <time>2017-06-24T08:00:29Z</time>
      </trkpt>
      <trkpt lat="45.04144" lon="6.28625">
        <ele>1387.32</ele>
        <time>2017-06-24T08:00:36Z</time>
      </trkpt>
      <trkpt lat="45.04144" lon="6.28606">
        <ele>1387.32</ele>
        <time>2017-06-24T08:00:42Z</time>
      </trkpt>
      <trkpt lat="45.04145" lon="6.28595">
        <ele>1386.84</ele>
        <time>2017-06-24T08:00:45Z</time>
      </trkpt>
      <trkpt lat="45.04144" lon="6.2857">
        <ele>1387.32</ele>
        <time>2017-06-24T08:00:52Z</time>
      </trkpt>
      <trkpt lat="45.04142" lon="6.2855">
        <ele>1386.36</ele>
        <time>2017-06-24T08:00:58Z</time>
      </trkpt>
      <trkpt lat="45.04139" lon="6.28526">
        <ele>1386.36</ele>
        <time>2017-06-24T08:01:05Z</time>
      </trkpt>
      <trkpt lat="45.04136" lon="6.28506">
        <ele>1386.84</ele>
        <time>2017-06-24T08:01:11Z</time>
      </trkpt>
      <trkpt lat="45.04135" lon="6.28483">
        <ele>1386.84</ele>
        <time>2017-06-24T08:01:19Z</time>
      </trkpt>
      <trkpt lat="45.04138" lon="6.28462">
        <ele>1386.36</ele>
        <time>2017-06-24T08:01:26Z</time>
      </trkpt>
      <trkpt lat="45.04139" lon="6.28438">
        <ele>1382.99</ele>
        <time>2017-06-24T08:01:34Z</time>
      </trkpt>
      <trkpt lat="45.04141" lon="6.28414">
        <ele>1377.71</ele>
        <time>2017-06-24T08:01:42Z</time>
      </trkpt>
      <trkpt lat="45.04147" lon="6.28392">
        <ele>1376.75</ele>
        <time>2017-06-24T08:01:49Z</time>
      </trkpt>
      <trkpt lat="45.04154" lon="6.28378">
        <ele>1375.78</ele>
        <time>2017-06-24T08:01:57Z</time>
      </trkpt>
      <trkpt lat="45.04158" lon="6.28374">
        <ele>1377.71</ele>
        <time>2017-06-24T08:02:06Z</time>
      </trkpt>
      <trkpt lat="45.04158" lon="6.28368">
        <ele>1377.23</ele>
        <time>2017-06-24T08:02:13Z</time>
      </trkpt>
      <trkpt lat="45.04158" lon="6.28362">
        <ele>1375.78</ele>
        <time>2017-06-24T08:02:21Z</time>
      </trkpt>
      <trkpt lat="45.04156" lon="6.28353">
        <ele>1375.3</ele>
        <time>2017-06-24T08:02:28Z</time>
      </trkpt>
      <trkpt lat="45.0416" lon="6.28342">
        <ele>1376.75</ele>
        <time>2017-06-24T08:02:36Z</time>
      </trkpt>
      <trkpt lat="45.04162" lon="6.28332">
        <ele>1379.63</ele>
        <time>2017-06-24T08:02:45Z</time>
      </trkpt>
      <trkpt lat="45.04162" lon="6.2833">
        <ele>1379.63</ele>
        <time>2017-06-24T08:02:54Z</time>
      </trkpt>
      <trkpt lat="45.04163" lon="6.28328">
        <ele>1379.15</ele>
        <time>2017-06-24T08:03:03Z</time>
      </trkpt>
      <trkpt lat="45.04164" lon="6.28328">
        <ele>1379.15</ele>
        <time>2017-06-24T08:03:13Z</time>
      </trkpt>
      <trkpt lat="45.04164" lon="6.28328">
        <ele>1378.67</ele>
        <time>2017-06-24T08:03:25Z</time>
      </trkpt>
      <trkpt lat="45.04163" lon="6.28328">
        <ele>1378.67</ele>
        <time>2017-06-24T08:03:31Z</time>
      </trkpt>
      <trkpt lat="45.04163" lon="6.28327">
        <ele>1379.15</ele>
        <time>2017-06-24T08:03:43Z</time>
      </trkpt>
      <trkpt lat="45.04164" lon="6.28325">
        <ele>1378.67</ele>
        <time>2017-06-24T08:03:55Z</time>
      </trkpt>
      <trkpt lat="45.04166" lon="6.28326">
        <ele>1378.67</ele>
        <time>2017-06-24T08:04:08Z</time>
      </trkpt>
      <trkpt lat="45.04167" lon="6.28325">
        <ele>1378.67</ele>
        <time>2017-06-24T08:04:19Z</time>
      </trkpt>
      <trkpt lat="45.04167" lon="6.28325">
        <ele>1378.67</ele>
        <time>2017-06-24T08:04:22Z</time>
      </trkpt>
      <trkpt lat="45.04168" lon="6.28324">
        <ele>1377.23</ele>
        <time>2017-06-24T08:04:29Z</time>
      </trkpt>
      <trkpt lat="45.04167" lon="6.28325">
        <ele>1377.23</ele>
        <time>2017-06-24T08:04:35Z</time>
      </trkpt>
      <trkpt lat="45.04168" lon="6.28324">
        <ele>1376.75</ele>
        <time>2017-06-24T08:04:48Z</time>
      </trkpt>
      <trkpt lat="45.04169" lon="6.28324">
        <ele>1375.78</ele>
        <time>2017-06-24T08:05:04Z</time>
      </trkpt>
      <trkpt lat="45.0417" lon="6.28323">
        <ele>1376.26</ele>
        <time>2017-06-24T08:05:13Z</time>
      </trkpt>
      <trkpt lat="45.0417" lon="6.28323">
        <ele>1376.26</ele>
        <time>2017-06-24T08:05:22Z</time>
      </trkpt>
      <trkpt lat="45.0417" lon="6.28323">
        <ele>1376.75</ele>
        <time>2017-06-24T08:05:31Z</time>
      </trkpt>
      <trkpt lat="45.04168" lon="6.28319">
        <ele>1376.26</ele>
        <time>2017-06-24T08:05:38Z</time>
      </trkpt>
      <trkpt lat="45.0417" lon="6.2831">
        <ele>1376.26</ele>
        <time>2017-06-24T08:05:45Z</time>
      </trkpt>
      <trkpt lat="45.04171" lon="6.28303">
        <ele>1376.26</ele>
        <time>2017-06-24T08:05:49Z</time>
      </trkpt>
      <trkpt lat="45.04173" lon="6.28294">
        <ele>1375.3</ele>
        <time>2017-06-24T08:05:57Z</time>
      </trkpt>
      <trkpt lat="45.04176" lon="6.28283">
        <ele>1375.3</ele>
        <time>2017-06-24T08:06:05Z</time>
      </trkpt>
      <trkpt lat="45.04178" lon="6.28273">
        <ele>1376.75</ele>
        <time>2017-06-24T08:06:12Z</time>
      </trkpt>
      <trkpt lat="45.04176" lon="6.28258">
        <ele>1375.78</ele>
        <time>2017-06-24T08:06:23Z</time>
      </trkpt>
      <trkpt lat="45.04175" lon="6.28256">
        <ele>1375.78</ele>
        <time>2017-06-24T08:06:25Z</time>
      </trkpt>
      <trkpt lat="45.04173" lon="6.28249">
        <ele>1373.38</ele>
        <time>2017-06-24T08:06:33Z</time>
      </trkpt>
      <trkpt lat="45.04176" lon="6.2824">
        <ele>1371.94</ele>
        <time>2017-06-24T08:06:40Z</time>
      </trkpt>
      <trkpt lat="45.0418" lon="6.28229">
        <ele>1372.42</ele>
        <time>2017-06-24T08:06:47Z</time>
      </trkpt>
      <trkpt lat="45.04185" lon="6.28218">
        <ele>1372.9</ele>
        <time>2017-06-24T08:06:54Z</time>
      </trkpt>
      <trkpt lat="45.04189" lon="6.28206">
        <ele>1373.86</ele>
        <time>2017-06-24T08:07:02Z</time>
      </trkpt>
      <trkpt lat="45.04192" lon="6.28199">
        <ele>1376.26</ele>
        <time>2017-06-24T08:07:08Z</time>
      </trkpt>
      <trkpt lat="45.04194" lon="6.28197">
        <ele>1376.26</ele>
        <time>2017-06-24T08:07:16Z</time>
      </trkpt>
      <trkpt lat="45.04194" lon="6.28194">
        <ele>1376.75</ele>
        <time>2017-06-24T08:07:18Z</time>
      </trkpt>
      <trkpt lat="45.04194" lon="6.2818">
        <ele>1376.75</ele>
        <time>2017-06-24T08:07:26Z</time>
      </trkpt>
      <trkpt lat="45.04195" lon="6.2817">
        <ele>1376.26</ele>
        <time>2017-06-24T08:07:33Z</time>
      </trkpt>
      <trkpt lat="45.04197" lon="6.28168">
        <ele>1376.26</ele>
        <time>2017-06-24T08:07:40Z</time>
      </trkpt>
      <trkpt lat="45.04194" lon="6.2817">
        <ele>1376.75</ele>
        <time>2017-06-24T08:07:50Z</time>
      </trkpt>
      <trkpt lat="45.04192" lon="6.28171">
        <ele>1376.75</ele>
        <time>2017-06-24T08:07:59Z</time>
      </trkpt>
      <trkpt lat="45.04191" lon="6.28169">
        <ele>1376.26</ele>
        <time>2017-06-24T08:08:07Z</time>
      </trkpt>
      <trkpt lat="45.0419" lon="6.28169">
        <ele>1376.75</ele>
        <time>2017-06-24T08:08:15Z</time>
      </trkpt>
      <trkpt lat="45.0419" lon="6.2817">
        <ele>1376.26</ele>
        <time>2017-06-24T08:08:21Z</time>
      </trkpt>
      <trkpt lat="45.0419" lon="6.28174">
        <ele>1376.26</ele>
        <time>2017-06-24T08:08:23Z</time>
      </trkpt>
      <trkpt lat="45.04186" lon="6.28194">
        <ele>1374.82</ele>
        <time>2017-06-24T08:08:28Z</time>
      </trkpt>
      <trkpt lat="45.04182" lon="6.2821">
        <ele>1373.86</ele>
        <time>2017-06-24T08:08:32Z</time>
      </trkpt>
      <trkpt lat="45.04178" lon="6.28223">
        <ele>1373.86</ele>
        <time>2017-06-24T08:08:35Z</time>
      </trkpt>
      <trkpt lat="45.04174" lon="6.28243">
        <ele>1374.34</ele>
        <time>2017-06-24T08:08:41Z</time>
      </trkpt>
      <trkpt lat="45.04171" lon="6.28267">
        <ele>1374.34</ele>
        <time>2017-06-24T08:08:48Z</time>
      </trkpt>
      <trkpt lat="45.04168" lon="6.28285">
        <ele>1373.86</ele>
        <time>2017-06-24T08:08:53Z</time>
      </trkpt>
      <trkpt lat="45.04165" lon="6.28307">
        <ele>1372.42</ele>
        <time>2017-06-24T08:08:59Z</time>
      </trkpt>
      <trkpt lat="45.0416" lon="6.28325">
        <ele>1370.5</ele>
        <time>2017-06-24T08:09:06Z</time>
      </trkpt>
      <trkpt lat="45.0416" lon="6.28324">
        <ele>1370.98</ele>
        <time>2017-06-24T08:09:07Z</time>
      </trkpt>
      <trkpt lat="45.04162" lon="6.28314">
        <ele>1372.42</ele>
        <time>2017-06-24T08:09:12Z</time>
      </trkpt>
      <trkpt lat="45.04158" lon="6.28301">
        <ele>1372.42</ele>
        <time>2017-06-24T08:09:18Z</time>
      </trkpt>
      <trkpt lat="45.04152" lon="6.28284">
        <ele>1372.9</ele>
        <time>2017-06-24T08:09:26Z</time>
      </trkpt>
      <trkpt lat="45.04151" lon="6.28268">
        <ele>1373.38</ele>
        <time>2017-06-24T08:09:31Z</time>
      </trkpt>
      <trkpt lat="45.04151" lon="6.28254">
        <ele>1373.86</ele>
        <time>2017-06-24T08:09:37Z</time>
      </trkpt>
      <trkpt lat="45.04152" lon="6.2824">
        <ele>1374.34</ele>
        <time>2017-06-24T08:09:42Z</time>
      </trkpt>
      <trkpt lat="45.04155" lon="6.28222">
        <ele>1373.86</ele>
        <time>2017-06-24T08:09:48Z</time>
      </trkpt>
      <trkpt lat="45.04157" lon="6.28205">
        <ele>1374.34</ele>
        <time>2017-06-24T08:09:53Z</time>
      </trkpt>
      <trkpt lat="45.04152" lon="6.28183">
        <ele>1374.34</ele>
        <time>2017-06-24T08:09:58Z</time>
      </trkpt>
      <trkpt lat="45.04152" lon="6.28179">
        <ele>1374.34</ele>
        <time>2017-06-24T08:09:59Z</time>
      </trkpt>
      <trkpt lat="45.0415" lon="6.2815">
        <ele>1374.82</ele>
        <time>2017-06-24T08:10:06Z</time>
      </trkpt>
      <trkpt lat="45.04151" lon="6.28128">
        <ele>1375.78</ele>
        <time>2017-06-24T08:10:12Z</time>
      </trkpt>
      <trkpt lat="45.04149" lon="6.28109">
        <ele>1376.26</ele>
        <time>2017-06-24T08:10:18Z</time>
      </trkpt>
      <trkpt lat="45.04155" lon="6.28093">
        <ele>1376.75</ele>
        <time>2017-06-24T08:10:24Z</time>
      </trkpt>
      <trkpt lat="45.04156" lon="6.28086">
        <ele>1376.75</ele>
        <time>2017-06-24T08:10:26Z</time>
      </trkpt>
      <trkpt lat="45.04158" lon="6.28067">
        <ele>1377.23</ele>
        <time>2017-06-24T08:10:32Z</time>
      </trkpt>
      <trkpt lat="45.04158" lon="6.28064">
        <ele>1376.75</ele>
        <time>2017-06-24T08:10:33Z</time>
      </trkpt>
      <trkpt lat="45.04157" lon="6.28059">
        <ele>1376.75</ele>
        <time>2017-06-24T08:10:35Z</time>
      </trkpt>
      <trkpt lat="45.04157" lon="6.28052">
        <ele>1376.75</ele>
        <time>2017-06-24T08:10:38Z</time>
      </trkpt>
      <trkpt lat="45.04157" lon="6.28045">
        <ele>1376.75</ele>
        <time>2017-06-24T08:10:41Z</time>
      </trkpt>
      <trkpt lat="45.04154" lon="6.2803">
        <ele>1376.75</ele>
        <time>2017-06-24T08:10:48Z</time>
      </trkpt>
      <trkpt lat="45.04153" lon="6.28022">
        <ele>1378.19</ele>
        <time>2017-06-24T08:10:54Z</time>
      </trkpt>
      <trkpt lat="45.04151" lon="6.2802">
        <ele>1378.67</ele>
        <time>2017-06-24T08:10:56Z</time>
      </trkpt>
      <trkpt lat="45.04151" lon="6.28009">
        <ele>1380.11</ele>
        <time>2017-06-24T08:11:02Z</time>
      </trkpt>
      <trkpt lat="45.04152" lon="6.27995">
        <ele>1380.59</ele>
        <time>2017-06-24T08:11:10Z</time>
      </trkpt>
      <trkpt lat="45.04147" lon="6.27983">
        <ele>1381.55</ele>
        <time>2017-06-24T08:11:16Z</time>
      </trkpt>
      <trkpt lat="45.04146" lon="6.27978">
        <ele>1382.03</ele>
        <time>2017-06-24T08:11:20Z</time>
      </trkpt>
      <trkpt lat="45.04144" lon="6.27966">
        <ele>1383.96</ele>
        <time>2017-06-24T08:11:27Z</time>
      </trkpt>
      <trkpt lat="45.04144" lon="6.27953">
        <ele>1385.88</ele>
        <time>2017-06-24T08:11:35Z</time>
      </trkpt>
      <trkpt lat="45.04142" lon="6.27944">
        <ele>1387.8</ele>
        <time>2017-06-24T08:11:41Z</time>
      </trkpt>
      <trkpt lat="45.04137" lon="6.27939">
        <ele>1389.72</ele>
        <time>2017-06-24T08:11:46Z</time>
      </trkpt>
      <trkpt lat="45.04136" lon="6.27929">
        <ele>1388.76</ele>
        <time>2017-06-24T08:11:53Z</time>
      </trkpt>
      <trkpt lat="45.04135" lon="6.27926">
        <ele>1388.28</ele>
        <time>2017-06-24T08:11:55Z</time>
      </trkpt>
      <trkpt lat="45.04136" lon="6.27915">
        <ele>1389.72</ele>
        <time>2017-06-24T08:12:04Z</time>
      </trkpt>
      <trkpt lat="45.04139" lon="6.27906">
        <ele>1391.17</ele>
        <time>2017-06-24T08:12:10Z</time>
      </trkpt>
      <trkpt lat="45.04137" lon="6.279">
        <ele>1391.65</ele>
        <time>2017-06-24T08:12:15Z</time>
      </trkpt>
      <trkpt lat="45.04133" lon="6.27885">
        <ele>1393.09</ele>
        <time>2017-06-24T08:12:22Z</time>
      </trkpt>
      <trkpt lat="45.04132" lon="6.27883">
        <ele>1393.09</ele>
        <time>2017-06-24T08:12:23Z</time>
      </trkpt>
      <trkpt lat="45.04128" lon="6.27877">
        <ele>1395.01</ele>
        <time>2017-06-24T08:12:30Z</time>
      </trkpt>
      <trkpt lat="45.04127" lon="6.2787">
        <ele>1396.93</ele>
        <time>2017-06-24T08:12:38Z</time>
      </trkpt>
      <trkpt lat="45.04122" lon="6.2786">
        <ele>1399.82</ele>
        <time>2017-06-24T08:12:45Z</time>
      </trkpt>
      <trkpt lat="45.04121" lon="6.2786">
        <ele>1399.82</ele>
        <time>2017-06-24T08:12:46Z</time>
      </trkpt>
      <trkpt lat="45.04115" lon="6.27854">
        <ele>1400.78</ele>
        <time>2017-06-24T08:12:52Z</time>
      </trkpt>
      <trkpt lat="45.04108" lon="6.27851">
        <ele>1401.74</ele>
        <time>2017-06-24T08:13:00Z</time>
      </trkpt>
      <trkpt lat="45.04104" lon="6.27846">
        <ele>1402.22</ele>
        <time>2017-06-24T08:13:07Z</time>
      </trkpt>
      <trkpt lat="45.041" lon="6.27844">
        <ele>1402.7</ele>
        <time>2017-06-24T08:13:12Z</time>
      </trkpt>
      <trkpt lat="45.04097" lon="6.27839">
        <ele>1403.18</ele>
        <time>2017-06-24T08:13:19Z</time>
      </trkpt>
      <trkpt lat="45.04096" lon="6.27834">
        <ele>1404.14</ele>
        <time>2017-06-24T08:13:26Z</time>
      </trkpt>
      <trkpt lat="45.04094" lon="6.27831">
        <ele>1404.62</ele>
        <time>2017-06-24T08:13:35Z</time>
      </trkpt>
      <trkpt lat="45.04087" lon="6.27823">
        <ele>1406.55</ele>
        <time>2017-06-24T08:13:42Z</time>
      </trkpt>
      <trkpt lat="45.04085" lon="6.27816">
        <ele>1410.87</ele>
        <time>2017-06-24T08:13:47Z</time>
      </trkpt>
      <trkpt lat="45.04083" lon="6.27809">
        <ele>1411.83</ele>
        <time>2017-06-24T08:13:54Z</time>
      </trkpt>
      <trkpt lat="45.04082" lon="6.27806">
        <ele>1411.35</ele>
        <time>2017-06-24T08:14:00Z</time>
      </trkpt>
      <trkpt lat="45.04081" lon="6.27805">
        <ele>1412.79</ele>
        <time>2017-06-24T08:14:06Z</time>
      </trkpt>
      <trkpt lat="45.04077" lon="6.27803">
        <ele>1412.31</ele>
        <time>2017-06-24T08:14:12Z</time>
      </trkpt>
      <trkpt lat="45.04071" lon="6.27803">
        <ele>1416.64</ele>
        <time>2017-06-24T08:14:18Z</time>
      </trkpt>
      <trkpt lat="45.04068" lon="6.27801">
        <ele>1417.12</ele>
        <time>2017-06-24T08:14:22Z</time>
      </trkpt>
      <trkpt lat="45.0406" lon="6.27795">
        <ele>1421.45</ele>
        <time>2017-06-24T08:14:31Z</time>
      </trkpt>
      <trkpt lat="45.04047" lon="6.27783">
        <ele>1432.02</ele>
        <time>2017-06-24T08:14:39Z</time>
      </trkpt>
      <trkpt lat="45.04043" lon="6.27778">
        <ele>1436.83</ele>
        <time>2017-06-24T08:14:45Z</time>
      </trkpt>
      <trkpt lat="45.04036" lon="6.2777">
        <ele>1443.08</ele>
        <time>2017-06-24T08:14:53Z</time>
      </trkpt>
      <trkpt lat="45.04034" lon="6.27766">
        <ele>1445.48</ele>
        <time>2017-06-24T08:14:59Z</time>
      </trkpt>
      <trkpt lat="45.04032" lon="6.2776">
        <ele>1448.84</ele>
        <time>2017-06-24T08:15:06Z</time>
      </trkpt>
      <trkpt lat="45.04031" lon="6.2775">
        <ele>1454.61</ele>
        <time>2017-06-24T08:15:13Z</time>
      </trkpt>
      <trkpt lat="45.04029" lon="6.27743">
        <ele>1457.98</ele>
        <time>2017-06-24T08:15:19Z</time>
      </trkpt>
      <trkpt lat="45.04028" lon="6.27739">
        <ele>1458.94</ele>
        <time>2017-06-24T08:15:21Z</time>
      </trkpt>
      <trkpt lat="45.04024" lon="6.2773">
        <ele>1461.34</ele>
        <time>2017-06-24T08:15:29Z</time>
      </trkpt>
      <trkpt lat="45.04022" lon="6.27725">
        <ele>1465.19</ele>
        <time>2017-06-24T08:15:35Z</time>
      </trkpt>
      <trkpt lat="45.04018" lon="6.27715">
        <ele>1472.88</ele>
        <time>2017-06-24T08:15:41Z</time>
      </trkpt>
      <trkpt lat="45.04014" lon="6.27709">
        <ele>1476.72</ele>
        <time>2017-06-24T08:15:48Z</time>
      </trkpt>
      <trkpt lat="45.04007" lon="6.27715">
        <ele>1480.09</ele>
        <time>2017-06-24T08:15:55Z</time>
      </trkpt>
      <trkpt lat="45.04" lon="6.27721">
        <ele>1482.01</ele>
        <time>2017-06-24T08:16:03Z</time>
      </trkpt>
      <trkpt lat="45.03993" lon="6.27725">
        <ele>1482.97</ele>
        <time>2017-06-24T08:16:10Z</time>
      </trkpt>
      <trkpt lat="45.03991" lon="6.27726">
        <ele>1483.45</ele>
        <time>2017-06-24T08:16:15Z</time>
      </trkpt>
      <trkpt lat="45.03988" lon="6.27716">
        <ele>1485.85</ele>
        <time>2017-06-24T08:16:22Z</time>
      </trkpt>
      <trkpt lat="45.03986" lon="6.27716">
        <ele>1487.78</ele>
        <time>2017-06-24T08:16:29Z</time>
      </trkpt>
      <trkpt lat="45.03982" lon="6.27716">
        <ele>1489.7</ele>
        <time>2017-06-24T08:16:35Z</time>
      </trkpt>
      <trkpt lat="45.03978" lon="6.27715">
        <ele>1490.18</ele>
        <time>2017-06-24T08:16:41Z</time>
      </trkpt>
      <trkpt lat="45.03972" lon="6.27715">
        <ele>1493.06</ele>
        <time>2017-06-24T08:16:48Z</time>
      </trkpt>
      <trkpt lat="45.03966" lon="6.27717">
        <ele>1496.43</ele>
        <time>2017-06-24T08:16:54Z</time>
      </trkpt>
      <trkpt lat="45.03961" lon="6.27724">
        <ele>1496.91</ele>
        <time>2017-06-24T08:16:59Z</time>
      </trkpt>
      <trkpt lat="45.03957" lon="6.27729">
        <ele>1497.87</ele>
        <time>2017-06-24T08:17:07Z</time>
      </trkpt>
      <trkpt lat="45.03957" lon="6.27729">
        <ele>1498.35</ele>
        <time>2017-06-24T08:17:14Z</time>
      </trkpt>
      <trkpt lat="45.03955" lon="6.27732">
        <ele>1499.31</ele>
        <time>2017-06-24T08:17:22Z</time>
      </trkpt>
      <trkpt lat="45.03954" lon="6.2773">
        <ele>1500.76</ele>
        <time>2017-06-24T08:17:29Z</time>
      </trkpt>
      <trkpt lat="45.03952" lon="6.27723">
        <ele>1501.24</ele>
        <time>2017-06-24T08:17:36Z</time>
      </trkpt>
      <trkpt lat="45.03949" lon="6.27717">
        <ele>1503.64</ele>
        <time>2017-06-24T08:17:42Z</time>
      </trkpt>
      <trkpt lat="45.03946" lon="6.27718">
        <ele>1505.56</ele>
        <time>2017-06-24T08:17:48Z</time>
      </trkpt>
      <trkpt lat="45.03943" lon="6.2772">
        <ele>1506.04</ele>
        <time>2017-06-24T08:17:54Z</time>
      </trkpt>
      <trkpt lat="45.03941" lon="6.27721">
        <ele>1506.52</ele>
        <time>2017-06-24T08:17:56Z</time>
      </trkpt>
      <trkpt lat="45.03933" lon="6.27732">
        <ele>1508.45</ele>
        <time>2017-06-24T08:18:04Z</time>
      </trkpt>
      <trkpt lat="45.03929" lon="6.27738">
        <ele>1508.93</ele>
        <time>2017-06-24T08:18:09Z</time>
      </trkpt>
      <trkpt lat="45.03926" lon="6.27746">
        <ele>1509.89</ele>
        <time>2017-06-24T08:18:15Z</time>
      </trkpt>
      <trkpt lat="45.03927" lon="6.27748">
        <ele>1512.29</ele>
        <time>2017-06-24T08:18:22Z</time>
      </trkpt>
      <trkpt lat="45.03927" lon="6.27747">
        <ele>1512.77</ele>
        <time>2017-06-24T08:18:24Z</time>
      </trkpt>
      <trkpt lat="45.03928" lon="6.2774">
        <ele>1513.73</ele>
        <time>2017-06-24T08:18:30Z</time>
      </trkpt>
      <trkpt lat="45.03925" lon="6.27733">
        <ele>1515.18</ele>
        <time>2017-06-24T08:18:37Z</time>
      </trkpt>
      <trkpt lat="45.03923" lon="6.27726">
        <ele>1514.69</ele>
        <time>2017-06-24T08:18:45Z</time>
      </trkpt>
      <trkpt lat="45.03916" lon="6.2772">
        <ele>1519.98</ele>
        <time>2017-06-24T08:18:51Z</time>
      </trkpt>
      <trkpt lat="45.03914" lon="6.27723">
        <ele>1521.42</ele>
        <time>2017-06-24T08:18:54Z</time>
      </trkpt>
      <trkpt lat="45.03909" lon="6.27738">
        <ele>1521.9</ele>
        <time>2017-06-24T08:19:02Z</time>
      </trkpt>
      <trkpt lat="45.03907" lon="6.2775">
        <ele>1524.79</ele>
        <time>2017-06-24T08:19:09Z</time>
      </trkpt>
      <trkpt lat="45.03906" lon="6.27757">
        <ele>1526.71</ele>
        <time>2017-06-24T08:19:16Z</time>
      </trkpt>
      <trkpt lat="45.03905" lon="6.27764">
        <ele>1526.71</ele>
        <time>2017-06-24T08:19:20Z</time>
      </trkpt>
      <trkpt lat="45.03901" lon="6.27775">
        <ele>1527.19</ele>
        <time>2017-06-24T08:19:26Z</time>
      </trkpt>
      <trkpt lat="45.03899" lon="6.27784">
        <ele>1529.11</ele>
        <time>2017-06-24T08:19:33Z</time>
      </trkpt>
      <trkpt lat="45.03896" lon="6.27795">
        <ele>1530.08</ele>
        <time>2017-06-24T08:19:40Z</time>
      </trkpt>
      <trkpt lat="45.03895" lon="6.27801">
        <ele>1531.52</ele>
        <time>2017-06-24T08:19:47Z</time>
      </trkpt>
      <trkpt lat="45.0389" lon="6.27809">
        <ele>1532.96</ele>
        <time>2017-06-24T08:19:53Z</time>
      </trkpt>
      <trkpt lat="45.03888" lon="6.27813">
        <ele>1533.92</ele>
        <time>2017-06-24T08:19:58Z</time>
      </trkpt>
      <trkpt lat="45.03886" lon="6.27823">
        <ele>1535.84</ele>
        <time>2017-06-24T08:20:06Z</time>
      </trkpt>
      <trkpt lat="45.03886" lon="6.27821">
        <ele>1538.25</ele>
        <time>2017-06-24T08:20:11Z</time>
      </trkpt>
      <trkpt lat="45.03891" lon="6.2781">
        <ele>1543.05</ele>
        <time>2017-06-24T08:20:18Z</time>
      </trkpt>
      <trkpt lat="45.03892" lon="6.27807">
        <ele>1544.01</ele>
        <time>2017-06-24T08:20:20Z</time>
      </trkpt>
      <trkpt lat="45.03892" lon="6.278">
        <ele>1546.9</ele>
        <time>2017-06-24T08:20:26Z</time>
      </trkpt>
      <trkpt lat="45.0389" lon="6.27796">
        <ele>1547.38</ele>
        <time>2017-06-24T08:20:32Z</time>
      </trkpt>
      <trkpt lat="45.0389" lon="6.27785">
        <ele>1548.34</ele>
        <time>2017-06-24T08:20:39Z</time>
      </trkpt>
      <trkpt lat="45.03891" lon="6.27777">
        <ele>1552.19</ele>
        <time>2017-06-24T08:20:47Z</time>
      </trkpt>
      <trkpt lat="45.03889" lon="6.27769">
        <ele>1554.11</ele>
        <time>2017-06-24T08:20:54Z</time>
      </trkpt>
      <trkpt lat="45.03886" lon="6.27763">
        <ele>1555.55</ele>
        <time>2017-06-24T08:21:00Z</time>
      </trkpt>
      <trkpt lat="45.03885" lon="6.27754">
        <ele>1559.88</ele>
        <time>2017-06-24T08:21:09Z</time>
      </trkpt>
      <trkpt lat="45.03883" lon="6.27747">
        <ele>1561.32</ele>
        <time>2017-06-24T08:21:16Z</time>
      </trkpt>
      <trkpt lat="45.03882" lon="6.27741">
        <ele>1561.8</ele>
        <time>2017-06-24T08:21:20Z</time>
      </trkpt>
      <trkpt lat="45.03879" lon="6.27737">
        <ele>1564.2</ele>
        <time>2017-06-24T08:21:28Z</time>
      </trkpt>
      <trkpt lat="45.03871" lon="6.27742">
        <ele>1565.64</ele>
        <time>2017-06-24T08:21:34Z</time>
      </trkpt>
      <trkpt lat="45.03866" lon="6.27754">
        <ele>1567.57</ele>
        <time>2017-06-24T08:21:41Z</time>
      </trkpt>
      <trkpt lat="45.03866" lon="6.2776">
        <ele>1568.53</ele>
        <time>2017-06-24T08:21:45Z</time>
      </trkpt>
      <trkpt lat="45.03862" lon="6.27769">
        <ele>1571.41</ele>
        <time>2017-06-24T08:21:52Z</time>
      </trkpt>
      <trkpt lat="45.0386" lon="6.27775">
        <ele>1572.85</ele>
        <time>2017-06-24T08:21:57Z</time>
      </trkpt>
      <trkpt lat="45.03859" lon="6.27779">
        <ele>1573.82</ele>
        <time>2017-06-24T08:22:03Z</time>
      </trkpt>
      <trkpt lat="45.03858" lon="6.27779">
        <ele>1574.3</ele>
        <time>2017-06-24T08:22:08Z</time>
      </trkpt>
      <trkpt lat="45.03858" lon="6.27773">
        <ele>1575.26</ele>
        <time>2017-06-24T08:22:14Z</time>
      </trkpt>
      <trkpt lat="45.03858" lon="6.27764">
        <ele>1575.26</ele>
        <time>2017-06-24T08:22:20Z</time>
      </trkpt>
      <trkpt lat="45.0386" lon="6.27756">
        <ele>1576.7</ele>
        <time>2017-06-24T08:22:26Z</time>
      </trkpt>
      <trkpt lat="45.0386" lon="6.27749">
        <ele>1576.22</ele>
        <time>2017-06-24T08:22:34Z</time>
      </trkpt>
      <trkpt lat="45.03855" lon="6.27744">
        <ele>1573.82</ele>
        <time>2017-06-24T08:22:42Z</time>
      </trkpt>
      <trkpt lat="45.03852" lon="6.27743">
        <ele>1572.37</ele>
        <time>2017-06-24T08:22:46Z</time>
      </trkpt>
      <trkpt lat="45.03847" lon="6.27741">
        <ele>1570.45</ele>
        <time>2017-06-24T08:22:53Z</time>
      </trkpt>
      <trkpt lat="45.03843" lon="6.27741">
        <ele>1569.97</ele>
        <time>2017-06-24T08:23:01Z</time>
      </trkpt>
      <trkpt lat="45.03838" lon="6.27735">
        <ele>1569.97</ele>
        <time>2017-06-24T08:23:08Z</time>
      </trkpt>
      <trkpt lat="45.03836" lon="6.27734">
        <ele>1570.45</ele>
        <time>2017-06-24T08:23:16Z</time>
      </trkpt>
      <trkpt lat="45.03826" lon="6.27739">
        <ele>1580.06</ele>
        <time>2017-06-24T08:23:23Z</time>
      </trkpt>
      <trkpt lat="45.03822" lon="6.27747">
        <ele>1588.24</ele>
        <time>2017-06-24T08:23:30Z</time>
      </trkpt>
      <trkpt lat="45.03823" lon="6.27749">
        <ele>1589.68</ele>
        <time>2017-06-24T08:23:32Z</time>
      </trkpt>
      <trkpt lat="45.03823" lon="6.27758">
        <ele>1592.08</ele>
        <time>2017-06-24T08:23:39Z</time>
      </trkpt>
      <trkpt lat="45.03821" lon="6.27757">
        <ele>1594</ele>
        <time>2017-06-24T08:23:45Z</time>
      </trkpt>
      <trkpt lat="45.03819" lon="6.27752">
        <ele>1594.96</ele>
        <time>2017-06-24T08:23:53Z</time>
      </trkpt>
      <trkpt lat="45.03816" lon="6.27748">
        <ele>1594.48</ele>
        <time>2017-06-24T08:23:59Z</time>
      </trkpt>
      <trkpt lat="45.03815" lon="6.27739">
        <ele>1593.52</ele>
        <time>2017-06-24T08:24:07Z</time>
      </trkpt>
      <trkpt lat="45.03812" lon="6.27732">
        <ele>1593.04</ele>
        <time>2017-06-24T08:24:15Z</time>
      </trkpt>
      <trkpt lat="45.0381" lon="6.27727">
        <ele>1593.04</ele>
        <time>2017-06-24T08:24:19Z</time>
      </trkpt>
      <trkpt lat="45.03807" lon="6.27719">
        <ele>1592.56</ele>
        <time>2017-06-24T08:24:26Z</time>
      </trkpt>
      <trkpt lat="45.03805" lon="6.27716">
        <ele>1592.08</ele>
        <time>2017-06-24T08:24:31Z</time>
      </trkpt>
      <trkpt lat="45.03804" lon="6.27712">
        <ele>1591.6</ele>
        <time>2017-06-24T08:24:38Z</time>
      </trkpt>
      <trkpt lat="45.03801" lon="6.27706">
        <ele>1592.08</ele>
        <time>2017-06-24T08:24:44Z</time>
      </trkpt>
      <trkpt lat="45.03798" lon="6.27702">
        <ele>1592.08</ele>
        <time>2017-06-24T08:24:50Z</time>
      </trkpt>
      <trkpt lat="45.03793" lon="6.27698">
        <ele>1592.08</ele>
        <time>2017-06-24T08:24:56Z</time>
      </trkpt>
      <trkpt lat="45.03794" lon="6.27708">
        <ele>1593.52</ele>
        <time>2017-06-24T08:25:04Z</time>
      </trkpt>
      <trkpt lat="45.03787" lon="6.27714">
        <ele>1599.77</ele>
        <time>2017-06-24T08:25:11Z</time>
      </trkpt>
      <trkpt lat="45.03775" lon="6.2772">
        <ele>1608.9</ele>
        <time>2017-06-24T08:25:18Z</time>
      </trkpt>
      <trkpt lat="45.03773" lon="6.27726">
        <ele>1613.23</ele>
        <time>2017-06-24T08:25:24Z</time>
      </trkpt>
      <trkpt lat="45.03772" lon="6.27734">
        <ele>1617.56</ele>
        <time>2017-06-24T08:25:31Z</time>
      </trkpt>
      <trkpt lat="45.03773" lon="6.27744">
        <ele>1621.4</ele>
        <time>2017-06-24T08:25:39Z</time>
      </trkpt>
      <trkpt lat="45.03776" lon="6.27754">
        <ele>1623.8</ele>
        <time>2017-06-24T08:25:46Z</time>
      </trkpt>
      <trkpt lat="45.03776" lon="6.27764">
        <ele>1626.69</ele>
        <time>2017-06-24T08:25:53Z</time>
      </trkpt>
      <trkpt lat="45.03778" lon="6.27776">
        <ele>1629.09</ele>
        <time>2017-06-24T08:26:03Z</time>
      </trkpt>
      <trkpt lat="45.03778" lon="6.27779">
        <ele>1630.05</ele>
        <time>2017-06-24T08:26:09Z</time>
      </trkpt>
      <trkpt lat="45.03776" lon="6.27771">
        <ele>1629.09</ele>
        <time>2017-06-24T08:26:15Z</time>
      </trkpt>
      <trkpt lat="45.03776" lon="6.2777">
        <ele>1629.09</ele>
        <time>2017-06-24T08:26:16Z</time>
      </trkpt>
      <trkpt lat="45.03772" lon="6.27763">
        <ele>1629.57</ele>
        <time>2017-06-24T08:26:22Z</time>
      </trkpt>
      <trkpt lat="45.03768" lon="6.27754">
        <ele>1631.01</ele>
        <time>2017-06-24T08:26:31Z</time>
      </trkpt>
      <trkpt lat="45.03765" lon="6.27751">
        <ele>1629.57</ele>
        <time>2017-06-24T08:26:39Z</time>
      </trkpt>
      <trkpt lat="45.03763" lon="6.27746">
        <ele>1630.05</ele>
        <time>2017-06-24T08:26:46Z</time>
      </trkpt>
      <trkpt lat="45.03761" lon="6.27739">
        <ele>1628.13</ele>
        <time>2017-06-24T08:26:53Z</time>
      </trkpt>
      <trkpt lat="45.03759" lon="6.27734">
        <ele>1625.73</ele>
        <time>2017-06-24T08:27:00Z</time>
      </trkpt>
      <trkpt lat="45.03757" lon="6.2773">
        <ele>1624.28</ele>
        <time>2017-06-24T08:27:08Z</time>
      </trkpt>
      <trkpt lat="45.03755" lon="6.27727">
        <ele>1622.36</ele>
        <time>2017-06-24T08:27:15Z</time>
      </trkpt>
      <trkpt lat="45.03754" lon="6.27716">
        <ele>1620.44</ele>
        <time>2017-06-24T08:27:22Z</time>
      </trkpt>
      <trkpt lat="45.03746" lon="6.27716">
        <ele>1620.44</ele>
        <time>2017-06-24T08:27:29Z</time>
      </trkpt>
      <trkpt lat="45.03742" lon="6.27716">
        <ele>1620.92</ele>
        <time>2017-06-24T08:27:36Z</time>
      </trkpt>
      <trkpt lat="45.03738" lon="6.27714">
        <ele>1620.92</ele>
        <time>2017-06-24T08:27:42Z</time>
      </trkpt>
      <trkpt lat="45.03737" lon="6.27716">
        <ele>1621.4</ele>
        <time>2017-06-24T08:27:50Z</time>
      </trkpt>
      <trkpt lat="45.03738" lon="6.27723">
        <ele>1622.84</ele>
        <time>2017-06-24T08:27:58Z</time>
      </trkpt>
      <trkpt lat="45.03741" lon="6.27731">
        <ele>1624.77</ele>
        <time>2017-06-24T08:28:04Z</time>
      </trkpt>
      <trkpt lat="45.03745" lon="6.27738">
        <ele>1625.73</ele>
        <time>2017-06-24T08:28:13Z</time>
      </trkpt>
      <trkpt lat="45.0374" lon="6.27747">
        <ele>1630.53</ele>
        <time>2017-06-24T08:28:21Z</time>
      </trkpt>
      <trkpt lat="45.03737" lon="6.27748">
        <ele>1631.98</ele>
        <time>2017-06-24T08:28:29Z</time>
      </trkpt>
      <trkpt lat="45.03731" lon="6.27743">
        <ele>1632.94</ele>
        <time>2017-06-24T08:28:36Z</time>
      </trkpt>
      <trkpt lat="45.03726" lon="6.2774">
        <ele>1632.94</ele>
        <time>2017-06-24T08:28:43Z</time>
      </trkpt>
      <trkpt lat="45.0372" lon="6.27738">
        <ele>1631.49</ele>
        <time>2017-06-24T08:28:49Z</time>
      </trkpt>
      <trkpt lat="45.03719" lon="6.27737">
        <ele>1630.53</ele>
        <time>2017-06-24T08:28:55Z</time>
      </trkpt>
      <trkpt lat="45.03715" lon="6.27736">
        <ele>1630.53</ele>
        <time>2017-06-24T08:29:02Z</time>
      </trkpt>
      <trkpt lat="45.03706" lon="6.27734">
        <ele>1629.57</ele>
        <time>2017-06-24T08:29:10Z</time>
      </trkpt>
      <trkpt lat="45.03704" lon="6.27731">
        <ele>1628.61</ele>
        <time>2017-06-24T08:29:17Z</time>
      </trkpt>
      <trkpt lat="45.03703" lon="6.27736">
        <ele>1628.13</ele>
        <time>2017-06-24T08:29:23Z</time>
      </trkpt>
      <trkpt lat="45.03705" lon="6.27738">
        <ele>1630.05</ele>
        <time>2017-06-24T08:29:30Z</time>
      </trkpt>
      <trkpt lat="45.03709" lon="6.27742">
        <ele>1631.01</ele>
        <time>2017-06-24T08:29:37Z</time>
      </trkpt>
      <trkpt lat="45.03708" lon="6.27746">
        <ele>1634.38</ele>
        <time>2017-06-24T08:29:44Z</time>
      </trkpt>
      <trkpt lat="45.03704" lon="6.27743">
        <ele>1634.86</ele>
        <time>2017-06-24T08:29:52Z</time>
      </trkpt>
      <trkpt lat="45.03701" lon="6.2774">
        <ele>1635.82</ele>
        <time>2017-06-24T08:29:58Z</time>
      </trkpt>
      <trkpt lat="45.03696" lon="6.27738">
        <ele>1639.67</ele>
        <time>2017-06-24T08:30:07Z</time>
      </trkpt>
      <trkpt lat="45.03695" lon="6.27741">
        <ele>1643.51</ele>
        <time>2017-06-24T08:30:13Z</time>
      </trkpt>
      <trkpt lat="45.03699" lon="6.27744">
        <ele>1643.99</ele>
        <time>2017-06-24T08:30:18Z</time>
      </trkpt>
      <trkpt lat="45.03702" lon="6.27755">
        <ele>1648.8</ele>
        <time>2017-06-24T08:30:27Z</time>
      </trkpt>
      <trkpt lat="45.03697" lon="6.27759">
        <ele>1651.68</ele>
        <time>2017-06-24T08:30:34Z</time>
      </trkpt>
      <trkpt lat="45.03695" lon="6.27759">
        <ele>1652.16</ele>
        <time>2017-06-24T08:30:35Z</time>
      </trkpt>
      <trkpt lat="45.03684" lon="6.27754">
        <ele>1653.6</ele>
        <time>2017-06-24T08:30:44Z</time>
      </trkpt>
      <trkpt lat="45.03683" lon="6.27753">
        <ele>1654.09</ele>
        <time>2017-06-24T08:30:45Z</time>
      </trkpt>
      <trkpt lat="45.03677" lon="6.2775">
        <ele>1655.53</ele>
        <time>2017-06-24T08:30:51Z</time>
      </trkpt>
      <trkpt lat="45.03673" lon="6.27747">
        <ele>1655.53</ele>
        <time>2017-06-24T08:31:00Z</time>
      </trkpt>
      <trkpt lat="45.03671" lon="6.27744">
        <ele>1656.49</ele>
        <time>2017-06-24T08:31:05Z</time>
      </trkpt>
      <trkpt lat="45.03666" lon="6.2774">
        <ele>1656.97</ele>
        <time>2017-06-24T08:31:12Z</time>
      </trkpt>
      <trkpt lat="45.03662" lon="6.27736">
        <ele>1656.49</ele>
        <time>2017-06-24T08:31:18Z</time>
      </trkpt>
      <trkpt lat="45.03661" lon="6.27736">
        <ele>1656.97</ele>
        <time>2017-06-24T08:31:23Z</time>
      </trkpt>
      <trkpt lat="45.03659" lon="6.27734">
        <ele>1658.41</ele>
        <time>2017-06-24T08:31:30Z</time>
      </trkpt>
      <trkpt lat="45.03652" lon="6.27729">
        <ele>1658.41</ele>
        <time>2017-06-24T08:31:39Z</time>
      </trkpt>
      <trkpt lat="45.03647" lon="6.27724">
        <ele>1659.37</ele>
        <time>2017-06-24T08:31:45Z</time>
      </trkpt>
      <trkpt lat="45.03642" lon="6.27723">
        <ele>1659.37</ele>
        <time>2017-06-24T08:31:51Z</time>
      </trkpt>
      <trkpt lat="45.03639" lon="6.2772">
        <ele>1658.89</ele>
        <time>2017-06-24T08:31:56Z</time>
      </trkpt>
      <trkpt lat="45.03636" lon="6.27718">
        <ele>1660.33</ele>
        <time>2017-06-24T08:32:02Z</time>
      </trkpt>
      <trkpt lat="45.03628" lon="6.27715">
        <ele>1669.47</ele>
        <time>2017-06-24T08:32:10Z</time>
      </trkpt>
      <trkpt lat="45.03629" lon="6.27713">
        <ele>1671.87</ele>
        <time>2017-06-24T08:32:16Z</time>
      </trkpt>
      <trkpt lat="45.0363" lon="6.27723">
        <ele>1672.35</ele>
        <time>2017-06-24T08:32:24Z</time>
      </trkpt>
      <trkpt lat="45.03629" lon="6.27726">
        <ele>1679.08</ele>
        <time>2017-06-24T08:32:32Z</time>
      </trkpt>
      <trkpt lat="45.03631" lon="6.27734">
        <ele>1682.93</ele>
        <time>2017-06-24T08:32:39Z</time>
      </trkpt>
      <trkpt lat="45.03634" lon="6.27742">
        <ele>1684.37</ele>
        <time>2017-06-24T08:32:45Z</time>
      </trkpt>
      <trkpt lat="45.03635" lon="6.27752">
        <ele>1684.37</ele>
        <time>2017-06-24T08:32:51Z</time>
      </trkpt>
      <trkpt lat="45.03642" lon="6.27768">
        <ele>1686.77</ele>
        <time>2017-06-24T08:33:01Z</time>
      </trkpt>
      <trkpt lat="45.03645" lon="6.27772">
        <ele>1687.73</ele>
        <time>2017-06-24T08:33:06Z</time>
      </trkpt>
      <trkpt lat="45.03641" lon="6.27773">
        <ele>1689.65</ele>
        <time>2017-06-24T08:33:14Z</time>
      </trkpt>
      <trkpt lat="45.03637" lon="6.27774">
        <ele>1691.1</ele>
        <time>2017-06-24T08:33:20Z</time>
      </trkpt>
      <trkpt lat="45.03629" lon="6.27768">
        <ele>1691.1</ele>
        <time>2017-06-24T08:33:28Z</time>
      </trkpt>
      <trkpt lat="45.03625" lon="6.27763">
        <ele>1689.65</ele>
        <time>2017-06-24T08:33:34Z</time>
      </trkpt>
      <trkpt lat="45.03619" lon="6.27763">
        <ele>1693.02</ele>
        <time>2017-06-24T08:33:40Z</time>
      </trkpt>
      <trkpt lat="45.0362" lon="6.27765">
        <ele>1693.98</ele>
        <time>2017-06-24T08:33:43Z</time>
      </trkpt>
      <trkpt lat="45.03622" lon="6.27773">
        <ele>1696.38</ele>
        <time>2017-06-24T08:33:52Z</time>
      </trkpt>
      <trkpt lat="45.03627" lon="6.2778">
        <ele>1699.27</ele>
        <time>2017-06-24T08:34:01Z</time>
      </trkpt>
      <trkpt lat="45.03631" lon="6.27786">
        <ele>1701.67</ele>
        <time>2017-06-24T08:34:08Z</time>
      </trkpt>
      <trkpt lat="45.03631" lon="6.27791">
        <ele>1706</ele>
        <time>2017-06-24T08:34:14Z</time>
      </trkpt>
      <trkpt lat="45.03626" lon="6.27788">
        <ele>1706.96</ele>
        <time>2017-06-24T08:34:22Z</time>
      </trkpt>
      <trkpt lat="45.03625" lon="6.27788">
        <ele>1706.96</ele>
        <time>2017-06-24T08:34:30Z</time>
      </trkpt>
      <trkpt lat="45.03629" lon="6.27793">
        <ele>1711.76</ele>
        <time>2017-06-24T08:34:37Z</time>
      </trkpt>
      <trkpt lat="45.03632" lon="6.27803">
        <ele>1713.69</ele>
        <time>2017-06-24T08:34:44Z</time>
      </trkpt>
      <trkpt lat="45.03636" lon="6.27813">
        <ele>1717.05</ele>
        <time>2017-06-24T08:34:50Z</time>
      </trkpt>
      <trkpt lat="45.03637" lon="6.27822">
        <ele>1719.46</ele>
        <time>2017-06-24T08:34:56Z</time>
      </trkpt>
      <trkpt lat="45.03638" lon="6.27829">
        <ele>1721.86</ele>
        <time>2017-06-24T08:35:01Z</time>
      </trkpt>
      <trkpt lat="45.03639" lon="6.27847">
        <ele>1722.82</ele>
        <time>2017-06-24T08:35:07Z</time>
      </trkpt>
      <trkpt lat="45.03642" lon="6.27856">
        <ele>1724.26</ele>
        <time>2017-06-24T08:35:14Z</time>
      </trkpt>
      <trkpt lat="45.03648" lon="6.27865">
        <ele>1725.22</ele>
        <time>2017-06-24T08:35:22Z</time>
      </trkpt>
      <trkpt lat="45.03649" lon="6.27868">
        <ele>1725.22</ele>
        <time>2017-06-24T08:35:25Z</time>
      </trkpt>
      <trkpt lat="45.03647" lon="6.27882">
        <ele>1726.67</ele>
        <time>2017-06-24T08:35:31Z</time>
      </trkpt>
      <trkpt lat="45.03644" lon="6.2789">
        <ele>1727.63</ele>
        <time>2017-06-24T08:35:36Z</time>
      </trkpt>
      <trkpt lat="45.03642" lon="6.27896">
        <ele>1727.63</ele>
        <time>2017-06-24T08:35:43Z</time>
      </trkpt>
      <trkpt lat="45.03641" lon="6.27898">
        <ele>1727.63</ele>
        <time>2017-06-24T08:35:45Z</time>
      </trkpt>
      <trkpt lat="45.03629" lon="6.27906">
        <ele>1738.2</ele>
        <time>2017-06-24T08:35:52Z</time>
      </trkpt>
      <trkpt lat="45.03626" lon="6.27917">
        <ele>1741.57</ele>
        <time>2017-06-24T08:35:58Z</time>
      </trkpt>
      <trkpt lat="45.03625" lon="6.27924">
        <ele>1743.49</ele>
        <time>2017-06-24T08:36:06Z</time>
      </trkpt>
      <trkpt lat="45.03624" lon="6.2793">
        <ele>1744.45</ele>
        <time>2017-06-24T08:36:12Z</time>
      </trkpt>
      <trkpt lat="45.03626" lon="6.27936">
        <ele>1746.37</ele>
        <time>2017-06-24T08:36:19Z</time>
      </trkpt>
      <trkpt lat="45.03631" lon="6.27939">
        <ele>1746.85</ele>
        <time>2017-06-24T08:36:27Z</time>
      </trkpt>
      <trkpt lat="45.03643" lon="6.27949">
        <ele>1756.47</ele>
        <time>2017-06-24T08:36:34Z</time>
      </trkpt>
      <trkpt lat="45.03646" lon="6.27958">
        <ele>1764.64</ele>
        <time>2017-06-24T08:36:41Z</time>
      </trkpt>
      <trkpt lat="45.03646" lon="6.27963">
        <ele>1768.96</ele>
        <time>2017-06-24T08:36:48Z</time>
      </trkpt>
      <trkpt lat="45.03641" lon="6.27964">
        <ele>1769.92</ele>
        <time>2017-06-24T08:36:57Z</time>
      </trkpt>
      <trkpt lat="45.03637" lon="6.27966">
        <ele>1772.81</ele>
        <time>2017-06-24T08:37:05Z</time>
      </trkpt>
      <trkpt lat="45.03636" lon="6.27969">
        <ele>1774.25</ele>
        <time>2017-06-24T08:37:11Z</time>
      </trkpt>
      <trkpt lat="45.03634" lon="6.27968">
        <ele>1774.25</ele>
        <time>2017-06-24T08:37:18Z</time>
      </trkpt>
      <trkpt lat="45.03632" lon="6.27971">
        <ele>1776.65</ele>
        <time>2017-06-24T08:37:24Z</time>
      </trkpt>
      <trkpt lat="45.0363" lon="6.27973">
        <ele>1778.58</ele>
        <time>2017-06-24T08:37:31Z</time>
      </trkpt>
      <trkpt lat="45.03628" lon="6.27973">
        <ele>1780.02</ele>
        <time>2017-06-24T08:37:38Z</time>
      </trkpt>
      <trkpt lat="45.03627" lon="6.27975">
        <ele>1780.02</ele>
        <time>2017-06-24T08:37:44Z</time>
      </trkpt>
      <trkpt lat="45.03625" lon="6.27977">
        <ele>1781.46</ele>
        <time>2017-06-24T08:37:49Z</time>
      </trkpt>
      <trkpt lat="45.03624" lon="6.27982">
        <ele>1783.38</ele>
        <time>2017-06-24T08:37:55Z</time>
      </trkpt>
      <trkpt lat="45.03623" lon="6.27983">
        <ele>1783.38</ele>
        <time>2017-06-24T08:38:01Z</time>
      </trkpt>
      <trkpt lat="45.03622" lon="6.27983">
        <ele>1785.31</ele>
        <time>2017-06-24T08:38:08Z</time>
      </trkpt>
      <trkpt lat="45.03622" lon="6.27983">
        <ele>1785.31</ele>
        <time>2017-06-24T08:38:15Z</time>
      </trkpt>
      <trkpt lat="45.0362" lon="6.27984">
        <ele>1785.79</ele>
        <time>2017-06-24T08:38:21Z</time>
      </trkpt>
      <trkpt lat="45.03621" lon="6.27986">
        <ele>1786.27</ele>
        <time>2017-06-24T08:38:23Z</time>
      </trkpt>
      <trkpt lat="45.03618" lon="6.27987">
        <ele>1789.15</ele>
        <time>2017-06-24T08:38:29Z</time>
      </trkpt>
      <trkpt lat="45.03615" lon="6.27985">
        <ele>1789.63</ele>
        <time>2017-06-24T08:38:35Z</time>
      </trkpt>
      <trkpt lat="45.03614" lon="6.27985">
        <ele>1789.63</ele>
        <time>2017-06-24T08:38:41Z</time>
      </trkpt>
      <trkpt lat="45.03616" lon="6.27986">
        <ele>1790.11</ele>
        <time>2017-06-24T08:38:43Z</time>
      </trkpt>
      <trkpt lat="45.03618" lon="6.27989">
        <ele>1789.63</ele>
        <time>2017-06-24T08:38:48Z</time>
      </trkpt>
      <trkpt lat="45.0362" lon="6.27993">
        <ele>1790.59</ele>
        <time>2017-06-24T08:38:53Z</time>
      </trkpt>
      <trkpt lat="45.03621" lon="6.27999">
        <ele>1792.03</ele>
        <time>2017-06-24T08:38:59Z</time>
      </trkpt>
      <trkpt lat="45.03622" lon="6.28001">
        <ele>1792.52</ele>
        <time>2017-06-24T08:39:01Z</time>
      </trkpt>
      <trkpt lat="45.03626" lon="6.28009">
        <ele>1794.44</ele>
        <time>2017-06-24T08:39:08Z</time>
      </trkpt>
      <trkpt lat="45.03627" lon="6.28012">
        <ele>1795.4</ele>
        <time>2017-06-24T08:39:10Z</time>
      </trkpt>
      <trkpt lat="45.03629" lon="6.28017">
        <ele>1796.36</ele>
        <time>2017-06-24T08:39:13Z</time>
      </trkpt>
      <trkpt lat="45.03632" lon="6.28028">
        <ele>1796.36</ele>
        <time>2017-06-24T08:39:20Z</time>
      </trkpt>
      <trkpt lat="45.03633" lon="6.28034">
        <ele>1797.32</ele>
        <time>2017-06-24T08:39:27Z</time>
      </trkpt>
      <trkpt lat="45.03635" lon="6.28041">
        <ele>1799.73</ele>
        <time>2017-06-24T08:39:35Z</time>
      </trkpt>
      <trkpt lat="45.03636" lon="6.28042">
        <ele>1800.69</ele>
        <time>2017-06-24T08:39:41Z</time>
      </trkpt>
      <trkpt lat="45.03634" lon="6.28043">
        <ele>1800.69</ele>
        <time>2017-06-24T08:39:49Z</time>
      </trkpt>
      <trkpt lat="45.03633" lon="6.2804">
        <ele>1801.17</ele>
        <time>2017-06-24T08:39:55Z</time>
      </trkpt>
      <trkpt lat="45.03632" lon="6.28043">
        <ele>1801.65</ele>
        <time>2017-06-24T08:40:03Z</time>
      </trkpt>
      <trkpt lat="45.03631" lon="6.28044">
        <ele>1802.61</ele>
        <time>2017-06-24T08:40:12Z</time>
      </trkpt>
      <trkpt lat="45.03621" lon="6.28045">
        <ele>1814.63</ele>
        <time>2017-06-24T08:40:19Z</time>
      </trkpt>
      <trkpt lat="45.0362" lon="6.28045">
        <ele>1815.11</ele>
        <time>2017-06-24T08:40:26Z</time>
      </trkpt>
      <trkpt lat="45.03621" lon="6.28038">
        <ele>1813.18</ele>
        <time>2017-06-24T08:40:32Z</time>
      </trkpt>
      <trkpt lat="45.0362" lon="6.28041">
        <ele>1814.15</ele>
        <time>2017-06-24T08:40:39Z</time>
      </trkpt>
      <trkpt lat="45.03619" lon="6.28045">
        <ele>1814.63</ele>
        <time>2017-06-24T08:40:46Z</time>
      </trkpt>
      <trkpt lat="45.03618" lon="6.28045">
        <ele>1814.15</ele>
        <time>2017-06-24T08:40:55Z</time>
      </trkpt>
      <trkpt lat="45.03616" lon="6.28045">
        <ele>1813.66</ele>
        <time>2017-06-24T08:41:02Z</time>
      </trkpt>
      <trkpt lat="45.03613" lon="6.28046">
        <ele>1814.15</ele>
        <time>2017-06-24T08:41:10Z</time>
      </trkpt>
      <trkpt lat="45.03613" lon="6.2805">
        <ele>1816.07</ele>
        <time>2017-06-24T08:41:18Z</time>
      </trkpt>
      <trkpt lat="45.03614" lon="6.28056">
        <ele>1819.43</ele>
        <time>2017-06-24T08:41:24Z</time>
      </trkpt>
      <trkpt lat="45.03612" lon="6.28059">
        <ele>1822.32</ele>
        <time>2017-06-24T08:41:33Z</time>
      </trkpt>
      <trkpt lat="45.03613" lon="6.28065">
        <ele>1825.68</ele>
        <time>2017-06-24T08:41:40Z</time>
      </trkpt>
      <trkpt lat="45.03606" lon="6.28065">
        <ele>1839.14</ele>
        <time>2017-06-24T08:41:47Z</time>
      </trkpt>
      <trkpt lat="45.03607" lon="6.2807">
        <ele>1843.47</ele>
        <time>2017-06-24T08:41:55Z</time>
      </trkpt>
      <trkpt lat="45.03609" lon="6.28074">
        <ele>1846.35</ele>
        <time>2017-06-24T08:42:02Z</time>
      </trkpt>
      <trkpt lat="45.0361" lon="6.28078">
        <ele>1849.23</ele>
        <time>2017-06-24T08:42:08Z</time>
      </trkpt>
      <trkpt lat="45.0361" lon="6.28084">
        <ele>1853.08</ele>
        <time>2017-06-24T08:42:17Z</time>
      </trkpt>
      <trkpt lat="45.03612" lon="6.2809">
        <ele>1855.96</ele>
        <time>2017-06-24T08:42:24Z</time>
      </trkpt>
      <trkpt lat="45.03615" lon="6.28101">
        <ele>1857.4</ele>
        <time>2017-06-24T08:42:32Z</time>
      </trkpt>
      <trkpt lat="45.03615" lon="6.28107">
        <ele>1858.85</ele>
        <time>2017-06-24T08:42:39Z</time>
      </trkpt>
      <trkpt lat="45.03613" lon="6.28115">
        <ele>1860.77</ele>
        <time>2017-06-24T08:42:47Z</time>
      </trkpt>
      <trkpt lat="45.03611" lon="6.28123">
        <ele>1861.73</ele>
        <time>2017-06-24T08:42:54Z</time>
      </trkpt>
      <trkpt lat="45.03611" lon="6.28134">
        <ele>1864.13</ele>
        <time>2017-06-24T08:43:02Z</time>
      </trkpt>
      <trkpt lat="45.0361" lon="6.28141">
        <ele>1865.58</ele>
        <time>2017-06-24T08:43:09Z</time>
      </trkpt>
      <trkpt lat="45.0361" lon="6.28147">
        <ele>1868.46</ele>
        <time>2017-06-24T08:43:17Z</time>
      </trkpt>
      <trkpt lat="45.03609" lon="6.28157">
        <ele>1871.34</ele>
        <time>2017-06-24T08:43:28Z</time>
      </trkpt>
      <trkpt lat="45.03611" lon="6.28163">
        <ele>1873.75</ele>
        <time>2017-06-24T08:43:35Z</time>
      </trkpt>
      <trkpt lat="45.03608" lon="6.28166">
        <ele>1874.71</ele>
        <time>2017-06-24T08:43:42Z</time>
      </trkpt>
      <trkpt lat="45.03607" lon="6.28167">
        <ele>1876.63</ele>
        <time>2017-06-24T08:43:49Z</time>
      </trkpt>
      <trkpt lat="45.03604" lon="6.2817">
        <ele>1879.03</ele>
        <time>2017-06-24T08:43:58Z</time>
      </trkpt>
      <trkpt lat="45.03603" lon="6.28171">
        <ele>1880</ele>
        <time>2017-06-24T08:44:05Z</time>
      </trkpt>
      <trkpt lat="45.03603" lon="6.28175">
        <ele>1881.44</ele>
        <time>2017-06-24T08:44:11Z</time>
      </trkpt>
      <trkpt lat="45.03601" lon="6.28182">
        <ele>1884.32</ele>
        <time>2017-06-24T08:44:18Z</time>
      </trkpt>
      <trkpt lat="45.03598" lon="6.28187">
        <ele>1886.24</ele>
        <time>2017-06-24T08:44:27Z</time>
      </trkpt>
      <trkpt lat="45.03598" lon="6.28184">
        <ele>1885.28</ele>
        <time>2017-06-24T08:44:30Z</time>
      </trkpt>
      <trkpt lat="45.036" lon="6.28176">
        <ele>1885.28</ele>
        <time>2017-06-24T08:44:39Z</time>
      </trkpt>
      <trkpt lat="45.03605" lon="6.28166">
        <ele>1884.8</ele>
        <time>2017-06-24T08:44:46Z</time>
      </trkpt>
      <trkpt lat="45.03607" lon="6.2816">
        <ele>1885.28</ele>
        <time>2017-06-24T08:44:54Z</time>
      </trkpt>
      <trkpt lat="45.03607" lon="6.28155">
        <ele>1884.8</ele>
        <time>2017-06-24T08:45:01Z</time>
      </trkpt>
      <trkpt lat="45.03603" lon="6.28159">
        <ele>1885.28</ele>
        <time>2017-06-24T08:45:09Z</time>
      </trkpt>
      <trkpt lat="45.03597" lon="6.28167">
        <ele>1885.28</ele>
        <time>2017-06-24T08:45:16Z</time>
      </trkpt>
      <trkpt lat="45.03596" lon="6.28165">
        <ele>1885.28</ele>
        <time>2017-06-24T08:45:24Z</time>
      </trkpt>
      <trkpt lat="45.03596" lon="6.2816">
        <ele>1885.28</ele>
        <time>2017-06-24T08:45:32Z</time>
      </trkpt>
      <trkpt lat="45.03594" lon="6.28158">
        <ele>1886.72</ele>
        <time>2017-06-24T08:45:39Z</time>
      </trkpt>
      <trkpt lat="45.03592" lon="6.28164">
        <ele>1889.13</ele>
        <time>2017-06-24T08:45:46Z</time>
      </trkpt>
      <trkpt lat="45.03591" lon="6.28172">
        <ele>1890.09</ele>
        <time>2017-06-24T08:45:53Z</time>
      </trkpt>
      <trkpt lat="45.03578" lon="6.2817">
        <ele>1905.47</ele>
        <time>2017-06-24T08:46:00Z</time>
      </trkpt>
      <trkpt lat="45.03575" lon="6.28173">
        <ele>1906.91</ele>
        <time>2017-06-24T08:46:06Z</time>
      </trkpt>
      <trkpt lat="45.03573" lon="6.28182">
        <ele>1909.8</ele>
        <time>2017-06-24T08:46:14Z</time>
      </trkpt>
      <trkpt lat="45.03571" lon="6.28183">
        <ele>1910.76</ele>
        <time>2017-06-24T08:46:23Z</time>
      </trkpt>
      <trkpt lat="45.0357" lon="6.2818">
        <ele>1911.24</ele>
        <time>2017-06-24T08:46:25Z</time>
      </trkpt>
      <trkpt lat="45.03574" lon="6.28171">
        <ele>1911.72</ele>
        <time>2017-06-24T08:46:31Z</time>
      </trkpt>
      <trkpt lat="45.03573" lon="6.28166">
        <ele>1911.24</ele>
        <time>2017-06-24T08:46:39Z</time>
      </trkpt>
      <trkpt lat="45.03573" lon="6.28163">
        <ele>1911.72</ele>
        <time>2017-06-24T08:46:47Z</time>
      </trkpt>
      <trkpt lat="45.03569" lon="6.28162">
        <ele>1917.01</ele>
        <time>2017-06-24T08:46:54Z</time>
      </trkpt>
      <trkpt lat="45.03563" lon="6.28169">
        <ele>1922.29</ele>
        <time>2017-06-24T08:47:04Z</time>
      </trkpt>
      <trkpt lat="45.03562" lon="6.28175">
        <ele>1924.7</ele>
        <time>2017-06-24T08:47:11Z</time>
      </trkpt>
      <trkpt lat="45.03561" lon="6.28173">
        <ele>1925.18</ele>
        <time>2017-06-24T08:47:18Z</time>
      </trkpt>
      <trkpt lat="45.03558" lon="6.28174">
        <ele>1926.62</ele>
        <time>2017-06-24T08:47:25Z</time>
      </trkpt>
      <trkpt lat="45.03555" lon="6.2818">
        <ele>1927.58</ele>
        <time>2017-06-24T08:47:32Z</time>
      </trkpt>
      <trkpt lat="45.03557" lon="6.28186">
        <ele>1929.5</ele>
        <time>2017-06-24T08:47:40Z</time>
      </trkpt>
      <trkpt lat="45.03559" lon="6.28188">
        <ele>1930.95</ele>
        <time>2017-06-24T08:47:47Z</time>
      </trkpt>
      <trkpt lat="45.03558" lon="6.28195">
        <ele>1930.95</ele>
        <time>2017-06-24T08:47:53Z</time>
      </trkpt>
      <trkpt lat="45.03553" lon="6.28207">
        <ele>1933.83</ele>
        <time>2017-06-24T08:48:01Z</time>
      </trkpt>
      <trkpt lat="45.03547" lon="6.28209">
        <ele>1933.83</ele>
        <time>2017-06-24T08:48:08Z</time>
      </trkpt>
      <trkpt lat="45.03546" lon="6.28215">
        <ele>1934.31</ele>
        <time>2017-06-24T08:48:16Z</time>
      </trkpt>
      <trkpt lat="45.03545" lon="6.28221">
        <ele>1937.67</ele>
        <time>2017-06-24T08:48:23Z</time>
      </trkpt>
      <trkpt lat="45.03544" lon="6.28217">
        <ele>1938.64</ele>
        <time>2017-06-24T08:48:31Z</time>
      </trkpt>
      <trkpt lat="45.03539" lon="6.28222">
        <ele>1941.04</ele>
        <time>2017-06-24T08:48:39Z</time>
      </trkpt>
      <trkpt lat="45.03538" lon="6.28226">
        <ele>1943.92</ele>
        <time>2017-06-24T08:48:46Z</time>
      </trkpt>
      <trkpt lat="45.03536" lon="6.28222">
        <ele>1943.44</ele>
        <time>2017-06-24T08:48:54Z</time>
      </trkpt>
      <trkpt lat="45.03532" lon="6.28221">
        <ele>1945.85</ele>
        <time>2017-06-24T08:49:00Z</time>
      </trkpt>
      <trkpt lat="45.03527" lon="6.28227">
        <ele>1948.25</ele>
        <time>2017-06-24T08:49:08Z</time>
      </trkpt>
      <trkpt lat="45.03523" lon="6.28235">
        <ele>1949.69</ele>
        <time>2017-06-24T08:49:17Z</time>
      </trkpt>
      <trkpt lat="45.03519" lon="6.28236">
        <ele>1950.17</ele>
        <time>2017-06-24T08:49:27Z</time>
      </trkpt>
      <trkpt lat="45.03519" lon="6.28232">
        <ele>1950.17</ele>
        <time>2017-06-24T08:49:31Z</time>
      </trkpt>
      <trkpt lat="45.03519" lon="6.28226">
        <ele>1949.69</ele>
        <time>2017-06-24T08:49:40Z</time>
      </trkpt>
      <trkpt lat="45.03518" lon="6.28219">
        <ele>1948.73</ele>
        <time>2017-06-24T08:49:47Z</time>
      </trkpt>
      <trkpt lat="45.03516" lon="6.28211">
        <ele>1947.29</ele>
        <time>2017-06-24T08:49:55Z</time>
      </trkpt>
      <trkpt lat="45.03516" lon="6.28199">
        <ele>1947.29</ele>
        <time>2017-06-24T08:50:04Z</time>
      </trkpt>
      <trkpt lat="45.0351" lon="6.28203">
        <ele>1949.21</ele>
        <time>2017-06-24T08:50:11Z</time>
      </trkpt>
      <trkpt lat="45.03503" lon="6.28205">
        <ele>1951.13</ele>
        <time>2017-06-24T08:50:18Z</time>
      </trkpt>
      <trkpt lat="45.03498" lon="6.28211">
        <ele>1952.09</ele>
        <time>2017-06-24T08:50:25Z</time>
      </trkpt>
      <trkpt lat="45.0349" lon="6.28217">
        <ele>1954.5</ele>
        <time>2017-06-24T08:50:32Z</time>
      </trkpt>
      <trkpt lat="45.03485" lon="6.28225">
        <ele>1957.86</ele>
        <time>2017-06-24T08:50:39Z</time>
      </trkpt>
      <trkpt lat="45.03479" lon="6.2823">
        <ele>1961.23</ele>
        <time>2017-06-24T08:50:47Z</time>
      </trkpt>
      <trkpt lat="45.03478" lon="6.2823">
        <ele>1962.67</ele>
        <time>2017-06-24T08:50:55Z</time>
      </trkpt>
      <trkpt lat="45.03477" lon="6.28234">
        <ele>1965.55</ele>
        <time>2017-06-24T08:51:01Z</time>
      </trkpt>
      <trkpt lat="45.03479" lon="6.28236">
        <ele>1968.44</ele>
        <time>2017-06-24T08:51:08Z</time>
      </trkpt>
      <trkpt lat="45.03478" lon="6.28234">
        <ele>1968.92</ele>
        <time>2017-06-24T08:51:14Z</time>
      </trkpt>
      <trkpt lat="45.03476" lon="6.28234">
        <ele>1969.88</ele>
        <time>2017-06-24T08:51:20Z</time>
      </trkpt>
      <trkpt lat="45.03473" lon="6.28231">
        <ele>1969.4</ele>
        <time>2017-06-24T08:51:25Z</time>
      </trkpt>
      <trkpt lat="45.03473" lon="6.28229">
        <ele>1969.4</ele>
        <time>2017-06-24T08:51:32Z</time>
      </trkpt>
      <trkpt lat="45.03468" lon="6.28233">
        <ele>1969.4</ele>
        <time>2017-06-24T08:51:40Z</time>
      </trkpt>
      <trkpt lat="45.03466" lon="6.28235">
        <ele>1969.4</ele>
        <time>2017-06-24T08:51:46Z</time>
      </trkpt>
      <trkpt lat="45.03463" lon="6.28245">
        <ele>1969.4</ele>
        <time>2017-06-24T08:51:53Z</time>
      </trkpt>
      <trkpt lat="45.0346" lon="6.28251">
        <ele>1970.84</ele>
        <time>2017-06-24T08:52:00Z</time>
      </trkpt>
      <trkpt lat="45.03458" lon="6.28247">
        <ele>1971.8</ele>
        <time>2017-06-24T08:52:08Z</time>
      </trkpt>
      <trkpt lat="45.03457" lon="6.28237">
        <ele>1973.72</ele>
        <time>2017-06-24T08:52:15Z</time>
      </trkpt>
      <trkpt lat="45.03457" lon="6.28233">
        <ele>1974.69</ele>
        <time>2017-06-24T08:52:22Z</time>
      </trkpt>
      <trkpt lat="45.03455" lon="6.28225">
        <ele>1977.57</ele>
        <time>2017-06-24T08:52:30Z</time>
      </trkpt>
      <trkpt lat="45.03453" lon="6.28215">
        <ele>1979.49</ele>
        <time>2017-06-24T08:52:36Z</time>
      </trkpt>
      <trkpt lat="45.03452" lon="6.2821">
        <ele>1979.97</ele>
        <time>2017-06-24T08:52:43Z</time>
      </trkpt>
      <trkpt lat="45.03446" lon="6.28211">
        <ele>1984.3</ele>
        <time>2017-06-24T08:52:49Z</time>
      </trkpt>
      <trkpt lat="45.03438" lon="6.2822">
        <ele>1987.66</ele>
        <time>2017-06-24T08:52:57Z</time>
      </trkpt>
      <trkpt lat="45.03435" lon="6.28227">
        <ele>1988.14</ele>
        <time>2017-06-24T08:53:03Z</time>
      </trkpt>
      <trkpt lat="45.03433" lon="6.28233">
        <ele>1988.14</ele>
        <time>2017-06-24T08:53:09Z</time>
      </trkpt>
      <trkpt lat="45.03431" lon="6.28228">
        <ele>1990.55</ele>
        <time>2017-06-24T08:53:17Z</time>
      </trkpt>
      <trkpt lat="45.0343" lon="6.28221">
        <ele>1992.47</ele>
        <time>2017-06-24T08:53:24Z</time>
      </trkpt>
      <trkpt lat="45.03428" lon="6.2821">
        <ele>1992.95</ele>
        <time>2017-06-24T08:53:32Z</time>
      </trkpt>
      <trkpt lat="45.03426" lon="6.282">
        <ele>1993.43</ele>
        <time>2017-06-24T08:53:40Z</time>
      </trkpt>
      <trkpt lat="45.03426" lon="6.28195">
        <ele>1996.32</ele>
        <time>2017-06-24T08:53:47Z</time>
      </trkpt>
      <trkpt lat="45.03423" lon="6.2819">
        <ele>1998.24</ele>
        <time>2017-06-24T08:53:53Z</time>
      </trkpt>
      <trkpt lat="45.0342" lon="6.28183">
        <ele>1999.2</ele>
        <time>2017-06-24T08:54:01Z</time>
      </trkpt>
      <trkpt lat="45.03418" lon="6.28176">
        <ele>2000.64</ele>
        <time>2017-06-24T08:54:08Z</time>
      </trkpt>
      <trkpt lat="45.03416" lon="6.2817">
        <ele>2001.12</ele>
        <time>2017-06-24T08:54:15Z</time>
      </trkpt>
      <trkpt lat="45.03417" lon="6.28162">
        <ele>2002.56</ele>
        <time>2017-06-24T08:54:22Z</time>
      </trkpt>
      <trkpt lat="45.03417" lon="6.28149">
        <ele>2008.33</ele>
        <time>2017-06-24T08:54:29Z</time>
      </trkpt>
      <trkpt lat="45.03414" lon="6.28136">
        <ele>2009.29</ele>
        <time>2017-06-24T08:54:37Z</time>
      </trkpt>
      <trkpt lat="45.03415" lon="6.28127">
        <ele>2012.66</ele>
        <time>2017-06-24T08:54:44Z</time>
      </trkpt>
      <trkpt lat="45.03412" lon="6.28119">
        <ele>2011.7</ele>
        <time>2017-06-24T08:54:52Z</time>
      </trkpt>
      <trkpt lat="45.03409" lon="6.28113">
        <ele>2012.18</ele>
        <time>2017-06-24T08:55:00Z</time>
      </trkpt>
      <trkpt lat="45.03407" lon="6.28111">
        <ele>2012.66</ele>
        <time>2017-06-24T08:55:09Z</time>
      </trkpt>
      <trkpt lat="45.03402" lon="6.28104">
        <ele>2009.77</ele>
        <time>2017-06-24T08:55:18Z</time>
      </trkpt>
      <trkpt lat="45.03399" lon="6.28098">
        <ele>2005.93</ele>
        <time>2017-06-24T08:55:24Z</time>
      </trkpt>
      <trkpt lat="45.03397" lon="6.28092">
        <ele>2003.04</ele>
        <time>2017-06-24T08:55:32Z</time>
      </trkpt>
      <trkpt lat="45.03395" lon="6.28084">
        <ele>1996.8</ele>
        <time>2017-06-24T08:55:41Z</time>
      </trkpt>
      <trkpt lat="45.03391" lon="6.28078">
        <ele>1993.43</ele>
        <time>2017-06-24T08:55:48Z</time>
      </trkpt>
      <trkpt lat="45.0339" lon="6.28076">
        <ele>1989.59</ele>
        <time>2017-06-24T08:55:54Z</time>
      </trkpt>
      <trkpt lat="45.03387" lon="6.28083">
        <ele>1987.66</ele>
        <time>2017-06-24T08:55:59Z</time>
      </trkpt>
      <trkpt lat="45.03382" lon="6.28095">
        <ele>1985.74</ele>
        <time>2017-06-24T08:56:06Z</time>
      </trkpt>
      <trkpt lat="45.03378" lon="6.281">
        <ele>1983.82</ele>
        <time>2017-06-24T08:56:13Z</time>
      </trkpt>
      <trkpt lat="45.03373" lon="6.28104">
        <ele>1981.9</ele>
        <time>2017-06-24T08:56:18Z</time>
      </trkpt>
      <trkpt lat="45.03367" lon="6.28113">
        <ele>1981.41</ele>
        <time>2017-06-24T08:56:28Z</time>
      </trkpt>
      <trkpt lat="45.03367" lon="6.28115">
        <ele>1981.41</ele>
        <time>2017-06-24T08:56:35Z</time>
      </trkpt>
      <trkpt lat="45.03366" lon="6.28119">
        <ele>1981.41</ele>
        <time>2017-06-24T08:56:45Z</time>
      </trkpt>
      <trkpt lat="45.03365" lon="6.28121">
        <ele>1981.41</ele>
        <time>2017-06-24T08:56:47Z</time>
      </trkpt>
      <trkpt lat="45.03364" lon="6.28122">
        <ele>1981.41</ele>
        <time>2017-06-24T08:56:49Z</time>
      </trkpt>
      <trkpt lat="45.03357" lon="6.28128">
        <ele>1979.01</ele>
        <time>2017-06-24T08:56:57Z</time>
      </trkpt>
      <trkpt lat="45.03356" lon="6.28133">
        <ele>1977.57</ele>
        <time>2017-06-24T08:57:03Z</time>
      </trkpt>
      <trkpt lat="45.0335" lon="6.28141">
        <ele>1974.2</ele>
        <time>2017-06-24T08:57:11Z</time>
      </trkpt>
      <trkpt lat="45.0335" lon="6.2814">
        <ele>1974.2</ele>
        <time>2017-06-24T08:57:13Z</time>
      </trkpt>
      <trkpt lat="45.03347" lon="6.28151">
        <ele>1980.45</ele>
        <time>2017-06-24T08:57:21Z</time>
      </trkpt>
      <trkpt lat="45.03346" lon="6.28157">
        <ele>1979.97</ele>
        <time>2017-06-24T08:57:26Z</time>
      </trkpt>
      <trkpt lat="45.03343" lon="6.28175">
        <ele>1978.05</ele>
        <time>2017-06-24T08:57:34Z</time>
      </trkpt>
      <trkpt lat="45.03342" lon="6.28181">
        <ele>1977.09</ele>
        <time>2017-06-24T08:57:37Z</time>
      </trkpt>
      <trkpt lat="45.03338" lon="6.28194">
        <ele>1983.34</ele>
        <time>2017-06-24T08:57:44Z</time>
      </trkpt>
      <trkpt lat="45.03335" lon="6.28192">
        <ele>1982.38</ele>
        <time>2017-06-24T08:57:48Z</time>
      </trkpt>
      <trkpt lat="45.03335" lon="6.2819">
        <ele>1982.38</ele>
        <time>2017-06-24T08:57:50Z</time>
      </trkpt>
      <trkpt lat="45.03329" lon="6.28179">
        <ele>1980.93</ele>
        <time>2017-06-24T08:57:57Z</time>
      </trkpt>
      <trkpt lat="45.03329" lon="6.28165">
        <ele>1979.97</ele>
        <time>2017-06-24T08:58:04Z</time>
      </trkpt>
      <trkpt lat="45.03325" lon="6.28161">
        <ele>1979.97</ele>
        <time>2017-06-24T08:58:10Z</time>
      </trkpt>
      <trkpt lat="45.03322" lon="6.28152">
        <ele>1979.49</ele>
        <time>2017-06-24T08:58:18Z</time>
      </trkpt>
      <trkpt lat="45.03317" lon="6.28149">
        <ele>1979.01</ele>
        <time>2017-06-24T08:58:26Z</time>
      </trkpt>
      <trkpt lat="45.03316" lon="6.28145">
        <ele>1979.01</ele>
        <time>2017-06-24T08:58:35Z</time>
      </trkpt>
      <trkpt lat="45.03312" lon="6.2814">
        <ele>1978.53</ele>
        <time>2017-06-24T08:58:42Z</time>
      </trkpt>
      <trkpt lat="45.03307" lon="6.28132">
        <ele>1978.53</ele>
        <time>2017-06-24T08:58:49Z</time>
      </trkpt>
      <trkpt lat="45.03306" lon="6.28122">
        <ele>1977.57</ele>
        <time>2017-06-24T08:58:57Z</time>
      </trkpt>
      <trkpt lat="45.03297" lon="6.28114">
        <ele>1976.61</ele>
        <time>2017-06-24T08:59:06Z</time>
      </trkpt>
      <trkpt lat="45.03291" lon="6.28114">
        <ele>1975.65</ele>
        <time>2017-06-24T08:59:11Z</time>
      </trkpt>
      <trkpt lat="45.03291" lon="6.28108">
        <ele>1973.24</ele>
        <time>2017-06-24T08:59:18Z</time>
      </trkpt>
      <trkpt lat="45.03288" lon="6.28101">
        <ele>1972.28</ele>
        <time>2017-06-24T08:59:27Z</time>
      </trkpt>
      <trkpt lat="45.03281" lon="6.28098">
        <ele>1972.28</ele>
        <time>2017-06-24T08:59:34Z</time>
      </trkpt>
      <trkpt lat="45.03275" lon="6.28091">
        <ele>1971.8</ele>
        <time>2017-06-24T08:59:40Z</time>
      </trkpt>
      <trkpt lat="45.0327" lon="6.28087">
        <ele>1970.84</ele>
        <time>2017-06-24T08:59:46Z</time>
      </trkpt>
      <trkpt lat="45.03267" lon="6.28081">
        <ele>1970.84</ele>
        <time>2017-06-24T08:59:52Z</time>
      </trkpt>
      <trkpt lat="45.03264" lon="6.28077">
        <ele>1969.88</ele>
        <time>2017-06-24T08:59:59Z</time>
      </trkpt>
      <trkpt lat="45.03262" lon="6.28076">
        <ele>1969.88</ele>
        <time>2017-06-24T09:00:07Z</time>
      </trkpt>
      <trkpt lat="45.03262" lon="6.28074">
        <ele>1969.4</ele>
        <time>2017-06-24T09:00:10Z</time>
      </trkpt>
      <trkpt lat="45.03262" lon="6.2807">
        <ele>1969.4</ele>
        <time>2017-06-24T09:00:12Z</time>
      </trkpt>
      <trkpt lat="45.03259" lon="6.2806">
        <ele>1967.96</ele>
        <time>2017-06-24T09:00:19Z</time>
      </trkpt>
      <trkpt lat="45.03252" lon="6.28056">
        <ele>1966.99</ele>
        <time>2017-06-24T09:00:26Z</time>
      </trkpt>
      <trkpt lat="45.03247" lon="6.28053">
        <ele>1966.99</ele>
        <time>2017-06-24T09:00:31Z</time>
      </trkpt>
      <trkpt lat="45.0324" lon="6.28048">
        <ele>1966.99</ele>
        <time>2017-06-24T09:00:38Z</time>
      </trkpt>
      <trkpt lat="45.0324" lon="6.28047">
        <ele>1966.99</ele>
        <time>2017-06-24T09:00:39Z</time>
      </trkpt>
      <trkpt lat="45.03236" lon="6.2804">
        <ele>1966.51</ele>
        <time>2017-06-24T09:00:46Z</time>
      </trkpt>
      <trkpt lat="45.03235" lon="6.2804">
        <ele>1966.51</ele>
        <time>2017-06-24T09:00:47Z</time>
      </trkpt>
      <trkpt lat="45.03229" lon="6.28039">
        <ele>1966.03</ele>
        <time>2017-06-24T09:00:54Z</time>
      </trkpt>
      <trkpt lat="45.03229" lon="6.28038">
        <ele>1966.03</ele>
        <time>2017-06-24T09:00:55Z</time>
      </trkpt>
      <trkpt lat="45.03226" lon="6.28029">
        <ele>1964.59</ele>
        <time>2017-06-24T09:01:03Z</time>
      </trkpt>
      <trkpt lat="45.03225" lon="6.2802">
        <ele>1963.63</ele>
        <time>2017-06-24T09:01:09Z</time>
      </trkpt>
      <trkpt lat="45.03224" lon="6.28019">
        <ele>1963.63</ele>
        <time>2017-06-24T09:01:10Z</time>
      </trkpt>
      <trkpt lat="45.03219" lon="6.28014">
        <ele>1962.67</ele>
        <time>2017-06-24T09:01:17Z</time>
      </trkpt>
      <trkpt lat="45.03214" lon="6.28017">
        <ele>1961.71</ele>
        <time>2017-06-24T09:01:23Z</time>
      </trkpt>
      <trkpt lat="45.03212" lon="6.2802">
        <ele>1961.71</ele>
        <time>2017-06-24T09:01:29Z</time>
      </trkpt>
      <trkpt lat="45.03203" lon="6.28019">
        <ele>1980.93</ele>
        <time>2017-06-24T09:01:36Z</time>
      </trkpt>
      <trkpt lat="45.032" lon="6.28025">
        <ele>1979.97</ele>
        <time>2017-06-24T09:01:42Z</time>
      </trkpt>
      <trkpt lat="45.03196" lon="6.28031">
        <ele>1980.93</ele>
        <time>2017-06-24T09:01:49Z</time>
      </trkpt>
      <trkpt lat="45.03193" lon="6.28038">
        <ele>1980.93</ele>
        <time>2017-06-24T09:01:56Z</time>
      </trkpt>
      <trkpt lat="45.03191" lon="6.28036">
        <ele>1980.45</ele>
        <time>2017-06-24T09:02:00Z</time>
      </trkpt>
      <trkpt lat="45.03189" lon="6.28033">
        <ele>1979.49</ele>
        <time>2017-06-24T09:02:03Z</time>
      </trkpt>
      <trkpt lat="45.03186" lon="6.28031">
        <ele>1979.01</ele>
        <time>2017-06-24T09:02:10Z</time>
      </trkpt>
      <trkpt lat="45.03183" lon="6.28033">
        <ele>1979.49</ele>
        <time>2017-06-24T09:02:16Z</time>
      </trkpt>
      <trkpt lat="45.03181" lon="6.2803">
        <ele>1979.97</ele>
        <time>2017-06-24T09:02:20Z</time>
      </trkpt>
      <trkpt lat="45.03176" lon="6.28028">
        <ele>1981.41</ele>
        <time>2017-06-24T09:02:26Z</time>
      </trkpt>
      <trkpt lat="45.03174" lon="6.28025">
        <ele>1982.38</ele>
        <time>2017-06-24T09:02:32Z</time>
      </trkpt>
      <trkpt lat="45.03169" lon="6.28023">
        <ele>1983.82</ele>
        <time>2017-06-24T09:02:39Z</time>
      </trkpt>
      <trkpt lat="45.03167" lon="6.28022">
        <ele>1984.3</ele>
        <time>2017-06-24T09:02:44Z</time>
      </trkpt>
      <trkpt lat="45.03164" lon="6.28023">
        <ele>1984.3</ele>
        <time>2017-06-24T09:02:51Z</time>
      </trkpt>
      <trkpt lat="45.03162" lon="6.28023">
        <ele>1984.3</ele>
        <time>2017-06-24T09:02:57Z</time>
      </trkpt>
      <trkpt lat="45.03158" lon="6.28021">
        <ele>1983.82</ele>
        <time>2017-06-24T09:03:02Z</time>
      </trkpt>
      <trkpt lat="45.03153" lon="6.2802">
        <ele>1983.82</ele>
        <time>2017-06-24T09:03:08Z</time>
      </trkpt>
      <trkpt lat="45.03151" lon="6.28014">
        <ele>1983.34</ele>
        <time>2017-06-24T09:03:14Z</time>
      </trkpt>
      <trkpt lat="45.0315" lon="6.28008">
        <ele>1982.86</ele>
        <time>2017-06-24T09:03:20Z</time>
      </trkpt>
      <trkpt lat="45.03152" lon="6.28001">
        <ele>1982.38</ele>
        <time>2017-06-24T09:03:27Z</time>
      </trkpt>
      <trkpt lat="45.03153" lon="6.28">
        <ele>1982.38</ele>
        <time>2017-06-24T09:03:28Z</time>
      </trkpt>
      <trkpt lat="45.03151" lon="6.27995">
        <ele>1981.9</ele>
        <time>2017-06-24T09:03:34Z</time>
      </trkpt>
      <trkpt lat="45.03149" lon="6.27993">
        <ele>1981.9</ele>
        <time>2017-06-24T09:03:36Z</time>
      </trkpt>
      <trkpt lat="45.03142" lon="6.27985">
        <ele>1981.9</ele>
        <time>2017-06-24T09:03:44Z</time>
      </trkpt>
      <trkpt lat="45.0314" lon="6.27977">
        <ele>1980.93</ele>
        <time>2017-06-24T09:03:51Z</time>
      </trkpt>
      <trkpt lat="45.03139" lon="6.27971">
        <ele>1979.97</ele>
        <time>2017-06-24T09:03:58Z</time>
      </trkpt>
      <trkpt lat="45.03138" lon="6.27961">
        <ele>1979.01</ele>
        <time>2017-06-24T09:04:07Z</time>
      </trkpt>
      <trkpt lat="45.03137" lon="6.27957">
        <ele>1979.01</ele>
        <time>2017-06-24T09:04:11Z</time>
      </trkpt>
      <trkpt lat="45.03133" lon="6.27952">
        <ele>1978.53</ele>
        <time>2017-06-24T09:04:19Z</time>
      </trkpt>
      <trkpt lat="45.03133" lon="6.27947">
        <ele>1977.09</ele>
        <time>2017-06-24T09:04:26Z</time>
      </trkpt>
      <trkpt lat="45.0313" lon="6.27941">
        <ele>1976.61</ele>
        <time>2017-06-24T09:04:34Z</time>
      </trkpt>
      <trkpt lat="45.03126" lon="6.27936">
        <ele>1977.09</ele>
        <time>2017-06-24T09:04:40Z</time>
      </trkpt>
      <trkpt lat="45.0312" lon="6.27933">
        <ele>1977.09</ele>
        <time>2017-06-24T09:04:45Z</time>
      </trkpt>
      <trkpt lat="45.03115" lon="6.27932">
        <ele>1978.05</ele>
        <time>2017-06-24T09:04:50Z</time>
      </trkpt>
      <trkpt lat="45.03109" lon="6.27934">
        <ele>1979.49</ele>
        <time>2017-06-24T09:04:56Z</time>
      </trkpt>
      <trkpt lat="45.03106" lon="6.27929">
        <ele>1979.49</ele>
        <time>2017-06-24T09:05:04Z</time>
      </trkpt>
      <trkpt lat="45.03105" lon="6.27925">
        <ele>1979.49</ele>
        <time>2017-06-24T09:05:08Z</time>
      </trkpt>
      <trkpt lat="45.03103" lon="6.27917">
        <ele>1979.49</ele>
        <time>2017-06-24T09:05:15Z</time>
      </trkpt>
      <trkpt lat="45.03104" lon="6.27912">
        <ele>1979.49</ele>
        <time>2017-06-24T09:05:21Z</time>
      </trkpt>
      <trkpt lat="45.03105" lon="6.27908">
        <ele>1979.49</ele>
        <time>2017-06-24T09:05:24Z</time>
      </trkpt>
      <trkpt lat="45.03105" lon="6.27895">
        <ele>1979.49</ele>
        <time>2017-06-24T09:05:32Z</time>
      </trkpt>
      <trkpt lat="45.03098" lon="6.27891">
        <ele>1979.49</ele>
        <time>2017-06-24T09:05:38Z</time>
      </trkpt>
      <trkpt lat="45.03093" lon="6.2788">
        <ele>1979.49</ele>
        <time>2017-06-24T09:05:48Z</time>
      </trkpt>
      <trkpt lat="45.03089" lon="6.27873">
        <ele>1979.49</ele>
        <time>2017-06-24T09:05:55Z</time>
      </trkpt>
      <trkpt lat="45.03087" lon="6.27863">
        <ele>1979.49</ele>
        <time>2017-06-24T09:06:03Z</time>
      </trkpt>
      <trkpt lat="45.03035" lon="6.27825">
        <ele>2128.02</ele>
        <time>2017-06-24T09:06:10Z</time>
      </trkpt>
      <trkpt lat="45.03035" lon="6.27818">
        <ele>2160.22</ele>
        <time>2017-06-24T09:06:18Z</time>
      </trkpt>
      <trkpt lat="45.03031" lon="6.27812">
        <ele>2169.83</ele>
        <time>2017-06-24T09:06:25Z</time>
      </trkpt>
      <trkpt lat="45.03024" lon="6.27807">
        <ele>2181.37</ele>
        <time>2017-06-24T09:06:33Z</time>
      </trkpt>
      <trkpt lat="45.0302" lon="6.27807">
        <ele>2190.5</ele>
        <time>2017-06-24T09:06:39Z</time>
      </trkpt>
      <trkpt lat="45.03019" lon="6.27809">
        <ele>2197.71</ele>
        <time>2017-06-24T09:06:51Z</time>
      </trkpt>
      <trkpt lat="45.03019" lon="6.27823">
        <ele>2203</ele>
        <time>2017-06-24T09:07:00Z</time>
      </trkpt>
      <trkpt lat="45.03018" lon="6.27826">
        <ele>2203.48</ele>
        <time>2017-06-24T09:07:02Z</time>
      </trkpt>
      <trkpt lat="45.03013" lon="6.27834">
        <ele>2210.69</ele>
        <time>2017-06-24T09:07:13Z</time>
      </trkpt>
      <trkpt lat="45.03009" lon="6.27841">
        <ele>2213.57</ele>
        <time>2017-06-24T09:07:21Z</time>
      </trkpt>
      <trkpt lat="45.03008" lon="6.27847">
        <ele>2215.5</ele>
        <time>2017-06-24T09:07:25Z</time>
      </trkpt>
      <trkpt lat="45.03008" lon="6.27859">
        <ele>2217.9</ele>
        <time>2017-06-24T09:07:34Z</time>
      </trkpt>
      <trkpt lat="45.03007" lon="6.27868">
        <ele>2219.34</ele>
        <time>2017-06-24T09:07:40Z</time>
      </trkpt>
      <trkpt lat="45.03005" lon="6.27881">
        <ele>2222.71</ele>
        <time>2017-06-24T09:07:49Z</time>
      </trkpt>
      <trkpt lat="45.03004" lon="6.27881">
        <ele>2222.71</ele>
        <time>2017-06-24T09:07:51Z</time>
      </trkpt>
      <trkpt lat="45.03" lon="6.27879">
        <ele>2223.67</ele>
        <time>2017-06-24T09:07:56Z</time>
      </trkpt>
      <trkpt lat="45.02993" lon="6.27882">
        <ele>2226.07</ele>
        <time>2017-06-24T09:08:04Z</time>
      </trkpt>
      <trkpt lat="45.02991" lon="6.27881">
        <ele>2227.03</ele>
        <time>2017-06-24T09:08:07Z</time>
      </trkpt>
      <trkpt lat="45.02985" lon="6.27877">
        <ele>2229.43</ele>
        <time>2017-06-24T09:08:15Z</time>
      </trkpt>
      <trkpt lat="45.02977" lon="6.27875">
        <ele>2230.88</ele>
        <time>2017-06-24T09:08:24Z</time>
      </trkpt>
      <trkpt lat="45.02976" lon="6.27871">
        <ele>2231.84</ele>
        <time>2017-06-24T09:08:31Z</time>
      </trkpt>
      <trkpt lat="45.02971" lon="6.27867">
        <ele>2232.8</ele>
        <time>2017-06-24T09:08:39Z</time>
      </trkpt>
      <trkpt lat="45.02966" lon="6.27861">
        <ele>2235.2</ele>
        <time>2017-06-24T09:08:47Z</time>
      </trkpt>
      <trkpt lat="45.02962" lon="6.27858">
        <ele>2237.61</ele>
        <time>2017-06-24T09:08:54Z</time>
      </trkpt>
      <trkpt lat="45.02956" lon="6.27856">
        <ele>2239.05</ele>
        <time>2017-06-24T09:09:03Z</time>
      </trkpt>
      <trkpt lat="45.02947" lon="6.27855">
        <ele>2241.93</ele>
        <time>2017-06-24T09:09:15Z</time>
      </trkpt>
      <trkpt lat="45.02942" lon="6.27852">
        <ele>2244.82</ele>
        <time>2017-06-24T09:09:23Z</time>
      </trkpt>
      <trkpt lat="45.02936" lon="6.27849">
        <ele>2247.7</ele>
        <time>2017-06-24T09:09:33Z</time>
      </trkpt>
      <trkpt lat="45.02932" lon="6.27845">
        <ele>2249.14</ele>
        <time>2017-06-24T09:09:40Z</time>
      </trkpt>
      <trkpt lat="45.02927" lon="6.27846">
        <ele>2250.58</ele>
        <time>2017-06-24T09:09:47Z</time>
      </trkpt>
      <trkpt lat="45.02925" lon="6.27845">
        <ele>2250.58</ele>
        <time>2017-06-24T09:09:49Z</time>
      </trkpt>
      <trkpt lat="45.02922" lon="6.27844">
        <ele>2251.54</ele>
        <time>2017-06-24T09:09:53Z</time>
      </trkpt>
      <trkpt lat="45.02918" lon="6.27838">
        <ele>2252.03</ele>
        <time>2017-06-24T09:09:58Z</time>
      </trkpt>
      <trkpt lat="45.02912" lon="6.27835">
        <ele>2252.99</ele>
        <time>2017-06-24T09:10:05Z</time>
      </trkpt>
      <trkpt lat="45.02908" lon="6.27831">
        <ele>2255.39</ele>
        <time>2017-06-24T09:10:13Z</time>
      </trkpt>
      <trkpt lat="45.02907" lon="6.2783">
        <ele>2255.87</ele>
        <time>2017-06-24T09:10:14Z</time>
      </trkpt>
      <trkpt lat="45.02902" lon="6.27826">
        <ele>2258.75</ele>
        <time>2017-06-24T09:10:22Z</time>
      </trkpt>
      <trkpt lat="45.02901" lon="6.27825">
        <ele>2259.24</ele>
        <time>2017-06-24T09:10:23Z</time>
      </trkpt>
      <trkpt lat="45.02896" lon="6.27828">
        <ele>2260.2</ele>
        <time>2017-06-24T09:10:30Z</time>
      </trkpt>
      <trkpt lat="45.0289" lon="6.27828">
        <ele>2260.68</ele>
        <time>2017-06-24T09:10:37Z</time>
      </trkpt>
      <trkpt lat="45.02882" lon="6.27824">
        <ele>2262.6</ele>
        <time>2017-06-24T09:10:45Z</time>
      </trkpt>
      <trkpt lat="45.02876" lon="6.27826">
        <ele>2264.52</ele>
        <time>2017-06-24T09:10:53Z</time>
      </trkpt>
      <trkpt lat="45.02872" lon="6.27824">
        <ele>2266.45</ele>
        <time>2017-06-24T09:11:00Z</time>
      </trkpt>
      <trkpt lat="45.02868" lon="6.27824">
        <ele>2268.85</ele>
        <time>2017-06-24T09:11:07Z</time>
      </trkpt>
      <trkpt lat="45.02864" lon="6.27824">
        <ele>2271.25</ele>
        <time>2017-06-24T09:11:14Z</time>
      </trkpt>
      <trkpt lat="45.02861" lon="6.2782">
        <ele>2273.66</ele>
        <time>2017-06-24T09:11:22Z</time>
      </trkpt>
      <trkpt lat="45.02856" lon="6.27816">
        <ele>2274.62</ele>
        <time>2017-06-24T09:11:30Z</time>
      </trkpt>
      <trkpt lat="45.02851" lon="6.27814">
        <ele>2277.02</ele>
        <time>2017-06-24T09:11:38Z</time>
      </trkpt>
      <trkpt lat="45.02848" lon="6.27809">
        <ele>2278.46</ele>
        <time>2017-06-24T09:11:45Z</time>
      </trkpt>
      <trkpt lat="45.02842" lon="6.27812">
        <ele>2279.42</ele>
        <time>2017-06-24T09:11:52Z</time>
      </trkpt>
      <trkpt lat="45.02838" lon="6.27816">
        <ele>2281.35</ele>
        <time>2017-06-24T09:11:59Z</time>
      </trkpt>
      <trkpt lat="45.02834" lon="6.27815">
        <ele>2283.75</ele>
        <time>2017-06-24T09:12:06Z</time>
      </trkpt>
      <trkpt lat="45.02829" lon="6.27813">
        <ele>2285.19</ele>
        <time>2017-06-24T09:12:13Z</time>
      </trkpt>
      <trkpt lat="45.02824" lon="6.27807">
        <ele>2286.63</ele>
        <time>2017-06-24T09:12:22Z</time>
      </trkpt>
      <trkpt lat="45.0282" lon="6.27805">
        <ele>2288.56</ele>
        <time>2017-06-24T09:12:29Z</time>
      </trkpt>
      <trkpt lat="45.02816" lon="6.27802">
        <ele>2289.52</ele>
        <time>2017-06-24T09:12:37Z</time>
      </trkpt>
      <trkpt lat="45.0281" lon="6.27803">
        <ele>2291.92</ele>
        <time>2017-06-24T09:12:46Z</time>
      </trkpt>
      <trkpt lat="45.02806" lon="6.27801">
        <ele>2292.4</ele>
        <time>2017-06-24T09:12:53Z</time>
      </trkpt>
      <trkpt lat="45.02802" lon="6.27797">
        <ele>2292.88</ele>
        <time>2017-06-24T09:12:59Z</time>
      </trkpt>
      <trkpt lat="45.02796" lon="6.27795">
        <ele>2292.88</ele>
        <time>2017-06-24T09:13:06Z</time>
      </trkpt>
      <trkpt lat="45.02791" lon="6.2779">
        <ele>2293.36</ele>
        <time>2017-06-24T09:13:15Z</time>
      </trkpt>
      <trkpt lat="45.02786" lon="6.27782">
        <ele>2294.8</ele>
        <time>2017-06-24T09:13:23Z</time>
      </trkpt>
      <trkpt lat="45.02783" lon="6.27779">
        <ele>2296.73</ele>
        <time>2017-06-24T09:13:29Z</time>
      </trkpt>
      <trkpt lat="45.0278" lon="6.27775">
        <ele>2298.65</ele>
        <time>2017-06-24T09:13:36Z</time>
      </trkpt>
      <trkpt lat="45.02779" lon="6.27765">
        <ele>2299.61</ele>
        <time>2017-06-24T09:13:45Z</time>
      </trkpt>
      <trkpt lat="45.02774" lon="6.27758">
        <ele>2301.05</ele>
        <time>2017-06-24T09:13:52Z</time>
      </trkpt>
      <trkpt lat="45.02773" lon="6.27756">
        <ele>2301.53</ele>
        <time>2017-06-24T09:13:54Z</time>
      </trkpt>
      <trkpt lat="45.02774" lon="6.27747">
        <ele>2303.94</ele>
        <time>2017-06-24T09:14:00Z</time>
      </trkpt>
      <trkpt lat="45.02774" lon="6.27741">
        <ele>2306.34</ele>
        <time>2017-06-24T09:14:06Z</time>
      </trkpt>
      <trkpt lat="45.0277" lon="6.2774">
        <ele>2308.26</ele>
        <time>2017-06-24T09:14:13Z</time>
      </trkpt>
      <trkpt lat="45.02769" lon="6.27735">
        <ele>2309.22</ele>
        <time>2017-06-24T09:14:21Z</time>
      </trkpt>
      <trkpt lat="45.02769" lon="6.2773">
        <ele>2311.63</ele>
        <time>2017-06-24T09:14:28Z</time>
      </trkpt>
      <trkpt lat="45.02764" lon="6.27727">
        <ele>2313.07</ele>
        <time>2017-06-24T09:14:36Z</time>
      </trkpt>
      <trkpt lat="45.02763" lon="6.27723">
        <ele>2313.55</ele>
        <time>2017-06-24T09:14:42Z</time>
      </trkpt>
      <trkpt lat="45.02762" lon="6.27722">
        <ele>2314.51</ele>
        <time>2017-06-24T09:14:47Z</time>
      </trkpt>
      <trkpt lat="45.02766" lon="6.27715">
        <ele>2314.03</ele>
        <time>2017-06-24T09:14:54Z</time>
      </trkpt>
      <trkpt lat="45.02771" lon="6.2771">
        <ele>2314.51</ele>
        <time>2017-06-24T09:15:02Z</time>
      </trkpt>
      <trkpt lat="45.02769" lon="6.27707">
        <ele>2315.47</ele>
        <time>2017-06-24T09:15:09Z</time>
      </trkpt>
      <trkpt lat="45.02765" lon="6.27709">
        <ele>2315.95</ele>
        <time>2017-06-24T09:15:16Z</time>
      </trkpt>
      <trkpt lat="45.02762" lon="6.2771">
        <ele>2316.91</ele>
        <time>2017-06-24T09:15:18Z</time>
      </trkpt>
      <trkpt lat="45.0276" lon="6.2771">
        <ele>2317.4</ele>
        <time>2017-06-24T09:15:20Z</time>
      </trkpt>
      <trkpt lat="45.0275" lon="6.27707">
        <ele>2319.8</ele>
        <time>2017-06-24T09:15:29Z</time>
      </trkpt>
      <trkpt lat="45.02745" lon="6.27703">
        <ele>2322.68</ele>
        <time>2017-06-24T09:15:37Z</time>
      </trkpt>
      <trkpt lat="45.02739" lon="6.27702">
        <ele>2326.05</ele>
        <time>2017-06-24T09:15:44Z</time>
      </trkpt>
      <trkpt lat="45.02733" lon="6.27701">
        <ele>2327.97</ele>
        <time>2017-06-24T09:15:52Z</time>
      </trkpt>
      <trkpt lat="45.0273" lon="6.277">
        <ele>2329.41</ele>
        <time>2017-06-24T09:15:59Z</time>
      </trkpt>
      <trkpt lat="45.02724" lon="6.27702">
        <ele>2331.33</ele>
        <time>2017-06-24T09:16:07Z</time>
      </trkpt>
      <trkpt lat="45.02722" lon="6.27704">
        <ele>2333.26</ele>
        <time>2017-06-24T09:16:13Z</time>
      </trkpt>
      <trkpt lat="45.02715" lon="6.27705">
        <ele>2334.7</ele>
        <time>2017-06-24T09:16:21Z</time>
      </trkpt>
      <trkpt lat="45.02711" lon="6.27703">
        <ele>2336.14</ele>
        <time>2017-06-24T09:16:27Z</time>
      </trkpt>
      <trkpt lat="45.02704" lon="6.27707">
        <ele>2339.51</ele>
        <time>2017-06-24T09:16:35Z</time>
      </trkpt>
      <trkpt lat="45.02698" lon="6.27709">
        <ele>2341.91</ele>
        <time>2017-06-24T09:16:43Z</time>
      </trkpt>
      <trkpt lat="45.02695" lon="6.27704">
        <ele>2343.35</ele>
        <time>2017-06-24T09:16:50Z</time>
      </trkpt>
      <trkpt lat="45.02695" lon="6.27699">
        <ele>2344.31</ele>
        <time>2017-06-24T09:16:55Z</time>
      </trkpt>
      <trkpt lat="45.02697" lon="6.27693">
        <ele>2346.23</ele>
        <time>2017-06-24T09:17:03Z</time>
      </trkpt>
      <trkpt lat="45.02695" lon="6.27689">
        <ele>2348.16</ele>
        <time>2017-06-24T09:17:11Z</time>
      </trkpt>
      <trkpt lat="45.02696" lon="6.27683">
        <ele>2350.08</ele>
        <time>2017-06-24T09:17:18Z</time>
      </trkpt>
      <trkpt lat="45.02693" lon="6.27681">
        <ele>2351.04</ele>
        <time>2017-06-24T09:17:25Z</time>
      </trkpt>
      <trkpt lat="45.02687" lon="6.27682">
        <ele>2352.96</ele>
        <time>2017-06-24T09:17:33Z</time>
      </trkpt>
      <trkpt lat="45.02681" lon="6.27684">
        <ele>2355.37</ele>
        <time>2017-06-24T09:17:41Z</time>
      </trkpt>
      <trkpt lat="45.0268" lon="6.27678">
        <ele>2356.81</ele>
        <time>2017-06-24T09:17:48Z</time>
      </trkpt>
      <trkpt lat="45.02675" lon="6.27677">
        <ele>2358.25</ele>
        <time>2017-06-24T09:17:55Z</time>
      </trkpt>
      <trkpt lat="45.02674" lon="6.27674">
        <ele>2358.73</ele>
        <time>2017-06-24T09:18:01Z</time>
      </trkpt>
      <trkpt lat="45.02673" lon="6.27668">
        <ele>2360.17</ele>
        <time>2017-06-24T09:18:08Z</time>
      </trkpt>
      <trkpt lat="45.02668" lon="6.27666">
        <ele>2362.1</ele>
        <time>2017-06-24T09:18:15Z</time>
      </trkpt>
      <trkpt lat="45.02663" lon="6.27663">
        <ele>2363.54</ele>
        <time>2017-06-24T09:18:23Z</time>
      </trkpt>
      <trkpt lat="45.0266" lon="6.27661">
        <ele>2364.98</ele>
        <time>2017-06-24T09:18:30Z</time>
      </trkpt>
      <trkpt lat="45.02656" lon="6.27658">
        <ele>2366.9</ele>
        <time>2017-06-24T09:18:38Z</time>
      </trkpt>
      <trkpt lat="45.0265" lon="6.27657">
        <ele>2368.83</ele>
        <time>2017-06-24T09:18:46Z</time>
      </trkpt>
      <trkpt lat="45.02649" lon="6.27653">
        <ele>2370.27</ele>
        <time>2017-06-24T09:18:52Z</time>
      </trkpt>
      <trkpt lat="45.02647" lon="6.27647">
        <ele>2372.67</ele>
        <time>2017-06-24T09:18:59Z</time>
      </trkpt>
      <trkpt lat="45.02647" lon="6.27643">
        <ele>2373.63</ele>
        <time>2017-06-24T09:19:03Z</time>
      </trkpt>
      <trkpt lat="45.02645" lon="6.27638">
        <ele>2374.11</ele>
        <time>2017-06-24T09:19:07Z</time>
      </trkpt>
      <trkpt lat="45.0264" lon="6.27632">
        <ele>2375.07</ele>
        <time>2017-06-24T09:19:15Z</time>
      </trkpt>
      <trkpt lat="45.02635" lon="6.27626">
        <ele>2376.52</ele>
        <time>2017-06-24T09:19:24Z</time>
      </trkpt>
      <trkpt lat="45.02635" lon="6.27625">
        <ele>2377</ele>
        <time>2017-06-24T09:19:26Z</time>
      </trkpt>
      <trkpt lat="45.02636" lon="6.27618">
        <ele>2378.92</ele>
        <time>2017-06-24T09:19:33Z</time>
      </trkpt>
      <trkpt lat="45.02633" lon="6.2761">
        <ele>2380.36</ele>
        <time>2017-06-24T09:19:41Z</time>
      </trkpt>
      <trkpt lat="45.02632" lon="6.27599">
        <ele>2381.8</ele>
        <time>2017-06-24T09:19:50Z</time>
      </trkpt>
      <trkpt lat="45.02629" lon="6.27594">
        <ele>2381.8</ele>
        <time>2017-06-24T09:19:55Z</time>
      </trkpt>
      <trkpt lat="45.02626" lon="6.27582">
        <ele>2382.28</ele>
        <time>2017-06-24T09:20:03Z</time>
      </trkpt>
      <trkpt lat="45.02627" lon="6.27581">
        <ele>2382.28</ele>
        <time>2017-06-24T09:20:04Z</time>
      </trkpt>
      <trkpt lat="45.02625" lon="6.27569">
        <ele>2383.73</ele>
        <time>2017-06-24T09:20:13Z</time>
      </trkpt>
      <trkpt lat="45.02623" lon="6.2756">
        <ele>2385.17</ele>
        <time>2017-06-24T09:20:19Z</time>
      </trkpt>
      <trkpt lat="45.02626" lon="6.27555">
        <ele>2388.05</ele>
        <time>2017-06-24T09:20:25Z</time>
      </trkpt>
      <trkpt lat="45.02627" lon="6.27548">
        <ele>2391.42</ele>
        <time>2017-06-24T09:20:33Z</time>
      </trkpt>
      <trkpt lat="45.02632" lon="6.27549">
        <ele>2393.34</ele>
        <time>2017-06-24T09:20:39Z</time>
      </trkpt>
      <trkpt lat="45.02635" lon="6.27547">
        <ele>2396.7</ele>
        <time>2017-06-24T09:20:47Z</time>
      </trkpt>
      <trkpt lat="45.02636" lon="6.27541">
        <ele>2397.67</ele>
        <time>2017-06-24T09:20:55Z</time>
      </trkpt>
      <trkpt lat="45.02635" lon="6.27533">
        <ele>2398.15</ele>
        <time>2017-06-24T09:21:02Z</time>
      </trkpt>
      <trkpt lat="45.02633" lon="6.27527">
        <ele>2398.63</ele>
        <time>2017-06-24T09:21:08Z</time>
      </trkpt>
      <trkpt lat="45.02636" lon="6.27525">
        <ele>2400.07</ele>
        <time>2017-06-24T09:21:14Z</time>
      </trkpt>
      <trkpt lat="45.02639" lon="6.27523">
        <ele>2401.03</ele>
        <time>2017-06-24T09:21:19Z</time>
      </trkpt>
      <trkpt lat="45.02641" lon="6.27524">
        <ele>2401.03</ele>
        <time>2017-06-24T09:21:21Z</time>
      </trkpt>
      <trkpt lat="45.02648" lon="6.27519">
        <ele>2404.39</ele>
        <time>2017-06-24T09:21:29Z</time>
      </trkpt>
      <trkpt lat="45.02649" lon="6.27516">
        <ele>2405.36</ele>
        <time>2017-06-24T09:21:32Z</time>
      </trkpt>
      <trkpt lat="45.02653" lon="6.27514">
        <ele>2405.84</ele>
        <time>2017-06-24T09:21:36Z</time>
      </trkpt>
      <trkpt lat="45.02654" lon="6.27508">
        <ele>2407.28</ele>
        <time>2017-06-24T09:21:40Z</time>
      </trkpt>
      <trkpt lat="45.02657" lon="6.27497">
        <ele>2409.2</ele>
        <time>2017-06-24T09:21:48Z</time>
      </trkpt>
      <trkpt lat="45.02659" lon="6.27487">
        <ele>2411.12</ele>
        <time>2017-06-24T09:21:55Z</time>
      </trkpt>
      <trkpt lat="45.02659" lon="6.2748">
        <ele>2413.53</ele>
        <time>2017-06-24T09:22:02Z</time>
      </trkpt>
      <trkpt lat="45.02658" lon="6.2747">
        <ele>2414.01</ele>
        <time>2017-06-24T09:22:08Z</time>
      </trkpt>
      <trkpt lat="45.02663" lon="6.27453">
        <ele>2411.6</ele>
        <time>2017-06-24T09:22:14Z</time>
      </trkpt>
      <trkpt lat="45.02663" lon="6.27436">
        <ele>2409.68</ele>
        <time>2017-06-24T09:22:19Z</time>
      </trkpt>
      <trkpt lat="45.02662" lon="6.27425">
        <ele>2411.12</ele>
        <time>2017-06-24T09:22:26Z</time>
      </trkpt>
      <trkpt lat="45.0266" lon="6.27416">
        <ele>2413.05</ele>
        <time>2017-06-24T09:22:31Z</time>
      </trkpt>
      <trkpt lat="45.02659" lon="6.27404">
        <ele>2414.97</ele>
        <time>2017-06-24T09:22:39Z</time>
      </trkpt>
      <trkpt lat="45.02661" lon="6.27399">
        <ele>2415.93</ele>
        <time>2017-06-24T09:22:44Z</time>
      </trkpt>
      <trkpt lat="45.02669" lon="6.274">
        <ele>2416.89</ele>
        <time>2017-06-24T09:22:53Z</time>
      </trkpt>
      <trkpt lat="45.0267" lon="6.27397">
        <ele>2417.37</ele>
        <time>2017-06-24T09:22:55Z</time>
      </trkpt>
      <trkpt lat="45.02669" lon="6.27394">
        <ele>2417.85</ele>
        <time>2017-06-24T09:22:57Z</time>
      </trkpt>
      <trkpt lat="45.02666" lon="6.2739">
        <ele>2419.3</ele>
        <time>2017-06-24T09:23:01Z</time>
      </trkpt>
      <trkpt lat="45.02659" lon="6.27383">
        <ele>2420.74</ele>
        <time>2017-06-24T09:23:09Z</time>
      </trkpt>
      <trkpt lat="45.02658" lon="6.27379">
        <ele>2421.7</ele>
        <time>2017-06-24T09:23:12Z</time>
      </trkpt>
      <trkpt lat="45.0266" lon="6.27374">
        <ele>2422.18</ele>
        <time>2017-06-24T09:23:16Z</time>
      </trkpt>
      <trkpt lat="45.02666" lon="6.27369">
        <ele>2424.1</ele>
        <time>2017-06-24T09:23:22Z</time>
      </trkpt>
      <trkpt lat="45.02668" lon="6.27363">
        <ele>2425.06</ele>
        <time>2017-06-24T09:23:26Z</time>
      </trkpt>
      <trkpt lat="45.02669" lon="6.27355">
        <ele>2426.5</ele>
        <time>2017-06-24T09:23:33Z</time>
      </trkpt>
      <trkpt lat="45.02669" lon="6.27352">
        <ele>2426.99</ele>
        <time>2017-06-24T09:23:35Z</time>
      </trkpt>
      <trkpt lat="45.02671" lon="6.27346">
        <ele>2427.95</ele>
        <time>2017-06-24T09:23:39Z</time>
      </trkpt>
      <trkpt lat="45.02665" lon="6.27337">
        <ele>2430.83</ele>
        <time>2017-06-24T09:23:48Z</time>
      </trkpt>
      <trkpt lat="45.02659" lon="6.27334">
        <ele>2433.23</ele>
        <time>2017-06-24T09:23:55Z</time>
      </trkpt>
      <trkpt lat="45.02657" lon="6.27325">
        <ele>2434.68</ele>
        <time>2017-06-24T09:24:02Z</time>
      </trkpt>
      <trkpt lat="45.02654" lon="6.27324">
        <ele>2435.64</ele>
        <time>2017-06-24T09:24:05Z</time>
      </trkpt>
      <trkpt lat="45.02642" lon="6.27321">
        <ele>2438.04</ele>
        <time>2017-06-24T09:24:14Z</time>
      </trkpt>
      <trkpt lat="45.02633" lon="6.27315">
        <ele>2438.52</ele>
        <time>2017-06-24T09:24:20Z</time>
      </trkpt>
      <trkpt lat="45.02632" lon="6.27309">
        <ele>2439.96</ele>
        <time>2017-06-24T09:24:27Z</time>
      </trkpt>
      <trkpt lat="45.02628" lon="6.27302">
        <ele>2442.85</ele>
        <time>2017-06-24T09:24:36Z</time>
      </trkpt>
      <trkpt lat="45.02623" lon="6.27296">
        <ele>2443.81</ele>
        <time>2017-06-24T09:24:43Z</time>
      </trkpt>
      <trkpt lat="45.0262" lon="6.27284">
        <ele>2447.17</ele>
        <time>2017-06-24T09:24:52Z</time>
      </trkpt>
      <trkpt lat="45.0262" lon="6.27275">
        <ele>2449.1</ele>
        <time>2017-06-24T09:25:00Z</time>
      </trkpt>
      <trkpt lat="45.0262" lon="6.27269">
        <ele>2449.1</ele>
        <time>2017-06-24T09:25:05Z</time>
      </trkpt>
      <trkpt lat="45.02618" lon="6.27261">
        <ele>2449.58</ele>
        <time>2017-06-24T09:25:10Z</time>
      </trkpt>
      <trkpt lat="45.02616" lon="6.27253">
        <ele>2450.06</ele>
        <time>2017-06-24T09:25:17Z</time>
      </trkpt>
      <trkpt lat="45.02613" lon="6.27245">
        <ele>2451.5</ele>
        <time>2017-06-24T09:25:25Z</time>
      </trkpt>
      <trkpt lat="45.02612" lon="6.27238">
        <ele>2453.42</ele>
        <time>2017-06-24T09:25:32Z</time>
      </trkpt>
      <trkpt lat="45.02609" lon="6.27232">
        <ele>2454.86</ele>
        <time>2017-06-24T09:25:39Z</time>
      </trkpt>
      <trkpt lat="45.02608" lon="6.27225">
        <ele>2456.31</ele>
        <time>2017-06-24T09:25:46Z</time>
      </trkpt>
      <trkpt lat="45.0261" lon="6.27227">
        <ele>2456.79</ele>
        <time>2017-06-24T09:25:49Z</time>
      </trkpt>
      <trkpt lat="45.02611" lon="6.27228">
        <ele>2457.27</ele>
        <time>2017-06-24T09:25:51Z</time>
      </trkpt>
      <trkpt lat="45.02617" lon="6.27231">
        <ele>2459.19</ele>
        <time>2017-06-24T09:25:58Z</time>
      </trkpt>
      <trkpt lat="45.02619" lon="6.27232">
        <ele>2459.19</ele>
        <time>2017-06-24T09:26:00Z</time>
      </trkpt>
      <trkpt lat="45.02628" lon="6.27236">
        <ele>2460.15</ele>
        <time>2017-06-24T09:26:08Z</time>
      </trkpt>
      <trkpt lat="45.02633" lon="6.27239">
        <ele>2461.59</ele>
        <time>2017-06-24T09:26:15Z</time>
      </trkpt>
      <trkpt lat="45.02641" lon="6.27241">
        <ele>2464.48</ele>
        <time>2017-06-24T09:26:24Z</time>
      </trkpt>
      <trkpt lat="45.02642" lon="6.2724">
        <ele>2465.44</ele>
        <time>2017-06-24T09:26:26Z</time>
      </trkpt>
      <trkpt lat="45.02644" lon="6.2723">
        <ele>2468.8</ele>
        <time>2017-06-24T09:26:34Z</time>
      </trkpt>
      <trkpt lat="45.02642" lon="6.2722">
        <ele>2469.76</ele>
        <time>2017-06-24T09:26:42Z</time>
      </trkpt>
      <trkpt lat="45.02642" lon="6.27215">
        <ele>2471.21</ele>
        <time>2017-06-24T09:26:49Z</time>
      </trkpt>
      <trkpt lat="45.02637" lon="6.27212">
        <ele>2472.65</ele>
        <time>2017-06-24T09:26:57Z</time>
      </trkpt>
      <trkpt lat="45.02634" lon="6.27208">
        <ele>2474.57</ele>
        <time>2017-06-24T09:27:02Z</time>
      </trkpt>
      <trkpt lat="45.02626" lon="6.27204">
        <ele>2476.97</ele>
        <time>2017-06-24T09:27:10Z</time>
      </trkpt>
      <trkpt lat="45.02623" lon="6.27203">
        <ele>2476.49</ele>
        <time>2017-06-24T09:27:13Z</time>
      </trkpt>
      <trkpt lat="45.02616" lon="6.27198">
        <ele>2476.49</ele>
        <time>2017-06-24T09:27:21Z</time>
      </trkpt>
      <trkpt lat="45.02615" lon="6.27187">
        <ele>2478.42</ele>
        <time>2017-06-24T09:27:29Z</time>
      </trkpt>
      <trkpt lat="45.02612" lon="6.27177">
        <ele>2478.42</ele>
        <time>2017-06-24T09:27:36Z</time>
      </trkpt>
      <trkpt lat="45.02611" lon="6.27171">
        <ele>2479.86</ele>
        <time>2017-06-24T09:27:42Z</time>
      </trkpt>
      <trkpt lat="45.02609" lon="6.27171">
        <ele>2480.82</ele>
        <time>2017-06-24T09:27:45Z</time>
      </trkpt>
      <trkpt lat="45.02607" lon="6.2717">
        <ele>2481.78</ele>
        <time>2017-06-24T09:27:47Z</time>
      </trkpt>
      <trkpt lat="45.02601" lon="6.27171">
        <ele>2484.18</ele>
        <time>2017-06-24T09:27:52Z</time>
      </trkpt>
      <trkpt lat="45.02602" lon="6.27163">
        <ele>2486.11</ele>
        <time>2017-06-24T09:28:00Z</time>
      </trkpt>
      <trkpt lat="45.02604" lon="6.27155">
        <ele>2488.03</ele>
        <time>2017-06-24T09:28:07Z</time>
      </trkpt>
      <trkpt lat="45.02603" lon="6.27149">
        <ele>2489.47</ele>
        <time>2017-06-24T09:28:13Z</time>
      </trkpt>
      <trkpt lat="45.02605" lon="6.27142">
        <ele>2490.43</ele>
        <time>2017-06-24T09:28:19Z</time>
      </trkpt>
      <trkpt lat="45.02601" lon="6.27132">
        <ele>2492.84</ele>
        <time>2017-06-24T09:28:28Z</time>
      </trkpt>
      <trkpt lat="45.026" lon="6.27123">
        <ele>2494.28</ele>
        <time>2017-06-24T09:28:35Z</time>
      </trkpt>
      <trkpt lat="45.02601" lon="6.27118">
        <ele>2495.24</ele>
        <time>2017-06-24T09:28:41Z</time>
      </trkpt>
      <trkpt lat="45.02602" lon="6.27109">
        <ele>2497.16</ele>
        <time>2017-06-24T09:28:49Z</time>
      </trkpt>
      <trkpt lat="45.02603" lon="6.27106">
        <ele>2497.64</ele>
        <time>2017-06-24T09:28:51Z</time>
      </trkpt>
      <trkpt lat="45.02612" lon="6.27095">
        <ele>2498.12</ele>
        <time>2017-06-24T09:28:59Z</time>
      </trkpt>
      <trkpt lat="45.02619" lon="6.27089">
        <ele>2501.01</ele>
        <time>2017-06-24T09:29:06Z</time>
      </trkpt>
      <trkpt lat="45.02625" lon="6.27091">
        <ele>2502.93</ele>
        <time>2017-06-24T09:29:13Z</time>
      </trkpt>
      <trkpt lat="45.02627" lon="6.27093">
        <ele>2503.89</ele>
        <time>2017-06-24T09:29:16Z</time>
      </trkpt>
      <trkpt lat="45.02636" lon="6.27103">
        <ele>2505.81</ele>
        <time>2017-06-24T09:29:23Z</time>
      </trkpt>
      <trkpt lat="45.02641" lon="6.27107">
        <ele>2506.29</ele>
        <time>2017-06-24T09:29:26Z</time>
      </trkpt>
      <trkpt lat="45.02657" lon="6.2712">
        <ele>2505.81</ele>
        <time>2017-06-24T09:29:34Z</time>
      </trkpt>
      <trkpt lat="45.02668" lon="6.27127">
        <ele>2504.37</ele>
        <time>2017-06-24T09:29:39Z</time>
      </trkpt>
      <trkpt lat="45.0268" lon="6.27126">
        <ele>2504.37</ele>
        <time>2017-06-24T09:29:46Z</time>
      </trkpt>
      <trkpt lat="45.02682" lon="6.27132">
        <ele>2504.37</ele>
        <time>2017-06-24T09:29:53Z</time>
      </trkpt>
      <trkpt lat="45.02682" lon="6.27133">
        <ele>2504.85</ele>
        <time>2017-06-24T09:30:05Z</time>
      </trkpt>
      <trkpt lat="45.02684" lon="6.27132">
        <ele>2504.85</ele>
        <time>2017-06-24T09:30:11Z</time>
      </trkpt>
      <trkpt lat="45.02685" lon="6.27135">
        <ele>2505.33</ele>
        <time>2017-06-24T09:30:19Z</time>
      </trkpt>
      <trkpt lat="45.02685" lon="6.27136">
        <ele>2506.77</ele>
        <time>2017-06-24T09:30:31Z</time>
      </trkpt>
      <trkpt lat="45.02685" lon="6.27137">
        <ele>2507.74</ele>
        <time>2017-06-24T09:30:37Z</time>
      </trkpt>
      <trkpt lat="45.02685" lon="6.27137">
        <ele>2507.74</ele>
        <time>2017-06-24T09:30:49Z</time>
      </trkpt>
      <trkpt lat="45.02685" lon="6.27137">
        <ele>2507.74</ele>
        <time>2017-06-24T09:31:08Z</time>
      </trkpt>
      <trkpt lat="45.02686" lon="6.27137">
        <ele>2508.22</ele>
        <time>2017-06-24T09:31:20Z</time>
      </trkpt>
      <trkpt lat="45.02645" lon="6.27039">
        <ele>2546.19</ele>
        <time>2017-06-24T10:28:09Z</time>
      </trkpt>
      <trkpt lat="45.02637" lon="6.27042">
        <ele>2553.88</ele>
        <time>2017-06-24T10:28:16Z</time>
      </trkpt>
      <trkpt lat="45.02639" lon="6.27026">
        <ele>2545.71</ele>
        <time>2017-06-24T10:28:20Z</time>
      </trkpt>
      <trkpt lat="45.02633" lon="6.27026">
        <ele>2546.19</ele>
        <time>2017-06-24T10:28:24Z</time>
      </trkpt>
      <trkpt lat="45.02616" lon="6.27028">
        <ele>2544.75</ele>
        <time>2017-06-24T10:28:34Z</time>
      </trkpt>
      <trkpt lat="45.02601" lon="6.27031">
        <ele>2543.79</ele>
        <time>2017-06-24T10:28:45Z</time>
      </trkpt>
      <trkpt lat="45.02586" lon="6.27038">
        <ele>2543.31</ele>
        <time>2017-06-24T10:28:51Z</time>
      </trkpt>
      <trkpt lat="45.02553" lon="6.27042">
        <ele>2543.31</ele>
        <time>2017-06-24T10:29:00Z</time>
      </trkpt>
      <trkpt lat="45.02523" lon="6.27006">
        <ele>2549.55</ele>
        <time>2017-06-24T10:30:32Z</time>
      </trkpt>
      <trkpt lat="45.02519" lon="6.27005">
        <ele>2551.48</ele>
        <time>2017-06-24T10:30:38Z</time>
      </trkpt>
      <trkpt lat="45.02517" lon="6.27">
        <ele>2548.11</ele>
        <time>2017-06-24T10:30:47Z</time>
      </trkpt>
      <trkpt lat="45.02516" lon="6.26993">
        <ele>2544.27</ele>
        <time>2017-06-24T10:30:54Z</time>
      </trkpt>
      <trkpt lat="45.02514" lon="6.26984">
        <ele>2540.9</ele>
        <time>2017-06-24T10:31:01Z</time>
      </trkpt>
      <trkpt lat="45.02511" lon="6.26978">
        <ele>2538.98</ele>
        <time>2017-06-24T10:31:06Z</time>
      </trkpt>
      <trkpt lat="45.02508" lon="6.26967">
        <ele>2538.5</ele>
        <time>2017-06-24T10:31:15Z</time>
      </trkpt>
      <trkpt lat="45.02507" lon="6.26961">
        <ele>2537.54</ele>
        <time>2017-06-24T10:31:21Z</time>
      </trkpt>
      <trkpt lat="45.02503" lon="6.26953">
        <ele>2538.02</ele>
        <time>2017-06-24T10:31:28Z</time>
      </trkpt>
      <trkpt lat="45.02497" lon="6.26948">
        <ele>2536.1</ele>
        <time>2017-06-24T10:31:35Z</time>
      </trkpt>
      <trkpt lat="45.02494" lon="6.26943">
        <ele>2534.65</ele>
        <time>2017-06-24T10:31:41Z</time>
      </trkpt>
      <trkpt lat="45.02494" lon="6.26926">
        <ele>2535.61</ele>
        <time>2017-06-24T10:31:47Z</time>
      </trkpt>
      <trkpt lat="45.02492" lon="6.26915">
        <ele>2536.58</ele>
        <time>2017-06-24T10:31:53Z</time>
      </trkpt>
      <trkpt lat="45.02492" lon="6.26908">
        <ele>2538.02</ele>
        <time>2017-06-24T10:31:59Z</time>
      </trkpt>
      <trkpt lat="45.02487" lon="6.26903">
        <ele>2537.54</ele>
        <time>2017-06-24T10:32:05Z</time>
      </trkpt>
      <trkpt lat="45.02482" lon="6.269">
        <ele>2536.58</ele>
        <time>2017-06-24T10:32:11Z</time>
      </trkpt>
      <trkpt lat="45.02482" lon="6.26899">
        <ele>2536.58</ele>
        <time>2017-06-24T10:32:12Z</time>
      </trkpt>
      <trkpt lat="45.02482" lon="6.26898">
        <ele>2537.06</ele>
        <time>2017-06-24T10:32:19Z</time>
      </trkpt>
      <trkpt lat="45.02481" lon="6.26896">
        <ele>2537.54</ele>
        <time>2017-06-24T10:32:27Z</time>
      </trkpt>
      <trkpt lat="45.02481" lon="6.26894">
        <ele>2541.38</ele>
        <time>2017-06-24T10:32:34Z</time>
      </trkpt>
      <trkpt lat="45.02481" lon="6.26892">
        <ele>2541.38</ele>
        <time>2017-06-24T10:32:40Z</time>
      </trkpt>
      <trkpt lat="45.02479" lon="6.26892">
        <ele>2543.31</ele>
        <time>2017-06-24T10:32:52Z</time>
      </trkpt>
      <trkpt lat="45.02479" lon="6.26891">
        <ele>2547.15</ele>
        <time>2017-06-24T10:33:09Z</time>
      </trkpt>
      <trkpt lat="45.02478" lon="6.26892">
        <ele>2549.07</ele>
        <time>2017-06-24T10:33:19Z</time>
      </trkpt>
      <trkpt lat="45.02476" lon="6.26895">
        <ele>2553.88</ele>
        <time>2017-06-24T10:33:33Z</time>
      </trkpt>
      <trkpt lat="45.02474" lon="6.26896">
        <ele>2554.84</ele>
        <time>2017-06-24T10:33:40Z</time>
      </trkpt>
      <trkpt lat="45.02473" lon="6.26897">
        <ele>2556.28</ele>
        <time>2017-06-24T10:33:51Z</time>
      </trkpt>
      <trkpt lat="45.02473" lon="6.26898">
        <ele>2556.76</ele>
        <time>2017-06-24T10:34:05Z</time>
      </trkpt>
      <trkpt lat="45.02473" lon="6.26899">
        <ele>2557.24</ele>
        <time>2017-06-24T10:34:14Z</time>
      </trkpt>
      <trkpt lat="45.02474" lon="6.269">
        <ele>2557.24</ele>
        <time>2017-06-24T10:34:22Z</time>
      </trkpt>
      <trkpt lat="45.02474" lon="6.26902">
        <ele>2557.24</ele>
        <time>2017-06-24T10:34:30Z</time>
      </trkpt>
      <trkpt lat="45.02475" lon="6.26901">
        <ele>2557.24</ele>
        <time>2017-06-24T10:34:46Z</time>
      </trkpt>
      <trkpt lat="45.02475" lon="6.26901">
        <ele>2557.24</ele>
        <time>2017-06-24T10:35:00Z</time>
      </trkpt>
      <trkpt lat="45.02475" lon="6.26901">
        <ele>2556.76</ele>
        <time>2017-06-24T10:35:11Z</time>
      </trkpt>
      <trkpt lat="45.02475" lon="6.26902">
        <ele>2556.76</ele>
        <time>2017-06-24T10:35:20Z</time>
      </trkpt>
      <trkpt lat="45.02475" lon="6.26901">
        <ele>2556.28</ele>
        <time>2017-06-24T10:35:30Z</time>
      </trkpt>
      <trkpt lat="45.02474" lon="6.26901">
        <ele>2556.76</ele>
        <time>2017-06-24T10:35:45Z</time>
      </trkpt>
      <trkpt lat="45.02474" lon="6.26902">
        <ele>2555.8</ele>
        <time>2017-06-24T10:36:01Z</time>
      </trkpt>
      <trkpt lat="45.02474" lon="6.26904">
        <ele>2555.32</ele>
        <time>2017-06-24T10:36:08Z</time>
      </trkpt>
      <trkpt lat="45.02474" lon="6.26904">
        <ele>2555.32</ele>
        <time>2017-06-24T10:36:15Z</time>
      </trkpt>
      <trkpt lat="45.02475" lon="6.26904">
        <ele>2554.84</ele>
        <time>2017-06-24T10:36:29Z</time>
      </trkpt>
      <trkpt lat="45.02475" lon="6.26904">
        <ele>2554.36</ele>
        <time>2017-06-24T10:36:39Z</time>
      </trkpt>
      <trkpt lat="45.02475" lon="6.26904">
        <ele>2554.36</ele>
        <time>2017-06-24T10:36:47Z</time>
      </trkpt>
      <trkpt lat="45.02475" lon="6.26905">
        <ele>2554.36</ele>
        <time>2017-06-24T10:36:55Z</time>
      </trkpt>
      <trkpt lat="45.02475" lon="6.26904">
        <ele>2554.36</ele>
        <time>2017-06-24T10:37:02Z</time>
      </trkpt>
      <trkpt lat="45.02474" lon="6.26905">
        <ele>2554.36</ele>
        <time>2017-06-24T10:37:10Z</time>
      </trkpt>
      <trkpt lat="45.02473" lon="6.26904">
        <ele>2554.84</ele>
        <time>2017-06-24T10:37:28Z</time>
      </trkpt>
      <trkpt lat="45.02473" lon="6.26904">
        <ele>2554.36</ele>
        <time>2017-06-24T10:37:34Z</time>
      </trkpt>
      <trkpt lat="45.02473" lon="6.26901">
        <ele>2554.84</ele>
        <time>2017-06-24T10:37:53Z</time>
      </trkpt>
      <trkpt lat="45.02473" lon="6.26901">
        <ele>2555.32</ele>
        <time>2017-06-24T10:38:04Z</time>
      </trkpt>
      <trkpt lat="45.02473" lon="6.26904">
        <ele>2554.84</ele>
        <time>2017-06-24T10:38:11Z</time>
      </trkpt>
      <trkpt lat="45.02473" lon="6.26907">
        <ele>2552.44</ele>
        <time>2017-06-24T10:38:34Z</time>
      </trkpt>
      <trkpt lat="45.02473" lon="6.26905">
        <ele>2552.44</ele>
        <time>2017-06-24T10:38:42Z</time>
      </trkpt>
      <trkpt lat="45.02474" lon="6.26901">
        <ele>2552.44</ele>
        <time>2017-06-24T10:38:48Z</time>
      </trkpt>
      <trkpt lat="45.02475" lon="6.26902">
        <ele>2553.4</ele>
        <time>2017-06-24T10:39:00Z</time>
      </trkpt>
      <trkpt lat="45.02472" lon="6.26901">
        <ele>2554.36</ele>
        <time>2017-06-24T10:39:10Z</time>
      </trkpt>
      <trkpt lat="45.02465" lon="6.26901">
        <ele>2555.32</ele>
        <time>2017-06-24T10:39:17Z</time>
      </trkpt>
      <trkpt lat="45.0246" lon="6.26897">
        <ele>2555.8</ele>
        <time>2017-06-24T10:39:24Z</time>
      </trkpt>
      <trkpt lat="45.02453" lon="6.26898">
        <ele>2556.28</ele>
        <time>2017-06-24T10:39:32Z</time>
      </trkpt>
      <trkpt lat="45.0245" lon="6.26896">
        <ele>2556.76</ele>
        <time>2017-06-24T10:39:35Z</time>
      </trkpt>
      <trkpt lat="45.02443" lon="6.26895">
        <ele>2558.21</ele>
        <time>2017-06-24T10:39:43Z</time>
      </trkpt>
      <trkpt lat="45.02439" lon="6.26896">
        <ele>2559.65</ele>
        <time>2017-06-24T10:39:49Z</time>
      </trkpt>
      <trkpt lat="45.02436" lon="6.26893">
        <ele>2561.09</ele>
        <time>2017-06-24T10:39:55Z</time>
      </trkpt>
      <trkpt lat="45.02432" lon="6.26893">
        <ele>2561.57</ele>
        <time>2017-06-24T10:40:01Z</time>
      </trkpt>
      <trkpt lat="45.02428" lon="6.26893">
        <ele>2562.53</ele>
        <time>2017-06-24T10:40:08Z</time>
      </trkpt>
      <trkpt lat="45.02423" lon="6.26891">
        <ele>2564.45</ele>
        <time>2017-06-24T10:40:15Z</time>
      </trkpt>
      <trkpt lat="45.0242" lon="6.26891">
        <ele>2565.9</ele>
        <time>2017-06-24T10:40:20Z</time>
      </trkpt>
      <trkpt lat="45.02417" lon="6.26891">
        <ele>2567.82</ele>
        <time>2017-06-24T10:40:28Z</time>
      </trkpt>
      <trkpt lat="45.02413" lon="6.26888">
        <ele>2570.7</ele>
        <time>2017-06-24T10:40:34Z</time>
      </trkpt>
      <trkpt lat="45.02409" lon="6.26885">
        <ele>2573.11</ele>
        <time>2017-06-24T10:40:42Z</time>
      </trkpt>
      <trkpt lat="45.02403" lon="6.26883">
        <ele>2574.55</ele>
        <time>2017-06-24T10:40:50Z</time>
      </trkpt>
      <trkpt lat="45.02399" lon="6.26882">
        <ele>2574.07</ele>
        <time>2017-06-24T10:40:58Z</time>
      </trkpt>
      <trkpt lat="45.02393" lon="6.26881">
        <ele>2574.07</ele>
        <time>2017-06-24T10:41:07Z</time>
      </trkpt>
      <trkpt lat="45.0239" lon="6.26879">
        <ele>2574.55</ele>
        <time>2017-06-24T10:41:14Z</time>
      </trkpt>
      <trkpt lat="45.0239" lon="6.26877">
        <ele>2575.03</ele>
        <time>2017-06-24T10:41:21Z</time>
      </trkpt>
      <trkpt lat="45.0239" lon="6.26877">
        <ele>2577.43</ele>
        <time>2017-06-24T10:41:29Z</time>
      </trkpt>
      <trkpt lat="45.0239" lon="6.26875">
        <ele>2578.87</ele>
        <time>2017-06-24T10:41:37Z</time>
      </trkpt>
      <trkpt lat="45.02388" lon="6.26872">
        <ele>2582.24</ele>
        <time>2017-06-24T10:41:45Z</time>
      </trkpt>
      <trkpt lat="45.02385" lon="6.2687">
        <ele>2585.12</ele>
        <time>2017-06-24T10:41:52Z</time>
      </trkpt>
      <trkpt lat="45.02383" lon="6.26867">
        <ele>2586.56</ele>
        <time>2017-06-24T10:41:58Z</time>
      </trkpt>
      <trkpt lat="45.02378" lon="6.26866">
        <ele>2588.01</ele>
        <time>2017-06-24T10:42:06Z</time>
      </trkpt>
      <trkpt lat="45.02377" lon="6.26864">
        <ele>2588.01</ele>
        <time>2017-06-24T10:42:15Z</time>
      </trkpt>
      <trkpt lat="45.02371" lon="6.26861">
        <ele>2589.93</ele>
        <time>2017-06-24T10:42:25Z</time>
      </trkpt>
      <trkpt lat="45.0237" lon="6.26859">
        <ele>2590.89</ele>
        <time>2017-06-24T10:42:33Z</time>
      </trkpt>
      <trkpt lat="45.02367" lon="6.26858">
        <ele>2591.37</ele>
        <time>2017-06-24T10:42:40Z</time>
      </trkpt>
      <trkpt lat="45.02365" lon="6.26853">
        <ele>2592.81</ele>
        <time>2017-06-24T10:42:48Z</time>
      </trkpt>
      <trkpt lat="45.0236" lon="6.26851">
        <ele>2595.22</ele>
        <time>2017-06-24T10:42:56Z</time>
      </trkpt>
      <trkpt lat="45.02358" lon="6.26846">
        <ele>2596.66</ele>
        <time>2017-06-24T10:43:04Z</time>
      </trkpt>
      <trkpt lat="45.02354" lon="6.26844">
        <ele>2599.54</ele>
        <time>2017-06-24T10:43:11Z</time>
      </trkpt>
      <trkpt lat="45.02352" lon="6.26836">
        <ele>2604.35</ele>
        <time>2017-06-24T10:43:19Z</time>
      </trkpt>
      <trkpt lat="45.02346" lon="6.26833">
        <ele>2606.75</ele>
        <time>2017-06-24T10:43:27Z</time>
      </trkpt>
      <trkpt lat="45.02347" lon="6.26829">
        <ele>2610.6</ele>
        <time>2017-06-24T10:43:32Z</time>
      </trkpt>
      <trkpt lat="45.02347" lon="6.26825">
        <ele>2615.4</ele>
        <time>2017-06-24T10:43:38Z</time>
      </trkpt>
      <trkpt lat="45.02341" lon="6.26825">
        <ele>2619.73</ele>
        <time>2017-06-24T10:43:46Z</time>
      </trkpt>
      <trkpt lat="45.02336" lon="6.2682">
        <ele>2620.69</ele>
        <time>2017-06-24T10:43:54Z</time>
      </trkpt>
      <trkpt lat="45.0233" lon="6.26818">
        <ele>2621.65</ele>
        <time>2017-06-24T10:44:02Z</time>
      </trkpt>
      <trkpt lat="45.0233" lon="6.26813">
        <ele>2622.13</ele>
        <time>2017-06-24T10:44:10Z</time>
      </trkpt>
      <trkpt lat="45.02328" lon="6.26809">
        <ele>2623.58</ele>
        <time>2017-06-24T10:44:16Z</time>
      </trkpt>
      <trkpt lat="45.02322" lon="6.26809">
        <ele>2622.61</ele>
        <time>2017-06-24T10:44:23Z</time>
      </trkpt>
      <trkpt lat="45.0232" lon="6.26809">
        <ele>2622.13</ele>
        <time>2017-06-24T10:44:30Z</time>
      </trkpt>
      <trkpt lat="45.02318" lon="6.26809">
        <ele>2623.09</ele>
        <time>2017-06-24T10:44:38Z</time>
      </trkpt>
      <trkpt lat="45.02313" lon="6.26805">
        <ele>2625.98</ele>
        <time>2017-06-24T10:44:45Z</time>
      </trkpt>
      <trkpt lat="45.02307" lon="6.26801">
        <ele>2628.86</ele>
        <time>2017-06-24T10:44:53Z</time>
      </trkpt>
      <trkpt lat="45.02301" lon="6.26796">
        <ele>2631.75</ele>
        <time>2017-06-24T10:45:02Z</time>
      </trkpt>
      <trkpt lat="45.02296" lon="6.26792">
        <ele>2633.19</ele>
        <time>2017-06-24T10:45:10Z</time>
      </trkpt>
      <trkpt lat="45.02292" lon="6.26788">
        <ele>2635.11</ele>
        <time>2017-06-24T10:45:17Z</time>
      </trkpt>
      <trkpt lat="45.02288" lon="6.26786">
        <ele>2635.59</ele>
        <time>2017-06-24T10:45:24Z</time>
      </trkpt>
      <trkpt lat="45.02283" lon="6.26781">
        <ele>2637.03</ele>
        <time>2017-06-24T10:45:33Z</time>
      </trkpt>
      <trkpt lat="45.02278" lon="6.26776">
        <ele>2637.51</ele>
        <time>2017-06-24T10:45:41Z</time>
      </trkpt>
      <trkpt lat="45.02278" lon="6.26774">
        <ele>2637.99</ele>
        <time>2017-06-24T10:45:43Z</time>
      </trkpt>
      <trkpt lat="45.02277" lon="6.26767">
        <ele>2640.4</ele>
        <time>2017-06-24T10:45:49Z</time>
      </trkpt>
      <trkpt lat="45.02276" lon="6.26765">
        <ele>2639.44</ele>
        <time>2017-06-24T10:45:59Z</time>
      </trkpt>
      <trkpt lat="45.02274" lon="6.26761">
        <ele>2639.92</ele>
        <time>2017-06-24T10:46:05Z</time>
      </trkpt>
      <trkpt lat="45.02269" lon="6.26758">
        <ele>2639.92</ele>
        <time>2017-06-24T10:46:12Z</time>
      </trkpt>
      <trkpt lat="45.02265" lon="6.26755">
        <ele>2640.4</ele>
        <time>2017-06-24T10:46:19Z</time>
      </trkpt>
      <trkpt lat="45.02263" lon="6.2675">
        <ele>2641.84</ele>
        <time>2017-06-24T10:46:24Z</time>
      </trkpt>
      <trkpt lat="45.02258" lon="6.26746">
        <ele>2643.76</ele>
        <time>2017-06-24T10:46:31Z</time>
      </trkpt>
      <trkpt lat="45.02255" lon="6.26744">
        <ele>2643.76</ele>
        <time>2017-06-24T10:46:38Z</time>
      </trkpt>
      <trkpt lat="45.02253" lon="6.26742">
        <ele>2644.24</ele>
        <time>2017-06-24T10:46:45Z</time>
      </trkpt>
      <trkpt lat="45.02252" lon="6.26739">
        <ele>2645.21</ele>
        <time>2017-06-24T10:46:51Z</time>
      </trkpt>
      <trkpt lat="45.02249" lon="6.26736">
        <ele>2647.61</ele>
        <time>2017-06-24T10:46:58Z</time>
      </trkpt>
      <trkpt lat="45.02245" lon="6.26735">
        <ele>2648.57</ele>
        <time>2017-06-24T10:47:05Z</time>
      </trkpt>
      <trkpt lat="45.02239" lon="6.26735">
        <ele>2647.61</ele>
        <time>2017-06-24T10:47:14Z</time>
      </trkpt>
      <trkpt lat="45.02237" lon="6.26735">
        <ele>2648.09</ele>
        <time>2017-06-24T10:47:21Z</time>
      </trkpt>
      <trkpt lat="45.02235" lon="6.26735">
        <ele>2649.53</ele>
        <time>2017-06-24T10:47:28Z</time>
      </trkpt>
      <trkpt lat="45.02232" lon="6.26735">
        <ele>2651.45</ele>
        <time>2017-06-24T10:47:36Z</time>
      </trkpt>
      <trkpt lat="45.02227" lon="6.26738">
        <ele>2654.34</ele>
        <time>2017-06-24T10:47:43Z</time>
      </trkpt>
      <trkpt lat="45.02225" lon="6.26739">
        <ele>2656.26</ele>
        <time>2017-06-24T10:47:52Z</time>
      </trkpt>
      <trkpt lat="45.02223" lon="6.26738">
        <ele>2657.22</ele>
        <time>2017-06-24T10:48:02Z</time>
      </trkpt>
      <trkpt lat="45.02223" lon="6.26737">
        <ele>2658.18</ele>
        <time>2017-06-24T10:48:10Z</time>
      </trkpt>
      <trkpt lat="45.0222" lon="6.26735">
        <ele>2659.14</ele>
        <time>2017-06-24T10:48:19Z</time>
      </trkpt>
      <trkpt lat="45.02217" lon="6.26729">
        <ele>2662.51</ele>
        <time>2017-06-24T10:48:28Z</time>
      </trkpt>
      <trkpt lat="45.02216" lon="6.26725">
        <ele>2663.47</ele>
        <time>2017-06-24T10:48:35Z</time>
      </trkpt>
      <trkpt lat="45.02211" lon="6.26722">
        <ele>2667.31</ele>
        <time>2017-06-24T10:48:44Z</time>
      </trkpt>
      <trkpt lat="45.02204" lon="6.26721">
        <ele>2673.08</ele>
        <time>2017-06-24T10:48:56Z</time>
      </trkpt>
      <trkpt lat="45.02199" lon="6.26718">
        <ele>2675.97</ele>
        <time>2017-06-24T10:49:04Z</time>
      </trkpt>
      <trkpt lat="45.02195" lon="6.26714">
        <ele>2679.33</ele>
        <time>2017-06-24T10:49:13Z</time>
      </trkpt>
      <trkpt lat="45.0219" lon="6.26714">
        <ele>2681.73</ele>
        <time>2017-06-24T10:49:20Z</time>
      </trkpt>
      <trkpt lat="45.02188" lon="6.2671">
        <ele>2683.18</ele>
        <time>2017-06-24T10:49:27Z</time>
      </trkpt>
      <trkpt lat="45.02183" lon="6.26708">
        <ele>2684.62</ele>
        <time>2017-06-24T10:49:34Z</time>
      </trkpt>
      <trkpt lat="45.02179" lon="6.26704">
        <ele>2686.06</ele>
        <time>2017-06-24T10:49:42Z</time>
      </trkpt>
      <trkpt lat="45.02175" lon="6.26702">
        <ele>2686.06</ele>
        <time>2017-06-24T10:49:49Z</time>
      </trkpt>
      <trkpt lat="45.02174" lon="6.267">
        <ele>2687.5</ele>
        <time>2017-06-24T10:49:57Z</time>
      </trkpt>
      <trkpt lat="45.02172" lon="6.26699">
        <ele>2687.5</ele>
        <time>2017-06-24T10:50:07Z</time>
      </trkpt>
      <trkpt lat="45.02167" lon="6.26697">
        <ele>2688.94</ele>
        <time>2017-06-24T10:50:14Z</time>
      </trkpt>
      <trkpt lat="45.02162" lon="6.26694">
        <ele>2689.91</ele>
        <time>2017-06-24T10:50:21Z</time>
      </trkpt>
      <trkpt lat="45.02156" lon="6.26692">
        <ele>2693.27</ele>
        <time>2017-06-24T10:50:31Z</time>
      </trkpt>
      <trkpt lat="45.0215" lon="6.26691">
        <ele>2696.15</ele>
        <time>2017-06-24T10:50:39Z</time>
      </trkpt>
      <trkpt lat="45.02149" lon="6.26691">
        <ele>2696.15</ele>
        <time>2017-06-24T10:50:40Z</time>
      </trkpt>
      <trkpt lat="45.02143" lon="6.26693">
        <ele>2699.04</ele>
        <time>2017-06-24T10:50:48Z</time>
      </trkpt>
      <trkpt lat="45.02142" lon="6.26698">
        <ele>2701.44</ele>
        <time>2017-06-24T10:50:55Z</time>
      </trkpt>
      <trkpt lat="45.0214" lon="6.26703">
        <ele>2702.88</ele>
        <time>2017-06-24T10:51:02Z</time>
      </trkpt>
      <trkpt lat="45.02136" lon="6.26706">
        <ele>2703.85</ele>
        <time>2017-06-24T10:51:09Z</time>
      </trkpt>
      <trkpt lat="45.02134" lon="6.26708">
        <ele>2705.29</ele>
        <time>2017-06-24T10:51:20Z</time>
      </trkpt>
      <trkpt lat="45.0213" lon="6.2671">
        <ele>2704.81</ele>
        <time>2017-06-24T10:51:30Z</time>
      </trkpt>
      <trkpt lat="45.02126" lon="6.2671">
        <ele>2703.85</ele>
        <time>2017-06-24T10:51:35Z</time>
      </trkpt>
      <trkpt lat="45.0212" lon="6.26708">
        <ele>2703.36</ele>
        <time>2017-06-24T10:51:43Z</time>
      </trkpt>
      <trkpt lat="45.02115" lon="6.26707">
        <ele>2702.88</ele>
        <time>2017-06-24T10:51:50Z</time>
      </trkpt>
      <trkpt lat="45.02109" lon="6.26704">
        <ele>2705.29</ele>
        <time>2017-06-24T10:52:01Z</time>
      </trkpt>
      <trkpt lat="45.02103" lon="6.26704">
        <ele>2707.21</ele>
        <time>2017-06-24T10:52:09Z</time>
      </trkpt>
      <trkpt lat="45.021" lon="6.26705">
        <ele>2709.13</ele>
        <time>2017-06-24T10:52:15Z</time>
      </trkpt>
      <trkpt lat="45.02096" lon="6.26709">
        <ele>2712.02</ele>
        <time>2017-06-24T10:52:22Z</time>
      </trkpt>
      <trkpt lat="45.02092" lon="6.2671">
        <ele>2713.94</ele>
        <time>2017-06-24T10:52:28Z</time>
      </trkpt>
      <trkpt lat="45.02089" lon="6.26713">
        <ele>2715.38</ele>
        <time>2017-06-24T10:52:35Z</time>
      </trkpt>
      <trkpt lat="45.02084" lon="6.26713">
        <ele>2716.82</ele>
        <time>2017-06-24T10:52:43Z</time>
      </trkpt>
      <trkpt lat="45.0208" lon="6.26714">
        <ele>2717.78</ele>
        <time>2017-06-24T10:52:51Z</time>
      </trkpt>
      <trkpt lat="45.02075" lon="6.2671">
        <ele>2719.71</ele>
        <time>2017-06-24T10:52:59Z</time>
      </trkpt>
      <trkpt lat="45.02071" lon="6.26711">
        <ele>2721.15</ele>
        <time>2017-06-24T10:53:07Z</time>
      </trkpt>
      <trkpt lat="45.02063" lon="6.26711">
        <ele>2725.96</ele>
        <time>2017-06-24T10:53:16Z</time>
      </trkpt>
      <trkpt lat="45.02061" lon="6.2671">
        <ele>2727.88</ele>
        <time>2017-06-24T10:53:22Z</time>
      </trkpt>
      <trkpt lat="45.02056" lon="6.26708">
        <ele>2731.24</ele>
        <time>2017-06-24T10:53:30Z</time>
      </trkpt>
      <trkpt lat="45.02053" lon="6.26704">
        <ele>2732.68</ele>
        <time>2017-06-24T10:53:36Z</time>
      </trkpt>
      <trkpt lat="45.02048" lon="6.26701">
        <ele>2734.13</ele>
        <time>2017-06-24T10:53:45Z</time>
      </trkpt>
      <trkpt lat="45.02047" lon="6.267">
        <ele>2734.61</ele>
        <time>2017-06-24T10:53:47Z</time>
      </trkpt>
      <trkpt lat="45.02041" lon="6.26698">
        <ele>2736.53</ele>
        <time>2017-06-24T10:53:55Z</time>
      </trkpt>
      <trkpt lat="45.02035" lon="6.26697">
        <ele>2737.49</ele>
        <time>2017-06-24T10:54:04Z</time>
      </trkpt>
      <trkpt lat="45.02031" lon="6.26693">
        <ele>2740.38</ele>
        <time>2017-06-24T10:54:13Z</time>
      </trkpt>
      <trkpt lat="45.02028" lon="6.26689">
        <ele>2741.82</ele>
        <time>2017-06-24T10:54:21Z</time>
      </trkpt>
      <trkpt lat="45.02024" lon="6.26686">
        <ele>2741.82</ele>
        <time>2017-06-24T10:54:29Z</time>
      </trkpt>
      <trkpt lat="45.02023" lon="6.26685">
        <ele>2742.3</ele>
        <time>2017-06-24T10:54:36Z</time>
      </trkpt>
      <trkpt lat="45.02017" lon="6.26682">
        <ele>2744.7</ele>
        <time>2017-06-24T10:54:43Z</time>
      </trkpt>
      <trkpt lat="45.02013" lon="6.26678">
        <ele>2748.07</ele>
        <time>2017-06-24T10:54:51Z</time>
      </trkpt>
      <trkpt lat="45.02008" lon="6.26676">
        <ele>2749.99</ele>
        <time>2017-06-24T10:54:58Z</time>
      </trkpt>
      <trkpt lat="45.02002" lon="6.26674">
        <ele>2751.43</ele>
        <time>2017-06-24T10:55:06Z</time>
      </trkpt>
      <trkpt lat="45.01995" lon="6.26673">
        <ele>2754.8</ele>
        <time>2017-06-24T10:55:15Z</time>
      </trkpt>
      <trkpt lat="45.0199" lon="6.26671">
        <ele>2756.72</ele>
        <time>2017-06-24T10:55:23Z</time>
      </trkpt>
      <trkpt lat="45.0198" lon="6.26672">
        <ele>2758.16</ele>
        <time>2017-06-24T10:55:33Z</time>
      </trkpt>
      <trkpt lat="45.01975" lon="6.2667">
        <ele>2760.56</ele>
        <time>2017-06-24T10:55:41Z</time>
      </trkpt>
      <trkpt lat="45.01971" lon="6.26665">
        <ele>2762.49</ele>
        <time>2017-06-24T10:55:49Z</time>
      </trkpt>
      <trkpt lat="45.01969" lon="6.26662">
        <ele>2763.45</ele>
        <time>2017-06-24T10:55:52Z</time>
      </trkpt>
      <trkpt lat="45.01966" lon="6.26652">
        <ele>2765.85</ele>
        <time>2017-06-24T10:56:01Z</time>
      </trkpt>
      <trkpt lat="45.01963" lon="6.26648">
        <ele>2767.77</ele>
        <time>2017-06-24T10:56:08Z</time>
      </trkpt>
      <trkpt lat="45.01957" lon="6.26648">
        <ele>2769.7</ele>
        <time>2017-06-24T10:56:17Z</time>
      </trkpt>
      <trkpt lat="45.01954" lon="6.26644">
        <ele>2771.14</ele>
        <time>2017-06-24T10:56:24Z</time>
      </trkpt>
      <trkpt lat="45.01951" lon="6.26643">
        <ele>2772.58</ele>
        <time>2017-06-24T10:56:33Z</time>
      </trkpt>
      <trkpt lat="45.01949" lon="6.26644">
        <ele>2772.1</ele>
        <time>2017-06-24T10:56:43Z</time>
      </trkpt>
      <trkpt lat="45.01943" lon="6.26648">
        <ele>2771.62</ele>
        <time>2017-06-24T10:56:49Z</time>
      </trkpt>
      <trkpt lat="45.01935" lon="6.26653">
        <ele>2770.66</ele>
        <time>2017-06-24T10:56:57Z</time>
      </trkpt>
      <trkpt lat="45.01933" lon="6.26656">
        <ele>2771.14</ele>
        <time>2017-06-24T10:57:00Z</time>
      </trkpt>
      <trkpt lat="45.01926" lon="6.26664">
        <ele>2772.1</ele>
        <time>2017-06-24T10:57:09Z</time>
      </trkpt>
      <trkpt lat="45.01921" lon="6.26671">
        <ele>2774.98</ele>
        <time>2017-06-24T10:57:18Z</time>
      </trkpt>
      <trkpt lat="45.01919" lon="6.26678">
        <ele>2776.91</ele>
        <time>2017-06-24T10:57:27Z</time>
      </trkpt>
      <trkpt lat="45.01917" lon="6.2668">
        <ele>2776.91</ele>
        <time>2017-06-24T10:57:32Z</time>
      </trkpt>
      <trkpt lat="45.01913" lon="6.26682">
        <ele>2778.35</ele>
        <time>2017-06-24T10:57:41Z</time>
      </trkpt>
      <trkpt lat="45.0191" lon="6.26682">
        <ele>2777.87</ele>
        <time>2017-06-24T10:57:49Z</time>
      </trkpt>
      <trkpt lat="45.01906" lon="6.26681">
        <ele>2779.31</ele>
        <time>2017-06-24T10:57:58Z</time>
      </trkpt>
      <trkpt lat="45.01902" lon="6.26683">
        <ele>2780.27</ele>
        <time>2017-06-24T10:58:04Z</time>
      </trkpt>
      <trkpt lat="45.019" lon="6.26686">
        <ele>2782.19</ele>
        <time>2017-06-24T10:58:11Z</time>
      </trkpt>
      <trkpt lat="45.01898" lon="6.26686">
        <ele>2782.19</ele>
        <time>2017-06-24T10:58:19Z</time>
      </trkpt>
      <trkpt lat="45.01895" lon="6.26685">
        <ele>2784.12</ele>
        <time>2017-06-24T10:58:28Z</time>
      </trkpt>
      <trkpt lat="45.01893" lon="6.26686">
        <ele>2787.48</ele>
        <time>2017-06-24T10:58:36Z</time>
      </trkpt>
      <trkpt lat="45.01892" lon="6.26688">
        <ele>2787.48</ele>
        <time>2017-06-24T10:58:46Z</time>
      </trkpt>
      <trkpt lat="45.01891" lon="6.26687">
        <ele>2787.48</ele>
        <time>2017-06-24T10:58:54Z</time>
      </trkpt>
      <trkpt lat="45.01889" lon="6.26683">
        <ele>2787.96</ele>
        <time>2017-06-24T10:59:02Z</time>
      </trkpt>
      <trkpt lat="45.01885" lon="6.2668">
        <ele>2789.88</ele>
        <time>2017-06-24T10:59:10Z</time>
      </trkpt>
      <trkpt lat="45.01884" lon="6.26678">
        <ele>2790.84</ele>
        <time>2017-06-24T10:59:19Z</time>
      </trkpt>
      <trkpt lat="45.01882" lon="6.26678">
        <ele>2791.81</ele>
        <time>2017-06-24T10:59:26Z</time>
      </trkpt>
      <trkpt lat="45.01879" lon="6.26677">
        <ele>2792.77</ele>
        <time>2017-06-24T10:59:35Z</time>
      </trkpt>
      <trkpt lat="45.01877" lon="6.26675">
        <ele>2793.73</ele>
        <time>2017-06-24T10:59:42Z</time>
      </trkpt>
      <trkpt lat="45.01876" lon="6.26671">
        <ele>2796.61</ele>
        <time>2017-06-24T10:59:51Z</time>
      </trkpt>
      <trkpt lat="45.01872" lon="6.2667">
        <ele>2798.05</ele>
        <time>2017-06-24T11:00:00Z</time>
      </trkpt>
      <trkpt lat="45.0187" lon="6.2667">
        <ele>2798.54</ele>
        <time>2017-06-24T11:00:07Z</time>
      </trkpt>
      <trkpt lat="45.01869" lon="6.26669">
        <ele>2799.02</ele>
        <time>2017-06-24T11:00:13Z</time>
      </trkpt>
      <trkpt lat="45.01868" lon="6.26665">
        <ele>2801.42</ele>
        <time>2017-06-24T11:00:21Z</time>
      </trkpt>
      <trkpt lat="45.01866" lon="6.26668">
        <ele>2803.34</ele>
        <time>2017-06-24T11:00:29Z</time>
      </trkpt>
      <trkpt lat="45.01865" lon="6.26675">
        <ele>2806.23</ele>
        <time>2017-06-24T11:00:36Z</time>
      </trkpt>
      <trkpt lat="45.01863" lon="6.26683">
        <ele>2808.63</ele>
        <time>2017-06-24T11:00:46Z</time>
      </trkpt>
      <trkpt lat="45.01862" lon="6.26684">
        <ele>2809.11</ele>
        <time>2017-06-24T11:00:53Z</time>
      </trkpt>
      <trkpt lat="45.0186" lon="6.26684">
        <ele>2810.07</ele>
        <time>2017-06-24T11:01:02Z</time>
      </trkpt>
      <trkpt lat="45.01859" lon="6.26684">
        <ele>2811.03</ele>
        <time>2017-06-24T11:01:09Z</time>
      </trkpt>
      <trkpt lat="45.01857" lon="6.26687">
        <ele>2811.51</ele>
        <time>2017-06-24T11:01:15Z</time>
      </trkpt>
      <trkpt lat="45.01853" lon="6.26688">
        <ele>2811.51</ele>
        <time>2017-06-24T11:01:23Z</time>
      </trkpt>
      <trkpt lat="45.0185" lon="6.26693">
        <ele>2812.96</ele>
        <time>2017-06-24T11:01:31Z</time>
      </trkpt>
      <trkpt lat="45.01845" lon="6.26697">
        <ele>2814.88</ele>
        <time>2017-06-24T11:01:38Z</time>
      </trkpt>
      <trkpt lat="45.01843" lon="6.26698">
        <ele>2815.84</ele>
        <time>2017-06-24T11:01:44Z</time>
      </trkpt>
      <trkpt lat="45.0184" lon="6.267">
        <ele>2817.76</ele>
        <time>2017-06-24T11:01:52Z</time>
      </trkpt>
      <trkpt lat="45.01838" lon="6.26701">
        <ele>2819.2</ele>
        <time>2017-06-24T11:02:01Z</time>
      </trkpt>
      <trkpt lat="45.01835" lon="6.26701">
        <ele>2821.13</ele>
        <time>2017-06-24T11:02:07Z</time>
      </trkpt>
      <trkpt lat="45.01826" lon="6.26701">
        <ele>2825.45</ele>
        <time>2017-06-24T11:02:16Z</time>
      </trkpt>
      <trkpt lat="45.01823" lon="6.26705">
        <ele>2826.41</ele>
        <time>2017-06-24T11:02:23Z</time>
      </trkpt>
      <trkpt lat="45.01819" lon="6.26707">
        <ele>2828.34</ele>
        <time>2017-06-24T11:02:30Z</time>
      </trkpt>
      <trkpt lat="45.01818" lon="6.2671">
        <ele>2828.82</ele>
        <time>2017-06-24T11:02:40Z</time>
      </trkpt>
      <trkpt lat="45.01818" lon="6.26711">
        <ele>2829.3</ele>
        <time>2017-06-24T11:02:50Z</time>
      </trkpt>
      <trkpt lat="45.01817" lon="6.26712">
        <ele>2829.3</ele>
        <time>2017-06-24T11:02:53Z</time>
      </trkpt>
      <trkpt lat="45.01811" lon="6.26718">
        <ele>2830.26</ele>
        <time>2017-06-24T11:03:01Z</time>
      </trkpt>
      <trkpt lat="45.01809" lon="6.26719">
        <ele>2830.74</ele>
        <time>2017-06-24T11:03:07Z</time>
      </trkpt>
      <trkpt lat="45.01804" lon="6.26724">
        <ele>2832.66</ele>
        <time>2017-06-24T11:03:14Z</time>
      </trkpt>
      <trkpt lat="45.01802" lon="6.26729">
        <ele>2835.06</ele>
        <time>2017-06-24T11:03:24Z</time>
      </trkpt>
      <trkpt lat="45.01799" lon="6.26732">
        <ele>2836.51</ele>
        <time>2017-06-24T11:03:31Z</time>
      </trkpt>
      <trkpt lat="45.01798" lon="6.26734">
        <ele>2837.47</ele>
        <time>2017-06-24T11:03:38Z</time>
      </trkpt>
      <trkpt lat="45.01797" lon="6.26736">
        <ele>2837.95</ele>
        <time>2017-06-24T11:03:47Z</time>
      </trkpt>
      <trkpt lat="45.01797" lon="6.26738">
        <ele>2838.43</ele>
        <time>2017-06-24T11:03:55Z</time>
      </trkpt>
      <trkpt lat="45.01796" lon="6.26739">
        <ele>2838.43</ele>
        <time>2017-06-24T11:04:04Z</time>
      </trkpt>
      <trkpt lat="45.01796" lon="6.26741">
        <ele>2837.95</ele>
        <time>2017-06-24T11:04:11Z</time>
      </trkpt>
      <trkpt lat="45.01791" lon="6.2675">
        <ele>2837.95</ele>
        <time>2017-06-24T11:04:19Z</time>
      </trkpt>
      <trkpt lat="45.01789" lon="6.26754">
        <ele>2838.43</ele>
        <time>2017-06-24T11:04:24Z</time>
      </trkpt>
      <trkpt lat="45.01787" lon="6.26763">
        <ele>2838.43</ele>
        <time>2017-06-24T11:04:31Z</time>
      </trkpt>
      <trkpt lat="45.01784" lon="6.26766">
        <ele>2838.43</ele>
        <time>2017-06-24T11:04:40Z</time>
      </trkpt>
      <trkpt lat="45.01784" lon="6.26766">
        <ele>2838.91</ele>
        <time>2017-06-24T11:04:48Z</time>
      </trkpt>
      <trkpt lat="45.01782" lon="6.26766">
        <ele>2838.91</ele>
        <time>2017-06-24T11:04:59Z</time>
      </trkpt>
      <trkpt lat="45.01782" lon="6.26767">
        <ele>2839.87</ele>
        <time>2017-06-24T11:05:06Z</time>
      </trkpt>
      <trkpt lat="45.01782" lon="6.26768">
        <ele>2839.87</ele>
        <time>2017-06-24T11:05:12Z</time>
      </trkpt>
      <trkpt lat="45.01781" lon="6.26773">
        <ele>2839.39</ele>
        <time>2017-06-24T11:05:22Z</time>
      </trkpt>
      <trkpt lat="45.01778" lon="6.26782">
        <ele>2838.43</ele>
        <time>2017-06-24T11:05:29Z</time>
      </trkpt>
      <trkpt lat="45.01777" lon="6.26787">
        <ele>2837.95</ele>
        <time>2017-06-24T11:05:36Z</time>
      </trkpt>
      <trkpt lat="45.01775" lon="6.26792">
        <ele>2836.99</ele>
        <time>2017-06-24T11:05:42Z</time>
      </trkpt>
      <trkpt lat="45.01773" lon="6.26801">
        <ele>2835.06</ele>
        <time>2017-06-24T11:05:49Z</time>
      </trkpt>
      <trkpt lat="45.01772" lon="6.26811">
        <ele>2834.1</ele>
        <time>2017-06-24T11:05:57Z</time>
      </trkpt>
      <trkpt lat="45.01774" lon="6.26813">
        <ele>2834.1</ele>
        <time>2017-06-24T11:06:00Z</time>
      </trkpt>
      <trkpt lat="45.01774" lon="6.26819">
        <ele>2833.14</ele>
        <time>2017-06-24T11:06:05Z</time>
      </trkpt>
      <trkpt lat="45.01772" lon="6.26827">
        <ele>2832.66</ele>
        <time>2017-06-24T11:06:09Z</time>
      </trkpt>
      <trkpt lat="45.01767" lon="6.26849">
        <ele>2833.62</ele>
        <time>2017-06-24T11:06:17Z</time>
      </trkpt>
      <trkpt lat="45.01766" lon="6.26853">
        <ele>2834.1</ele>
        <time>2017-06-24T11:06:19Z</time>
      </trkpt>
      <trkpt lat="45.01761" lon="6.26861">
        <ele>2834.1</ele>
        <time>2017-06-24T11:06:25Z</time>
      </trkpt>
      <trkpt lat="45.01761" lon="6.26865">
        <ele>2833.62</ele>
        <time>2017-06-24T11:06:31Z</time>
      </trkpt>
      <trkpt lat="45.01761" lon="6.26865">
        <ele>2833.14</ele>
        <time>2017-06-24T11:06:38Z</time>
      </trkpt>
      <trkpt lat="45.01761" lon="6.26865">
        <ele>2833.14</ele>
        <time>2017-06-24T11:06:45Z</time>
      </trkpt>
      <trkpt lat="45.01759" lon="6.26869">
        <ele>2833.14</ele>
        <time>2017-06-24T11:06:50Z</time>
      </trkpt>
      <trkpt lat="45.01756" lon="6.26879">
        <ele>2832.66</ele>
        <time>2017-06-24T11:06:56Z</time>
      </trkpt>
      <trkpt lat="45.01754" lon="6.26888">
        <ele>2832.18</ele>
        <time>2017-06-24T11:07:02Z</time>
      </trkpt>
      <trkpt lat="45.01754" lon="6.26897">
        <ele>2831.7</ele>
        <time>2017-06-24T11:07:09Z</time>
      </trkpt>
      <trkpt lat="45.01754" lon="6.26898">
        <ele>2831.7</ele>
        <time>2017-06-24T11:07:18Z</time>
      </trkpt>
      <trkpt lat="45.01754" lon="6.26899">
        <ele>2832.18</ele>
        <time>2017-06-24T11:07:22Z</time>
      </trkpt>
      <trkpt lat="45.01756" lon="6.26904">
        <ele>2832.66</ele>
        <time>2017-06-24T11:07:27Z</time>
      </trkpt>
      <trkpt lat="45.01756" lon="6.26905">
        <ele>2832.66</ele>
        <time>2017-06-24T11:07:30Z</time>
      </trkpt>
      <trkpt lat="45.01752" lon="6.26915">
        <ele>2832.66</ele>
        <time>2017-06-24T11:07:37Z</time>
      </trkpt>
      <trkpt lat="45.01751" lon="6.26916">
        <ele>2832.66</ele>
        <time>2017-06-24T11:07:38Z</time>
      </trkpt>
      <trkpt lat="45.01749" lon="6.26924">
        <ele>2832.18</ele>
        <time>2017-06-24T11:07:46Z</time>
      </trkpt>
      <trkpt lat="45.01749" lon="6.26924">
        <ele>2831.7</ele>
        <time>2017-06-24T11:07:49Z</time>
      </trkpt>
      <trkpt lat="45.01748" lon="6.26926">
        <ele>2831.7</ele>
        <time>2017-06-24T11:07:51Z</time>
      </trkpt>
      <trkpt lat="45.01746" lon="6.26934">
        <ele>2832.18</ele>
        <time>2017-06-24T11:07:58Z</time>
      </trkpt>
      <trkpt lat="45.01744" lon="6.26936">
        <ele>2832.18</ele>
        <time>2017-06-24T11:08:09Z</time>
      </trkpt>
      <trkpt lat="45.01743" lon="6.26936">
        <ele>2833.14</ele>
        <time>2017-06-24T11:08:24Z</time>
      </trkpt>
      <trkpt lat="45.01743" lon="6.26938">
        <ele>2833.14</ele>
        <time>2017-06-24T11:08:33Z</time>
      </trkpt>
      <trkpt lat="45.01742" lon="6.26945">
        <ele>2833.14</ele>
        <time>2017-06-24T11:08:38Z</time>
      </trkpt>
      <trkpt lat="45.01739" lon="6.26948">
        <ele>2832.66</ele>
        <time>2017-06-24T11:08:41Z</time>
      </trkpt>
      <trkpt lat="45.01737" lon="6.26951">
        <ele>2832.66</ele>
        <time>2017-06-24T11:08:43Z</time>
      </trkpt>
      <trkpt lat="45.01733" lon="6.26953">
        <ele>2832.18</ele>
        <time>2017-06-24T11:08:50Z</time>
      </trkpt>
      <trkpt lat="45.01733" lon="6.26954">
        <ele>2832.66</ele>
        <time>2017-06-24T11:08:56Z</time>
      </trkpt>
      <trkpt lat="45.01733" lon="6.26955">
        <ele>2832.66</ele>
        <time>2017-06-24T11:09:00Z</time>
      </trkpt>
      <trkpt lat="45.01733" lon="6.26962">
        <ele>2832.18</ele>
        <time>2017-06-24T11:09:08Z</time>
      </trkpt>
      <trkpt lat="45.01732" lon="6.26964">
        <ele>2831.22</ele>
        <time>2017-06-24T11:09:16Z</time>
      </trkpt>
      <trkpt lat="45.01732" lon="6.26966">
        <ele>2831.22</ele>
        <time>2017-06-24T11:09:20Z</time>
      </trkpt>
      <trkpt lat="45.01733" lon="6.26972">
        <ele>2831.22</ele>
        <time>2017-06-24T11:09:27Z</time>
      </trkpt>
      <trkpt lat="45.01735" lon="6.2698">
        <ele>2830.26</ele>
        <time>2017-06-24T11:09:32Z</time>
      </trkpt>
      <trkpt lat="45.01733" lon="6.2699">
        <ele>2829.3</ele>
        <time>2017-06-24T11:09:38Z</time>
      </trkpt>
      <trkpt lat="45.01733" lon="6.2699">
        <ele>2829.3</ele>
        <time>2017-06-24T11:09:39Z</time>
      </trkpt>
      <trkpt lat="45.01734" lon="6.26997">
        <ele>2828.34</ele>
        <time>2017-06-24T11:09:45Z</time>
      </trkpt>
      <trkpt lat="45.01733" lon="6.26999">
        <ele>2828.34</ele>
        <time>2017-06-24T11:09:54Z</time>
      </trkpt>
      <trkpt lat="45.01733" lon="6.27">
        <ele>2828.34</ele>
        <time>2017-06-24T11:09:59Z</time>
      </trkpt>
      <trkpt lat="45.01733" lon="6.27004">
        <ele>2828.34</ele>
        <time>2017-06-24T11:10:01Z</time>
      </trkpt>
      <trkpt lat="45.01735" lon="6.27011">
        <ele>2826.89</ele>
        <time>2017-06-24T11:10:06Z</time>
      </trkpt>
      <trkpt lat="45.01735" lon="6.27014">
        <ele>2826.41</ele>
        <time>2017-06-24T11:10:08Z</time>
      </trkpt>
      <trkpt lat="45.01738" lon="6.27018">
        <ele>2825.93</ele>
        <time>2017-06-24T11:10:11Z</time>
      </trkpt>
      <trkpt lat="45.01739" lon="6.27025">
        <ele>2824.49</ele>
        <time>2017-06-24T11:10:15Z</time>
      </trkpt>
      <trkpt lat="45.0174" lon="6.27029">
        <ele>2824.97</ele>
        <time>2017-06-24T11:10:24Z</time>
      </trkpt>
      <trkpt lat="45.0174" lon="6.27035">
        <ele>2825.93</ele>
        <time>2017-06-24T11:10:30Z</time>
      </trkpt>
      <trkpt lat="45.01741" lon="6.27037">
        <ele>2826.41</ele>
        <time>2017-06-24T11:10:37Z</time>
      </trkpt>
      <trkpt lat="45.0174" lon="6.2704">
        <ele>2828.34</ele>
        <time>2017-06-24T11:10:45Z</time>
      </trkpt>
      <trkpt lat="45.01739" lon="6.27041">
        <ele>2828.82</ele>
        <time>2017-06-24T11:10:52Z</time>
      </trkpt>
      <trkpt lat="45.01738" lon="6.27042">
        <ele>2829.78</ele>
        <time>2017-06-24T11:10:59Z</time>
      </trkpt>
      <trkpt lat="45.01735" lon="6.27042">
        <ele>2831.22</ele>
        <time>2017-06-24T11:11:07Z</time>
      </trkpt>
      <trkpt lat="45.0173" lon="6.27041">
        <ele>2833.62</ele>
        <time>2017-06-24T11:11:14Z</time>
      </trkpt>
      <trkpt lat="45.01726" lon="6.2704">
        <ele>2835.06</ele>
        <time>2017-06-24T11:11:21Z</time>
      </trkpt>
      <trkpt lat="45.01725" lon="6.2704">
        <ele>2835.06</ele>
        <time>2017-06-24T11:11:30Z</time>
      </trkpt>
      <trkpt lat="45.01724" lon="6.27041">
        <ele>2836.03</ele>
        <time>2017-06-24T11:11:43Z</time>
      </trkpt>
      <trkpt lat="45.01723" lon="6.27041">
        <ele>2835.55</ele>
        <time>2017-06-24T11:11:53Z</time>
      </trkpt>
      <trkpt lat="45.01722" lon="6.27041">
        <ele>2834.58</ele>
        <time>2017-06-24T11:12:01Z</time>
      </trkpt>
      <trkpt lat="45.01725" lon="6.27043">
        <ele>2834.58</ele>
        <time>2017-06-24T11:12:07Z</time>
      </trkpt>
      <trkpt lat="45.01728" lon="6.27047">
        <ele>2835.55</ele>
        <time>2017-06-24T11:12:14Z</time>
      </trkpt>
      <trkpt lat="45.01728" lon="6.27047">
        <ele>2836.03</ele>
        <time>2017-06-24T11:12:25Z</time>
      </trkpt>
      <trkpt lat="45.01729" lon="6.27047">
        <ele>2836.51</ele>
        <time>2017-06-24T11:12:28Z</time>
      </trkpt>
      <trkpt lat="45.01729" lon="6.27047">
        <ele>2836.99</ele>
        <time>2017-06-24T11:12:35Z</time>
      </trkpt>
      <trkpt lat="45.01729" lon="6.27046">
        <ele>2838.91</ele>
        <time>2017-06-24T11:12:47Z</time>
      </trkpt>
      <trkpt lat="45.01729" lon="6.27047">
        <ele>2838.43</ele>
        <time>2017-06-24T11:13:01Z</time>
      </trkpt>
      <trkpt lat="45.01728" lon="6.27048">
        <ele>2839.87</ele>
        <time>2017-06-24T11:13:11Z</time>
      </trkpt>
      <trkpt lat="45.01728" lon="6.27049">
        <ele>2841.31</ele>
        <time>2017-06-24T11:13:31Z</time>
      </trkpt>
      <trkpt lat="45.01726" lon="6.2705">
        <ele>2841.79</ele>
        <time>2017-06-24T11:13:49Z</time>
      </trkpt>
      <trkpt lat="45.01726" lon="6.2705">
        <ele>2840.83</ele>
        <time>2017-06-24T11:14:04Z</time>
      </trkpt>
      <trkpt lat="45.01725" lon="6.2705">
        <ele>2840.83</ele>
        <time>2017-06-24T11:14:09Z</time>
      </trkpt>
      <trkpt lat="45.01724" lon="6.27048">
        <ele>2840.35</ele>
        <time>2017-06-24T11:14:17Z</time>
      </trkpt>
      <trkpt lat="45.01725" lon="6.27046">
        <ele>2841.31</ele>
        <time>2017-06-24T11:14:25Z</time>
      </trkpt>
      <trkpt lat="45.01725" lon="6.27046">
        <ele>2843.24</ele>
        <time>2017-06-24T11:14:37Z</time>
      </trkpt>
      <trkpt lat="45.01727" lon="6.27045">
        <ele>2844.2</ele>
        <time>2017-06-24T11:14:47Z</time>
      </trkpt>
      <trkpt lat="45.01726" lon="6.27043">
        <ele>2843.72</ele>
        <time>2017-06-24T11:15:09Z</time>
      </trkpt>
      <trkpt lat="45.01726" lon="6.27041">
        <ele>2845.64</ele>
        <time>2017-06-24T11:15:32Z</time>
      </trkpt>
      <trkpt lat="45.01726" lon="6.27041">
        <ele>2846.12</ele>
        <time>2017-06-24T11:15:55Z</time>
      </trkpt>
      <trkpt lat="45.01726" lon="6.27041">
        <ele>2845.16</ele>
        <time>2017-06-24T11:16:17Z</time>
      </trkpt>
      <trkpt lat="45.01727" lon="6.27042">
        <ele>2845.16</ele>
        <time>2017-06-24T11:16:37Z</time>
      </trkpt>
      <trkpt lat="45.01727" lon="6.27043">
        <ele>2845.64</ele>
        <time>2017-06-24T11:16:58Z</time>
      </trkpt>
      <trkpt lat="45.01727" lon="6.27043">
        <ele>2846.12</ele>
        <time>2017-06-24T11:17:15Z</time>
      </trkpt>
      <trkpt lat="45.01727" lon="6.27043">
        <ele>2845.64</ele>
        <time>2017-06-24T11:17:34Z</time>
      </trkpt>
      <trkpt lat="45.01728" lon="6.27043">
        <ele>2845.64</ele>
        <time>2017-06-24T11:17:51Z</time>
      </trkpt>
      <trkpt lat="45.01728" lon="6.27042">
        <ele>2845.16</ele>
        <time>2017-06-24T11:18:11Z</time>
      </trkpt>
      <trkpt lat="45.01728" lon="6.27043">
        <ele>2845.64</ele>
        <time>2017-06-24T11:18:30Z</time>
      </trkpt>
      <trkpt lat="45.01728" lon="6.27044">
        <ele>2845.64</ele>
        <time>2017-06-24T11:18:38Z</time>
      </trkpt>
      <trkpt lat="45.01728" lon="6.27043">
        <ele>2846.6</ele>
        <time>2017-06-24T11:19:00Z</time>
      </trkpt>
      <trkpt lat="45.01728" lon="6.27043">
        <ele>2846.12</ele>
        <time>2017-06-24T11:19:16Z</time>
      </trkpt>
      <trkpt lat="45.01728" lon="6.27043">
        <ele>2846.12</ele>
        <time>2017-06-24T11:19:34Z</time>
      </trkpt>
      <trkpt lat="45.01728" lon="6.27044">
        <ele>2846.12</ele>
        <time>2017-06-24T11:19:46Z</time>
      </trkpt>
      <trkpt lat="45.01728" lon="6.27042">
        <ele>2846.12</ele>
        <time>2017-06-24T11:19:53Z</time>
      </trkpt>
      <trkpt lat="45.01727" lon="6.27041">
        <ele>2845.64</ele>
        <time>2017-06-24T11:20:02Z</time>
      </trkpt>
      <trkpt lat="45.01732" lon="6.27036">
        <ele>2843.72</ele>
        <time>2017-06-24T11:20:09Z</time>
      </trkpt>
      <trkpt lat="45.01731" lon="6.27034">
        <ele>2842.76</ele>
        <time>2017-06-24T11:20:16Z</time>
      </trkpt>
      <trkpt lat="45.01729" lon="6.27034">
        <ele>2842.76</ele>
        <time>2017-06-24T11:20:26Z</time>
      </trkpt>
      <trkpt lat="45.01727" lon="6.27033">
        <ele>2843.24</ele>
        <time>2017-06-24T11:20:32Z</time>
      </trkpt>
      <trkpt lat="45.01724" lon="6.27031">
        <ele>2843.24</ele>
        <time>2017-06-24T11:20:37Z</time>
      </trkpt>
      <trkpt lat="45.01717" lon="6.27026">
        <ele>2843.72</ele>
        <time>2017-06-24T11:20:45Z</time>
      </trkpt>
      <trkpt lat="45.01714" lon="6.27022">
        <ele>2846.12</ele>
        <time>2017-06-24T11:20:52Z</time>
      </trkpt>
      <trkpt lat="45.01713" lon="6.27017">
        <ele>2848.52</ele>
        <time>2017-06-24T11:20:59Z</time>
      </trkpt>
      <trkpt lat="45.01711" lon="6.27011">
        <ele>2850.93</ele>
        <time>2017-06-24T11:21:06Z</time>
      </trkpt>
      <trkpt lat="45.0171" lon="6.27008">
        <ele>2852.37</ele>
        <time>2017-06-24T11:21:13Z</time>
      </trkpt>
      <trkpt lat="45.01709" lon="6.27007">
        <ele>2852.85</ele>
        <time>2017-06-24T11:21:23Z</time>
      </trkpt>
      <trkpt lat="45.01704" lon="6.27002">
        <ele>2854.29</ele>
        <time>2017-06-24T11:21:31Z</time>
      </trkpt>
      <trkpt lat="45.01701" lon="6.26997">
        <ele>2856.21</ele>
        <time>2017-06-24T11:21:38Z</time>
      </trkpt>
      <trkpt lat="45.01696" lon="6.27">
        <ele>2857.18</ele>
        <time>2017-06-24T11:21:46Z</time>
      </trkpt>
      <trkpt lat="45.01694" lon="6.26997">
        <ele>2858.62</ele>
        <time>2017-06-24T11:21:53Z</time>
      </trkpt>
      <trkpt lat="45.01696" lon="6.26992">
        <ele>2859.58</ele>
        <time>2017-06-24T11:22:00Z</time>
      </trkpt>
      <trkpt lat="45.01693" lon="6.26991">
        <ele>2861.02</ele>
        <time>2017-06-24T11:22:07Z</time>
      </trkpt>
      <trkpt lat="45.0169" lon="6.26991">
        <ele>2861.02</ele>
        <time>2017-06-24T11:22:14Z</time>
      </trkpt>
      <trkpt lat="45.01689" lon="6.26991">
        <ele>2861.5</ele>
        <time>2017-06-24T11:22:20Z</time>
      </trkpt>
      <trkpt lat="45.01688" lon="6.26988">
        <ele>2862.46</ele>
        <time>2017-06-24T11:22:28Z</time>
      </trkpt>
      <trkpt lat="45.01686" lon="6.26986">
        <ele>2862.94</ele>
        <time>2017-06-24T11:22:36Z</time>
      </trkpt>
      <trkpt lat="45.01684" lon="6.26983">
        <ele>2863.42</ele>
        <time>2017-06-24T11:22:45Z</time>
      </trkpt>
      <trkpt lat="45.01683" lon="6.26978">
        <ele>2864.87</ele>
        <time>2017-06-24T11:22:53Z</time>
      </trkpt>
      <trkpt lat="45.01682" lon="6.2697">
        <ele>2867.75</ele>
        <time>2017-06-24T11:23:01Z</time>
      </trkpt>
      <trkpt lat="45.0168" lon="6.26965">
        <ele>2869.19</ele>
        <time>2017-06-24T11:23:08Z</time>
      </trkpt>
      <trkpt lat="45.01678" lon="6.26957">
        <ele>2870.63</ele>
        <time>2017-06-24T11:23:16Z</time>
      </trkpt>
      <trkpt lat="45.01679" lon="6.26955">
        <ele>2870.63</ele>
        <time>2017-06-24T11:23:23Z</time>
      </trkpt>
      <trkpt lat="45.01679" lon="6.26954">
        <ele>2871.11</ele>
        <time>2017-06-24T11:23:29Z</time>
      </trkpt>
      <trkpt lat="45.01679" lon="6.26953">
        <ele>2871.11</ele>
        <time>2017-06-24T11:23:36Z</time>
      </trkpt>
      <trkpt lat="45.01676" lon="6.26947">
        <ele>2871.6</ele>
        <time>2017-06-24T11:23:43Z</time>
      </trkpt>
      <trkpt lat="45.01675" lon="6.26943">
        <ele>2872.08</ele>
        <time>2017-06-24T11:23:51Z</time>
      </trkpt>
      <trkpt lat="45.01673" lon="6.26934">
        <ele>2872.08</ele>
        <time>2017-06-24T11:23:57Z</time>
      </trkpt>
      <trkpt lat="45.01671" lon="6.26924">
        <ele>2872.08</ele>
        <time>2017-06-24T11:24:05Z</time>
      </trkpt>
      <trkpt lat="45.01671" lon="6.26918">
        <ele>2872.56</ele>
        <time>2017-06-24T11:24:12Z</time>
      </trkpt>
      <trkpt lat="45.01668" lon="6.26916">
        <ele>2873.04</ele>
        <time>2017-06-24T11:24:20Z</time>
      </trkpt>
      <trkpt lat="45.01667" lon="6.26917">
        <ele>2873.52</ele>
        <time>2017-06-24T11:24:28Z</time>
      </trkpt>
      <trkpt lat="45.01667" lon="6.26916">
        <ele>2874.48</ele>
        <time>2017-06-24T11:24:36Z</time>
      </trkpt>
      <trkpt lat="45.01667" lon="6.26914">
        <ele>2875.92</ele>
        <time>2017-06-24T11:24:43Z</time>
      </trkpt>
      <trkpt lat="45.01666" lon="6.26911">
        <ele>2876.4</ele>
        <time>2017-06-24T11:24:52Z</time>
      </trkpt>
      <trkpt lat="45.01666" lon="6.2691">
        <ele>2877.84</ele>
        <time>2017-06-24T11:25:00Z</time>
      </trkpt>
      <trkpt lat="45.01667" lon="6.26909">
        <ele>2878.32</ele>
        <time>2017-06-24T11:25:07Z</time>
      </trkpt>
      <trkpt lat="45.01666" lon="6.26907">
        <ele>2877.84</ele>
        <time>2017-06-24T11:25:15Z</time>
      </trkpt>
      <trkpt lat="45.01666" lon="6.26904">
        <ele>2878.81</ele>
        <time>2017-06-24T11:25:23Z</time>
      </trkpt>
      <trkpt lat="45.01665" lon="6.26899">
        <ele>2880.73</ele>
        <time>2017-06-24T11:25:30Z</time>
      </trkpt>
      <trkpt lat="45.01665" lon="6.26894">
        <ele>2881.69</ele>
        <time>2017-06-24T11:25:36Z</time>
      </trkpt>
      <trkpt lat="45.01666" lon="6.26893">
        <ele>2882.17</ele>
        <time>2017-06-24T11:25:47Z</time>
      </trkpt>
      <trkpt lat="45.01666" lon="6.26894">
        <ele>2882.17</ele>
        <time>2017-06-24T11:26:02Z</time>
      </trkpt>
      <trkpt lat="45.01666" lon="6.26894">
        <ele>2882.17</ele>
        <time>2017-06-24T11:26:18Z</time>
      </trkpt>
      <trkpt lat="45.01667" lon="6.26891">
        <ele>2882.17</ele>
        <time>2017-06-24T11:26:25Z</time>
      </trkpt>
      <trkpt lat="45.01667" lon="6.26883">
        <ele>2882.65</ele>
        <time>2017-06-24T11:26:32Z</time>
      </trkpt>
      <trkpt lat="45.01667" lon="6.26878">
        <ele>2883.13</ele>
        <time>2017-06-24T11:26:39Z</time>
      </trkpt>
      <trkpt lat="45.01666" lon="6.26875">
        <ele>2882.17</ele>
        <time>2017-06-24T11:26:44Z</time>
      </trkpt>
      <trkpt lat="45.01667" lon="6.26866">
        <ele>2882.65</ele>
        <time>2017-06-24T11:26:50Z</time>
      </trkpt>
      <trkpt lat="45.01667" lon="6.26856">
        <ele>2883.13</ele>
        <time>2017-06-24T11:26:56Z</time>
      </trkpt>
      <trkpt lat="45.01667" lon="6.26846">
        <ele>2884.09</ele>
        <time>2017-06-24T11:27:03Z</time>
      </trkpt>
      <trkpt lat="45.01668" lon="6.26838">
        <ele>2884.09</ele>
        <time>2017-06-24T11:27:09Z</time>
      </trkpt>
      <trkpt lat="45.01667" lon="6.26836">
        <ele>2884.57</ele>
        <time>2017-06-24T11:27:17Z</time>
      </trkpt>
      <trkpt lat="45.01666" lon="6.26834">
        <ele>2884.09</ele>
        <time>2017-06-24T11:27:27Z</time>
      </trkpt>
      <trkpt lat="45.01663" lon="6.26827">
        <ele>2885.53</ele>
        <time>2017-06-24T11:27:35Z</time>
      </trkpt>
      <trkpt lat="45.01659" lon="6.2682">
        <ele>2888.42</ele>
        <time>2017-06-24T11:27:43Z</time>
      </trkpt>
      <trkpt lat="45.01657" lon="6.26815">
        <ele>2889.38</ele>
        <time>2017-06-24T11:27:50Z</time>
      </trkpt>
      <trkpt lat="45.01655" lon="6.2681">
        <ele>2888.9</ele>
        <time>2017-06-24T11:27:56Z</time>
      </trkpt>
      <trkpt lat="45.01651" lon="6.26808">
        <ele>2888.9</ele>
        <time>2017-06-24T11:28:04Z</time>
      </trkpt>
      <trkpt lat="45.01647" lon="6.26803">
        <ele>2889.38</ele>
        <time>2017-06-24T11:28:11Z</time>
      </trkpt>
      <trkpt lat="45.01645" lon="6.26801">
        <ele>2891.78</ele>
        <time>2017-06-24T11:28:19Z</time>
      </trkpt>
      <trkpt lat="45.01641" lon="6.26801">
        <ele>2893.71</ele>
        <time>2017-06-24T11:28:28Z</time>
      </trkpt>
      <trkpt lat="45.01639" lon="6.26804">
        <ele>2895.63</ele>
        <time>2017-06-24T11:28:33Z</time>
      </trkpt>
      <trkpt lat="45.01639" lon="6.26804">
        <ele>2898.51</ele>
        <time>2017-06-24T11:28:42Z</time>
      </trkpt>
      <trkpt lat="45.01638" lon="6.26804">
        <ele>2898.99</ele>
        <time>2017-06-24T11:28:53Z</time>
      </trkpt>
      <trkpt lat="45.01637" lon="6.26804">
        <ele>2898.99</ele>
        <time>2017-06-24T11:28:59Z</time>
      </trkpt>
      <trkpt lat="45.01635" lon="6.26803">
        <ele>2899.95</ele>
        <time>2017-06-24T11:29:06Z</time>
      </trkpt>
      <trkpt lat="45.01635" lon="6.26802">
        <ele>2899.95</ele>
        <time>2017-06-24T11:29:09Z</time>
      </trkpt>
      <trkpt lat="45.01633" lon="6.26804">
        <ele>2900.44</ele>
        <time>2017-06-24T11:29:17Z</time>
      </trkpt>
      <trkpt lat="45.01632" lon="6.26805">
        <ele>2900.44</ele>
        <time>2017-06-24T11:29:26Z</time>
      </trkpt>
      <trkpt lat="45.01632" lon="6.26807">
        <ele>2900.92</ele>
        <time>2017-06-24T11:29:32Z</time>
      </trkpt>
      <trkpt lat="45.01632" lon="6.26808">
        <ele>2900.92</ele>
        <time>2017-06-24T11:29:39Z</time>
      </trkpt>
      <trkpt lat="45.0163" lon="6.26808">
        <ele>2901.88</ele>
        <time>2017-06-24T11:29:46Z</time>
      </trkpt>
      <trkpt lat="45.01629" lon="6.26808">
        <ele>2901.88</ele>
        <time>2017-06-24T11:29:55Z</time>
      </trkpt>
      <trkpt lat="45.01626" lon="6.26808">
        <ele>2903.32</ele>
        <time>2017-06-24T11:30:05Z</time>
      </trkpt>
      <trkpt lat="45.01624" lon="6.26806">
        <ele>2905.72</ele>
        <time>2017-06-24T11:30:12Z</time>
      </trkpt>
      <trkpt lat="45.01622" lon="6.26802">
        <ele>2909.09</ele>
        <time>2017-06-24T11:30:22Z</time>
      </trkpt>
      <trkpt lat="45.01618" lon="6.26798">
        <ele>2911.97</ele>
        <time>2017-06-24T11:30:30Z</time>
      </trkpt>
      <trkpt lat="45.01617" lon="6.26796">
        <ele>2912.45</ele>
        <time>2017-06-24T11:30:39Z</time>
      </trkpt>
      <trkpt lat="45.01617" lon="6.26796">
        <ele>2913.41</ele>
        <time>2017-06-24T11:30:53Z</time>
      </trkpt>
      <trkpt lat="45.01617" lon="6.26796">
        <ele>2913.41</ele>
        <time>2017-06-24T11:31:08Z</time>
      </trkpt>
      <trkpt lat="45.01617" lon="6.26795">
        <ele>2914.37</ele>
        <time>2017-06-24T11:31:19Z</time>
      </trkpt>
      <trkpt lat="45.01616" lon="6.26793">
        <ele>2914.85</ele>
        <time>2017-06-24T11:31:25Z</time>
      </trkpt>
      <trkpt lat="45.01613" lon="6.26788">
        <ele>2916.3</ele>
        <time>2017-06-24T11:31:34Z</time>
      </trkpt>
      <trkpt lat="45.01612" lon="6.26786">
        <ele>2917.26</ele>
        <time>2017-06-24T11:31:43Z</time>
      </trkpt>
      <trkpt lat="45.01608" lon="6.26783">
        <ele>2917.74</ele>
        <time>2017-06-24T11:31:50Z</time>
      </trkpt>
      <trkpt lat="45.01605" lon="6.26779">
        <ele>2919.66</ele>
        <time>2017-06-24T11:31:57Z</time>
      </trkpt>
      <trkpt lat="45.01603" lon="6.26779">
        <ele>2920.62</ele>
        <time>2017-06-24T11:32:03Z</time>
      </trkpt>
      <trkpt lat="45.01601" lon="6.26778">
        <ele>2920.62</ele>
        <time>2017-06-24T11:32:10Z</time>
      </trkpt>
      <trkpt lat="45.01597" lon="6.26775">
        <ele>2921.1</ele>
        <time>2017-06-24T11:32:17Z</time>
      </trkpt>
      <trkpt lat="45.01594" lon="6.26774">
        <ele>2920.62</ele>
        <time>2017-06-24T11:32:23Z</time>
      </trkpt>
      <trkpt lat="45.01593" lon="6.26774">
        <ele>2920.62</ele>
        <time>2017-06-24T11:32:31Z</time>
      </trkpt>
      <trkpt lat="45.01589" lon="6.26773">
        <ele>2921.58</ele>
        <time>2017-06-24T11:32:43Z</time>
      </trkpt>
      <trkpt lat="45.01587" lon="6.26772">
        <ele>2921.58</ele>
        <time>2017-06-24T11:32:50Z</time>
      </trkpt>
      <trkpt lat="45.01584" lon="6.26772">
        <ele>2922.06</ele>
        <time>2017-06-24T11:32:57Z</time>
      </trkpt>
      <trkpt lat="45.01581" lon="6.26771">
        <ele>2923.51</ele>
        <time>2017-06-24T11:33:03Z</time>
      </trkpt>
      <trkpt lat="45.01577" lon="6.26772">
        <ele>2925.43</ele>
        <time>2017-06-24T11:33:10Z</time>
      </trkpt>
      <trkpt lat="45.01574" lon="6.26775">
        <ele>2927.35</ele>
        <time>2017-06-24T11:33:15Z</time>
      </trkpt>
      <trkpt lat="45.01571" lon="6.26776">
        <ele>2928.79</ele>
        <time>2017-06-24T11:33:22Z</time>
      </trkpt>
      <trkpt lat="45.01571" lon="6.26777">
        <ele>2929.75</ele>
        <time>2017-06-24T11:33:29Z</time>
      </trkpt>
      <trkpt lat="45.01569" lon="6.26777">
        <ele>2931.2</ele>
        <time>2017-06-24T11:33:37Z</time>
      </trkpt>
      <trkpt lat="45.01565" lon="6.26777">
        <ele>2933.12</ele>
        <time>2017-06-24T11:33:43Z</time>
      </trkpt>
      <trkpt lat="45.01561" lon="6.26779">
        <ele>2935.04</ele>
        <time>2017-06-24T11:33:51Z</time>
      </trkpt>
      <trkpt lat="45.01559" lon="6.26779">
        <ele>2936.97</ele>
        <time>2017-06-24T11:33:57Z</time>
      </trkpt>
      <trkpt lat="45.01557" lon="6.2678">
        <ele>2938.89</ele>
        <time>2017-06-24T11:34:02Z</time>
      </trkpt>
      <trkpt lat="45.01555" lon="6.26781">
        <ele>2939.85</ele>
        <time>2017-06-24T11:34:13Z</time>
      </trkpt>
      <trkpt lat="45.01552" lon="6.2678">
        <ele>2940.81</ele>
        <time>2017-06-24T11:34:19Z</time>
      </trkpt>
      <trkpt lat="45.01549" lon="6.2678">
        <ele>2943.21</ele>
        <time>2017-06-24T11:34:27Z</time>
      </trkpt>
      <trkpt lat="45.01548" lon="6.26779">
        <ele>2944.17</ele>
        <time>2017-06-24T11:34:35Z</time>
      </trkpt>
      <trkpt lat="45.01548" lon="6.26779">
        <ele>2946.1</ele>
        <time>2017-06-24T11:34:43Z</time>
      </trkpt>
      <trkpt lat="45.01547" lon="6.26779">
        <ele>2947.54</ele>
        <time>2017-06-24T11:34:50Z</time>
      </trkpt>
      <trkpt lat="45.01546" lon="6.26778">
        <ele>2948.5</ele>
        <time>2017-06-24T11:34:57Z</time>
      </trkpt>
      <trkpt lat="45.01545" lon="6.26778">
        <ele>2949.46</ele>
        <time>2017-06-24T11:35:07Z</time>
      </trkpt>
      <trkpt lat="45.01544" lon="6.26778">
        <ele>2950.42</ele>
        <time>2017-06-24T11:35:12Z</time>
      </trkpt>
      <trkpt lat="45.01543" lon="6.26778">
        <ele>2951.38</ele>
        <time>2017-06-24T11:35:19Z</time>
      </trkpt>
      <trkpt lat="45.0154" lon="6.26777">
        <ele>2951.87</ele>
        <time>2017-06-24T11:35:24Z</time>
      </trkpt>
      <trkpt lat="45.01538" lon="6.26776">
        <ele>2952.35</ele>
        <time>2017-06-24T11:35:31Z</time>
      </trkpt>
      <trkpt lat="45.01536" lon="6.26775">
        <ele>2953.31</ele>
        <time>2017-06-24T11:35:39Z</time>
      </trkpt>
      <trkpt lat="45.01534" lon="6.26774">
        <ele>2954.27</ele>
        <time>2017-06-24T11:35:46Z</time>
      </trkpt>
      <trkpt lat="45.01532" lon="6.26773">
        <ele>2954.75</ele>
        <time>2017-06-24T11:35:53Z</time>
      </trkpt>
      <trkpt lat="45.01526" lon="6.26771">
        <ele>2955.23</ele>
        <time>2017-06-24T11:36:02Z</time>
      </trkpt>
      <trkpt lat="45.01522" lon="6.26771">
        <ele>2953.79</ele>
        <time>2017-06-24T11:36:08Z</time>
      </trkpt>
      <trkpt lat="45.01521" lon="6.26771">
        <ele>2954.27</ele>
        <time>2017-06-24T11:36:16Z</time>
      </trkpt>
      <trkpt lat="45.01519" lon="6.2677">
        <ele>2955.71</ele>
        <time>2017-06-24T11:36:25Z</time>
      </trkpt>
      <trkpt lat="45.01515" lon="6.2677">
        <ele>2956.67</ele>
        <time>2017-06-24T11:36:31Z</time>
      </trkpt>
      <trkpt lat="45.01512" lon="6.2677">
        <ele>2958.11</ele>
        <time>2017-06-24T11:36:36Z</time>
      </trkpt>
      <trkpt lat="45.01507" lon="6.2677">
        <ele>2958.59</ele>
        <time>2017-06-24T11:36:43Z</time>
      </trkpt>
      <trkpt lat="45.015" lon="6.2677">
        <ele>2958.11</ele>
        <time>2017-06-24T11:36:48Z</time>
      </trkpt>
      <trkpt lat="45.01497" lon="6.26769">
        <ele>2959.08</ele>
        <time>2017-06-24T11:36:56Z</time>
      </trkpt>
      <trkpt lat="45.01495" lon="6.26768">
        <ele>2959.56</ele>
        <time>2017-06-24T11:37:04Z</time>
      </trkpt>
      <trkpt lat="45.01492" lon="6.26768">
        <ele>2961</ele>
        <time>2017-06-24T11:37:18Z</time>
      </trkpt>
      <trkpt lat="45.01491" lon="6.26768">
        <ele>2961.48</ele>
        <time>2017-06-24T11:37:27Z</time>
      </trkpt>
      <trkpt lat="45.01491" lon="6.26768">
        <ele>2961.96</ele>
        <time>2017-06-24T11:37:39Z</time>
      </trkpt>
      <trkpt lat="45.0149" lon="6.26769">
        <ele>2962.44</ele>
        <time>2017-06-24T11:37:53Z</time>
      </trkpt>
      <trkpt lat="45.01489" lon="6.26768">
        <ele>2964.84</ele>
        <time>2017-06-24T11:38:06Z</time>
      </trkpt>
      <trkpt lat="45.01488" lon="6.26767">
        <ele>2966.29</ele>
        <time>2017-06-24T11:38:12Z</time>
      </trkpt>
      <trkpt lat="45.01484" lon="6.26761">
        <ele>2971.57</ele>
        <time>2017-06-24T11:38:20Z</time>
      </trkpt>
      <trkpt lat="45.01482" lon="6.26759">
        <ele>2975.9</ele>
        <time>2017-06-24T11:38:32Z</time>
      </trkpt>
      <trkpt lat="45.01482" lon="6.26757">
        <ele>2978.78</ele>
        <time>2017-06-24T11:38:49Z</time>
      </trkpt>
      <trkpt lat="45.01482" lon="6.26757">
        <ele>2980.22</ele>
        <time>2017-06-24T11:39:07Z</time>
      </trkpt>
      <trkpt lat="45.01481" lon="6.26757">
        <ele>2981.19</ele>
        <time>2017-06-24T11:39:19Z</time>
      </trkpt>
      <trkpt lat="45.0148" lon="6.26756">
        <ele>2981.67</ele>
        <time>2017-06-24T11:39:29Z</time>
      </trkpt>
      <trkpt lat="45.01479" lon="6.26756">
        <ele>2981.67</ele>
        <time>2017-06-24T11:39:36Z</time>
      </trkpt>
      <trkpt lat="45.01478" lon="6.26753">
        <ele>2983.11</ele>
        <time>2017-06-24T11:39:42Z</time>
      </trkpt>
      <trkpt lat="45.01476" lon="6.26749">
        <ele>2984.55</ele>
        <time>2017-06-24T11:39:49Z</time>
      </trkpt>
      <trkpt lat="45.01474" lon="6.26745">
        <ele>2985.99</ele>
        <time>2017-06-24T11:39:56Z</time>
      </trkpt>
      <trkpt lat="45.01473" lon="6.26742">
        <ele>2986.47</ele>
        <time>2017-06-24T11:40:03Z</time>
      </trkpt>
      <trkpt lat="45.01472" lon="6.26741">
        <ele>2986.95</ele>
        <time>2017-06-24T11:40:05Z</time>
      </trkpt>
      <trkpt lat="45.01471" lon="6.26738">
        <ele>2986.95</ele>
        <time>2017-06-24T11:40:07Z</time>
      </trkpt>
      <trkpt lat="45.01468" lon="6.26728">
        <ele>2987.43</ele>
        <time>2017-06-24T11:40:14Z</time>
      </trkpt>
      <trkpt lat="45.01466" lon="6.26722">
        <ele>2989.84</ele>
        <time>2017-06-24T11:40:20Z</time>
      </trkpt>
      <trkpt lat="45.01465" lon="6.26714">
        <ele>2990.8</ele>
        <time>2017-06-24T11:40:26Z</time>
      </trkpt>
      <trkpt lat="45.01464" lon="6.26709">
        <ele>2991.76</ele>
        <time>2017-06-24T11:40:33Z</time>
      </trkpt>
      <trkpt lat="45.01462" lon="6.26706">
        <ele>2993.2</ele>
        <time>2017-06-24T11:40:42Z</time>
      </trkpt>
      <trkpt lat="45.01462" lon="6.26703">
        <ele>2994.64</ele>
        <time>2017-06-24T11:40:48Z</time>
      </trkpt>
      <trkpt lat="45.01461" lon="6.26699">
        <ele>2996.09</ele>
        <time>2017-06-24T11:40:56Z</time>
      </trkpt>
      <trkpt lat="45.0146" lon="6.26697">
        <ele>2997.53</ele>
        <time>2017-06-24T11:41:03Z</time>
      </trkpt>
      <trkpt lat="45.01457" lon="6.26692">
        <ele>2998.01</ele>
        <time>2017-06-24T11:41:12Z</time>
      </trkpt>
      <trkpt lat="45.01455" lon="6.26685">
        <ele>2998.97</ele>
        <time>2017-06-24T11:41:19Z</time>
      </trkpt>
      <trkpt lat="45.01454" lon="6.26678">
        <ele>2999.45</ele>
        <time>2017-06-24T11:41:26Z</time>
      </trkpt>
      <trkpt lat="45.0145" lon="6.26673">
        <ele>2999.93</ele>
        <time>2017-06-24T11:41:32Z</time>
      </trkpt>
      <trkpt lat="45.01449" lon="6.2667">
        <ele>3000.41</ele>
        <time>2017-06-24T11:41:36Z</time>
      </trkpt>
      <trkpt lat="45.01446" lon="6.26665">
        <ele>3000.89</ele>
        <time>2017-06-24T11:41:42Z</time>
      </trkpt>
      <trkpt lat="45.01444" lon="6.2666">
        <ele>3002.82</ele>
        <time>2017-06-24T11:41:50Z</time>
      </trkpt>
      <trkpt lat="45.0144" lon="6.26651">
        <ele>3005.22</ele>
        <time>2017-06-24T11:41:58Z</time>
      </trkpt>
      <trkpt lat="45.01434" lon="6.26648">
        <ele>3006.66</ele>
        <time>2017-06-24T11:42:06Z</time>
      </trkpt>
      <trkpt lat="45.0143" lon="6.26644">
        <ele>3008.58</ele>
        <time>2017-06-24T11:42:13Z</time>
      </trkpt>
      <trkpt lat="45.01429" lon="6.26642">
        <ele>3009.54</ele>
        <time>2017-06-24T11:42:20Z</time>
      </trkpt>
      <trkpt lat="45.01428" lon="6.26638">
        <ele>3011.47</ele>
        <time>2017-06-24T11:42:27Z</time>
      </trkpt>
      <trkpt lat="45.01424" lon="6.26635">
        <ele>3012.91</ele>
        <time>2017-06-24T11:42:35Z</time>
      </trkpt>
      <trkpt lat="45.01421" lon="6.26632">
        <ele>3014.35</ele>
        <time>2017-06-24T11:42:44Z</time>
      </trkpt>
      <trkpt lat="45.01416" lon="6.2663">
        <ele>3015.79</ele>
        <time>2017-06-24T11:42:52Z</time>
      </trkpt>
      <trkpt lat="45.01415" lon="6.26627">
        <ele>3016.75</ele>
        <time>2017-06-24T11:42:59Z</time>
      </trkpt>
      <trkpt lat="45.01413" lon="6.26626">
        <ele>3017.72</ele>
        <time>2017-06-24T11:43:06Z</time>
      </trkpt>
      <trkpt lat="45.01409" lon="6.26626">
        <ele>3019.16</ele>
        <time>2017-06-24T11:43:13Z</time>
      </trkpt>
      <trkpt lat="45.01406" lon="6.26622">
        <ele>3020.12</ele>
        <time>2017-06-24T11:43:21Z</time>
      </trkpt>
      <trkpt lat="45.01402" lon="6.2662">
        <ele>3022.04</ele>
        <time>2017-06-24T11:43:27Z</time>
      </trkpt>
      <trkpt lat="45.014" lon="6.26615">
        <ele>3023.96</ele>
        <time>2017-06-24T11:43:35Z</time>
      </trkpt>
      <trkpt lat="45.01397" lon="6.2661">
        <ele>3025.89</ele>
        <time>2017-06-24T11:43:43Z</time>
      </trkpt>
      <trkpt lat="45.01393" lon="6.26604">
        <ele>3027.81</ele>
        <time>2017-06-24T11:43:51Z</time>
      </trkpt>
      <trkpt lat="45.01389" lon="6.26602">
        <ele>3028.77</ele>
        <time>2017-06-24T11:43:57Z</time>
      </trkpt>
      <trkpt lat="45.01384" lon="6.26598">
        <ele>3029.73</ele>
        <time>2017-06-24T11:44:06Z</time>
      </trkpt>
      <trkpt lat="45.01382" lon="6.26593">
        <ele>3030.69</ele>
        <time>2017-06-24T11:44:12Z</time>
      </trkpt>
      <trkpt lat="45.01377" lon="6.26589">
        <ele>3033.1</ele>
        <time>2017-06-24T11:44:20Z</time>
      </trkpt>
      <trkpt lat="45.01372" lon="6.26582">
        <ele>3035.02</ele>
        <time>2017-06-24T11:44:29Z</time>
      </trkpt>
      <trkpt lat="45.01366" lon="6.26579">
        <ele>3036.94</ele>
        <time>2017-06-24T11:44:36Z</time>
      </trkpt>
      <trkpt lat="45.01359" lon="6.26575">
        <ele>3040.31</ele>
        <time>2017-06-24T11:44:47Z</time>
      </trkpt>
      <trkpt lat="45.01356" lon="6.26578">
        <ele>3041.27</ele>
        <time>2017-06-24T11:44:56Z</time>
      </trkpt>
      <trkpt lat="45.01352" lon="6.26578">
        <ele>3042.71</ele>
        <time>2017-06-24T11:45:04Z</time>
      </trkpt>
      <trkpt lat="45.01351" lon="6.26579">
        <ele>3042.23</ele>
        <time>2017-06-24T11:45:11Z</time>
      </trkpt>
      <trkpt lat="45.01348" lon="6.26577">
        <ele>3043.67</ele>
        <time>2017-06-24T11:45:20Z</time>
      </trkpt>
      <trkpt lat="45.01345" lon="6.26576">
        <ele>3043.67</ele>
        <time>2017-06-24T11:45:26Z</time>
      </trkpt>
      <trkpt lat="45.01342" lon="6.26573">
        <ele>3045.11</ele>
        <time>2017-06-24T11:45:33Z</time>
      </trkpt>
      <trkpt lat="45.01338" lon="6.2657">
        <ele>3047.52</ele>
        <time>2017-06-24T11:45:41Z</time>
      </trkpt>
      <trkpt lat="45.01336" lon="6.26568">
        <ele>3048</ele>
        <time>2017-06-24T11:45:49Z</time>
      </trkpt>
      <trkpt lat="45.01334" lon="6.26566">
        <ele>3048.48</ele>
        <time>2017-06-24T11:45:57Z</time>
      </trkpt>
      <trkpt lat="45.01327" lon="6.26563">
        <ele>3049.92</ele>
        <time>2017-06-24T11:46:06Z</time>
      </trkpt>
      <trkpt lat="45.01322" lon="6.26558">
        <ele>3051.84</ele>
        <time>2017-06-24T11:46:13Z</time>
      </trkpt>
      <trkpt lat="45.01321" lon="6.26558">
        <ele>3051.84</ele>
        <time>2017-06-24T11:46:14Z</time>
      </trkpt>
      <trkpt lat="45.01315" lon="6.26554">
        <ele>3052.8</ele>
        <time>2017-06-24T11:46:22Z</time>
      </trkpt>
      <trkpt lat="45.01315" lon="6.26554">
        <ele>3053.28</ele>
        <time>2017-06-24T11:46:31Z</time>
      </trkpt>
      <trkpt lat="45.01314" lon="6.26554">
        <ele>3053.77</ele>
        <time>2017-06-24T11:46:41Z</time>
      </trkpt>
      <trkpt lat="45.01312" lon="6.26553">
        <ele>3053.77</ele>
        <time>2017-06-24T11:46:50Z</time>
      </trkpt>
      <trkpt lat="45.0131" lon="6.26553">
        <ele>3055.21</ele>
        <time>2017-06-24T11:46:57Z</time>
      </trkpt>
      <trkpt lat="45.01306" lon="6.26553">
        <ele>3055.69</ele>
        <time>2017-06-24T11:47:06Z</time>
      </trkpt>
      <trkpt lat="45.01302" lon="6.26553">
        <ele>3057.61</ele>
        <time>2017-06-24T11:47:14Z</time>
      </trkpt>
      <trkpt lat="45.01299" lon="6.26553">
        <ele>3058.09</ele>
        <time>2017-06-24T11:47:20Z</time>
      </trkpt>
      <trkpt lat="45.01297" lon="6.26553">
        <ele>3058.57</ele>
        <time>2017-06-24T11:47:27Z</time>
      </trkpt>
      <trkpt lat="45.01292" lon="6.26552">
        <ele>3060.98</ele>
        <time>2017-06-24T11:47:33Z</time>
      </trkpt>
      <trkpt lat="45.0129" lon="6.26554">
        <ele>3063.38</ele>
        <time>2017-06-24T11:47:39Z</time>
      </trkpt>
      <trkpt lat="45.01288" lon="6.26554">
        <ele>3065.3</ele>
        <time>2017-06-24T11:47:46Z</time>
      </trkpt>
      <trkpt lat="45.01287" lon="6.26553">
        <ele>3064.82</ele>
        <time>2017-06-24T11:47:53Z</time>
      </trkpt>
      <trkpt lat="45.01287" lon="6.26551">
        <ele>3064.82</ele>
        <time>2017-06-24T11:47:58Z</time>
      </trkpt>
      <trkpt lat="45.01285" lon="6.26547">
        <ele>3065.78</ele>
        <time>2017-06-24T11:48:07Z</time>
      </trkpt>
      <trkpt lat="45.01284" lon="6.26547">
        <ele>3066.26</ele>
        <time>2017-06-24T11:48:14Z</time>
      </trkpt>
      <trkpt lat="45.01284" lon="6.26546">
        <ele>3066.26</ele>
        <time>2017-06-24T11:48:20Z</time>
      </trkpt>
      <trkpt lat="45.01283" lon="6.26545">
        <ele>3066.26</ele>
        <time>2017-06-24T11:48:27Z</time>
      </trkpt>
      <trkpt lat="45.01283" lon="6.26543">
        <ele>3066.74</ele>
        <time>2017-06-24T11:48:35Z</time>
      </trkpt>
      <trkpt lat="45.01281" lon="6.26542">
        <ele>3066.74</ele>
        <time>2017-06-24T11:48:43Z</time>
      </trkpt>
      <trkpt lat="45.0128" lon="6.2654">
        <ele>3067.22</ele>
        <time>2017-06-24T11:48:51Z</time>
      </trkpt>
      <trkpt lat="45.01275" lon="6.2654">
        <ele>3068.67</ele>
        <time>2017-06-24T11:48:58Z</time>
      </trkpt>
      <trkpt lat="45.01271" lon="6.2654">
        <ele>3069.63</ele>
        <time>2017-06-24T11:49:05Z</time>
      </trkpt>
      <trkpt lat="45.01269" lon="6.26538">
        <ele>3071.55</ele>
        <time>2017-06-24T11:49:14Z</time>
      </trkpt>
      <trkpt lat="45.01267" lon="6.26538">
        <ele>3072.51</ele>
        <time>2017-06-24T11:49:24Z</time>
      </trkpt>
      <trkpt lat="45.01265" lon="6.26538">
        <ele>3072.99</ele>
        <time>2017-06-24T11:49:32Z</time>
      </trkpt>
      <trkpt lat="45.01263" lon="6.26537">
        <ele>3073.95</ele>
        <time>2017-06-24T11:49:41Z</time>
      </trkpt>
      <trkpt lat="45.01262" lon="6.26536">
        <ele>3074.43</ele>
        <time>2017-06-24T11:49:47Z</time>
      </trkpt>
      <trkpt lat="45.0126" lon="6.26536">
        <ele>3076.36</ele>
        <time>2017-06-24T11:49:55Z</time>
      </trkpt>
      <trkpt lat="45.01252" lon="6.26535">
        <ele>3078.76</ele>
        <time>2017-06-24T11:50:03Z</time>
      </trkpt>
      <trkpt lat="45.01249" lon="6.26535">
        <ele>3080.2</ele>
        <time>2017-06-24T11:50:11Z</time>
      </trkpt>
      <trkpt lat="45.01244" lon="6.26532">
        <ele>3083.09</ele>
        <time>2017-06-24T11:50:19Z</time>
      </trkpt>
      <trkpt lat="45.01241" lon="6.26527">
        <ele>3085.97</ele>
        <time>2017-06-24T11:50:25Z</time>
      </trkpt>
      <trkpt lat="45.01239" lon="6.26524">
        <ele>3087.89</ele>
        <time>2017-06-24T11:50:36Z</time>
      </trkpt>
      <trkpt lat="45.01238" lon="6.26522">
        <ele>3088.85</ele>
        <time>2017-06-24T11:50:43Z</time>
      </trkpt>
      <trkpt lat="45.01236" lon="6.2652">
        <ele>3089.33</ele>
        <time>2017-06-24T11:50:50Z</time>
      </trkpt>
      <trkpt lat="45.01233" lon="6.26518">
        <ele>3092.7</ele>
        <time>2017-06-24T11:50:59Z</time>
      </trkpt>
      <trkpt lat="45.01232" lon="6.26517">
        <ele>3094.62</ele>
        <time>2017-06-24T11:51:10Z</time>
      </trkpt>
      <trkpt lat="45.01229" lon="6.26515">
        <ele>3096.06</ele>
        <time>2017-06-24T11:51:19Z</time>
      </trkpt>
      <trkpt lat="45.01223" lon="6.2651">
        <ele>3099.43</ele>
        <time>2017-06-24T11:51:27Z</time>
      </trkpt>
      <trkpt lat="45.01218" lon="6.26506">
        <ele>3100.87</ele>
        <time>2017-06-24T11:51:33Z</time>
      </trkpt>
      <trkpt lat="45.01212" lon="6.26498">
        <ele>3102.79</ele>
        <time>2017-06-24T11:51:41Z</time>
      </trkpt>
      <trkpt lat="45.01209" lon="6.26495">
        <ele>3104.23</ele>
        <time>2017-06-24T11:51:49Z</time>
      </trkpt>
      <trkpt lat="45.01207" lon="6.26494">
        <ele>3104.23</ele>
        <time>2017-06-24T11:51:58Z</time>
      </trkpt>
      <trkpt lat="45.01204" lon="6.26493">
        <ele>3104.23</ele>
        <time>2017-06-24T11:52:07Z</time>
      </trkpt>
      <trkpt lat="45.01202" lon="6.26492">
        <ele>3105.2</ele>
        <time>2017-06-24T11:52:16Z</time>
      </trkpt>
      <trkpt lat="45.01201" lon="6.26491">
        <ele>3105.68</ele>
        <time>2017-06-24T11:52:23Z</time>
      </trkpt>
      <trkpt lat="45.01199" lon="6.26489">
        <ele>3106.64</ele>
        <time>2017-06-24T11:52:31Z</time>
      </trkpt>
      <trkpt lat="45.01197" lon="6.26489">
        <ele>3108.08</ele>
        <time>2017-06-24T11:52:39Z</time>
      </trkpt>
      <trkpt lat="45.01194" lon="6.26486">
        <ele>3110.48</ele>
        <time>2017-06-24T11:52:47Z</time>
      </trkpt>
      <trkpt lat="45.0119" lon="6.26485">
        <ele>3112.89</ele>
        <time>2017-06-24T11:52:54Z</time>
      </trkpt>
      <trkpt lat="45.01188" lon="6.26484">
        <ele>3113.37</ele>
        <time>2017-06-24T11:53:02Z</time>
      </trkpt>
      <trkpt lat="45.01186" lon="6.26483">
        <ele>3113.85</ele>
        <time>2017-06-24T11:53:10Z</time>
      </trkpt>
      <trkpt lat="45.01183" lon="6.26482">
        <ele>3114.33</ele>
        <time>2017-06-24T11:53:18Z</time>
      </trkpt>
      <trkpt lat="45.0118" lon="6.26478">
        <ele>3115.29</ele>
        <time>2017-06-24T11:53:27Z</time>
      </trkpt>
      <trkpt lat="45.01177" lon="6.26477">
        <ele>3116.25</ele>
        <time>2017-06-24T11:53:32Z</time>
      </trkpt>
      <trkpt lat="45.01172" lon="6.26476">
        <ele>3119.13</ele>
        <time>2017-06-24T11:53:40Z</time>
      </trkpt>
      <trkpt lat="45.01166" lon="6.26476">
        <ele>3121.06</ele>
        <time>2017-06-24T11:53:49Z</time>
      </trkpt>
      <trkpt lat="45.01164" lon="6.26475">
        <ele>3121.06</ele>
        <time>2017-06-24T11:53:57Z</time>
      </trkpt>
      <trkpt lat="45.01161" lon="6.26476">
        <ele>3121.06</ele>
        <time>2017-06-24T11:54:06Z</time>
      </trkpt>
      <trkpt lat="45.01154" lon="6.26477">
        <ele>3121.06</ele>
        <time>2017-06-24T11:54:14Z</time>
      </trkpt>
      <trkpt lat="45.01152" lon="6.26479">
        <ele>3121.54</ele>
        <time>2017-06-24T11:54:19Z</time>
      </trkpt>
      <trkpt lat="45.01146" lon="6.26489">
        <ele>3122.02</ele>
        <time>2017-06-24T11:54:24Z</time>
      </trkpt>
      <trkpt lat="45.01138" lon="6.26494">
        <ele>3122.02</ele>
        <time>2017-06-24T11:54:31Z</time>
      </trkpt>
      <trkpt lat="45.01131" lon="6.26497">
        <ele>3124.9</ele>
        <time>2017-06-24T11:54:39Z</time>
      </trkpt>
      <trkpt lat="45.01126" lon="6.26499">
        <ele>3126.83</ele>
        <time>2017-06-24T11:54:47Z</time>
      </trkpt>
      <trkpt lat="45.0112" lon="6.26499">
        <ele>3130.19</ele>
        <time>2017-06-24T11:54:54Z</time>
      </trkpt>
      <trkpt lat="45.01116" lon="6.26498">
        <ele>3133.07</ele>
        <time>2017-06-24T11:55:01Z</time>
      </trkpt>
      <trkpt lat="45.01113" lon="6.26496">
        <ele>3135.48</ele>
        <time>2017-06-24T11:55:09Z</time>
      </trkpt>
      <trkpt lat="45.01112" lon="6.26493">
        <ele>3137.4</ele>
        <time>2017-06-24T11:55:17Z</time>
      </trkpt>
      <trkpt lat="45.0111" lon="6.26488">
        <ele>3139.8</ele>
        <time>2017-06-24T11:55:23Z</time>
      </trkpt>
      <trkpt lat="45.01109" lon="6.26487">
        <ele>3140.28</ele>
        <time>2017-06-24T11:55:35Z</time>
      </trkpt>
      <trkpt lat="45.01109" lon="6.2648">
        <ele>3142.21</ele>
        <time>2017-06-24T11:55:42Z</time>
      </trkpt>
      <trkpt lat="45.01106" lon="6.26473">
        <ele>3144.13</ele>
        <time>2017-06-24T11:55:49Z</time>
      </trkpt>
      <trkpt lat="45.01103" lon="6.26471">
        <ele>3146.05</ele>
        <time>2017-06-24T11:55:56Z</time>
      </trkpt>
      <trkpt lat="45.01099" lon="6.26469">
        <ele>3147.01</ele>
        <time>2017-06-24T11:56:04Z</time>
      </trkpt>
      <trkpt lat="45.01098" lon="6.26468">
        <ele>3147.97</ele>
        <time>2017-06-24T11:56:10Z</time>
      </trkpt>
      <trkpt lat="45.01094" lon="6.26465">
        <ele>3149.9</ele>
        <time>2017-06-24T11:56:17Z</time>
      </trkpt>
      <trkpt lat="45.01093" lon="6.26459">
        <ele>3152.3</ele>
        <time>2017-06-24T11:56:25Z</time>
      </trkpt>
      <trkpt lat="45.01095" lon="6.26451">
        <ele>3154.22</ele>
        <time>2017-06-24T11:56:32Z</time>
      </trkpt>
      <trkpt lat="45.01095" lon="6.26448">
        <ele>3155.66</ele>
        <time>2017-06-24T11:56:40Z</time>
      </trkpt>
      <trkpt lat="45.01095" lon="6.26448">
        <ele>3156.15</ele>
        <time>2017-06-24T11:56:41Z</time>
      </trkpt>
      <trkpt lat="45.01096" lon="6.26443">
        <ele>3206.13</ele>
        <time>2017-06-24T11:56:57Z</time>
      </trkpt>
      <trkpt lat="45.01097" lon="6.26437">
        <ele>3163.84</ele>
        <time>2017-06-24T11:57:05Z</time>
      </trkpt>
      <trkpt lat="45.01096" lon="6.26431">
        <ele>3162.39</ele>
        <time>2017-06-24T11:57:13Z</time>
      </trkpt>
      <trkpt lat="45.01092" lon="6.26432">
        <ele>3161.91</ele>
        <time>2017-06-24T11:57:21Z</time>
      </trkpt>
      <trkpt lat="45.01091" lon="6.26428">
        <ele>3162.88</ele>
        <time>2017-06-24T11:57:28Z</time>
      </trkpt>
      <trkpt lat="45.01089" lon="6.26423">
        <ele>3163.84</ele>
        <time>2017-06-24T11:57:36Z</time>
      </trkpt>
      <trkpt lat="45.01086" lon="6.26423">
        <ele>3164.32</ele>
        <time>2017-06-24T11:57:43Z</time>
      </trkpt>
      <trkpt lat="45.01086" lon="6.26415">
        <ele>3166.24</ele>
        <time>2017-06-24T11:57:51Z</time>
      </trkpt>
      <trkpt lat="45.01086" lon="6.26413">
        <ele>3166.72</ele>
        <time>2017-06-24T11:57:52Z</time>
      </trkpt>
      <trkpt lat="45.01088" lon="6.26406">
        <ele>3168.64</ele>
        <time>2017-06-24T11:57:59Z</time>
      </trkpt>
      <trkpt lat="45.01092" lon="6.26398">
        <ele>3170.08</ele>
        <time>2017-06-24T11:58:09Z</time>
      </trkpt>
      <trkpt lat="45.01095" lon="6.26391">
        <ele>3171.53</ele>
        <time>2017-06-24T11:58:18Z</time>
      </trkpt>
      <trkpt lat="45.01093" lon="6.26389">
        <ele>3172.49</ele>
        <time>2017-06-24T11:58:23Z</time>
      </trkpt>
      <trkpt lat="45.01089" lon="6.26388">
        <ele>3171.53</ele>
        <time>2017-06-24T11:58:31Z</time>
      </trkpt>
      <trkpt lat="45.01083" lon="6.2639">
        <ele>3170.57</ele>
        <time>2017-06-24T11:58:40Z</time>
      </trkpt>
      <trkpt lat="45.01081" lon="6.2639">
        <ele>3171.05</ele>
        <time>2017-06-24T11:58:47Z</time>
      </trkpt>
      <trkpt lat="45.01078" lon="6.26389">
        <ele>3172.49</ele>
        <time>2017-06-24T11:58:53Z</time>
      </trkpt>
      <trkpt lat="45.01074" lon="6.26389">
        <ele>3173.93</ele>
        <time>2017-06-24T11:59:01Z</time>
      </trkpt>
      <trkpt lat="45.01071" lon="6.26384">
        <ele>3175.85</ele>
        <time>2017-06-24T11:59:10Z</time>
      </trkpt>
      <trkpt lat="45.01069" lon="6.2638">
        <ele>3176.81</ele>
        <time>2017-06-24T11:59:15Z</time>
      </trkpt>
      <trkpt lat="45.01066" lon="6.26378">
        <ele>3177.78</ele>
        <time>2017-06-24T11:59:19Z</time>
      </trkpt>
      <trkpt lat="45.01062" lon="6.26378">
        <ele>3178.26</ele>
        <time>2017-06-24T11:59:26Z</time>
      </trkpt>
      <trkpt lat="45.0106" lon="6.26371">
        <ele>3180.18</ele>
        <time>2017-06-24T11:59:34Z</time>
      </trkpt>
      <trkpt lat="45.01061" lon="6.26363">
        <ele>3182.1</ele>
        <time>2017-06-24T11:59:41Z</time>
      </trkpt>
      <trkpt lat="45.01062" lon="6.26357">
        <ele>3182.1</ele>
        <time>2017-06-24T11:59:46Z</time>
      </trkpt>
      <trkpt lat="45.01061" lon="6.26351">
        <ele>3184.02</ele>
        <time>2017-06-24T11:59:53Z</time>
      </trkpt>
      <trkpt lat="45.01063" lon="6.26343">
        <ele>3185.47</ele>
        <time>2017-06-24T12:00:00Z</time>
      </trkpt>
      <trkpt lat="45.01062" lon="6.26337">
        <ele>3188.35</ele>
        <time>2017-06-24T12:00:07Z</time>
      </trkpt>
      <trkpt lat="45.01059" lon="6.26335">
        <ele>3187.87</ele>
        <time>2017-06-24T12:00:15Z</time>
      </trkpt>
      <trkpt lat="45.01057" lon="6.26334">
        <ele>3188.83</ele>
        <time>2017-06-24T12:00:22Z</time>
      </trkpt>
      <trkpt lat="45.01056" lon="6.26331">
        <ele>3190.27</ele>
        <time>2017-06-24T12:00:29Z</time>
      </trkpt>
      <trkpt lat="45.01055" lon="6.26331">
        <ele>3191.71</ele>
        <time>2017-06-24T12:00:38Z</time>
      </trkpt>
      <trkpt lat="45.01054" lon="6.2633">
        <ele>3193.16</ele>
        <time>2017-06-24T12:00:49Z</time>
      </trkpt>
      <trkpt lat="45.01046" lon="6.26329">
        <ele>3194.6</ele>
        <time>2017-06-24T12:00:57Z</time>
      </trkpt>
      <trkpt lat="45.01029" lon="6.26329">
        <ele>3195.56</ele>
        <time>2017-06-24T12:01:06Z</time>
      </trkpt>
      <trkpt lat="45.01019" lon="6.2633">
        <ele>3191.23</ele>
        <time>2017-06-24T12:01:13Z</time>
      </trkpt>
      <trkpt lat="45.01009" lon="6.26333">
        <ele>3188.83</ele>
        <time>2017-06-24T12:01:21Z</time>
      </trkpt>
      <trkpt lat="45.01005" lon="6.2633">
        <ele>3189.31</ele>
        <time>2017-06-24T12:01:26Z</time>
      </trkpt>
      <trkpt lat="45.01007" lon="6.26321">
        <ele>3191.71</ele>
        <time>2017-06-24T12:01:35Z</time>
      </trkpt>
      <trkpt lat="45.01009" lon="6.2632">
        <ele>3191.71</ele>
        <time>2017-06-24T12:01:42Z</time>
      </trkpt>
      <trkpt lat="45.0101" lon="6.2632">
        <ele>3191.23</ele>
        <time>2017-06-24T12:01:54Z</time>
      </trkpt>
      <trkpt lat="45.0101" lon="6.26317">
        <ele>3191.23</ele>
        <time>2017-06-24T12:02:09Z</time>
      </trkpt>
      <trkpt lat="45.0101" lon="6.26316">
        <ele>3191.71</ele>
        <time>2017-06-24T12:02:22Z</time>
      </trkpt>
      <trkpt lat="45.01011" lon="6.26314">
        <ele>3191.71</ele>
        <time>2017-06-24T12:02:37Z</time>
      </trkpt>
      <trkpt lat="45.01011" lon="6.26314">
        <ele>3191.71</ele>
        <time>2017-06-24T12:02:54Z</time>
      </trkpt>
      <trkpt lat="45.01011" lon="6.26313">
        <ele>3191.71</ele>
        <time>2017-06-24T12:03:09Z</time>
      </trkpt>
      <trkpt lat="45.0101" lon="6.26316">
        <ele>3192.2</ele>
        <time>2017-06-24T12:03:23Z</time>
      </trkpt>
      <trkpt lat="45.01007" lon="6.26324">
        <ele>3192.2</ele>
        <time>2017-06-24T12:03:42Z</time>
      </trkpt>
      <trkpt lat="45.01007" lon="6.26323">
        <ele>3192.2</ele>
        <time>2017-06-24T12:03:59Z</time>
      </trkpt>
      <trkpt lat="45.01008" lon="6.26319">
        <ele>3191.71</ele>
        <time>2017-06-24T12:04:10Z</time>
      </trkpt>
      <trkpt lat="45.0101" lon="6.2632">
        <ele>3192.2</ele>
        <time>2017-06-24T12:04:25Z</time>
      </trkpt>
      <trkpt lat="45.01009" lon="6.26315">
        <ele>3191.71</ele>
        <time>2017-06-24T12:04:36Z</time>
      </trkpt>
      <trkpt lat="45.01008" lon="6.26309">
        <ele>3192.2</ele>
        <time>2017-06-24T12:04:45Z</time>
      </trkpt>
      <trkpt lat="45.01007" lon="6.2631">
        <ele>3191.23</ele>
        <time>2017-06-24T12:04:53Z</time>
      </trkpt>
      <trkpt lat="45.01006" lon="6.2631">
        <ele>3190.75</ele>
        <time>2017-06-24T12:05:15Z</time>
      </trkpt>
      <trkpt lat="45.01004" lon="6.2631">
        <ele>3191.71</ele>
        <time>2017-06-24T12:05:39Z</time>
      </trkpt>
      <trkpt lat="45.01004" lon="6.26308">
        <ele>3192.2</ele>
        <time>2017-06-24T12:05:48Z</time>
      </trkpt>
      <trkpt lat="45.01004" lon="6.26312">
        <ele>3193.16</ele>
        <time>2017-06-24T12:05:54Z</time>
      </trkpt>
      <trkpt lat="45.01005" lon="6.26308">
        <ele>3196.52</ele>
        <time>2017-06-24T12:06:05Z</time>
      </trkpt>
      <trkpt lat="45.01007" lon="6.26312">
        <ele>3205.65</ele>
        <time>2017-06-24T12:06:10Z</time>
      </trkpt>
      <trkpt lat="45.01007" lon="6.26315">
        <ele>3209.02</ele>
        <time>2017-06-24T12:06:17Z</time>
      </trkpt>
      <trkpt lat="45.01007" lon="6.26315">
        <ele>3210.46</ele>
        <time>2017-06-24T12:06:19Z</time>
      </trkpt>
      <trkpt lat="45.01004" lon="6.26318">
        <ele>3213.34</ele>
        <time>2017-06-24T12:06:24Z</time>
      </trkpt>
      <trkpt lat="45.01002" lon="6.26319">
        <ele>3215.27</ele>
        <time>2017-06-24T12:06:42Z</time>
      </trkpt>
      <trkpt lat="45.01002" lon="6.26319">
        <ele>3216.71</ele>
        <time>2017-06-24T12:07:01Z</time>
      </trkpt>
      <trkpt lat="45.01003" lon="6.2632">
        <ele>3218.63</ele>
        <time>2017-06-24T12:07:19Z</time>
      </trkpt>
      <trkpt lat="45.01002" lon="6.2632">
        <ele>3219.59</ele>
        <time>2017-06-24T12:07:32Z</time>
      </trkpt>
      <trkpt lat="45.01003" lon="6.2632">
        <ele>3220.07</ele>
        <time>2017-06-24T12:07:45Z</time>
      </trkpt>
      <trkpt lat="45.01003" lon="6.2632">
        <ele>3220.07</ele>
        <time>2017-06-24T12:08:02Z</time>
      </trkpt>
      <trkpt lat="45.01003" lon="6.2632">
        <ele>3220.07</ele>
        <time>2017-06-24T12:08:15Z</time>
      </trkpt>
      <trkpt lat="45.01003" lon="6.2632">
        <ele>3219.11</ele>
        <time>2017-06-24T12:08:33Z</time>
      </trkpt>
      <trkpt lat="45.01003" lon="6.2632">
        <ele>3219.11</ele>
        <time>2017-06-24T12:08:46Z</time>
      </trkpt>
      <trkpt lat="45.01003" lon="6.26321">
        <ele>3218.63</ele>
        <time>2017-06-24T12:09:02Z</time>
      </trkpt>
      <trkpt lat="45.01003" lon="6.26321">
        <ele>3218.63</ele>
        <time>2017-06-24T12:09:11Z</time>
      </trkpt>
      <trkpt lat="45.01004" lon="6.26321">
        <ele>3218.63</ele>
        <time>2017-06-24T12:09:28Z</time>
      </trkpt>
      <trkpt lat="45.01004" lon="6.26322">
        <ele>3219.11</ele>
        <time>2017-06-24T12:09:50Z</time>
      </trkpt>
      <trkpt lat="45.01005" lon="6.26322">
        <ele>3219.59</ele>
        <time>2017-06-24T12:10:13Z</time>
      </trkpt>
      <trkpt lat="45.01005" lon="6.26322">
        <ele>3219.11</ele>
        <time>2017-06-24T12:10:24Z</time>
      </trkpt>
      <trkpt lat="45.01006" lon="6.26323">
        <ele>3215.27</ele>
        <time>2017-06-24T12:10:40Z</time>
      </trkpt>
      <trkpt lat="45.01007" lon="6.26323">
        <ele>3212.86</ele>
        <time>2017-06-24T12:10:56Z</time>
      </trkpt>
      <trkpt lat="45.01007" lon="6.26322">
        <ele>3211.9</ele>
        <time>2017-06-24T12:11:11Z</time>
      </trkpt>
      <trkpt lat="45.01006" lon="6.26322">
        <ele>3211.42</ele>
        <time>2017-06-24T12:11:26Z</time>
      </trkpt>
      <trkpt lat="45.01006" lon="6.26321">
        <ele>3210.46</ele>
        <time>2017-06-24T12:11:42Z</time>
      </trkpt>
      <trkpt lat="45.01006" lon="6.26321">
        <ele>3209.98</ele>
        <time>2017-06-24T12:11:56Z</time>
      </trkpt>
      <trkpt lat="45.01005" lon="6.26321">
        <ele>3209.98</ele>
        <time>2017-06-24T12:12:10Z</time>
      </trkpt>
      <trkpt lat="45.01005" lon="6.2632">
        <ele>3210.94</ele>
        <time>2017-06-24T12:12:25Z</time>
      </trkpt>
      <trkpt lat="45.01005" lon="6.2632">
        <ele>3211.42</ele>
        <time>2017-06-24T12:12:41Z</time>
      </trkpt>
      <trkpt lat="45.01005" lon="6.2632">
        <ele>3211.9</ele>
        <time>2017-06-24T12:12:55Z</time>
      </trkpt>
      <trkpt lat="45.01005" lon="6.2632">
        <ele>3211.42</ele>
        <time>2017-06-24T12:13:08Z</time>
      </trkpt>
      <trkpt lat="45.01005" lon="6.2632">
        <ele>3210.94</ele>
        <time>2017-06-24T12:13:28Z</time>
      </trkpt>
      <trkpt lat="45.01005" lon="6.2632">
        <ele>3210.46</ele>
        <time>2017-06-24T12:13:40Z</time>
      </trkpt>
      <trkpt lat="45.01005" lon="6.2632">
        <ele>3209.98</ele>
        <time>2017-06-24T12:13:56Z</time>
      </trkpt>
      <trkpt lat="45.01005" lon="6.2632">
        <ele>3209.5</ele>
        <time>2017-06-24T12:14:11Z</time>
      </trkpt>
      <trkpt lat="45.01005" lon="6.2632">
        <ele>3209.5</ele>
        <time>2017-06-24T12:14:25Z</time>
      </trkpt>
      <trkpt lat="45.01005" lon="6.2632">
        <ele>3209.5</ele>
        <time>2017-06-24T12:14:40Z</time>
      </trkpt>
      <trkpt lat="45.01005" lon="6.26319">
        <ele>3209.5</ele>
        <time>2017-06-24T12:14:53Z</time>
      </trkpt>
      <trkpt lat="45.01005" lon="6.26319">
        <ele>3209.98</ele>
        <time>2017-06-24T12:15:08Z</time>
      </trkpt>
      <trkpt lat="45.01005" lon="6.26319">
        <ele>3209.5</ele>
        <time>2017-06-24T12:15:27Z</time>
      </trkpt>
      <trkpt lat="45.01005" lon="6.2632">
        <ele>3209.5</ele>
        <time>2017-06-24T12:15:46Z</time>
      </trkpt>
      <trkpt lat="45.01006" lon="6.2632">
        <ele>3209.5</ele>
        <time>2017-06-24T12:16:05Z</time>
      </trkpt>
      <trkpt lat="45.01005" lon="6.2632">
        <ele>3209.98</ele>
        <time>2017-06-24T12:16:36Z</time>
      </trkpt>
      <trkpt lat="45.01005" lon="6.2632">
        <ele>3209.98</ele>
        <time>2017-06-24T12:17:00Z</time>
      </trkpt>
      <trkpt lat="45.01006" lon="6.26321">
        <ele>3210.94</ele>
        <time>2017-06-24T12:17:32Z</time>
      </trkpt>
      <trkpt lat="45.01007" lon="6.2632">
        <ele>3211.9</ele>
        <time>2017-06-24T12:17:57Z</time>
      </trkpt>
      <trkpt lat="45.01007" lon="6.2632">
        <ele>3212.38</ele>
        <time>2017-06-24T12:18:10Z</time>
      </trkpt>
      <trkpt lat="45.01008" lon="6.2632">
        <ele>3212.38</ele>
        <time>2017-06-24T12:18:24Z</time>
      </trkpt>
      <trkpt lat="45.01008" lon="6.2632">
        <ele>3211.9</ele>
        <time>2017-06-24T12:18:34Z</time>
      </trkpt>
      <trkpt lat="45.01008" lon="6.26319">
        <ele>3211.42</ele>
        <time>2017-06-24T12:18:46Z</time>
      </trkpt>
      <trkpt lat="45.01008" lon="6.2632">
        <ele>3211.42</ele>
        <time>2017-06-24T12:19:00Z</time>
      </trkpt>
      <trkpt lat="45.01007" lon="6.2632">
        <ele>3210.94</ele>
        <time>2017-06-24T12:19:15Z</time>
      </trkpt>
      <trkpt lat="45.01007" lon="6.2632">
        <ele>3210.46</ele>
        <time>2017-06-24T12:19:27Z</time>
      </trkpt>
      <trkpt lat="45.01007" lon="6.2632">
        <ele>3210.46</ele>
        <time>2017-06-24T12:19:41Z</time>
      </trkpt>
      <trkpt lat="45.01007" lon="6.2632">
        <ele>3209.98</ele>
        <time>2017-06-24T12:19:55Z</time>
      </trkpt>
      <trkpt lat="45.01007" lon="6.2632">
        <ele>3209.98</ele>
        <time>2017-06-24T12:20:07Z</time>
      </trkpt>
      <trkpt lat="45.01006" lon="6.26321">
        <ele>3209.98</ele>
        <time>2017-06-24T12:20:27Z</time>
      </trkpt>
      <trkpt lat="45.01006" lon="6.26321">
        <ele>3209.98</ele>
        <time>2017-06-24T12:20:42Z</time>
      </trkpt>
      <trkpt lat="45.01007" lon="6.26322">
        <ele>3210.46</ele>
        <time>2017-06-24T12:21:02Z</time>
      </trkpt>
      <trkpt lat="45.01007" lon="6.26322">
        <ele>3210.46</ele>
        <time>2017-06-24T12:21:12Z</time>
      </trkpt>
      <trkpt lat="45.01007" lon="6.26323">
        <ele>3210.46</ele>
        <time>2017-06-24T12:21:28Z</time>
      </trkpt>
      <trkpt lat="45.01007" lon="6.26323">
        <ele>3210.94</ele>
        <time>2017-06-24T12:21:45Z</time>
      </trkpt>
      <trkpt lat="45.01008" lon="6.26324">
        <ele>3211.42</ele>
        <time>2017-06-24T12:21:59Z</time>
      </trkpt>
      <trkpt lat="45.01008" lon="6.26324">
        <ele>3212.38</ele>
        <time>2017-06-24T12:22:15Z</time>
      </trkpt>
      <trkpt lat="45.01008" lon="6.26324">
        <ele>3212.86</ele>
        <time>2017-06-24T12:22:32Z</time>
      </trkpt>
      <trkpt lat="45.01008" lon="6.26324">
        <ele>3212.86</ele>
        <time>2017-06-24T12:22:40Z</time>
      </trkpt>
      <trkpt lat="45.01007" lon="6.26324">
        <ele>3212.86</ele>
        <time>2017-06-24T12:22:50Z</time>
      </trkpt>
      <trkpt lat="45.01008" lon="6.26324">
        <ele>3213.34</ele>
        <time>2017-06-24T12:22:57Z</time>
      </trkpt>
      <trkpt lat="45.01008" lon="6.26324">
        <ele>3213.34</ele>
        <time>2017-06-24T12:23:04Z</time>
      </trkpt>
      <trkpt lat="45.01008" lon="6.26324">
        <ele>3213.34</ele>
        <time>2017-06-24T12:23:11Z</time>
      </trkpt>
      <trkpt lat="45.01007" lon="6.26324">
        <ele>3213.82</ele>
        <time>2017-06-24T12:23:21Z</time>
      </trkpt>
      <trkpt lat="45.01007" lon="6.26324">
        <ele>3214.31</ele>
        <time>2017-06-24T12:23:30Z</time>
      </trkpt>
      <trkpt lat="45.01007" lon="6.26324">
        <ele>3214.31</ele>
        <time>2017-06-24T12:23:37Z</time>
      </trkpt>
      <trkpt lat="45.01005" lon="6.26337">
        <ele>3211.42</ele>
        <time>2017-06-24T12:23:42Z</time>
      </trkpt>
      <trkpt lat="45.01004" lon="6.26365">
        <ele>3209.98</ele>
        <time>2017-06-24T12:23:50Z</time>
      </trkpt>
      <trkpt lat="45.01007" lon="6.26391">
        <ele>3208.54</ele>
        <time>2017-06-24T12:23:57Z</time>
      </trkpt>
      <trkpt lat="45.01008" lon="6.26416">
        <ele>3205.65</ele>
        <time>2017-06-24T12:24:04Z</time>
      </trkpt>
      <trkpt lat="45.01006" lon="6.2643">
        <ele>3203.73</ele>
        <time>2017-06-24T12:24:08Z</time>
      </trkpt>
      <trkpt lat="45.01002" lon="6.26438">
        <ele>3202.29</ele>
        <time>2017-06-24T12:24:11Z</time>
      </trkpt>
      <trkpt lat="45.00998" lon="6.26453">
        <ele>3201.33</ele>
        <time>2017-06-24T12:24:18Z</time>
      </trkpt>
      <trkpt lat="45.00998" lon="6.26455">
        <ele>3201.33</ele>
        <time>2017-06-24T12:24:25Z</time>
      </trkpt>
      <trkpt lat="45.01004" lon="6.26462">
        <ele>3197.96</ele>
        <time>2017-06-24T12:24:30Z</time>
      </trkpt>
      <trkpt lat="45.01005" lon="6.26472">
        <ele>3195.08</ele>
        <time>2017-06-24T12:24:34Z</time>
      </trkpt>
      <trkpt lat="45.01005" lon="6.26478">
        <ele>3193.16</ele>
        <time>2017-06-24T12:24:36Z</time>
      </trkpt>
      <trkpt lat="45.0101" lon="6.26486">
        <ele>3188.83</ele>
        <time>2017-06-24T12:24:41Z</time>
      </trkpt>
      <trkpt lat="45.01014" lon="6.2649">
        <ele>3186.91</ele>
        <time>2017-06-24T12:24:44Z</time>
      </trkpt>
      <trkpt lat="45.01013" lon="6.26499">
        <ele>3183.54</ele>
        <time>2017-06-24T12:24:51Z</time>
      </trkpt>
      <trkpt lat="45.01014" lon="6.26498">
        <ele>3182.58</ele>
        <time>2017-06-24T12:25:02Z</time>
      </trkpt>
      <trkpt lat="45.01014" lon="6.26496">
        <ele>3183.06</ele>
        <time>2017-06-24T12:25:14Z</time>
      </trkpt>
      <trkpt lat="45.01013" lon="6.26498">
        <ele>3183.54</ele>
        <time>2017-06-24T12:25:33Z</time>
      </trkpt>
      <trkpt lat="45.01014" lon="6.26499">
        <ele>3184.98</ele>
        <time>2017-06-24T12:25:47Z</time>
      </trkpt>
      <trkpt lat="45.01013" lon="6.26498">
        <ele>3184.02</ele>
        <time>2017-06-24T12:26:00Z</time>
      </trkpt>
      <trkpt lat="45.01014" lon="6.2649">
        <ele>3184.5</ele>
        <time>2017-06-24T12:26:04Z</time>
      </trkpt>
      <trkpt lat="45.01018" lon="6.26471">
        <ele>3184.5</ele>
        <time>2017-06-24T12:26:12Z</time>
      </trkpt>
      <trkpt lat="45.01018" lon="6.26467">
        <ele>3184.02</ele>
        <time>2017-06-24T12:26:18Z</time>
      </trkpt>
      <trkpt lat="45.0102" lon="6.26457">
        <ele>3182.1</ele>
        <time>2017-06-24T12:26:25Z</time>
      </trkpt>
      <trkpt lat="45.01022" lon="6.26452">
        <ele>3180.66</ele>
        <time>2017-06-24T12:26:29Z</time>
      </trkpt>
      <trkpt lat="45.01028" lon="6.26443">
        <ele>3178.26</ele>
        <time>2017-06-24T12:26:38Z</time>
      </trkpt>
      <trkpt lat="45.01033" lon="6.26443">
        <ele>3176.33</ele>
        <time>2017-06-24T12:26:45Z</time>
      </trkpt>
      <trkpt lat="45.01037" lon="6.26442">
        <ele>3174.41</ele>
        <time>2017-06-24T12:26:50Z</time>
      </trkpt>
      <trkpt lat="45.01038" lon="6.26444">
        <ele>3173.45</ele>
        <time>2017-06-24T12:26:52Z</time>
      </trkpt>
      <trkpt lat="45.01042" lon="6.26454">
        <ele>3168.64</ele>
        <time>2017-06-24T12:27:00Z</time>
      </trkpt>
      <trkpt lat="45.01048" lon="6.26466">
        <ele>3166.24</ele>
        <time>2017-06-24T12:27:05Z</time>
      </trkpt>
      <trkpt lat="45.01051" lon="6.26469">
        <ele>3165.76</ele>
        <time>2017-06-24T12:27:09Z</time>
      </trkpt>
      <trkpt lat="45.01054" lon="6.26476">
        <ele>3163.84</ele>
        <time>2017-06-24T12:27:13Z</time>
      </trkpt>
      <trkpt lat="45.01068" lon="6.26485">
        <ele>3156.15</ele>
        <time>2017-06-24T12:27:22Z</time>
      </trkpt>
      <trkpt lat="45.01078" lon="6.26482">
        <ele>3151.82</ele>
        <time>2017-06-24T12:27:29Z</time>
      </trkpt>
      <trkpt lat="45.01083" lon="6.26477">
        <ele>3149.42</ele>
        <time>2017-06-24T12:27:36Z</time>
      </trkpt>
      <trkpt lat="45.01086" lon="6.26479">
        <ele>3148.46</ele>
        <time>2017-06-24T12:27:40Z</time>
      </trkpt>
      <trkpt lat="45.01093" lon="6.26484">
        <ele>3145.57</ele>
        <time>2017-06-24T12:27:46Z</time>
      </trkpt>
      <trkpt lat="45.01095" lon="6.26484">
        <ele>3144.61</ele>
        <time>2017-06-24T12:27:47Z</time>
      </trkpt>
      <trkpt lat="45.01099" lon="6.26485">
        <ele>3143.65</ele>
        <time>2017-06-24T12:27:49Z</time>
      </trkpt>
      <trkpt lat="45.0111" lon="6.26496">
        <ele>3139.8</ele>
        <time>2017-06-24T12:27:56Z</time>
      </trkpt>
      <trkpt lat="45.01113" lon="6.26501">
        <ele>3137.88</ele>
        <time>2017-06-24T12:27:59Z</time>
      </trkpt>
      <trkpt lat="45.01121" lon="6.26512">
        <ele>3135</ele>
        <time>2017-06-24T12:28:06Z</time>
      </trkpt>
      <trkpt lat="45.01127" lon="6.26522">
        <ele>3132.59</ele>
        <time>2017-06-24T12:28:12Z</time>
      </trkpt>
      <trkpt lat="45.01129" lon="6.26526">
        <ele>3131.15</ele>
        <time>2017-06-24T12:28:14Z</time>
      </trkpt>
      <trkpt lat="45.01134" lon="6.26534">
        <ele>3128.27</ele>
        <time>2017-06-24T12:28:19Z</time>
      </trkpt>
      <trkpt lat="45.01129" lon="6.26541">
        <ele>3129.71</ele>
        <time>2017-06-24T12:28:27Z</time>
      </trkpt>
      <trkpt lat="45.01128" lon="6.26541">
        <ele>3130.67</ele>
        <time>2017-06-24T12:28:35Z</time>
      </trkpt>
      <trkpt lat="45.01129" lon="6.26542">
        <ele>3130.19</ele>
        <time>2017-06-24T12:28:44Z</time>
      </trkpt>
      <trkpt lat="45.01128" lon="6.26544">
        <ele>3130.67</ele>
        <time>2017-06-24T12:28:53Z</time>
      </trkpt>
      <trkpt lat="45.01136" lon="6.26542">
        <ele>3130.67</ele>
        <time>2017-06-24T12:29:00Z</time>
      </trkpt>
      <trkpt lat="45.01141" lon="6.26545">
        <ele>3128.27</ele>
        <time>2017-06-24T12:29:04Z</time>
      </trkpt>
      <trkpt lat="45.01147" lon="6.26556">
        <ele>3123.94</ele>
        <time>2017-06-24T12:29:10Z</time>
      </trkpt>
      <trkpt lat="45.01153" lon="6.26559">
        <ele>3122.5</ele>
        <time>2017-06-24T12:29:15Z</time>
      </trkpt>
      <trkpt lat="45.01162" lon="6.26571">
        <ele>3120.1</ele>
        <time>2017-06-24T12:29:23Z</time>
      </trkpt>
      <trkpt lat="45.01166" lon="6.26578">
        <ele>3119.62</ele>
        <time>2017-06-24T12:29:29Z</time>
      </trkpt>
      <trkpt lat="45.01169" lon="6.26577">
        <ele>3117.69</ele>
        <time>2017-06-24T12:29:34Z</time>
      </trkpt>
      <trkpt lat="45.01171" lon="6.26574">
        <ele>3115.29</ele>
        <time>2017-06-24T12:29:38Z</time>
      </trkpt>
      <trkpt lat="45.01179" lon="6.26583">
        <ele>3111.44</ele>
        <time>2017-06-24T12:29:45Z</time>
      </trkpt>
      <trkpt lat="45.01184" lon="6.2659">
        <ele>3109.52</ele>
        <time>2017-06-24T12:29:51Z</time>
      </trkpt>
      <trkpt lat="45.01186" lon="6.26592">
        <ele>3109.04</ele>
        <time>2017-06-24T12:29:53Z</time>
      </trkpt>
      <trkpt lat="45.01189" lon="6.26592">
        <ele>3108.56</ele>
        <time>2017-06-24T12:29:55Z</time>
      </trkpt>
      <trkpt lat="45.01193" lon="6.26594">
        <ele>3109.04</ele>
        <time>2017-06-24T12:30:02Z</time>
      </trkpt>
      <trkpt lat="45.01192" lon="6.26593">
        <ele>3110.48</ele>
        <time>2017-06-24T12:30:09Z</time>
      </trkpt>
      <trkpt lat="45.01194" lon="6.26592">
        <ele>3110</ele>
        <time>2017-06-24T12:30:13Z</time>
      </trkpt>
      <trkpt lat="45.01196" lon="6.2659">
        <ele>3109.04</ele>
        <time>2017-06-24T12:30:15Z</time>
      </trkpt>
      <trkpt lat="45.01201" lon="6.2659">
        <ele>3107.6</ele>
        <time>2017-06-24T12:30:20Z</time>
      </trkpt>
      <trkpt lat="45.01208" lon="6.26586">
        <ele>3105.2</ele>
        <time>2017-06-24T12:30:25Z</time>
      </trkpt>
      <trkpt lat="45.01211" lon="6.26584">
        <ele>3104.71</ele>
        <time>2017-06-24T12:30:31Z</time>
      </trkpt>
      <trkpt lat="45.01212" lon="6.26585">
        <ele>3104.71</ele>
        <time>2017-06-24T12:30:38Z</time>
      </trkpt>
      <trkpt lat="45.01212" lon="6.26585">
        <ele>3104.71</ele>
        <time>2017-06-24T12:30:41Z</time>
      </trkpt>
      <trkpt lat="45.01208" lon="6.26583">
        <ele>3104.71</ele>
        <time>2017-06-24T12:30:47Z</time>
      </trkpt>
      <trkpt lat="45.0121" lon="6.2658">
        <ele>3103.27</ele>
        <time>2017-06-24T12:30:52Z</time>
      </trkpt>
      <trkpt lat="45.01211" lon="6.26578">
        <ele>3101.83</ele>
        <time>2017-06-24T12:31:01Z</time>
      </trkpt>
      <trkpt lat="45.0121" lon="6.26579">
        <ele>3101.35</ele>
        <time>2017-06-24T12:31:13Z</time>
      </trkpt>
      <trkpt lat="45.01209" lon="6.26579">
        <ele>3100.87</ele>
        <time>2017-06-24T12:31:31Z</time>
      </trkpt>
      <trkpt lat="45.01209" lon="6.26579">
        <ele>3101.35</ele>
        <time>2017-06-24T12:31:43Z</time>
      </trkpt>
      <trkpt lat="45.01209" lon="6.26579">
        <ele>3102.31</ele>
        <time>2017-06-24T12:32:01Z</time>
      </trkpt>
      <trkpt lat="45.01211" lon="6.26579">
        <ele>3100.39</ele>
        <time>2017-06-24T12:32:14Z</time>
      </trkpt>
      <trkpt lat="45.01216" lon="6.2658">
        <ele>3097.02</ele>
        <time>2017-06-24T12:32:21Z</time>
      </trkpt>
      <trkpt lat="45.0122" lon="6.26579">
        <ele>3095.1</ele>
        <time>2017-06-24T12:32:24Z</time>
      </trkpt>
      <trkpt lat="45.01237" lon="6.26589">
        <ele>3090.29</ele>
        <time>2017-06-24T12:32:31Z</time>
      </trkpt>
      <trkpt lat="45.01247" lon="6.26589">
        <ele>3085.49</ele>
        <time>2017-06-24T12:32:37Z</time>
      </trkpt>
      <trkpt lat="45.01251" lon="6.26589">
        <ele>3083.57</ele>
        <time>2017-06-24T12:32:43Z</time>
      </trkpt>
      <trkpt lat="45.01254" lon="6.2659">
        <ele>3082.12</ele>
        <time>2017-06-24T12:32:53Z</time>
      </trkpt>
      <trkpt lat="45.01256" lon="6.2659">
        <ele>3081.64</ele>
        <time>2017-06-24T12:32:55Z</time>
      </trkpt>
      <trkpt lat="45.01262" lon="6.26591">
        <ele>3078.76</ele>
        <time>2017-06-24T12:33:02Z</time>
      </trkpt>
      <trkpt lat="45.01262" lon="6.26592">
        <ele>3078.28</ele>
        <time>2017-06-24T12:33:03Z</time>
      </trkpt>
      <trkpt lat="45.01266" lon="6.26595">
        <ele>3075.88</ele>
        <time>2017-06-24T12:33:10Z</time>
      </trkpt>
      <trkpt lat="45.01267" lon="6.26599">
        <ele>3075.4</ele>
        <time>2017-06-24T12:33:21Z</time>
      </trkpt>
      <trkpt lat="45.0127" lon="6.26604">
        <ele>3074.91</ele>
        <time>2017-06-24T12:33:28Z</time>
      </trkpt>
      <trkpt lat="45.01272" lon="6.26606">
        <ele>3074.43</ele>
        <time>2017-06-24T12:33:32Z</time>
      </trkpt>
      <trkpt lat="45.01275" lon="6.26611">
        <ele>3073.95</ele>
        <time>2017-06-24T12:33:38Z</time>
      </trkpt>
      <trkpt lat="45.01276" lon="6.26615">
        <ele>3074.43</ele>
        <time>2017-06-24T12:33:44Z</time>
      </trkpt>
      <trkpt lat="45.01278" lon="6.26617">
        <ele>3073.95</ele>
        <time>2017-06-24T12:33:50Z</time>
      </trkpt>
      <trkpt lat="45.01281" lon="6.26623">
        <ele>3073.47</ele>
        <time>2017-06-24T12:33:57Z</time>
      </trkpt>
      <trkpt lat="45.01282" lon="6.26624">
        <ele>3073.47</ele>
        <time>2017-06-24T12:34:08Z</time>
      </trkpt>
      <trkpt lat="45.01282" lon="6.26626">
        <ele>3072.99</ele>
        <time>2017-06-24T12:34:15Z</time>
      </trkpt>
      <trkpt lat="45.01283" lon="6.26629">
        <ele>3072.03</ele>
        <time>2017-06-24T12:34:20Z</time>
      </trkpt>
      <trkpt lat="45.01285" lon="6.26632">
        <ele>3070.59</ele>
        <time>2017-06-24T12:34:26Z</time>
      </trkpt>
      <trkpt lat="45.01286" lon="6.26632">
        <ele>3068.67</ele>
        <time>2017-06-24T12:34:33Z</time>
      </trkpt>
      <trkpt lat="45.01287" lon="6.26632">
        <ele>3067.7</ele>
        <time>2017-06-24T12:34:42Z</time>
      </trkpt>
      <trkpt lat="45.01288" lon="6.26632">
        <ele>3067.7</ele>
        <time>2017-06-24T12:34:50Z</time>
      </trkpt>
      <trkpt lat="45.01288" lon="6.26633">
        <ele>3066.74</ele>
        <time>2017-06-24T12:35:00Z</time>
      </trkpt>
      <trkpt lat="45.01288" lon="6.26634">
        <ele>3066.74</ele>
        <time>2017-06-24T12:35:15Z</time>
      </trkpt>
      <trkpt lat="45.01288" lon="6.26636">
        <ele>3067.7</ele>
        <time>2017-06-24T12:35:36Z</time>
      </trkpt>
      <trkpt lat="45.01288" lon="6.26636">
        <ele>3068.19</ele>
        <time>2017-06-24T12:35:54Z</time>
      </trkpt>
      <trkpt lat="45.01287" lon="6.26636">
        <ele>3068.67</ele>
        <time>2017-06-24T12:36:11Z</time>
      </trkpt>
      <trkpt lat="45.01287" lon="6.26636">
        <ele>3069.15</ele>
        <time>2017-06-24T12:36:27Z</time>
      </trkpt>
      <trkpt lat="45.01287" lon="6.26635">
        <ele>3069.63</ele>
        <time>2017-06-24T12:36:59Z</time>
      </trkpt>
      <trkpt lat="45.01288" lon="6.26639">
        <ele>3074.43</ele>
        <time>2017-06-24T12:37:13Z</time>
      </trkpt>
      <trkpt lat="45.01288" lon="6.26638">
        <ele>3071.55</ele>
        <time>2017-06-24T12:37:24Z</time>
      </trkpt>
      <trkpt lat="45.01289" lon="6.26639">
        <ele>3073.47</ele>
        <time>2017-06-24T12:37:31Z</time>
      </trkpt>
      <trkpt lat="45.01287" lon="6.26637">
        <ele>3073.95</ele>
        <time>2017-06-24T12:37:43Z</time>
      </trkpt>
      <trkpt lat="45.01288" lon="6.2664">
        <ele>3072.51</ele>
        <time>2017-06-24T12:37:53Z</time>
      </trkpt>
      <trkpt lat="45.01288" lon="6.2664">
        <ele>3073.95</ele>
        <time>2017-06-24T12:38:04Z</time>
      </trkpt>
      <trkpt lat="45.01288" lon="6.26641">
        <ele>3073.47</ele>
        <time>2017-06-24T12:38:14Z</time>
      </trkpt>
      <trkpt lat="45.0129" lon="6.26642">
        <ele>3072.99</ele>
        <time>2017-06-24T12:38:32Z</time>
      </trkpt>
      <trkpt lat="45.0129" lon="6.26641">
        <ele>3072.99</ele>
        <time>2017-06-24T12:38:46Z</time>
      </trkpt>
      <trkpt lat="45.0129" lon="6.2664">
        <ele>3072.99</ele>
        <time>2017-06-24T12:39:00Z</time>
      </trkpt>
      <trkpt lat="45.01289" lon="6.2664">
        <ele>3072.03</ele>
        <time>2017-06-24T12:39:09Z</time>
      </trkpt>
      <trkpt lat="45.01289" lon="6.2664">
        <ele>3073.47</ele>
        <time>2017-06-24T12:39:16Z</time>
      </trkpt>
      <trkpt lat="45.01288" lon="6.26639">
        <ele>3072.03</ele>
        <time>2017-06-24T12:39:31Z</time>
      </trkpt>
      <trkpt lat="45.01287" lon="6.26639">
        <ele>3071.07</ele>
        <time>2017-06-24T12:39:42Z</time>
      </trkpt>
      <trkpt lat="45.01288" lon="6.26638">
        <ele>3071.07</ele>
        <time>2017-06-24T12:39:56Z</time>
      </trkpt>
      <trkpt lat="45.01287" lon="6.26638">
        <ele>3070.11</ele>
        <time>2017-06-24T12:40:11Z</time>
      </trkpt>
      <trkpt lat="45.01287" lon="6.26638">
        <ele>3069.63</ele>
        <time>2017-06-24T12:40:18Z</time>
      </trkpt>
      <trkpt lat="45.01287" lon="6.26638">
        <ele>3069.15</ele>
        <time>2017-06-24T12:40:24Z</time>
      </trkpt>
      <trkpt lat="45.01287" lon="6.26638">
        <ele>3069.15</ele>
        <time>2017-06-24T12:40:35Z</time>
      </trkpt>
      <trkpt lat="45.01287" lon="6.26638">
        <ele>3069.15</ele>
        <time>2017-06-24T12:40:43Z</time>
      </trkpt>
      <trkpt lat="45.01288" lon="6.26638">
        <ele>3068.67</ele>
        <time>2017-06-24T12:40:52Z</time>
      </trkpt>
      <trkpt lat="45.01288" lon="6.26638">
        <ele>3068.67</ele>
        <time>2017-06-24T12:41:01Z</time>
      </trkpt>
      <trkpt lat="45.01288" lon="6.26638">
        <ele>3068.19</ele>
        <time>2017-06-24T12:41:08Z</time>
      </trkpt>
      <trkpt lat="45.01288" lon="6.26638">
        <ele>3068.19</ele>
        <time>2017-06-24T12:41:17Z</time>
      </trkpt>
      <trkpt lat="45.01288" lon="6.26638">
        <ele>3067.7</ele>
        <time>2017-06-24T12:41:25Z</time>
      </trkpt>
      <trkpt lat="45.01288" lon="6.26641">
        <ele>3066.26</ele>
        <time>2017-06-24T12:41:31Z</time>
      </trkpt>
      <trkpt lat="45.0129" lon="6.26643">
        <ele>3064.82</ele>
        <time>2017-06-24T12:41:37Z</time>
      </trkpt>
      <trkpt lat="45.01291" lon="6.26645">
        <ele>3063.86</ele>
        <time>2017-06-24T12:41:42Z</time>
      </trkpt>
      <trkpt lat="45.01291" lon="6.26648">
        <ele>3061.94</ele>
        <time>2017-06-24T12:41:48Z</time>
      </trkpt>
      <trkpt lat="45.01291" lon="6.2665">
        <ele>3060.98</ele>
        <time>2017-06-24T12:41:54Z</time>
      </trkpt>
      <trkpt lat="45.01291" lon="6.2665">
        <ele>3060.49</ele>
        <time>2017-06-24T12:41:55Z</time>
      </trkpt>
      <trkpt lat="45.01292" lon="6.26655">
        <ele>3057.13</ele>
        <time>2017-06-24T12:42:01Z</time>
      </trkpt>
      <trkpt lat="45.01292" lon="6.26656">
        <ele>3055.69</ele>
        <time>2017-06-24T12:42:08Z</time>
      </trkpt>
      <trkpt lat="45.0129" lon="6.26655">
        <ele>3054.25</ele>
        <time>2017-06-24T12:42:16Z</time>
      </trkpt>
      <trkpt lat="45.01289" lon="6.26656">
        <ele>3054.25</ele>
        <time>2017-06-24T12:42:25Z</time>
      </trkpt>
      <trkpt lat="45.01287" lon="6.26659">
        <ele>3054.25</ele>
        <time>2017-06-24T12:42:37Z</time>
      </trkpt>
      <trkpt lat="45.0129" lon="6.26663">
        <ele>3050.88</ele>
        <time>2017-06-24T12:42:44Z</time>
      </trkpt>
      <trkpt lat="45.01293" lon="6.26666">
        <ele>3048.48</ele>
        <time>2017-06-24T12:42:51Z</time>
      </trkpt>
      <trkpt lat="45.01294" lon="6.26667">
        <ele>3047.04</ele>
        <time>2017-06-24T12:42:57Z</time>
      </trkpt>
      <trkpt lat="45.01294" lon="6.2667">
        <ele>3045.11</ele>
        <time>2017-06-24T12:43:03Z</time>
      </trkpt>
      <trkpt lat="45.01293" lon="6.2667">
        <ele>3045.11</ele>
        <time>2017-06-24T12:43:04Z</time>
      </trkpt>
      <trkpt lat="45.01291" lon="6.26676">
        <ele>3043.67</ele>
        <time>2017-06-24T12:43:09Z</time>
      </trkpt>
      <trkpt lat="45.01289" lon="6.26678">
        <ele>3043.19</ele>
        <time>2017-06-24T12:43:18Z</time>
      </trkpt>
      <trkpt lat="45.01287" lon="6.26679">
        <ele>3041.75</ele>
        <time>2017-06-24T12:43:24Z</time>
      </trkpt>
      <trkpt lat="45.01283" lon="6.26678">
        <ele>3039.83</ele>
        <time>2017-06-24T12:43:32Z</time>
      </trkpt>
      <trkpt lat="45.01282" lon="6.2668">
        <ele>3039.35</ele>
        <time>2017-06-24T12:43:34Z</time>
      </trkpt>
      <trkpt lat="45.01281" lon="6.26679">
        <ele>3036.94</ele>
        <time>2017-06-24T12:43:40Z</time>
      </trkpt>
      <trkpt lat="45.0128" lon="6.26678">
        <ele>3034.54</ele>
        <time>2017-06-24T12:43:46Z</time>
      </trkpt>
      <trkpt lat="45.01278" lon="6.26677">
        <ele>3032.62</ele>
        <time>2017-06-24T12:43:54Z</time>
      </trkpt>
      <trkpt lat="45.01276" lon="6.26679">
        <ele>3031.66</ele>
        <time>2017-06-24T12:44:03Z</time>
      </trkpt>
      <trkpt lat="45.01276" lon="6.26679">
        <ele>3031.66</ele>
        <time>2017-06-24T12:44:07Z</time>
      </trkpt>
      <trkpt lat="45.01271" lon="6.26684">
        <ele>3029.73</ele>
        <time>2017-06-24T12:44:14Z</time>
      </trkpt>
      <trkpt lat="45.01266" lon="6.26687">
        <ele>3026.85</ele>
        <time>2017-06-24T12:44:20Z</time>
      </trkpt>
      <trkpt lat="45.01263" lon="6.26688">
        <ele>3025.89</ele>
        <time>2017-06-24T12:44:27Z</time>
      </trkpt>
      <trkpt lat="45.01262" lon="6.26688">
        <ele>3025.41</ele>
        <time>2017-06-24T12:44:33Z</time>
      </trkpt>
      <trkpt lat="45.01265" lon="6.26689">
        <ele>3024.44</ele>
        <time>2017-06-24T12:44:40Z</time>
      </trkpt>
      <trkpt lat="45.01264" lon="6.26689">
        <ele>3024.44</ele>
        <time>2017-06-24T12:44:48Z</time>
      </trkpt>
      <trkpt lat="45.01263" lon="6.26691">
        <ele>3023.96</ele>
        <time>2017-06-24T12:44:55Z</time>
      </trkpt>
      <trkpt lat="45.01263" lon="6.26692">
        <ele>3023.96</ele>
        <time>2017-06-24T12:45:01Z</time>
      </trkpt>
      <trkpt lat="45.01263" lon="6.26691">
        <ele>3023.48</ele>
        <time>2017-06-24T12:45:11Z</time>
      </trkpt>
      <trkpt lat="45.01258" lon="6.26692">
        <ele>3022.52</ele>
        <time>2017-06-24T12:45:19Z</time>
      </trkpt>
      <trkpt lat="45.01254" lon="6.26692">
        <ele>3023.48</ele>
        <time>2017-06-24T12:45:24Z</time>
      </trkpt>
      <trkpt lat="45.01253" lon="6.26689">
        <ele>3022.04</ele>
        <time>2017-06-24T12:45:30Z</time>
      </trkpt>
      <trkpt lat="45.01252" lon="6.26692">
        <ele>3021.56</ele>
        <time>2017-06-24T12:45:36Z</time>
      </trkpt>
      <trkpt lat="45.0125" lon="6.26694">
        <ele>3020.6</ele>
        <time>2017-06-24T12:45:43Z</time>
      </trkpt>
      <trkpt lat="45.01248" lon="6.26696">
        <ele>3019.64</ele>
        <time>2017-06-24T12:45:50Z</time>
      </trkpt>
      <trkpt lat="45.01248" lon="6.26697">
        <ele>3017.72</ele>
        <time>2017-06-24T12:45:56Z</time>
      </trkpt>
      <trkpt lat="45.01247" lon="6.26698">
        <ele>3015.79</ele>
        <time>2017-06-24T12:46:02Z</time>
      </trkpt>
      <trkpt lat="45.01246" lon="6.26698">
        <ele>3013.39</ele>
        <time>2017-06-24T12:46:08Z</time>
      </trkpt>
      <trkpt lat="45.01248" lon="6.26701">
        <ele>3009.06</ele>
        <time>2017-06-24T12:46:15Z</time>
      </trkpt>
      <trkpt lat="45.01248" lon="6.26703">
        <ele>3006.18</ele>
        <time>2017-06-24T12:46:21Z</time>
      </trkpt>
      <trkpt lat="45.0125" lon="6.26706">
        <ele>3004.74</ele>
        <time>2017-06-24T12:46:27Z</time>
      </trkpt>
      <trkpt lat="45.01248" lon="6.26709">
        <ele>3001.37</ele>
        <time>2017-06-24T12:46:32Z</time>
      </trkpt>
      <trkpt lat="45.01246" lon="6.26716">
        <ele>2999.45</ele>
        <time>2017-06-24T12:46:39Z</time>
      </trkpt>
      <trkpt lat="45.01246" lon="6.26717">
        <ele>2998.49</ele>
        <time>2017-06-24T12:46:43Z</time>
      </trkpt>
      <trkpt lat="45.01245" lon="6.26721">
        <ele>2997.53</ele>
        <time>2017-06-24T12:46:49Z</time>
      </trkpt>
      <trkpt lat="45.01243" lon="6.26728">
        <ele>2996.57</ele>
        <time>2017-06-24T12:46:55Z</time>
      </trkpt>
      <trkpt lat="45.01241" lon="6.26729">
        <ele>2994.16</ele>
        <time>2017-06-24T12:47:03Z</time>
      </trkpt>
      <trkpt lat="45.01243" lon="6.26738">
        <ele>2990.8</ele>
        <time>2017-06-24T12:47:11Z</time>
      </trkpt>
      <trkpt lat="45.01241" lon="6.26743">
        <ele>2990.32</ele>
        <time>2017-06-24T12:47:15Z</time>
      </trkpt>
      <trkpt lat="45.01242" lon="6.26753">
        <ele>2990.32</ele>
        <time>2017-06-24T12:47:21Z</time>
      </trkpt>
      <trkpt lat="45.01242" lon="6.26755">
        <ele>2990.32</ele>
        <time>2017-06-24T12:47:22Z</time>
      </trkpt>
      <trkpt lat="45.01238" lon="6.26764">
        <ele>2991.28</ele>
        <time>2017-06-24T12:47:27Z</time>
      </trkpt>
      <trkpt lat="45.0124" lon="6.26773">
        <ele>2989.36</ele>
        <time>2017-06-24T12:47:32Z</time>
      </trkpt>
      <trkpt lat="45.01242" lon="6.26777">
        <ele>2986.95</ele>
        <time>2017-06-24T12:47:38Z</time>
      </trkpt>
      <trkpt lat="45.01247" lon="6.26782">
        <ele>2980.22</ele>
        <time>2017-06-24T12:47:44Z</time>
      </trkpt>
      <trkpt lat="45.01246" lon="6.26786">
        <ele>2978.3</ele>
        <time>2017-06-24T12:47:48Z</time>
      </trkpt>
      <trkpt lat="45.01248" lon="6.26792">
        <ele>2978.3</ele>
        <time>2017-06-24T12:47:54Z</time>
      </trkpt>
      <trkpt lat="45.01248" lon="6.26793">
        <ele>2980.22</ele>
        <time>2017-06-24T12:48:03Z</time>
      </trkpt>
      <trkpt lat="45.01247" lon="6.26794">
        <ele>2979.74</ele>
        <time>2017-06-24T12:48:11Z</time>
      </trkpt>
      <trkpt lat="45.01247" lon="6.26796">
        <ele>2980.22</ele>
        <time>2017-06-24T12:48:17Z</time>
      </trkpt>
      <trkpt lat="45.01247" lon="6.26796">
        <ele>2981.19</ele>
        <time>2017-06-24T12:48:24Z</time>
      </trkpt>
      <trkpt lat="45.01247" lon="6.26798">
        <ele>2982.15</ele>
        <time>2017-06-24T12:48:32Z</time>
      </trkpt>
      <trkpt lat="45.01248" lon="6.268">
        <ele>2981.67</ele>
        <time>2017-06-24T12:48:43Z</time>
      </trkpt>
      <trkpt lat="45.01248" lon="6.26798">
        <ele>2979.26</ele>
        <time>2017-06-24T12:48:56Z</time>
      </trkpt>
      <trkpt lat="45.01249" lon="6.26797">
        <ele>2977.34</ele>
        <time>2017-06-24T12:49:10Z</time>
      </trkpt>
      <trkpt lat="45.01248" lon="6.26796">
        <ele>2977.82</ele>
        <time>2017-06-24T12:49:21Z</time>
      </trkpt>
      <trkpt lat="45.01248" lon="6.26795">
        <ele>2978.3</ele>
        <time>2017-06-24T12:49:34Z</time>
      </trkpt>
      <trkpt lat="45.01248" lon="6.26795">
        <ele>2978.3</ele>
        <time>2017-06-24T12:49:41Z</time>
      </trkpt>
      <trkpt lat="45.0125" lon="6.26797">
        <ele>2977.82</ele>
        <time>2017-06-24T12:49:49Z</time>
      </trkpt>
      <trkpt lat="45.0125" lon="6.26797">
        <ele>2977.82</ele>
        <time>2017-06-24T12:50:02Z</time>
      </trkpt>
      <trkpt lat="45.0125" lon="6.26797">
        <ele>2978.3</ele>
        <time>2017-06-24T12:50:15Z</time>
      </trkpt>
      <trkpt lat="45.0125" lon="6.26799">
        <ele>2981.19</ele>
        <time>2017-06-24T12:50:29Z</time>
      </trkpt>
      <trkpt lat="45.0125" lon="6.26799">
        <ele>2979.74</ele>
        <time>2017-06-24T12:50:39Z</time>
      </trkpt>
      <trkpt lat="45.01249" lon="6.268">
        <ele>2979.26</ele>
        <time>2017-06-24T12:50:44Z</time>
      </trkpt>
      <trkpt lat="45.0125" lon="6.26807">
        <ele>2977.82</ele>
        <time>2017-06-24T12:50:50Z</time>
      </trkpt>
      <trkpt lat="45.01252" lon="6.26809">
        <ele>2974.94</ele>
        <time>2017-06-24T12:50:55Z</time>
      </trkpt>
      <trkpt lat="45.01253" lon="6.26811">
        <ele>2971.57</ele>
        <time>2017-06-24T12:51:02Z</time>
      </trkpt>
      <trkpt lat="45.01254" lon="6.26813">
        <ele>2970.13</ele>
        <time>2017-06-24T12:51:07Z</time>
      </trkpt>
      <trkpt lat="45.01254" lon="6.26815">
        <ele>2969.65</ele>
        <time>2017-06-24T12:51:15Z</time>
      </trkpt>
      <trkpt lat="45.01255" lon="6.26819">
        <ele>2967.73</ele>
        <time>2017-06-24T12:51:20Z</time>
      </trkpt>
      <trkpt lat="45.01255" lon="6.2682">
        <ele>2966.77</ele>
        <time>2017-06-24T12:51:22Z</time>
      </trkpt>
      <trkpt lat="45.01256" lon="6.26822">
        <ele>2965.32</ele>
        <time>2017-06-24T12:51:24Z</time>
      </trkpt>
      <trkpt lat="45.01261" lon="6.26827">
        <ele>2961.96</ele>
        <time>2017-06-24T12:51:30Z</time>
      </trkpt>
      <trkpt lat="45.01264" lon="6.26829">
        <ele>2960.04</ele>
        <time>2017-06-24T12:51:36Z</time>
      </trkpt>
      <trkpt lat="45.01266" lon="6.2684">
        <ele>2959.08</ele>
        <time>2017-06-24T12:51:42Z</time>
      </trkpt>
      <trkpt lat="45.01269" lon="6.26846">
        <ele>2956.67</ele>
        <time>2017-06-24T12:51:47Z</time>
      </trkpt>
      <trkpt lat="45.01275" lon="6.26848">
        <ele>2954.75</ele>
        <time>2017-06-24T12:51:52Z</time>
      </trkpt>
      <trkpt lat="45.01279" lon="6.26848">
        <ele>2952.83</ele>
        <time>2017-06-24T12:51:56Z</time>
      </trkpt>
      <trkpt lat="45.01285" lon="6.26851">
        <ele>2949.94</ele>
        <time>2017-06-24T12:52:00Z</time>
      </trkpt>
      <trkpt lat="45.01287" lon="6.26851">
        <ele>2948.02</ele>
        <time>2017-06-24T12:52:03Z</time>
      </trkpt>
      <trkpt lat="45.01287" lon="6.26854">
        <ele>2947.54</ele>
        <time>2017-06-24T12:52:05Z</time>
      </trkpt>
      <trkpt lat="45.01289" lon="6.26858">
        <ele>2947.06</ele>
        <time>2017-06-24T12:52:10Z</time>
      </trkpt>
      <trkpt lat="45.01291" lon="6.2686">
        <ele>2945.62</ele>
        <time>2017-06-24T12:52:13Z</time>
      </trkpt>
      <trkpt lat="45.01292" lon="6.26864">
        <ele>2943.69</ele>
        <time>2017-06-24T12:52:18Z</time>
      </trkpt>
      <trkpt lat="45.01292" lon="6.26865">
        <ele>2943.21</ele>
        <time>2017-06-24T12:52:26Z</time>
      </trkpt>
      <trkpt lat="45.01294" lon="6.26871">
        <ele>2941.77</ele>
        <time>2017-06-24T12:52:33Z</time>
      </trkpt>
      <trkpt lat="45.01295" lon="6.26876">
        <ele>2940.33</ele>
        <time>2017-06-24T12:52:37Z</time>
      </trkpt>
      <trkpt lat="45.01294" lon="6.26884">
        <ele>2936</ele>
        <time>2017-06-24T12:52:44Z</time>
      </trkpt>
      <trkpt lat="45.01297" lon="6.26887">
        <ele>2934.08</ele>
        <time>2017-06-24T12:52:50Z</time>
      </trkpt>
      <trkpt lat="45.01301" lon="6.26886">
        <ele>2931.2</ele>
        <time>2017-06-24T12:52:56Z</time>
      </trkpt>
      <trkpt lat="45.01304" lon="6.26886">
        <ele>2928.31</ele>
        <time>2017-06-24T12:53:01Z</time>
      </trkpt>
      <trkpt lat="45.01305" lon="6.26886">
        <ele>2930.24</ele>
        <time>2017-06-24T12:53:09Z</time>
      </trkpt>
      <trkpt lat="45.01306" lon="6.26887">
        <ele>2927.83</ele>
        <time>2017-06-24T12:53:15Z</time>
      </trkpt>
      <trkpt lat="45.01309" lon="6.26889">
        <ele>2925.91</ele>
        <time>2017-06-24T12:53:24Z</time>
      </trkpt>
      <trkpt lat="45.0131" lon="6.26889">
        <ele>2925.43</ele>
        <time>2017-06-24T12:53:28Z</time>
      </trkpt>
      <trkpt lat="45.01311" lon="6.26894">
        <ele>2924.95</ele>
        <time>2017-06-24T12:53:34Z</time>
      </trkpt>
      <trkpt lat="45.01311" lon="6.26894">
        <ele>2923.99</ele>
        <time>2017-06-24T12:53:39Z</time>
      </trkpt>
      <trkpt lat="45.01316" lon="6.26895">
        <ele>2920.62</ele>
        <time>2017-06-24T12:53:46Z</time>
      </trkpt>
      <trkpt lat="45.01318" lon="6.26895">
        <ele>2919.18</ele>
        <time>2017-06-24T12:53:51Z</time>
      </trkpt>
      <trkpt lat="45.0132" lon="6.26896">
        <ele>2918.22</ele>
        <time>2017-06-24T12:53:53Z</time>
      </trkpt>
      <trkpt lat="45.01318" lon="6.269">
        <ele>2913.89</ele>
        <time>2017-06-24T12:53:58Z</time>
      </trkpt>
      <trkpt lat="45.01316" lon="6.26905">
        <ele>2912.45</ele>
        <time>2017-06-24T12:54:06Z</time>
      </trkpt>
      <trkpt lat="45.01318" lon="6.26906">
        <ele>2912.45</ele>
        <time>2017-06-24T12:54:16Z</time>
      </trkpt>
      <trkpt lat="45.01322" lon="6.26906">
        <ele>2911.01</ele>
        <time>2017-06-24T12:54:22Z</time>
      </trkpt>
      <trkpt lat="45.01325" lon="6.26908">
        <ele>2909.57</ele>
        <time>2017-06-24T12:54:26Z</time>
      </trkpt>
      <trkpt lat="45.01327" lon="6.26909">
        <ele>2908.61</ele>
        <time>2017-06-24T12:54:28Z</time>
      </trkpt>
      <trkpt lat="45.01324" lon="6.26912">
        <ele>2906.68</ele>
        <time>2017-06-24T12:54:36Z</time>
      </trkpt>
      <trkpt lat="45.01324" lon="6.26911">
        <ele>2904.76</ele>
        <time>2017-06-24T12:54:42Z</time>
      </trkpt>
      <trkpt lat="45.01322" lon="6.26915">
        <ele>2901.88</ele>
        <time>2017-06-24T12:54:48Z</time>
      </trkpt>
      <trkpt lat="45.01324" lon="6.26918">
        <ele>2900.92</ele>
        <time>2017-06-24T12:54:53Z</time>
      </trkpt>
      <trkpt lat="45.01324" lon="6.26919">
        <ele>2900.44</ele>
        <time>2017-06-24T12:55:03Z</time>
      </trkpt>
      <trkpt lat="45.01325" lon="6.26924">
        <ele>2900.44</ele>
        <time>2017-06-24T12:55:06Z</time>
      </trkpt>
      <trkpt lat="45.01324" lon="6.26932">
        <ele>2897.55</ele>
        <time>2017-06-24T12:55:13Z</time>
      </trkpt>
      <trkpt lat="45.01323" lon="6.26934">
        <ele>2896.11</ele>
        <time>2017-06-24T12:55:16Z</time>
      </trkpt>
      <trkpt lat="45.0132" lon="6.2694">
        <ele>2896.11</ele>
        <time>2017-06-24T12:55:23Z</time>
      </trkpt>
      <trkpt lat="45.0132" lon="6.26941">
        <ele>2896.11</ele>
        <time>2017-06-24T12:55:31Z</time>
      </trkpt>
      <trkpt lat="45.01323" lon="6.26945">
        <ele>2894.19</ele>
        <time>2017-06-24T12:55:38Z</time>
      </trkpt>
      <trkpt lat="45.01323" lon="6.26945">
        <ele>2894.19</ele>
        <time>2017-06-24T12:55:44Z</time>
      </trkpt>
      <trkpt lat="45.01321" lon="6.26945">
        <ele>2889.38</ele>
        <time>2017-06-24T12:55:49Z</time>
      </trkpt>
      <trkpt lat="45.01323" lon="6.26946">
        <ele>2887.46</ele>
        <time>2017-06-24T12:55:55Z</time>
      </trkpt>
      <trkpt lat="45.01326" lon="6.26944">
        <ele>2883.13</ele>
        <time>2017-06-24T12:56:02Z</time>
      </trkpt>
      <trkpt lat="45.01328" lon="6.26945">
        <ele>2884.09</ele>
        <time>2017-06-24T12:56:07Z</time>
      </trkpt>
      <trkpt lat="45.01329" lon="6.26946">
        <ele>2884.09</ele>
        <time>2017-06-24T12:56:13Z</time>
      </trkpt>
      <trkpt lat="45.0133" lon="6.26948">
        <ele>2884.09</ele>
        <time>2017-06-24T12:56:19Z</time>
      </trkpt>
      <trkpt lat="45.01332" lon="6.26952">
        <ele>2883.61</ele>
        <time>2017-06-24T12:56:25Z</time>
      </trkpt>
      <trkpt lat="45.01332" lon="6.26954">
        <ele>2882.65</ele>
        <time>2017-06-24T12:56:33Z</time>
      </trkpt>
      <trkpt lat="45.01333" lon="6.26958">
        <ele>2881.69</ele>
        <time>2017-06-24T12:56:37Z</time>
      </trkpt>
      <trkpt lat="45.01337" lon="6.26963">
        <ele>2877.36</ele>
        <time>2017-06-24T12:56:44Z</time>
      </trkpt>
      <trkpt lat="45.01334" lon="6.26966">
        <ele>2875.92</ele>
        <time>2017-06-24T12:56:49Z</time>
      </trkpt>
      <trkpt lat="45.01334" lon="6.26971">
        <ele>2874.48</ele>
        <time>2017-06-24T12:56:54Z</time>
      </trkpt>
      <trkpt lat="45.01335" lon="6.26973">
        <ele>2874</ele>
        <time>2017-06-24T12:56:58Z</time>
      </trkpt>
      <trkpt lat="45.01341" lon="6.26978">
        <ele>2870.63</ele>
        <time>2017-06-24T12:57:03Z</time>
      </trkpt>
      <trkpt lat="45.01345" lon="6.26979">
        <ele>2869.67</ele>
        <time>2017-06-24T12:57:07Z</time>
      </trkpt>
      <trkpt lat="45.01352" lon="6.26984">
        <ele>2870.63</ele>
        <time>2017-06-24T12:57:12Z</time>
      </trkpt>
      <trkpt lat="45.01352" lon="6.26985">
        <ele>2871.11</ele>
        <time>2017-06-24T12:57:13Z</time>
      </trkpt>
      <trkpt lat="45.01359" lon="6.26994">
        <ele>2868.71</ele>
        <time>2017-06-24T12:57:20Z</time>
      </trkpt>
      <trkpt lat="45.01362" lon="6.26996">
        <ele>2867.27</ele>
        <time>2017-06-24T12:57:23Z</time>
      </trkpt>
      <trkpt lat="45.01366" lon="6.26997">
        <ele>2866.31</ele>
        <time>2017-06-24T12:57:27Z</time>
      </trkpt>
      <trkpt lat="45.0137" lon="6.26999">
        <ele>2866.31</ele>
        <time>2017-06-24T12:57:30Z</time>
      </trkpt>
      <trkpt lat="45.01378" lon="6.27009">
        <ele>2863.42</ele>
        <time>2017-06-24T12:57:38Z</time>
      </trkpt>
      <trkpt lat="45.0138" lon="6.27015">
        <ele>2861.5</ele>
        <time>2017-06-24T12:57:43Z</time>
      </trkpt>
      <trkpt lat="45.01386" lon="6.27024">
        <ele>2859.58</ele>
        <time>2017-06-24T12:57:49Z</time>
      </trkpt>
      <trkpt lat="45.01392" lon="6.27024">
        <ele>2857.66</ele>
        <time>2017-06-24T12:57:53Z</time>
      </trkpt>
      <trkpt lat="45.01397" lon="6.27028">
        <ele>2855.25</ele>
        <time>2017-06-24T12:57:59Z</time>
      </trkpt>
      <trkpt lat="45.01397" lon="6.27028">
        <ele>2855.25</ele>
        <time>2017-06-24T12:58:00Z</time>
      </trkpt>
      <trkpt lat="45.01411" lon="6.27025">
        <ele>2854.77</ele>
        <time>2017-06-24T12:58:07Z</time>
      </trkpt>
      <trkpt lat="45.01413" lon="6.27023">
        <ele>2854.77</ele>
        <time>2017-06-24T12:58:09Z</time>
      </trkpt>
      <trkpt lat="45.01427" lon="6.27024">
        <ele>2854.29</ele>
        <time>2017-06-24T12:58:17Z</time>
      </trkpt>
      <trkpt lat="45.01429" lon="6.27025">
        <ele>2853.81</ele>
        <time>2017-06-24T12:58:19Z</time>
      </trkpt>
      <trkpt lat="45.01436" lon="6.27038">
        <ele>2852.37</ele>
        <time>2017-06-24T12:58:28Z</time>
      </trkpt>
      <trkpt lat="45.01439" lon="6.27041">
        <ele>2852.37</ele>
        <time>2017-06-24T12:58:34Z</time>
      </trkpt>
      <trkpt lat="45.01439" lon="6.27045">
        <ele>2852.37</ele>
        <time>2017-06-24T12:58:39Z</time>
      </trkpt>
      <trkpt lat="45.01439" lon="6.27049">
        <ele>2852.37</ele>
        <time>2017-06-24T12:58:45Z</time>
      </trkpt>
      <trkpt lat="45.01439" lon="6.27053">
        <ele>2851.89</ele>
        <time>2017-06-24T12:58:52Z</time>
      </trkpt>
      <trkpt lat="45.01441" lon="6.27059">
        <ele>2851.41</ele>
        <time>2017-06-24T12:58:58Z</time>
      </trkpt>
      <trkpt lat="45.01442" lon="6.27063">
        <ele>2850.93</ele>
        <time>2017-06-24T12:59:01Z</time>
      </trkpt>
      <trkpt lat="45.01444" lon="6.27069">
        <ele>2849.48</ele>
        <time>2017-06-24T12:59:08Z</time>
      </trkpt>
      <trkpt lat="45.01444" lon="6.27071">
        <ele>2849</ele>
        <time>2017-06-24T12:59:10Z</time>
      </trkpt>
      <trkpt lat="45.01442" lon="6.27082">
        <ele>2844.68</ele>
        <time>2017-06-24T12:59:17Z</time>
      </trkpt>
      <trkpt lat="45.01443" lon="6.27085">
        <ele>2842.28</ele>
        <time>2017-06-24T12:59:23Z</time>
      </trkpt>
      <trkpt lat="45.01442" lon="6.27084">
        <ele>2842.76</ele>
        <time>2017-06-24T12:59:29Z</time>
      </trkpt>
      <trkpt lat="45.0144" lon="6.27094">
        <ele>2839.39</ele>
        <time>2017-06-24T12:59:35Z</time>
      </trkpt>
      <trkpt lat="45.01441" lon="6.27095">
        <ele>2838.91</ele>
        <time>2017-06-24T12:59:36Z</time>
      </trkpt>
      <trkpt lat="45.01447" lon="6.27102">
        <ele>2835.06</ele>
        <time>2017-06-24T12:59:43Z</time>
      </trkpt>
      <trkpt lat="45.01451" lon="6.27105">
        <ele>2833.62</ele>
        <time>2017-06-24T12:59:50Z</time>
      </trkpt>
      <trkpt lat="45.01451" lon="6.27106">
        <ele>2831.7</ele>
        <time>2017-06-24T13:00:04Z</time>
      </trkpt>
      <trkpt lat="45.01452" lon="6.27107">
        <ele>2831.22</ele>
        <time>2017-06-24T13:00:17Z</time>
      </trkpt>
      <trkpt lat="45.01452" lon="6.27106">
        <ele>2831.22</ele>
        <time>2017-06-24T13:00:30Z</time>
      </trkpt>
      <trkpt lat="45.01452" lon="6.27107">
        <ele>2831.7</ele>
        <time>2017-06-24T13:00:33Z</time>
      </trkpt>
      <trkpt lat="45.01455" lon="6.27111">
        <ele>2829.3</ele>
        <time>2017-06-24T13:00:39Z</time>
      </trkpt>
      <trkpt lat="45.01457" lon="6.27115">
        <ele>2828.34</ele>
        <time>2017-06-24T13:00:46Z</time>
      </trkpt>
      <trkpt lat="45.01458" lon="6.27115">
        <ele>2828.82</ele>
        <time>2017-06-24T13:00:54Z</time>
      </trkpt>
      <trkpt lat="45.01463" lon="6.27116">
        <ele>2826.41</ele>
        <time>2017-06-24T13:01:02Z</time>
      </trkpt>
      <trkpt lat="45.01467" lon="6.27119">
        <ele>2822.57</ele>
        <time>2017-06-24T13:01:09Z</time>
      </trkpt>
      <trkpt lat="45.01469" lon="6.2712">
        <ele>2819.68</ele>
        <time>2017-06-24T13:01:14Z</time>
      </trkpt>
      <trkpt lat="45.01471" lon="6.27122">
        <ele>2818.72</ele>
        <time>2017-06-24T13:01:20Z</time>
      </trkpt>
      <trkpt lat="45.01473" lon="6.27122">
        <ele>2818.24</ele>
        <time>2017-06-24T13:01:27Z</time>
      </trkpt>
      <trkpt lat="45.01475" lon="6.2712">
        <ele>2814.88</ele>
        <time>2017-06-24T13:01:34Z</time>
      </trkpt>
      <trkpt lat="45.01479" lon="6.27122">
        <ele>2813.92</ele>
        <time>2017-06-24T13:01:40Z</time>
      </trkpt>
      <trkpt lat="45.0148" lon="6.27124">
        <ele>2813.92</ele>
        <time>2017-06-24T13:01:49Z</time>
      </trkpt>
      <trkpt lat="45.01481" lon="6.27125">
        <ele>2813.44</ele>
        <time>2017-06-24T13:01:50Z</time>
      </trkpt>
      <trkpt lat="45.01483" lon="6.2713">
        <ele>2809.11</ele>
        <time>2017-06-24T13:01:56Z</time>
      </trkpt>
      <trkpt lat="45.01485" lon="6.27131">
        <ele>2805.75</ele>
        <time>2017-06-24T13:02:04Z</time>
      </trkpt>
      <trkpt lat="45.01488" lon="6.27133">
        <ele>2803.82</ele>
        <time>2017-06-24T13:02:09Z</time>
      </trkpt>
      <trkpt lat="45.01489" lon="6.27138">
        <ele>2802.86</ele>
        <time>2017-06-24T13:02:14Z</time>
      </trkpt>
      <trkpt lat="45.0149" lon="6.27139">
        <ele>2800.46</ele>
        <time>2017-06-24T13:02:20Z</time>
      </trkpt>
      <trkpt lat="45.01489" lon="6.27147">
        <ele>2798.05</ele>
        <time>2017-06-24T13:02:28Z</time>
      </trkpt>
      <trkpt lat="45.01489" lon="6.27155">
        <ele>2795.65</ele>
        <time>2017-06-24T13:02:35Z</time>
      </trkpt>
      <trkpt lat="45.01491" lon="6.2716">
        <ele>2794.21</ele>
        <time>2017-06-24T13:02:39Z</time>
      </trkpt>
      <trkpt lat="45.01495" lon="6.27164">
        <ele>2790.84</ele>
        <time>2017-06-24T13:02:45Z</time>
      </trkpt>
      <trkpt lat="45.01496" lon="6.27168">
        <ele>2789.88</ele>
        <time>2017-06-24T13:02:50Z</time>
      </trkpt>
      <trkpt lat="45.01499" lon="6.2717">
        <ele>2787.96</ele>
        <time>2017-06-24T13:02:56Z</time>
      </trkpt>
      <trkpt lat="45.01498" lon="6.2717">
        <ele>2787.48</ele>
        <time>2017-06-24T13:03:01Z</time>
      </trkpt>
      <trkpt lat="45.01504" lon="6.27177">
        <ele>2785.08</ele>
        <time>2017-06-24T13:03:09Z</time>
      </trkpt>
      <trkpt lat="45.01506" lon="6.27179">
        <ele>2784.6</ele>
        <time>2017-06-24T13:03:12Z</time>
      </trkpt>
      <trkpt lat="45.01511" lon="6.27186">
        <ele>2781.71</ele>
        <time>2017-06-24T13:03:19Z</time>
      </trkpt>
      <trkpt lat="45.01513" lon="6.27191">
        <ele>2780.75</ele>
        <time>2017-06-24T13:03:22Z</time>
      </trkpt>
      <trkpt lat="45.01516" lon="6.27195">
        <ele>2778.83</ele>
        <time>2017-06-24T13:03:26Z</time>
      </trkpt>
      <trkpt lat="45.01517" lon="6.272">
        <ele>2778.35</ele>
        <time>2017-06-24T13:03:29Z</time>
      </trkpt>
      <trkpt lat="45.01521" lon="6.27204">
        <ele>2775.94</ele>
        <time>2017-06-24T13:03:33Z</time>
      </trkpt>
      <trkpt lat="45.01523" lon="6.27207">
        <ele>2773.54</ele>
        <time>2017-06-24T13:03:36Z</time>
      </trkpt>
      <trkpt lat="45.01529" lon="6.27214">
        <ele>2770.18</ele>
        <time>2017-06-24T13:03:42Z</time>
      </trkpt>
      <trkpt lat="45.01536" lon="6.27222">
        <ele>2767.77</ele>
        <time>2017-06-24T13:03:48Z</time>
      </trkpt>
      <trkpt lat="45.01542" lon="6.27228">
        <ele>2764.41</ele>
        <time>2017-06-24T13:03:54Z</time>
      </trkpt>
      <trkpt lat="45.0155" lon="6.27241">
        <ele>2762</ele>
        <time>2017-06-24T13:04:01Z</time>
      </trkpt>
      <trkpt lat="45.01553" lon="6.27249">
        <ele>2760.08</ele>
        <time>2017-06-24T13:04:05Z</time>
      </trkpt>
      <trkpt lat="45.01561" lon="6.27258">
        <ele>2757.2</ele>
        <time>2017-06-24T13:04:11Z</time>
      </trkpt>
      <trkpt lat="45.01568" lon="6.27262">
        <ele>2755.28</ele>
        <time>2017-06-24T13:04:15Z</time>
      </trkpt>
      <trkpt lat="45.0158" lon="6.27264">
        <ele>2753.35</ele>
        <time>2017-06-24T13:04:21Z</time>
      </trkpt>
      <trkpt lat="45.01587" lon="6.27264">
        <ele>2752.87</ele>
        <time>2017-06-24T13:04:24Z</time>
      </trkpt>
      <trkpt lat="45.01604" lon="6.27261">
        <ele>2750.95</ele>
        <time>2017-06-24T13:04:32Z</time>
      </trkpt>
      <trkpt lat="45.01609" lon="6.27267">
        <ele>2750.95</ele>
        <time>2017-06-24T13:04:35Z</time>
      </trkpt>
      <trkpt lat="45.0162" lon="6.27272">
        <ele>2748.55</ele>
        <time>2017-06-24T13:04:40Z</time>
      </trkpt>
      <trkpt lat="45.01636" lon="6.27277">
        <ele>2746.62</ele>
        <time>2017-06-24T13:04:47Z</time>
      </trkpt>
      <trkpt lat="45.01651" lon="6.27276">
        <ele>2746.62</ele>
        <time>2017-06-24T13:04:53Z</time>
      </trkpt>
      <trkpt lat="45.01663" lon="6.2727">
        <ele>2747.1</ele>
        <time>2017-06-24T13:04:58Z</time>
      </trkpt>
      <trkpt lat="45.01684" lon="6.27273">
        <ele>2748.07</ele>
        <time>2017-06-24T13:05:06Z</time>
      </trkpt>
      <trkpt lat="45.01695" lon="6.27277">
        <ele>2746.14</ele>
        <time>2017-06-24T13:05:11Z</time>
      </trkpt>
      <trkpt lat="45.01707" lon="6.27284">
        <ele>2745.18</ele>
        <time>2017-06-24T13:05:17Z</time>
      </trkpt>
      <trkpt lat="45.01719" lon="6.2729">
        <ele>2747.1</ele>
        <time>2017-06-24T13:05:24Z</time>
      </trkpt>
      <trkpt lat="45.01721" lon="6.27291">
        <ele>2747.1</ele>
        <time>2017-06-24T13:05:25Z</time>
      </trkpt>
      <trkpt lat="45.01728" lon="6.273">
        <ele>2747.59</ele>
        <time>2017-06-24T13:05:31Z</time>
      </trkpt>
      <trkpt lat="45.01733" lon="6.27306">
        <ele>2747.59</ele>
        <time>2017-06-24T13:05:36Z</time>
      </trkpt>
      <trkpt lat="45.0174" lon="6.27312">
        <ele>2746.14</ele>
        <time>2017-06-24T13:05:43Z</time>
      </trkpt>
      <trkpt lat="45.01741" lon="6.27314">
        <ele>2746.62</ele>
        <time>2017-06-24T13:05:52Z</time>
      </trkpt>
      <trkpt lat="45.01744" lon="6.27323">
        <ele>2746.14</ele>
        <time>2017-06-24T13:05:55Z</time>
      </trkpt>
      <trkpt lat="45.01744" lon="6.27331">
        <ele>2745.66</ele>
        <time>2017-06-24T13:05:59Z</time>
      </trkpt>
      <trkpt lat="45.01748" lon="6.27336">
        <ele>2742.78</ele>
        <time>2017-06-24T13:06:06Z</time>
      </trkpt>
      <trkpt lat="45.01752" lon="6.27333">
        <ele>2742.78</ele>
        <time>2017-06-24T13:06:10Z</time>
      </trkpt>
      <trkpt lat="45.0176" lon="6.27342">
        <ele>2740.86</ele>
        <time>2017-06-24T13:06:17Z</time>
      </trkpt>
      <trkpt lat="45.01761" lon="6.27343">
        <ele>2740.38</ele>
        <time>2017-06-24T13:06:18Z</time>
      </trkpt>
      <trkpt lat="45.01763" lon="6.27345">
        <ele>2739.89</ele>
        <time>2017-06-24T13:06:20Z</time>
      </trkpt>
      <trkpt lat="45.01765" lon="6.2735">
        <ele>2738.45</ele>
        <time>2017-06-24T13:06:24Z</time>
      </trkpt>
      <trkpt lat="45.01768" lon="6.27358">
        <ele>2737.97</ele>
        <time>2017-06-24T13:06:29Z</time>
      </trkpt>
      <trkpt lat="45.01768" lon="6.2736">
        <ele>2737.49</ele>
        <time>2017-06-24T13:06:31Z</time>
      </trkpt>
      <trkpt lat="45.01773" lon="6.27365">
        <ele>2736.05</ele>
        <time>2017-06-24T13:06:37Z</time>
      </trkpt>
      <trkpt lat="45.01773" lon="6.27367">
        <ele>2735.57</ele>
        <time>2017-06-24T13:06:38Z</time>
      </trkpt>
      <trkpt lat="45.01772" lon="6.27378">
        <ele>2733.17</ele>
        <time>2017-06-24T13:06:44Z</time>
      </trkpt>
      <trkpt lat="45.01775" lon="6.27384">
        <ele>2731.24</ele>
        <time>2017-06-24T13:06:51Z</time>
      </trkpt>
      <trkpt lat="45.01775" lon="6.27385">
        <ele>2731.24</ele>
        <time>2017-06-24T13:06:56Z</time>
      </trkpt>
      <trkpt lat="45.01777" lon="6.27388">
        <ele>2729.8</ele>
        <time>2017-06-24T13:07:02Z</time>
      </trkpt>
      <trkpt lat="45.01778" lon="6.27388">
        <ele>2729.8</ele>
        <time>2017-06-24T13:07:03Z</time>
      </trkpt>
      <trkpt lat="45.01782" lon="6.27398">
        <ele>2727.4</ele>
        <time>2017-06-24T13:07:11Z</time>
      </trkpt>
      <trkpt lat="45.01783" lon="6.27407">
        <ele>2724.99</ele>
        <time>2017-06-24T13:07:17Z</time>
      </trkpt>
      <trkpt lat="45.01782" lon="6.27407">
        <ele>2724.51</ele>
        <time>2017-06-24T13:07:24Z</time>
      </trkpt>
      <trkpt lat="45.01778" lon="6.27412">
        <ele>2723.55</ele>
        <time>2017-06-24T13:07:31Z</time>
      </trkpt>
      <trkpt lat="45.01775" lon="6.27417">
        <ele>2723.07</ele>
        <time>2017-06-24T13:07:36Z</time>
      </trkpt>
      <trkpt lat="45.01774" lon="6.27417">
        <ele>2722.11</ele>
        <time>2017-06-24T13:07:45Z</time>
      </trkpt>
      <trkpt lat="45.01775" lon="6.27422">
        <ele>2720.67</ele>
        <time>2017-06-24T13:07:50Z</time>
      </trkpt>
      <trkpt lat="45.01773" lon="6.27425">
        <ele>2720.19</ele>
        <time>2017-06-24T13:07:56Z</time>
      </trkpt>
      <trkpt lat="45.01773" lon="6.27425">
        <ele>2719.71</ele>
        <time>2017-06-24T13:08:01Z</time>
      </trkpt>
      <trkpt lat="45.01772" lon="6.27429">
        <ele>2719.23</ele>
        <time>2017-06-24T13:08:08Z</time>
      </trkpt>
      <trkpt lat="45.01772" lon="6.27435">
        <ele>2718.27</ele>
        <time>2017-06-24T13:08:13Z</time>
      </trkpt>
      <trkpt lat="45.01772" lon="6.2744">
        <ele>2716.34</ele>
        <time>2017-06-24T13:08:17Z</time>
      </trkpt>
      <trkpt lat="45.01772" lon="6.27443">
        <ele>2715.38</ele>
        <time>2017-06-24T13:08:19Z</time>
      </trkpt>
      <trkpt lat="45.01773" lon="6.27446">
        <ele>2713.94</ele>
        <time>2017-06-24T13:08:22Z</time>
      </trkpt>
      <trkpt lat="45.01775" lon="6.27453">
        <ele>2712.5</ele>
        <time>2017-06-24T13:08:26Z</time>
      </trkpt>
      <trkpt lat="45.01776" lon="6.27462">
        <ele>2709.61</ele>
        <time>2017-06-24T13:08:33Z</time>
      </trkpt>
      <trkpt lat="45.01778" lon="6.27465">
        <ele>2708.17</ele>
        <time>2017-06-24T13:08:37Z</time>
      </trkpt>
      <trkpt lat="45.01775" lon="6.27473">
        <ele>2706.73</ele>
        <time>2017-06-24T13:08:43Z</time>
      </trkpt>
      <trkpt lat="45.01775" lon="6.27472">
        <ele>2703.36</ele>
        <time>2017-06-24T13:08:47Z</time>
      </trkpt>
      <trkpt lat="45.01775" lon="6.27473">
        <ele>2701.92</ele>
        <time>2017-06-24T13:08:49Z</time>
      </trkpt>
      <trkpt lat="45.01782" lon="6.27481">
        <ele>2699.04</ele>
        <time>2017-06-24T13:08:57Z</time>
      </trkpt>
      <trkpt lat="45.01783" lon="6.27482">
        <ele>2699.04</ele>
        <time>2017-06-24T13:08:58Z</time>
      </trkpt>
      <trkpt lat="45.01783" lon="6.27488">
        <ele>2697.6</ele>
        <time>2017-06-24T13:09:02Z</time>
      </trkpt>
      <trkpt lat="45.01784" lon="6.27496">
        <ele>2697.12</ele>
        <time>2017-06-24T13:09:07Z</time>
      </trkpt>
      <trkpt lat="45.01783" lon="6.27497">
        <ele>2698.56</ele>
        <time>2017-06-24T13:09:13Z</time>
      </trkpt>
      <trkpt lat="45.01783" lon="6.27497">
        <ele>2698.56</ele>
        <time>2017-06-24T13:09:19Z</time>
      </trkpt>
      <trkpt lat="45.01791" lon="6.27501">
        <ele>2696.64</ele>
        <time>2017-06-24T13:09:25Z</time>
      </trkpt>
      <trkpt lat="45.01791" lon="6.27502">
        <ele>2696.15</ele>
        <time>2017-06-24T13:09:27Z</time>
      </trkpt>
      <trkpt lat="45.01798" lon="6.27511">
        <ele>2695.19</ele>
        <time>2017-06-24T13:09:33Z</time>
      </trkpt>
      <trkpt lat="45.01798" lon="6.27512">
        <ele>2694.71</ele>
        <time>2017-06-24T13:09:34Z</time>
      </trkpt>
      <trkpt lat="45.01803" lon="6.27525">
        <ele>2692.79</ele>
        <time>2017-06-24T13:09:42Z</time>
      </trkpt>
      <trkpt lat="45.01804" lon="6.27527">
        <ele>2693.27</ele>
        <time>2017-06-24T13:09:43Z</time>
      </trkpt>
      <trkpt lat="45.01808" lon="6.27541">
        <ele>2693.27</ele>
        <time>2017-06-24T13:09:49Z</time>
      </trkpt>
      <trkpt lat="45.01812" lon="6.27552">
        <ele>2693.27</ele>
        <time>2017-06-24T13:09:55Z</time>
      </trkpt>
      <trkpt lat="45.01815" lon="6.27566">
        <ele>2692.79</ele>
        <time>2017-06-24T13:10:00Z</time>
      </trkpt>
      <trkpt lat="45.0182" lon="6.27581">
        <ele>2692.31</ele>
        <time>2017-06-24T13:10:06Z</time>
      </trkpt>
      <trkpt lat="45.01821" lon="6.27589">
        <ele>2691.35</ele>
        <time>2017-06-24T13:10:11Z</time>
      </trkpt>
      <trkpt lat="45.01821" lon="6.27589">
        <ele>2691.35</ele>
        <time>2017-06-24T13:10:17Z</time>
      </trkpt>
      <trkpt lat="45.01821" lon="6.27592">
        <ele>2690.87</ele>
        <time>2017-06-24T13:10:27Z</time>
      </trkpt>
      <trkpt lat="45.01824" lon="6.27598">
        <ele>2689.43</ele>
        <time>2017-06-24T13:10:33Z</time>
      </trkpt>
      <trkpt lat="45.01826" lon="6.276">
        <ele>2687.98</ele>
        <time>2017-06-24T13:10:37Z</time>
      </trkpt>
      <trkpt lat="45.01828" lon="6.27605">
        <ele>2686.54</ele>
        <time>2017-06-24T13:10:43Z</time>
      </trkpt>
      <trkpt lat="45.01826" lon="6.27609">
        <ele>2683.66</ele>
        <time>2017-06-24T13:10:50Z</time>
      </trkpt>
      <trkpt lat="45.01827" lon="6.27612">
        <ele>2681.25</ele>
        <time>2017-06-24T13:10:55Z</time>
      </trkpt>
      <trkpt lat="45.01825" lon="6.27613">
        <ele>2680.29</ele>
        <time>2017-06-24T13:11:01Z</time>
      </trkpt>
      <trkpt lat="45.01824" lon="6.27616">
        <ele>2680.29</ele>
        <time>2017-06-24T13:11:07Z</time>
      </trkpt>
      <trkpt lat="45.01822" lon="6.27616">
        <ele>2679.81</ele>
        <time>2017-06-24T13:11:13Z</time>
      </trkpt>
      <trkpt lat="45.01821" lon="6.27618">
        <ele>2677.41</ele>
        <time>2017-06-24T13:11:21Z</time>
      </trkpt>
      <trkpt lat="45.0182" lon="6.27621">
        <ele>2677.89</ele>
        <time>2017-06-24T13:11:29Z</time>
      </trkpt>
      <trkpt lat="45.01826" lon="6.27629">
        <ele>2674.52</ele>
        <time>2017-06-24T13:11:36Z</time>
      </trkpt>
      <trkpt lat="45.01827" lon="6.27631">
        <ele>2674.04</ele>
        <time>2017-06-24T13:11:37Z</time>
      </trkpt>
      <trkpt lat="45.01833" lon="6.27644">
        <ele>2672.12</ele>
        <time>2017-06-24T13:11:44Z</time>
      </trkpt>
      <trkpt lat="45.01835" lon="6.2765">
        <ele>2671.64</ele>
        <time>2017-06-24T13:11:47Z</time>
      </trkpt>
      <trkpt lat="45.0184" lon="6.27663">
        <ele>2668.76</ele>
        <time>2017-06-24T13:11:55Z</time>
      </trkpt>
      <trkpt lat="45.01842" lon="6.27664">
        <ele>2667.8</ele>
        <time>2017-06-24T13:11:57Z</time>
      </trkpt>
      <trkpt lat="45.01843" lon="6.27667">
        <ele>2666.35</ele>
        <time>2017-06-24T13:11:59Z</time>
      </trkpt>
      <trkpt lat="45.01847" lon="6.27669">
        <ele>2664.43</ele>
        <time>2017-06-24T13:12:05Z</time>
      </trkpt>
      <trkpt lat="45.01849" lon="6.2767">
        <ele>2662.99</ele>
        <time>2017-06-24T13:12:12Z</time>
      </trkpt>
      <trkpt lat="45.0185" lon="6.27671">
        <ele>2662.99</ele>
        <time>2017-06-24T13:12:18Z</time>
      </trkpt>
      <trkpt lat="45.01851" lon="6.27673">
        <ele>2662.03</ele>
        <time>2017-06-24T13:12:26Z</time>
      </trkpt>
      <trkpt lat="45.0185" lon="6.27675">
        <ele>2662.03</ele>
        <time>2017-06-24T13:12:32Z</time>
      </trkpt>
      <trkpt lat="45.0185" lon="6.27675">
        <ele>2662.03</ele>
        <time>2017-06-24T13:12:40Z</time>
      </trkpt>
      <trkpt lat="45.0185" lon="6.27677">
        <ele>2661.55</ele>
        <time>2017-06-24T13:12:44Z</time>
      </trkpt>
      <trkpt lat="45.01852" lon="6.27677">
        <ele>2660.59</ele>
        <time>2017-06-24T13:12:48Z</time>
      </trkpt>
      <trkpt lat="45.01853" lon="6.27676">
        <ele>2661.07</ele>
        <time>2017-06-24T13:12:57Z</time>
      </trkpt>
      <trkpt lat="45.01853" lon="6.27676">
        <ele>2661.07</ele>
        <time>2017-06-24T13:13:01Z</time>
      </trkpt>
      <trkpt lat="45.01859" lon="6.27682">
        <ele>2660.11</ele>
        <time>2017-06-24T13:13:08Z</time>
      </trkpt>
      <trkpt lat="45.01857" lon="6.27684">
        <ele>2659.62</ele>
        <time>2017-06-24T13:13:14Z</time>
      </trkpt>
      <trkpt lat="45.01861" lon="6.2769">
        <ele>2658.66</ele>
        <time>2017-06-24T13:13:20Z</time>
      </trkpt>
      <trkpt lat="45.01862" lon="6.27699">
        <ele>2654.34</ele>
        <time>2017-06-24T13:13:27Z</time>
      </trkpt>
      <trkpt lat="45.01861" lon="6.277">
        <ele>2652.42</ele>
        <time>2017-06-24T13:13:32Z</time>
      </trkpt>
      <trkpt lat="45.0186" lon="6.27701">
        <ele>2651.93</ele>
        <time>2017-06-24T13:13:33Z</time>
      </trkpt>
      <trkpt lat="45.01852" lon="6.27699">
        <ele>2647.13</ele>
        <time>2017-06-24T13:13:41Z</time>
      </trkpt>
      <trkpt lat="45.01851" lon="6.27701">
        <ele>2646.65</ele>
        <time>2017-06-24T13:13:51Z</time>
      </trkpt>
      <trkpt lat="45.01851" lon="6.277">
        <ele>2646.65</ele>
        <time>2017-06-24T13:14:03Z</time>
      </trkpt>
      <trkpt lat="45.01849" lon="6.27701">
        <ele>2645.69</ele>
        <time>2017-06-24T13:14:12Z</time>
      </trkpt>
      <trkpt lat="45.01848" lon="6.27701">
        <ele>2646.17</ele>
        <time>2017-06-24T13:14:22Z</time>
      </trkpt>
      <trkpt lat="45.01848" lon="6.27703">
        <ele>2646.17</ele>
        <time>2017-06-24T13:14:33Z</time>
      </trkpt>
      <trkpt lat="45.01847" lon="6.27706">
        <ele>2644.72</ele>
        <time>2017-06-24T13:14:38Z</time>
      </trkpt>
      <trkpt lat="45.01846" lon="6.27708">
        <ele>2642.8</ele>
        <time>2017-06-24T13:14:45Z</time>
      </trkpt>
      <trkpt lat="45.01845" lon="6.27708">
        <ele>2642.32</ele>
        <time>2017-06-24T13:14:48Z</time>
      </trkpt>
      <trkpt lat="45.01841" lon="6.27707">
        <ele>2640.4</ele>
        <time>2017-06-24T13:14:52Z</time>
      </trkpt>
      <trkpt lat="45.01832" lon="6.27709">
        <ele>2636.07</ele>
        <time>2017-06-24T13:15:00Z</time>
      </trkpt>
      <trkpt lat="45.01828" lon="6.27708">
        <ele>2635.11</ele>
        <time>2017-06-24T13:15:07Z</time>
      </trkpt>
      <trkpt lat="45.01827" lon="6.2771">
        <ele>2633.19</ele>
        <time>2017-06-24T13:15:10Z</time>
      </trkpt>
      <trkpt lat="45.01829" lon="6.27719">
        <ele>2627.9</ele>
        <time>2017-06-24T13:15:17Z</time>
      </trkpt>
      <trkpt lat="45.01827" lon="6.27722">
        <ele>2625.02</ele>
        <time>2017-06-24T13:15:24Z</time>
      </trkpt>
      <trkpt lat="45.01822" lon="6.27723">
        <ele>2622.13</ele>
        <time>2017-06-24T13:15:32Z</time>
      </trkpt>
      <trkpt lat="45.0182" lon="6.27729">
        <ele>2619.25</ele>
        <time>2017-06-24T13:15:38Z</time>
      </trkpt>
      <trkpt lat="45.01818" lon="6.27735">
        <ele>2615.4</ele>
        <time>2017-06-24T13:15:45Z</time>
      </trkpt>
      <trkpt lat="45.01818" lon="6.27737">
        <ele>2614.44</ele>
        <time>2017-06-24T13:15:48Z</time>
      </trkpt>
      <trkpt lat="45.01816" lon="6.27739">
        <ele>2613</ele>
        <time>2017-06-24T13:15:51Z</time>
      </trkpt>
      <trkpt lat="45.01814" lon="6.27748">
        <ele>2610.12</ele>
        <time>2017-06-24T13:15:56Z</time>
      </trkpt>
      <trkpt lat="45.01813" lon="6.27755">
        <ele>2607.71</ele>
        <time>2017-06-24T13:16:01Z</time>
      </trkpt>
      <trkpt lat="45.01812" lon="6.27758">
        <ele>2606.75</ele>
        <time>2017-06-24T13:16:09Z</time>
      </trkpt>
      <trkpt lat="45.01813" lon="6.27761">
        <ele>2606.75</ele>
        <time>2017-06-24T13:16:16Z</time>
      </trkpt>
      <trkpt lat="45.01815" lon="6.2776">
        <ele>2606.75</ele>
        <time>2017-06-24T13:16:26Z</time>
      </trkpt>
      <trkpt lat="45.01815" lon="6.27762">
        <ele>2606.27</ele>
        <time>2017-06-24T13:16:31Z</time>
      </trkpt>
      <trkpt lat="45.01813" lon="6.27766">
        <ele>2605.79</ele>
        <time>2017-06-24T13:16:37Z</time>
      </trkpt>
      <trkpt lat="45.01812" lon="6.27773">
        <ele>2606.27</ele>
        <time>2017-06-24T13:16:44Z</time>
      </trkpt>
      <trkpt lat="45.01808" lon="6.27774">
        <ele>2605.31</ele>
        <time>2017-06-24T13:16:49Z</time>
      </trkpt>
      <trkpt lat="45.018" lon="6.27768">
        <ele>2600.5</ele>
        <time>2017-06-24T13:16:56Z</time>
      </trkpt>
      <trkpt lat="45.01794" lon="6.27762">
        <ele>2595.7</ele>
        <time>2017-06-24T13:17:03Z</time>
      </trkpt>
      <trkpt lat="45.0179" lon="6.27766">
        <ele>2596.18</ele>
        <time>2017-06-24T13:17:09Z</time>
      </trkpt>
      <trkpt lat="45.01786" lon="6.27778">
        <ele>2597.14</ele>
        <time>2017-06-24T13:17:15Z</time>
      </trkpt>
      <trkpt lat="45.01785" lon="6.27787">
        <ele>2596.18</ele>
        <time>2017-06-24T13:17:20Z</time>
      </trkpt>
      <trkpt lat="45.01782" lon="6.27801">
        <ele>2595.7</ele>
        <time>2017-06-24T13:17:27Z</time>
      </trkpt>
      <trkpt lat="45.0178" lon="6.27804">
        <ele>2594.74</ele>
        <time>2017-06-24T13:17:33Z</time>
      </trkpt>
      <trkpt lat="45.01779" lon="6.27809">
        <ele>2593.77</ele>
        <time>2017-06-24T13:17:38Z</time>
      </trkpt>
      <trkpt lat="45.01778" lon="6.2781">
        <ele>2592.81</ele>
        <time>2017-06-24T13:17:40Z</time>
      </trkpt>
      <trkpt lat="45.01778" lon="6.27817">
        <ele>2591.37</ele>
        <time>2017-06-24T13:17:45Z</time>
      </trkpt>
      <trkpt lat="45.01773" lon="6.27828">
        <ele>2590.89</ele>
        <time>2017-06-24T13:17:51Z</time>
      </trkpt>
      <trkpt lat="45.01766" lon="6.27838">
        <ele>2590.89</ele>
        <time>2017-06-24T13:17:57Z</time>
      </trkpt>
      <trkpt lat="45.01765" lon="6.27843">
        <ele>2591.37</ele>
        <time>2017-06-24T13:17:59Z</time>
      </trkpt>
      <trkpt lat="45.01763" lon="6.27852">
        <ele>2591.85</ele>
        <time>2017-06-24T13:18:03Z</time>
      </trkpt>
      <trkpt lat="45.01768" lon="6.27865">
        <ele>2590.89</ele>
        <time>2017-06-24T13:18:10Z</time>
      </trkpt>
      <trkpt lat="45.01771" lon="6.27871">
        <ele>2589.93</ele>
        <time>2017-06-24T13:18:13Z</time>
      </trkpt>
      <trkpt lat="45.01776" lon="6.27889">
        <ele>2587.04</ele>
        <time>2017-06-24T13:18:21Z</time>
      </trkpt>
      <trkpt lat="45.01779" lon="6.27891">
        <ele>2585.12</ele>
        <time>2017-06-24T13:18:25Z</time>
      </trkpt>
      <trkpt lat="45.01783" lon="6.27899">
        <ele>2583.2</ele>
        <time>2017-06-24T13:18:30Z</time>
      </trkpt>
      <trkpt lat="45.01787" lon="6.27902">
        <ele>2580.8</ele>
        <time>2017-06-24T13:18:35Z</time>
      </trkpt>
      <trkpt lat="45.01788" lon="6.27902">
        <ele>2581.76</ele>
        <time>2017-06-24T13:18:41Z</time>
      </trkpt>
      <trkpt lat="45.01788" lon="6.27902">
        <ele>2582.24</ele>
        <time>2017-06-24T13:18:46Z</time>
      </trkpt>
      <trkpt lat="45.01789" lon="6.27909">
        <ele>2581.28</ele>
        <time>2017-06-24T13:18:54Z</time>
      </trkpt>
      <trkpt lat="45.01789" lon="6.2791">
        <ele>2580.8</ele>
        <time>2017-06-24T13:19:02Z</time>
      </trkpt>
      <trkpt lat="45.01788" lon="6.27915">
        <ele>2579.35</ele>
        <time>2017-06-24T13:19:08Z</time>
      </trkpt>
      <trkpt lat="45.01789" lon="6.27922">
        <ele>2575.99</ele>
        <time>2017-06-24T13:19:14Z</time>
      </trkpt>
      <trkpt lat="45.01789" lon="6.27928">
        <ele>2574.07</ele>
        <time>2017-06-24T13:19:19Z</time>
      </trkpt>
      <trkpt lat="45.0179" lon="6.27935">
        <ele>2573.11</ele>
        <time>2017-06-24T13:19:24Z</time>
      </trkpt>
      <trkpt lat="45.01793" lon="6.27943">
        <ele>2570.7</ele>
        <time>2017-06-24T13:19:29Z</time>
      </trkpt>
      <trkpt lat="45.01795" lon="6.2795">
        <ele>2567.82</ele>
        <time>2017-06-24T13:19:35Z</time>
      </trkpt>
      <trkpt lat="45.01798" lon="6.27953">
        <ele>2566.38</ele>
        <time>2017-06-24T13:19:38Z</time>
      </trkpt>
      <trkpt lat="45.01798" lon="6.27957">
        <ele>2564.93</ele>
        <time>2017-06-24T13:19:42Z</time>
      </trkpt>
      <trkpt lat="45.01801" lon="6.27961">
        <ele>2564.45</ele>
        <time>2017-06-24T13:19:45Z</time>
      </trkpt>
      <trkpt lat="45.01804" lon="6.2797">
        <ele>2562.53</ele>
        <time>2017-06-24T13:19:53Z</time>
      </trkpt>
      <trkpt lat="45.01803" lon="6.2797">
        <ele>2561.57</ele>
        <time>2017-06-24T13:20:04Z</time>
      </trkpt>
      <trkpt lat="45.01804" lon="6.2797">
        <ele>2563.01</ele>
        <time>2017-06-24T13:20:14Z</time>
      </trkpt>
      <trkpt lat="45.01807" lon="6.27974">
        <ele>2563.49</ele>
        <time>2017-06-24T13:20:20Z</time>
      </trkpt>
      <trkpt lat="45.0181" lon="6.27979">
        <ele>2564.45</ele>
        <time>2017-06-24T13:20:26Z</time>
      </trkpt>
      <trkpt lat="45.01809" lon="6.2798">
        <ele>2564.45</ele>
        <time>2017-06-24T13:20:36Z</time>
      </trkpt>
      <trkpt lat="45.01809" lon="6.2798">
        <ele>2564.93</ele>
        <time>2017-06-24T13:20:52Z</time>
      </trkpt>
      <trkpt lat="45.01812" lon="6.27982">
        <ele>2564.45</ele>
        <time>2017-06-24T13:21:00Z</time>
      </trkpt>
      <trkpt lat="45.01812" lon="6.27985">
        <ele>2563.97</ele>
        <time>2017-06-24T13:21:10Z</time>
      </trkpt>
      <trkpt lat="45.01808" lon="6.27989">
        <ele>2563.01</ele>
        <time>2017-06-24T13:21:17Z</time>
      </trkpt>
      <trkpt lat="45.01806" lon="6.2799">
        <ele>2563.01</ele>
        <time>2017-06-24T13:21:26Z</time>
      </trkpt>
      <trkpt lat="45.01806" lon="6.2799">
        <ele>2563.49</ele>
        <time>2017-06-24T13:21:40Z</time>
      </trkpt>
      <trkpt lat="45.01807" lon="6.2799">
        <ele>2563.49</ele>
        <time>2017-06-24T13:21:55Z</time>
      </trkpt>
      <trkpt lat="45.01806" lon="6.2799">
        <ele>2563.01</ele>
        <time>2017-06-24T13:22:12Z</time>
      </trkpt>
      <trkpt lat="45.01806" lon="6.27987">
        <ele>2563.01</ele>
        <time>2017-06-24T13:22:23Z</time>
      </trkpt>
      <trkpt lat="45.01807" lon="6.27986">
        <ele>2563.01</ele>
        <time>2017-06-24T13:22:24Z</time>
      </trkpt>
      <trkpt lat="45.01808" lon="6.27979">
        <ele>2563.97</ele>
        <time>2017-06-24T13:22:28Z</time>
      </trkpt>
      <trkpt lat="45.01809" lon="6.27974">
        <ele>2564.93</ele>
        <time>2017-06-24T13:22:31Z</time>
      </trkpt>
      <trkpt lat="45.01808" lon="6.27968">
        <ele>2564.93</ele>
        <time>2017-06-24T13:22:35Z</time>
      </trkpt>
      <trkpt lat="45.01797" lon="6.27957">
        <ele>2564.93</ele>
        <time>2017-06-24T13:22:42Z</time>
      </trkpt>
      <trkpt lat="45.01794" lon="6.27955">
        <ele>2564.45</ele>
        <time>2017-06-24T13:22:47Z</time>
      </trkpt>
      <trkpt lat="45.01791" lon="6.27957">
        <ele>2563.97</ele>
        <time>2017-06-24T13:22:55Z</time>
      </trkpt>
      <trkpt lat="45.0179" lon="6.27958">
        <ele>2563.97</ele>
        <time>2017-06-24T13:22:56Z</time>
      </trkpt>
      <trkpt lat="45.01785" lon="6.27967">
        <ele>2563.49</ele>
        <time>2017-06-24T13:23:04Z</time>
      </trkpt>
      <trkpt lat="45.01783" lon="6.2797">
        <ele>2563.49</ele>
        <time>2017-06-24T13:23:14Z</time>
      </trkpt>
      <trkpt lat="45.01783" lon="6.27969">
        <ele>2563.01</ele>
        <time>2017-06-24T13:23:24Z</time>
      </trkpt>
      <trkpt lat="45.01781" lon="6.27971">
        <ele>2563.01</ele>
        <time>2017-06-24T13:23:32Z</time>
      </trkpt>
      <trkpt lat="45.01775" lon="6.27974">
        <ele>2562.05</ele>
        <time>2017-06-24T13:23:40Z</time>
      </trkpt>
      <trkpt lat="45.01773" lon="6.27976">
        <ele>2562.05</ele>
        <time>2017-06-24T13:23:48Z</time>
      </trkpt>
      <trkpt lat="45.01773" lon="6.27976">
        <ele>2561.57</ele>
        <time>2017-06-24T13:23:55Z</time>
      </trkpt>
      <trkpt lat="45.0177" lon="6.27975">
        <ele>2561.57</ele>
        <time>2017-06-24T13:24:03Z</time>
      </trkpt>
      <trkpt lat="45.01768" lon="6.27975">
        <ele>2561.57</ele>
        <time>2017-06-24T13:24:09Z</time>
      </trkpt>
      <trkpt lat="45.01767" lon="6.27979">
        <ele>2562.53</ele>
        <time>2017-06-24T13:24:17Z</time>
      </trkpt>
      <trkpt lat="45.01771" lon="6.27983">
        <ele>2561.09</ele>
        <time>2017-06-24T13:24:21Z</time>
      </trkpt>
      <trkpt lat="45.01773" lon="6.27987">
        <ele>2560.13</ele>
        <time>2017-06-24T13:24:23Z</time>
      </trkpt>
      <trkpt lat="45.01771" lon="6.27997">
        <ele>2557.73</ele>
        <time>2017-06-24T13:24:28Z</time>
      </trkpt>
      <trkpt lat="45.01769" lon="6.27999">
        <ele>2556.76</ele>
        <time>2017-06-24T13:24:30Z</time>
      </trkpt>
      <trkpt lat="45.01768" lon="6.28004">
        <ele>2555.32</ele>
        <time>2017-06-24T13:24:33Z</time>
      </trkpt>
      <trkpt lat="45.01766" lon="6.28013">
        <ele>2553.4</ele>
        <time>2017-06-24T13:24:38Z</time>
      </trkpt>
      <trkpt lat="45.01753" lon="6.28023">
        <ele>2550.51</ele>
        <time>2017-06-24T13:24:47Z</time>
      </trkpt>
      <trkpt lat="45.01741" lon="6.28033">
        <ele>2547.15</ele>
        <time>2017-06-24T13:24:54Z</time>
      </trkpt>
      <trkpt lat="45.01731" lon="6.2804">
        <ele>2544.75</ele>
        <time>2017-06-24T13:25:00Z</time>
      </trkpt>
      <trkpt lat="45.01727" lon="6.28041">
        <ele>2543.31</ele>
        <time>2017-06-24T13:25:03Z</time>
      </trkpt>
      <trkpt lat="45.01723" lon="6.28044">
        <ele>2541.86</ele>
        <time>2017-06-24T13:25:06Z</time>
      </trkpt>
      <trkpt lat="45.01718" lon="6.28053">
        <ele>2538.98</ele>
        <time>2017-06-24T13:25:11Z</time>
      </trkpt>
      <trkpt lat="45.01717" lon="6.28064">
        <ele>2534.17</ele>
        <time>2017-06-24T13:25:18Z</time>
      </trkpt>
      <trkpt lat="45.01717" lon="6.28066">
        <ele>2532.73</ele>
        <time>2017-06-24T13:25:20Z</time>
      </trkpt>
      <trkpt lat="45.01709" lon="6.28072">
        <ele>2530.33</ele>
        <time>2017-06-24T13:25:27Z</time>
      </trkpt>
      <trkpt lat="45.0171" lon="6.28075">
        <ele>2529.37</ele>
        <time>2017-06-24T13:25:30Z</time>
      </trkpt>
      <trkpt lat="45.01709" lon="6.28079">
        <ele>2527.44</ele>
        <time>2017-06-24T13:25:33Z</time>
      </trkpt>
      <trkpt lat="45.0171" lon="6.28083">
        <ele>2526</ele>
        <time>2017-06-24T13:25:36Z</time>
      </trkpt>
      <trkpt lat="45.01715" lon="6.28091">
        <ele>2524.08</ele>
        <time>2017-06-24T13:25:43Z</time>
      </trkpt>
      <trkpt lat="45.01717" lon="6.28094">
        <ele>2521.68</ele>
        <time>2017-06-24T13:25:47Z</time>
      </trkpt>
      <trkpt lat="45.01711" lon="6.28101">
        <ele>2518.79</ele>
        <time>2017-06-24T13:25:55Z</time>
      </trkpt>
      <trkpt lat="45.01719" lon="6.28108">
        <ele>2515.43</ele>
        <time>2017-06-24T13:26:02Z</time>
      </trkpt>
      <trkpt lat="45.01721" lon="6.28111">
        <ele>2512.54</ele>
        <time>2017-06-24T13:26:08Z</time>
      </trkpt>
      <trkpt lat="45.0172" lon="6.28112">
        <ele>2512.54</ele>
        <time>2017-06-24T13:26:16Z</time>
      </trkpt>
      <trkpt lat="45.01713" lon="6.28117">
        <ele>2512.06</ele>
        <time>2017-06-24T13:26:24Z</time>
      </trkpt>
      <trkpt lat="45.01708" lon="6.28121">
        <ele>2510.62</ele>
        <time>2017-06-24T13:26:30Z</time>
      </trkpt>
      <trkpt lat="45.01704" lon="6.28126">
        <ele>2509.18</ele>
        <time>2017-06-24T13:26:35Z</time>
      </trkpt>
      <trkpt lat="45.01702" lon="6.28126">
        <ele>2507.74</ele>
        <time>2017-06-24T13:26:46Z</time>
      </trkpt>
      <trkpt lat="45.01697" lon="6.2813">
        <ele>2507.74</ele>
        <time>2017-06-24T13:26:54Z</time>
      </trkpt>
      <trkpt lat="45.0169" lon="6.28135">
        <ele>2507.74</ele>
        <time>2017-06-24T13:27:01Z</time>
      </trkpt>
      <trkpt lat="45.01688" lon="6.28136">
        <ele>2507.74</ele>
        <time>2017-06-24T13:27:04Z</time>
      </trkpt>
      <trkpt lat="45.0168" lon="6.28138">
        <ele>2506.29</ele>
        <time>2017-06-24T13:27:12Z</time>
      </trkpt>
      <trkpt lat="45.01679" lon="6.28137">
        <ele>2504.85</ele>
        <time>2017-06-24T13:27:14Z</time>
      </trkpt>
      <trkpt lat="45.01675" lon="6.28144">
        <ele>2500.53</ele>
        <time>2017-06-24T13:27:21Z</time>
      </trkpt>
      <trkpt lat="45.01673" lon="6.28147">
        <ele>2499.57</ele>
        <time>2017-06-24T13:27:25Z</time>
      </trkpt>
      <trkpt lat="45.0167" lon="6.28154">
        <ele>2496.68</ele>
        <time>2017-06-24T13:27:33Z</time>
      </trkpt>
      <trkpt lat="45.01671" lon="6.28158">
        <ele>2494.76</ele>
        <time>2017-06-24T13:27:41Z</time>
      </trkpt>
      <trkpt lat="45.01668" lon="6.2816">
        <ele>2491.87</ele>
        <time>2017-06-24T13:27:46Z</time>
      </trkpt>
      <trkpt lat="45.01666" lon="6.28161">
        <ele>2488.99</ele>
        <time>2017-06-24T13:27:50Z</time>
      </trkpt>
      <trkpt lat="45.01661" lon="6.28163">
        <ele>2484.66</ele>
        <time>2017-06-24T13:27:56Z</time>
      </trkpt>
      <trkpt lat="45.01662" lon="6.28163">
        <ele>2481.78</ele>
        <time>2017-06-24T13:28:02Z</time>
      </trkpt>
      <trkpt lat="45.01662" lon="6.28166">
        <ele>2481.78</ele>
        <time>2017-06-24T13:28:06Z</time>
      </trkpt>
      <trkpt lat="45.01667" lon="6.28173">
        <ele>2478.9</ele>
        <time>2017-06-24T13:28:14Z</time>
      </trkpt>
      <trkpt lat="45.01671" lon="6.28177">
        <ele>2476.97</ele>
        <time>2017-06-24T13:28:22Z</time>
      </trkpt>
      <trkpt lat="45.01674" lon="6.2818">
        <ele>2475.53</ele>
        <time>2017-06-24T13:28:25Z</time>
      </trkpt>
      <trkpt lat="45.01677" lon="6.28184">
        <ele>2474.57</ele>
        <time>2017-06-24T13:28:28Z</time>
      </trkpt>
      <trkpt lat="45.01679" lon="6.28185">
        <ele>2473.61</ele>
        <time>2017-06-24T13:28:31Z</time>
      </trkpt>
      <trkpt lat="45.01679" lon="6.28187">
        <ele>2471.21</ele>
        <time>2017-06-24T13:28:35Z</time>
      </trkpt>
      <trkpt lat="45.01676" lon="6.28189">
        <ele>2469.28</ele>
        <time>2017-06-24T13:28:39Z</time>
      </trkpt>
      <trkpt lat="45.01678" lon="6.28194">
        <ele>2467.84</ele>
        <time>2017-06-24T13:28:43Z</time>
      </trkpt>
      <trkpt lat="45.01682" lon="6.28197">
        <ele>2466.4</ele>
        <time>2017-06-24T13:28:48Z</time>
      </trkpt>
      <trkpt lat="45.01686" lon="6.28201">
        <ele>2464.48</ele>
        <time>2017-06-24T13:28:53Z</time>
      </trkpt>
      <trkpt lat="45.01692" lon="6.28214">
        <ele>2461.11</ele>
        <time>2017-06-24T13:29:00Z</time>
      </trkpt>
      <trkpt lat="45.01696" lon="6.28224">
        <ele>2460.63</ele>
        <time>2017-06-24T13:29:05Z</time>
      </trkpt>
      <trkpt lat="45.01697" lon="6.28234">
        <ele>2458.71</ele>
        <time>2017-06-24T13:29:10Z</time>
      </trkpt>
      <trkpt lat="45.01699" lon="6.28241">
        <ele>2455.34</ele>
        <time>2017-06-24T13:29:15Z</time>
      </trkpt>
      <trkpt lat="45.01697" lon="6.2824">
        <ele>2454.38</ele>
        <time>2017-06-24T13:29:23Z</time>
      </trkpt>
      <trkpt lat="45.01694" lon="6.28241">
        <ele>2453.42</ele>
        <time>2017-06-24T13:29:28Z</time>
      </trkpt>
      <trkpt lat="45.01693" lon="6.28237">
        <ele>2453.42</ele>
        <time>2017-06-24T13:29:40Z</time>
      </trkpt>
      <trkpt lat="45.0169" lon="6.28234">
        <ele>2452.94</ele>
        <time>2017-06-24T13:29:47Z</time>
      </trkpt>
      <trkpt lat="45.01688" lon="6.28234">
        <ele>2453.42</ele>
        <time>2017-06-24T13:29:56Z</time>
      </trkpt>
      <trkpt lat="45.01687" lon="6.28234">
        <ele>2454.86</ele>
        <time>2017-06-24T13:30:02Z</time>
      </trkpt>
      <trkpt lat="45.01685" lon="6.28235">
        <ele>2454.38</ele>
        <time>2017-06-24T13:30:07Z</time>
      </trkpt>
      <trkpt lat="45.01677" lon="6.28237">
        <ele>2454.38</ele>
        <time>2017-06-24T13:30:15Z</time>
      </trkpt>
      <trkpt lat="45.01676" lon="6.28237">
        <ele>2452.46</ele>
        <time>2017-06-24T13:30:20Z</time>
      </trkpt>
      <trkpt lat="45.01674" lon="6.28239">
        <ele>2451.02</ele>
        <time>2017-06-24T13:30:26Z</time>
      </trkpt>
      <trkpt lat="45.01672" lon="6.2824">
        <ele>2450.54</ele>
        <time>2017-06-24T13:30:31Z</time>
      </trkpt>
      <trkpt lat="45.01674" lon="6.28243">
        <ele>2453.9</ele>
        <time>2017-06-24T13:30:50Z</time>
      </trkpt>
      <trkpt lat="45.01674" lon="6.28243">
        <ele>2454.38</ele>
        <time>2017-06-24T13:30:53Z</time>
      </trkpt>
      <trkpt lat="45.01675" lon="6.28247">
        <ele>2452.46</ele>
        <time>2017-06-24T13:31:00Z</time>
      </trkpt>
      <trkpt lat="45.01675" lon="6.28248">
        <ele>2452.46</ele>
        <time>2017-06-24T13:31:01Z</time>
      </trkpt>
      <trkpt lat="45.01673" lon="6.2826">
        <ele>2451.02</ele>
        <time>2017-06-24T13:31:08Z</time>
      </trkpt>
      <trkpt lat="45.01672" lon="6.28263">
        <ele>2450.54</ele>
        <time>2017-06-24T13:31:13Z</time>
      </trkpt>
      <trkpt lat="45.01671" lon="6.28266">
        <ele>2450.06</ele>
        <time>2017-06-24T13:31:25Z</time>
      </trkpt>
      <trkpt lat="45.01673" lon="6.28266">
        <ele>2451.02</ele>
        <time>2017-06-24T13:31:38Z</time>
      </trkpt>
      <trkpt lat="45.01672" lon="6.28267">
        <ele>2449.58</ele>
        <time>2017-06-24T13:31:45Z</time>
      </trkpt>
      <trkpt lat="45.01674" lon="6.28272">
        <ele>2448.13</ele>
        <time>2017-06-24T13:31:51Z</time>
      </trkpt>
      <trkpt lat="45.01674" lon="6.28272">
        <ele>2447.65</ele>
        <time>2017-06-24T13:31:52Z</time>
      </trkpt>
      <trkpt lat="45.01676" lon="6.28274">
        <ele>2446.69</ele>
        <time>2017-06-24T13:31:54Z</time>
      </trkpt>
      <trkpt lat="45.01677" lon="6.28279">
        <ele>2445.25</ele>
        <time>2017-06-24T13:32:00Z</time>
      </trkpt>
      <trkpt lat="45.01675" lon="6.28281">
        <ele>2445.25</ele>
        <time>2017-06-24T13:32:02Z</time>
      </trkpt>
      <trkpt lat="45.01674" lon="6.28287">
        <ele>2444.77</ele>
        <time>2017-06-24T13:32:06Z</time>
      </trkpt>
      <trkpt lat="45.01679" lon="6.28302">
        <ele>2440.44</ele>
        <time>2017-06-24T13:32:14Z</time>
      </trkpt>
      <trkpt lat="45.01681" lon="6.28305">
        <ele>2436.12</ele>
        <time>2017-06-24T13:32:19Z</time>
      </trkpt>
      <trkpt lat="45.01683" lon="6.28306">
        <ele>2432.75</ele>
        <time>2017-06-24T13:32:25Z</time>
      </trkpt>
      <trkpt lat="45.01684" lon="6.28306">
        <ele>2431.79</ele>
        <time>2017-06-24T13:32:29Z</time>
      </trkpt>
      <trkpt lat="45.01682" lon="6.28306">
        <ele>2431.31</ele>
        <time>2017-06-24T13:32:33Z</time>
      </trkpt>
      <trkpt lat="45.01682" lon="6.28305">
        <ele>2431.31</ele>
        <time>2017-06-24T13:32:51Z</time>
      </trkpt>
      <trkpt lat="45.01682" lon="6.28305">
        <ele>2428.91</ele>
        <time>2017-06-24T13:33:00Z</time>
      </trkpt>
      <trkpt lat="45.01681" lon="6.28307">
        <ele>2427.47</ele>
        <time>2017-06-24T13:33:05Z</time>
      </trkpt>
      <trkpt lat="45.0168" lon="6.28306">
        <ele>2426.5</ele>
        <time>2017-06-24T13:33:13Z</time>
      </trkpt>
      <trkpt lat="45.01679" lon="6.28305">
        <ele>2426.02</ele>
        <time>2017-06-24T13:33:15Z</time>
      </trkpt>
      <trkpt lat="45.01675" lon="6.28302">
        <ele>2425.06</ele>
        <time>2017-06-24T13:33:21Z</time>
      </trkpt>
      <trkpt lat="45.01676" lon="6.28304">
        <ele>2424.58</ele>
        <time>2017-06-24T13:33:26Z</time>
      </trkpt>
      <trkpt lat="45.01676" lon="6.28305">
        <ele>2424.58</ele>
        <time>2017-06-24T13:33:33Z</time>
      </trkpt>
      <trkpt lat="45.01676" lon="6.28305">
        <ele>2425.54</ele>
        <time>2017-06-24T13:33:41Z</time>
      </trkpt>
      <trkpt lat="45.01678" lon="6.28308">
        <ele>2425.54</ele>
        <time>2017-06-24T13:33:47Z</time>
      </trkpt>
      <trkpt lat="45.01678" lon="6.28309">
        <ele>2425.06</ele>
        <time>2017-06-24T13:33:54Z</time>
      </trkpt>
      <trkpt lat="45.01678" lon="6.28309">
        <ele>2425.06</ele>
        <time>2017-06-24T13:34:02Z</time>
      </trkpt>
      <trkpt lat="45.01678" lon="6.28309">
        <ele>2425.06</ele>
        <time>2017-06-24T13:34:09Z</time>
      </trkpt>
      <trkpt lat="45.01677" lon="6.28309">
        <ele>2425.06</ele>
        <time>2017-06-24T13:34:21Z</time>
      </trkpt>
      <trkpt lat="45.01677" lon="6.28309">
        <ele>2424.58</ele>
        <time>2017-06-24T13:34:34Z</time>
      </trkpt>
      <trkpt lat="45.01678" lon="6.2831">
        <ele>2424.1</ele>
        <time>2017-06-24T13:34:43Z</time>
      </trkpt>
      <trkpt lat="45.01678" lon="6.28309">
        <ele>2424.1</ele>
        <time>2017-06-24T13:34:57Z</time>
      </trkpt>
      <trkpt lat="45.01678" lon="6.2831">
        <ele>2424.58</ele>
        <time>2017-06-24T13:35:09Z</time>
      </trkpt>
      <trkpt lat="45.01685" lon="6.28311">
        <ele>2423.62</ele>
        <time>2017-06-24T13:35:15Z</time>
      </trkpt>
      <trkpt lat="45.01695" lon="6.28316">
        <ele>2419.78</ele>
        <time>2017-06-24T13:35:22Z</time>
      </trkpt>
      <trkpt lat="45.01698" lon="6.28324">
        <ele>2416.89</ele>
        <time>2017-06-24T13:35:28Z</time>
      </trkpt>
      <trkpt lat="45.01703" lon="6.28331">
        <ele>2414.01</ele>
        <time>2017-06-24T13:35:34Z</time>
      </trkpt>
      <trkpt lat="45.01701" lon="6.28332">
        <ele>2414.01</ele>
        <time>2017-06-24T13:35:36Z</time>
      </trkpt>
      <trkpt lat="45.01703" lon="6.28341">
        <ele>2412.57</ele>
        <time>2017-06-24T13:35:41Z</time>
      </trkpt>
      <trkpt lat="45.01711" lon="6.2834">
        <ele>2410.64</ele>
        <time>2017-06-24T13:35:46Z</time>
      </trkpt>
      <trkpt lat="45.01714" lon="6.28348">
        <ele>2408.24</ele>
        <time>2017-06-24T13:35:51Z</time>
      </trkpt>
      <trkpt lat="45.01715" lon="6.28349">
        <ele>2407.76</ele>
        <time>2017-06-24T13:35:52Z</time>
      </trkpt>
      <trkpt lat="45.0172" lon="6.28352">
        <ele>2406.32</ele>
        <time>2017-06-24T13:35:55Z</time>
      </trkpt>
      <trkpt lat="45.01721" lon="6.28355">
        <ele>2404.88</ele>
        <time>2017-06-24T13:35:57Z</time>
      </trkpt>
      <trkpt lat="45.01726" lon="6.2837">
        <ele>2401.99</ele>
        <time>2017-06-24T13:36:04Z</time>
      </trkpt>
      <trkpt lat="45.01728" lon="6.28378">
        <ele>2401.03</ele>
        <time>2017-06-24T13:36:07Z</time>
      </trkpt>
      <trkpt lat="45.01738" lon="6.28386">
        <ele>2401.51</ele>
        <time>2017-06-24T13:36:12Z</time>
      </trkpt>
      <trkpt lat="45.01745" lon="6.28393">
        <ele>2401.03</ele>
        <time>2017-06-24T13:36:16Z</time>
      </trkpt>
      <trkpt lat="45.01754" lon="6.284">
        <ele>2399.59</ele>
        <time>2017-06-24T13:36:21Z</time>
      </trkpt>
      <trkpt lat="45.01762" lon="6.28411">
        <ele>2397.18</ele>
        <time>2017-06-24T13:36:27Z</time>
      </trkpt>
      <trkpt lat="45.01771" lon="6.28417">
        <ele>2395.26</ele>
        <time>2017-06-24T13:36:32Z</time>
      </trkpt>
      <trkpt lat="45.01777" lon="6.28419">
        <ele>2394.78</ele>
        <time>2017-06-24T13:36:35Z</time>
      </trkpt>
      <trkpt lat="45.01784" lon="6.28423">
        <ele>2393.82</ele>
        <time>2017-06-24T13:36:38Z</time>
      </trkpt>
      <trkpt lat="45.01796" lon="6.2843">
        <ele>2392.86</ele>
        <time>2017-06-24T13:36:44Z</time>
      </trkpt>
      <trkpt lat="45.01798" lon="6.28432">
        <ele>2392.38</ele>
        <time>2017-06-24T13:36:45Z</time>
      </trkpt>
      <trkpt lat="45.01802" lon="6.28439">
        <ele>2389.97</ele>
        <time>2017-06-24T13:36:49Z</time>
      </trkpt>
      <trkpt lat="45.01809" lon="6.28455">
        <ele>2388.05</ele>
        <time>2017-06-24T13:36:55Z</time>
      </trkpt>
      <trkpt lat="45.01816" lon="6.28463">
        <ele>2388.05</ele>
        <time>2017-06-24T13:36:58Z</time>
      </trkpt>
      <trkpt lat="45.01822" lon="6.28479">
        <ele>2388.05</ele>
        <time>2017-06-24T13:37:04Z</time>
      </trkpt>
      <trkpt lat="45.01825" lon="6.28487">
        <ele>2389.49</ele>
        <time>2017-06-24T13:37:10Z</time>
      </trkpt>
      <trkpt lat="45.01828" lon="6.28491">
        <ele>2389.97</ele>
        <time>2017-06-24T13:37:17Z</time>
      </trkpt>
      <trkpt lat="45.01831" lon="6.28496">
        <ele>2392.38</ele>
        <time>2017-06-24T13:37:24Z</time>
      </trkpt>
      <trkpt lat="45.01835" lon="6.28502">
        <ele>2393.82</ele>
        <time>2017-06-24T13:37:29Z</time>
      </trkpt>
      <trkpt lat="45.0184" lon="6.28507">
        <ele>2395.26</ele>
        <time>2017-06-24T13:37:36Z</time>
      </trkpt>
      <trkpt lat="45.01842" lon="6.28512">
        <ele>2395.74</ele>
        <time>2017-06-24T13:37:40Z</time>
      </trkpt>
      <trkpt lat="45.0185" lon="6.28522">
        <ele>2396.7</ele>
        <time>2017-06-24T13:37:49Z</time>
      </trkpt>
      <trkpt lat="45.01854" lon="6.28524">
        <ele>2397.18</ele>
        <time>2017-06-24T13:37:55Z</time>
      </trkpt>
      <trkpt lat="45.01863" lon="6.28534">
        <ele>2394.3</ele>
        <time>2017-06-24T13:38:02Z</time>
      </trkpt>
      <trkpt lat="45.01867" lon="6.28537">
        <ele>2392.86</ele>
        <time>2017-06-24T13:38:05Z</time>
      </trkpt>
      <trkpt lat="45.0187" lon="6.28539">
        <ele>2390.94</ele>
        <time>2017-06-24T13:38:07Z</time>
      </trkpt>
      <trkpt lat="45.01873" lon="6.28546">
        <ele>2388.53</ele>
        <time>2017-06-24T13:38:12Z</time>
      </trkpt>
      <trkpt lat="45.01873" lon="6.28547">
        <ele>2388.05</ele>
        <time>2017-06-24T13:38:13Z</time>
      </trkpt>
      <trkpt lat="45.01882" lon="6.2856">
        <ele>2386.61</ele>
        <time>2017-06-24T13:38:21Z</time>
      </trkpt>
      <trkpt lat="45.01883" lon="6.28562">
        <ele>2386.61</ele>
        <time>2017-06-24T13:38:29Z</time>
      </trkpt>
      <trkpt lat="45.01883" lon="6.28561">
        <ele>2387.09</ele>
        <time>2017-06-24T13:38:40Z</time>
      </trkpt>
      <trkpt lat="45.01884" lon="6.28563">
        <ele>2386.61</ele>
        <time>2017-06-24T13:38:42Z</time>
      </trkpt>
      <trkpt lat="45.01892" lon="6.28577">
        <ele>2384.69</ele>
        <time>2017-06-24T13:38:48Z</time>
      </trkpt>
      <trkpt lat="45.01897" lon="6.28589">
        <ele>2382.76</ele>
        <time>2017-06-24T13:38:53Z</time>
      </trkpt>
      <trkpt lat="45.01909" lon="6.28603">
        <ele>2379.4</ele>
        <time>2017-06-24T13:39:01Z</time>
      </trkpt>
      <trkpt lat="45.01912" lon="6.28607">
        <ele>2378.44</ele>
        <time>2017-06-24T13:39:03Z</time>
      </trkpt>
      <trkpt lat="45.01922" lon="6.28619">
        <ele>2375.55</ele>
        <time>2017-06-24T13:39:10Z</time>
      </trkpt>
      <trkpt lat="45.01926" lon="6.2863">
        <ele>2373.63</ele>
        <time>2017-06-24T13:39:15Z</time>
      </trkpt>
      <trkpt lat="45.01928" lon="6.28634">
        <ele>2373.15</ele>
        <time>2017-06-24T13:39:17Z</time>
      </trkpt>
      <trkpt lat="45.01936" lon="6.28644">
        <ele>2372.67</ele>
        <time>2017-06-24T13:39:25Z</time>
      </trkpt>
      <trkpt lat="45.01938" lon="6.28645">
        <ele>2373.15</ele>
        <time>2017-06-24T13:39:32Z</time>
      </trkpt>
      <trkpt lat="45.01945" lon="6.2865">
        <ele>2371.23</ele>
        <time>2017-06-24T13:39:39Z</time>
      </trkpt>
      <trkpt lat="45.0195" lon="6.28653">
        <ele>2373.63</ele>
        <time>2017-06-24T13:39:49Z</time>
      </trkpt>
      <trkpt lat="45.01959" lon="6.28656">
        <ele>2370.75</ele>
        <time>2017-06-24T13:39:56Z</time>
      </trkpt>
      <trkpt lat="45.01969" lon="6.28661">
        <ele>2368.83</ele>
        <time>2017-06-24T13:40:01Z</time>
      </trkpt>
      <trkpt lat="45.01981" lon="6.28668">
        <ele>2364.98</ele>
        <time>2017-06-24T13:40:09Z</time>
      </trkpt>
      <trkpt lat="45.01984" lon="6.2867">
        <ele>2363.54</ele>
        <time>2017-06-24T13:40:11Z</time>
      </trkpt>
      <trkpt lat="45.01989" lon="6.28675">
        <ele>2361.62</ele>
        <time>2017-06-24T13:40:17Z</time>
      </trkpt>
      <trkpt lat="45.01991" lon="6.28676">
        <ele>2361.14</ele>
        <time>2017-06-24T13:40:23Z</time>
      </trkpt>
      <trkpt lat="45.01992" lon="6.28678">
        <ele>2360.17</ele>
        <time>2017-06-24T13:40:25Z</time>
      </trkpt>
      <trkpt lat="45.02" lon="6.28689">
        <ele>2358.25</ele>
        <time>2017-06-24T13:40:31Z</time>
      </trkpt>
      <trkpt lat="45.02001" lon="6.28691">
        <ele>2357.77</ele>
        <time>2017-06-24T13:40:32Z</time>
      </trkpt>
      <trkpt lat="45.02005" lon="6.28697">
        <ele>2356.33</ele>
        <time>2017-06-24T13:40:35Z</time>
      </trkpt>
      <trkpt lat="45.0201" lon="6.28705">
        <ele>2355.37</ele>
        <time>2017-06-24T13:40:39Z</time>
      </trkpt>
      <trkpt lat="45.02019" lon="6.28719">
        <ele>2352.96</ele>
        <time>2017-06-24T13:40:47Z</time>
      </trkpt>
      <trkpt lat="45.02025" lon="6.28732">
        <ele>2351.52</ele>
        <time>2017-06-24T13:40:54Z</time>
      </trkpt>
      <trkpt lat="45.02033" lon="6.28747">
        <ele>2347.68</ele>
        <time>2017-06-24T13:41:01Z</time>
      </trkpt>
      <trkpt lat="45.02041" lon="6.28766">
        <ele>2345.27</ele>
        <time>2017-06-24T13:41:09Z</time>
      </trkpt>
      <trkpt lat="45.02044" lon="6.28774">
        <ele>2344.31</ele>
        <time>2017-06-24T13:41:12Z</time>
      </trkpt>
      <trkpt lat="45.02048" lon="6.28794">
        <ele>2342.87</ele>
        <time>2017-06-24T13:41:20Z</time>
      </trkpt>
      <trkpt lat="45.02057" lon="6.28816">
        <ele>2344.31</ele>
        <time>2017-06-24T13:41:28Z</time>
      </trkpt>
      <trkpt lat="45.02063" lon="6.2883">
        <ele>2345.27</ele>
        <time>2017-06-24T13:41:33Z</time>
      </trkpt>
      <trkpt lat="45.02069" lon="6.28842">
        <ele>2344.31</ele>
        <time>2017-06-24T13:41:38Z</time>
      </trkpt>
      <trkpt lat="45.02077" lon="6.28862">
        <ele>2341.91</ele>
        <time>2017-06-24T13:41:48Z</time>
      </trkpt>
      <trkpt lat="45.02081" lon="6.28874">
        <ele>2339.99</ele>
        <time>2017-06-24T13:41:55Z</time>
      </trkpt>
      <trkpt lat="45.02084" lon="6.28884">
        <ele>2337.58</ele>
        <time>2017-06-24T13:42:02Z</time>
      </trkpt>
      <trkpt lat="45.02087" lon="6.28887">
        <ele>2335.66</ele>
        <time>2017-06-24T13:42:05Z</time>
      </trkpt>
      <trkpt lat="45.02089" lon="6.28884">
        <ele>2334.7</ele>
        <time>2017-06-24T13:42:10Z</time>
      </trkpt>
      <trkpt lat="45.02085" lon="6.28888">
        <ele>2336.14</ele>
        <time>2017-06-24T13:42:17Z</time>
      </trkpt>
      <trkpt lat="45.02085" lon="6.28893">
        <ele>2335.66</ele>
        <time>2017-06-24T13:42:23Z</time>
      </trkpt>
      <trkpt lat="45.02085" lon="6.28897">
        <ele>2334.7</ele>
        <time>2017-06-24T13:42:26Z</time>
      </trkpt>
      <trkpt lat="45.02085" lon="6.28899">
        <ele>2333.74</ele>
        <time>2017-06-24T13:42:29Z</time>
      </trkpt>
      <trkpt lat="45.02084" lon="6.28901">
        <ele>2332.78</ele>
        <time>2017-06-24T13:42:31Z</time>
      </trkpt>
      <trkpt lat="45.02078" lon="6.28901">
        <ele>2331.33</ele>
        <time>2017-06-24T13:42:36Z</time>
      </trkpt>
      <trkpt lat="45.02073" lon="6.289">
        <ele>2330.37</ele>
        <time>2017-06-24T13:42:39Z</time>
      </trkpt>
      <trkpt lat="45.02061" lon="6.28895">
        <ele>2327.97</ele>
        <time>2017-06-24T13:42:45Z</time>
      </trkpt>
      <trkpt lat="45.02057" lon="6.28893">
        <ele>2327.01</ele>
        <time>2017-06-24T13:42:49Z</time>
      </trkpt>
      <trkpt lat="45.0205" lon="6.28894">
        <ele>2325.09</ele>
        <time>2017-06-24T13:42:54Z</time>
      </trkpt>
      <trkpt lat="45.02043" lon="6.28901">
        <ele>2324.12</ele>
        <time>2017-06-24T13:43:00Z</time>
      </trkpt>
      <trkpt lat="45.02042" lon="6.28903">
        <ele>2323.64</ele>
        <time>2017-06-24T13:43:02Z</time>
      </trkpt>
      <trkpt lat="45.02038" lon="6.28908">
        <ele>2323.16</ele>
        <time>2017-06-24T13:43:08Z</time>
      </trkpt>
      <trkpt lat="45.02033" lon="6.28912">
        <ele>2324.12</ele>
        <time>2017-06-24T13:43:12Z</time>
      </trkpt>
      <trkpt lat="45.0203" lon="6.28917">
        <ele>2325.57</ele>
        <time>2017-06-24T13:43:15Z</time>
      </trkpt>
      <trkpt lat="45.02029" lon="6.28928">
        <ele>2328.45</ele>
        <time>2017-06-24T13:43:20Z</time>
      </trkpt>
      <trkpt lat="45.02028" lon="6.28934">
        <ele>2331.33</ele>
        <time>2017-06-24T13:43:27Z</time>
      </trkpt>
      <trkpt lat="45.02028" lon="6.28941">
        <ele>2332.3</ele>
        <time>2017-06-24T13:43:33Z</time>
      </trkpt>
      <trkpt lat="45.02028" lon="6.28948">
        <ele>2332.78</ele>
        <time>2017-06-24T13:43:37Z</time>
      </trkpt>
      <trkpt lat="45.02028" lon="6.28961">
        <ele>2332.78</ele>
        <time>2017-06-24T13:43:44Z</time>
      </trkpt>
      <trkpt lat="45.02028" lon="6.28969">
        <ele>2335.18</ele>
        <time>2017-06-24T13:43:51Z</time>
      </trkpt>
      <trkpt lat="45.02027" lon="6.28971">
        <ele>2335.66</ele>
        <time>2017-06-24T13:43:59Z</time>
      </trkpt>
      <trkpt lat="45.02018" lon="6.28976">
        <ele>2334.7</ele>
        <time>2017-06-24T13:44:06Z</time>
      </trkpt>
      <trkpt lat="45.02008" lon="6.28977">
        <ele>2333.26</ele>
        <time>2017-06-24T13:44:12Z</time>
      </trkpt>
      <trkpt lat="45.02001" lon="6.28983">
        <ele>2332.3</ele>
        <time>2017-06-24T13:44:17Z</time>
      </trkpt>
      <trkpt lat="45.01999" lon="6.28989">
        <ele>2333.26</ele>
        <time>2017-06-24T13:44:22Z</time>
      </trkpt>
      <trkpt lat="45.02006" lon="6.29003">
        <ele>2332.3</ele>
        <time>2017-06-24T13:44:30Z</time>
      </trkpt>
      <trkpt lat="45.02012" lon="6.29018">
        <ele>2328.45</ele>
        <time>2017-06-24T13:44:37Z</time>
      </trkpt>
      <trkpt lat="45.02019" lon="6.29037">
        <ele>2325.57</ele>
        <time>2017-06-24T13:44:45Z</time>
      </trkpt>
      <trkpt lat="45.02024" lon="6.29053">
        <ele>2323.16</ele>
        <time>2017-06-24T13:44:52Z</time>
      </trkpt>
      <trkpt lat="45.02029" lon="6.29067">
        <ele>2320.28</ele>
        <time>2017-06-24T13:44:59Z</time>
      </trkpt>
      <trkpt lat="45.02031" lon="6.29074">
        <ele>2317.4</ele>
        <time>2017-06-24T13:45:03Z</time>
      </trkpt>
      <trkpt lat="45.02034" lon="6.29084">
        <ele>2314.51</ele>
        <time>2017-06-24T13:45:09Z</time>
      </trkpt>
      <trkpt lat="45.0204" lon="6.29098">
        <ele>2308.74</ele>
        <time>2017-06-24T13:45:16Z</time>
      </trkpt>
      <trkpt lat="45.02042" lon="6.29103">
        <ele>2307.78</ele>
        <time>2017-06-24T13:45:19Z</time>
      </trkpt>
      <trkpt lat="45.02049" lon="6.2912">
        <ele>2302.49</ele>
        <time>2017-06-24T13:45:28Z</time>
      </trkpt>
      <trkpt lat="45.02055" lon="6.29135">
        <ele>2298.65</ele>
        <time>2017-06-24T13:45:35Z</time>
      </trkpt>
      <trkpt lat="45.0206" lon="6.29149">
        <ele>2294.8</ele>
        <time>2017-06-24T13:45:42Z</time>
      </trkpt>
      <trkpt lat="45.02064" lon="6.29163">
        <ele>2290.96</ele>
        <time>2017-06-24T13:45:50Z</time>
      </trkpt>
      <trkpt lat="45.02065" lon="6.29166">
        <ele>2290.48</ele>
        <time>2017-06-24T13:45:52Z</time>
      </trkpt>
      <trkpt lat="45.0207" lon="6.29172">
        <ele>2287.59</ele>
        <time>2017-06-24T13:45:58Z</time>
      </trkpt>
      <trkpt lat="45.0207" lon="6.29174">
        <ele>2287.59</ele>
        <time>2017-06-24T13:46:06Z</time>
      </trkpt>
      <trkpt lat="45.02071" lon="6.29174">
        <ele>2286.63</ele>
        <time>2017-06-24T13:46:14Z</time>
      </trkpt>
      <trkpt lat="45.02071" lon="6.29175">
        <ele>2286.63</ele>
        <time>2017-06-24T13:46:30Z</time>
      </trkpt>
      <trkpt lat="45.0207" lon="6.29174">
        <ele>2285.67</ele>
        <time>2017-06-24T13:46:48Z</time>
      </trkpt>
      <trkpt lat="45.02072" lon="6.29177">
        <ele>2284.23</ele>
        <time>2017-06-24T13:46:56Z</time>
      </trkpt>
      <trkpt lat="45.02075" lon="6.29182">
        <ele>2281.35</ele>
        <time>2017-06-24T13:47:02Z</time>
      </trkpt>
      <trkpt lat="45.02077" lon="6.29185">
        <ele>2279.9</ele>
        <time>2017-06-24T13:47:06Z</time>
      </trkpt>
      <trkpt lat="45.0208" lon="6.2919">
        <ele>2277.5</ele>
        <time>2017-06-24T13:47:11Z</time>
      </trkpt>
      <trkpt lat="45.02081" lon="6.29192">
        <ele>2276.54</ele>
        <time>2017-06-24T13:47:13Z</time>
      </trkpt>
      <trkpt lat="45.02083" lon="6.29195">
        <ele>2274.62</ele>
        <time>2017-06-24T13:47:16Z</time>
      </trkpt>
      <trkpt lat="45.02086" lon="6.292">
        <ele>2272.21</ele>
        <time>2017-06-24T13:47:20Z</time>
      </trkpt>
      <trkpt lat="45.02088" lon="6.29206">
        <ele>2270.29</ele>
        <time>2017-06-24T13:47:24Z</time>
      </trkpt>
      <trkpt lat="45.02091" lon="6.29216">
        <ele>2266.93</ele>
        <time>2017-06-24T13:47:31Z</time>
      </trkpt>
      <trkpt lat="45.02098" lon="6.29232">
        <ele>2259.72</ele>
        <time>2017-06-24T13:47:42Z</time>
      </trkpt>
      <trkpt lat="45.02103" lon="6.29244">
        <ele>2253.95</ele>
        <time>2017-06-24T13:47:51Z</time>
      </trkpt>
      <trkpt lat="45.02104" lon="6.29246">
        <ele>2252.51</ele>
        <time>2017-06-24T13:47:53Z</time>
      </trkpt>
      <trkpt lat="45.02109" lon="6.29259">
        <ele>2246.74</ele>
        <time>2017-06-24T13:48:01Z</time>
      </trkpt>
      <trkpt lat="45.02109" lon="6.29261">
        <ele>2246.26</ele>
        <time>2017-06-24T13:48:02Z</time>
      </trkpt>
      <trkpt lat="45.02111" lon="6.29268">
        <ele>2244.33</ele>
        <time>2017-06-24T13:48:06Z</time>
      </trkpt>
      <trkpt lat="45.02114" lon="6.29272">
        <ele>2240.01</ele>
        <time>2017-06-24T13:48:12Z</time>
      </trkpt>
      <trkpt lat="45.02115" lon="6.2928">
        <ele>2238.09</ele>
        <time>2017-06-24T13:48:16Z</time>
      </trkpt>
      <trkpt lat="45.02116" lon="6.29286">
        <ele>2236.64</ele>
        <time>2017-06-24T13:48:19Z</time>
      </trkpt>
      <trkpt lat="45.0212" lon="6.29296">
        <ele>2231.84</ele>
        <time>2017-06-24T13:48:26Z</time>
      </trkpt>
      <trkpt lat="45.02122" lon="6.29297">
        <ele>2230.88</ele>
        <time>2017-06-24T13:48:28Z</time>
      </trkpt>
      <trkpt lat="45.02126" lon="6.29307">
        <ele>2227.03</ele>
        <time>2017-06-24T13:48:35Z</time>
      </trkpt>
      <trkpt lat="45.02127" lon="6.29311">
        <ele>2225.11</ele>
        <time>2017-06-24T13:48:38Z</time>
      </trkpt>
      <trkpt lat="45.02132" lon="6.29318">
        <ele>2221.26</ele>
        <time>2017-06-24T13:48:44Z</time>
      </trkpt>
      <trkpt lat="45.02131" lon="6.29324">
        <ele>2216.46</ele>
        <time>2017-06-24T13:48:51Z</time>
      </trkpt>
      <trkpt lat="45.02131" lon="6.29332">
        <ele>2211.65</ele>
        <time>2017-06-24T13:48:57Z</time>
      </trkpt>
      <trkpt lat="45.02131" lon="6.29334">
        <ele>2211.17</ele>
        <time>2017-06-24T13:48:58Z</time>
      </trkpt>
      <trkpt lat="45.02132" lon="6.29342">
        <ele>2209.25</ele>
        <time>2017-06-24T13:49:03Z</time>
      </trkpt>
      <trkpt lat="45.02134" lon="6.29345">
        <ele>2208.29</ele>
        <time>2017-06-24T13:49:05Z</time>
      </trkpt>
      <trkpt lat="45.02136" lon="6.29351">
        <ele>2205.4</ele>
        <time>2017-06-24T13:49:11Z</time>
      </trkpt>
      <trkpt lat="45.02139" lon="6.29359">
        <ele>2203.48</ele>
        <time>2017-06-24T13:49:16Z</time>
      </trkpt>
      <trkpt lat="45.0214" lon="6.29361">
        <ele>2202.04</ele>
        <time>2017-06-24T13:49:18Z</time>
      </trkpt>
      <trkpt lat="45.02142" lon="6.29366">
        <ele>2197.71</ele>
        <time>2017-06-24T13:49:24Z</time>
      </trkpt>
      <trkpt lat="45.02144" lon="6.29371">
        <ele>2192.9</ele>
        <time>2017-06-24T13:49:29Z</time>
      </trkpt>
      <trkpt lat="45.02142" lon="6.29372">
        <ele>2190.02</ele>
        <time>2017-06-24T13:49:33Z</time>
      </trkpt>
      <trkpt lat="45.02143" lon="6.29375">
        <ele>2189.06</ele>
        <time>2017-06-24T13:49:35Z</time>
      </trkpt>
      <trkpt lat="45.02143" lon="6.2938">
        <ele>2186.18</ele>
        <time>2017-06-24T13:49:41Z</time>
      </trkpt>
      <trkpt lat="45.02142" lon="6.29385">
        <ele>2184.73</ele>
        <time>2017-06-24T13:49:44Z</time>
      </trkpt>
      <trkpt lat="45.02145" lon="6.2939">
        <ele>2183.29</ele>
        <time>2017-06-24T13:49:48Z</time>
      </trkpt>
      <trkpt lat="45.02147" lon="6.29394">
        <ele>2181.85</ele>
        <time>2017-06-24T13:49:51Z</time>
      </trkpt>
      <trkpt lat="45.02146" lon="6.29403">
        <ele>2179.45</ele>
        <time>2017-06-24T13:49:56Z</time>
      </trkpt>
      <trkpt lat="45.02146" lon="6.29404">
        <ele>2179.45</ele>
        <time>2017-06-24T13:49:57Z</time>
      </trkpt>
      <trkpt lat="45.02147" lon="6.29414">
        <ele>2177.04</ele>
        <time>2017-06-24T13:50:05Z</time>
      </trkpt>
      <trkpt lat="45.02147" lon="6.29415">
        <ele>2177.04</ele>
        <time>2017-06-24T13:50:06Z</time>
      </trkpt>
      <trkpt lat="45.02154" lon="6.29422">
        <ele>2173.2</ele>
        <time>2017-06-24T13:50:13Z</time>
      </trkpt>
      <trkpt lat="45.02158" lon="6.29432">
        <ele>2170.79</ele>
        <time>2017-06-24T13:50:20Z</time>
      </trkpt>
      <trkpt lat="45.0216" lon="6.29436">
        <ele>2169.35</ele>
        <time>2017-06-24T13:50:27Z</time>
      </trkpt>
      <trkpt lat="45.02159" lon="6.29438">
        <ele>2169.35</ele>
        <time>2017-06-24T13:50:37Z</time>
      </trkpt>
      <trkpt lat="45.02162" lon="6.29441">
        <ele>2167.91</ele>
        <time>2017-06-24T13:50:45Z</time>
      </trkpt>
      <trkpt lat="45.02164" lon="6.29448">
        <ele>2164.06</ele>
        <time>2017-06-24T13:50:52Z</time>
      </trkpt>
      <trkpt lat="45.02162" lon="6.2945">
        <ele>2163.1</ele>
        <time>2017-06-24T13:50:54Z</time>
      </trkpt>
      <trkpt lat="45.02165" lon="6.29458">
        <ele>2160.22</ele>
        <time>2017-06-24T13:51:01Z</time>
      </trkpt>
      <trkpt lat="45.02165" lon="6.29466">
        <ele>2157.34</ele>
        <time>2017-06-24T13:51:08Z</time>
      </trkpt>
      <trkpt lat="45.02166" lon="6.29467">
        <ele>2156.86</ele>
        <time>2017-06-24T13:51:10Z</time>
      </trkpt>
      <trkpt lat="45.02168" lon="6.29476">
        <ele>2153.01</ele>
        <time>2017-06-24T13:51:17Z</time>
      </trkpt>
      <trkpt lat="45.02168" lon="6.29477">
        <ele>2152.05</ele>
        <time>2017-06-24T13:51:18Z</time>
      </trkpt>
      <trkpt lat="45.0217" lon="6.2948">
        <ele>2150.61</ele>
        <time>2017-06-24T13:51:21Z</time>
      </trkpt>
      <trkpt lat="45.02167" lon="6.29486">
        <ele>2147.72</ele>
        <time>2017-06-24T13:51:25Z</time>
      </trkpt>
      <trkpt lat="45.02168" lon="6.29494">
        <ele>2145.8</ele>
        <time>2017-06-24T13:51:29Z</time>
      </trkpt>
      <trkpt lat="45.02172" lon="6.29501">
        <ele>2143.4</ele>
        <time>2017-06-24T13:51:35Z</time>
      </trkpt>
      <trkpt lat="45.02176" lon="6.29508">
        <ele>2141.47</ele>
        <time>2017-06-24T13:51:40Z</time>
      </trkpt>
      <trkpt lat="45.02178" lon="6.29524">
        <ele>2136.67</ele>
        <time>2017-06-24T13:51:49Z</time>
      </trkpt>
      <trkpt lat="45.0218" lon="6.29526">
        <ele>2134.74</ele>
        <time>2017-06-24T13:51:52Z</time>
      </trkpt>
      <trkpt lat="45.02186" lon="6.29529">
        <ele>2133.3</ele>
        <time>2017-06-24T13:51:57Z</time>
      </trkpt>
      <trkpt lat="45.02182" lon="6.29533">
        <ele>2130.9</ele>
        <time>2017-06-24T13:52:02Z</time>
      </trkpt>
      <trkpt lat="45.02179" lon="6.29536">
        <ele>2128.5</ele>
        <time>2017-06-24T13:52:05Z</time>
      </trkpt>
      <trkpt lat="45.02179" lon="6.2954">
        <ele>2127.53</ele>
        <time>2017-06-24T13:52:07Z</time>
      </trkpt>
      <trkpt lat="45.02182" lon="6.29551">
        <ele>2125.13</ele>
        <time>2017-06-24T13:52:13Z</time>
      </trkpt>
      <trkpt lat="45.02185" lon="6.2956">
        <ele>2122.73</ele>
        <time>2017-06-24T13:52:18Z</time>
      </trkpt>
      <trkpt lat="45.02188" lon="6.29569">
        <ele>2120.81</ele>
        <time>2017-06-24T13:52:23Z</time>
      </trkpt>
      <trkpt lat="45.02193" lon="6.29578">
        <ele>2118.4</ele>
        <time>2017-06-24T13:52:28Z</time>
      </trkpt>
      <trkpt lat="45.02201" lon="6.29598">
        <ele>2114.56</ele>
        <time>2017-06-24T13:52:36Z</time>
      </trkpt>
      <trkpt lat="45.02203" lon="6.29607">
        <ele>2112.63</ele>
        <time>2017-06-24T13:52:40Z</time>
      </trkpt>
      <trkpt lat="45.02212" lon="6.29619">
        <ele>2109.75</ele>
        <time>2017-06-24T13:52:47Z</time>
      </trkpt>
      <trkpt lat="45.02216" lon="6.29621">
        <ele>2108.79</ele>
        <time>2017-06-24T13:52:50Z</time>
      </trkpt>
      <trkpt lat="45.02224" lon="6.29627">
        <ele>2105.42</ele>
        <time>2017-06-24T13:52:57Z</time>
      </trkpt>
      <trkpt lat="45.02226" lon="6.29626">
        <ele>2104.46</ele>
        <time>2017-06-24T13:52:59Z</time>
      </trkpt>
      <trkpt lat="45.02235" lon="6.29618">
        <ele>2101.1</ele>
        <time>2017-06-24T13:53:06Z</time>
      </trkpt>
      <trkpt lat="45.02236" lon="6.29618">
        <ele>2101.1</ele>
        <time>2017-06-24T13:53:07Z</time>
      </trkpt>
      <trkpt lat="45.02239" lon="6.29623">
        <ele>2100.62</ele>
        <time>2017-06-24T13:53:10Z</time>
      </trkpt>
      <trkpt lat="45.02249" lon="6.29631">
        <ele>2101.58</ele>
        <time>2017-06-24T13:53:17Z</time>
      </trkpt>
      <trkpt lat="45.02253" lon="6.29634">
        <ele>2101.58</ele>
        <time>2017-06-24T13:53:20Z</time>
      </trkpt>
      <trkpt lat="45.02257" lon="6.29642">
        <ele>2098.7</ele>
        <time>2017-06-24T13:53:25Z</time>
      </trkpt>
      <trkpt lat="45.02257" lon="6.29643">
        <ele>2098.21</ele>
        <time>2017-06-24T13:53:26Z</time>
      </trkpt>
      <trkpt lat="45.02259" lon="6.29647">
        <ele>2097.25</ele>
        <time>2017-06-24T13:53:29Z</time>
      </trkpt>
      <trkpt lat="45.02262" lon="6.29655">
        <ele>2095.81</ele>
        <time>2017-06-24T13:53:33Z</time>
      </trkpt>
      <trkpt lat="45.02271" lon="6.29666">
        <ele>2091.49</ele>
        <time>2017-06-24T13:53:40Z</time>
      </trkpt>
      <trkpt lat="45.02276" lon="6.29669">
        <ele>2089.56</ele>
        <time>2017-06-24T13:53:44Z</time>
      </trkpt>
      <trkpt lat="45.02278" lon="6.2967">
        <ele>2088.6</ele>
        <time>2017-06-24T13:53:46Z</time>
      </trkpt>
      <trkpt lat="45.02284" lon="6.29672">
        <ele>2088.6</ele>
        <time>2017-06-24T13:53:49Z</time>
      </trkpt>
      <trkpt lat="45.02288" lon="6.29675">
        <ele>2088.6</ele>
        <time>2017-06-24T13:53:54Z</time>
      </trkpt>
      <trkpt lat="45.02296" lon="6.29678">
        <ele>2087.64</ele>
        <time>2017-06-24T13:54:01Z</time>
      </trkpt>
      <trkpt lat="45.02301" lon="6.2968">
        <ele>2087.16</ele>
        <time>2017-06-24T13:54:06Z</time>
      </trkpt>
      <trkpt lat="45.02309" lon="6.29676">
        <ele>2085.72</ele>
        <time>2017-06-24T13:54:13Z</time>
      </trkpt>
      <trkpt lat="45.02314" lon="6.29674">
        <ele>2084.76</ele>
        <time>2017-06-24T13:54:19Z</time>
      </trkpt>
      <trkpt lat="45.02319" lon="6.29675">
        <ele>2088.12</ele>
        <time>2017-06-24T13:54:29Z</time>
      </trkpt>
      <trkpt lat="45.02312" lon="6.29675">
        <ele>2085.72</ele>
        <time>2017-06-24T13:54:36Z</time>
      </trkpt>
      <trkpt lat="45.0231" lon="6.29676">
        <ele>2085.24</ele>
        <time>2017-06-24T13:54:38Z</time>
      </trkpt>
      <trkpt lat="45.02305" lon="6.29689">
        <ele>2083.79</ele>
        <time>2017-06-24T13:54:45Z</time>
      </trkpt>
      <trkpt lat="45.02305" lon="6.29691">
        <ele>2083.79</ele>
        <time>2017-06-24T13:54:46Z</time>
      </trkpt>
      <trkpt lat="45.02297" lon="6.29706">
        <ele>2082.35</ele>
        <time>2017-06-24T13:54:53Z</time>
      </trkpt>
      <trkpt lat="45.02296" lon="6.29721">
        <ele>2081.87</ele>
        <time>2017-06-24T13:55:00Z</time>
      </trkpt>
      <trkpt lat="45.02298" lon="6.29733">
        <ele>2081.87</ele>
        <time>2017-06-24T13:55:04Z</time>
      </trkpt>
      <trkpt lat="45.02304" lon="6.29748">
        <ele>2079.47</ele>
        <time>2017-06-24T13:55:10Z</time>
      </trkpt>
      <trkpt lat="45.02305" lon="6.29753">
        <ele>2078.99</ele>
        <time>2017-06-24T13:55:12Z</time>
      </trkpt>
      <trkpt lat="45.0231" lon="6.29765">
        <ele>2076.59</ele>
        <time>2017-06-24T13:55:18Z</time>
      </trkpt>
      <trkpt lat="45.02312" lon="6.29768">
        <ele>2075.14</ele>
        <time>2017-06-24T13:55:20Z</time>
      </trkpt>
      <trkpt lat="45.02318" lon="6.2978">
        <ele>2072.26</ele>
        <time>2017-06-24T13:55:25Z</time>
      </trkpt>
      <trkpt lat="45.02323" lon="6.29794">
        <ele>2068.89</ele>
        <time>2017-06-24T13:55:32Z</time>
      </trkpt>
      <trkpt lat="45.02327" lon="6.29803">
        <ele>2068.41</ele>
        <time>2017-06-24T13:55:36Z</time>
      </trkpt>
      <trkpt lat="45.02329" lon="6.29817">
        <ele>2066.01</ele>
        <time>2017-06-24T13:55:42Z</time>
      </trkpt>
      <trkpt lat="45.0233" lon="6.29825">
        <ele>2065.53</ele>
        <time>2017-06-24T13:55:45Z</time>
      </trkpt>
      <trkpt lat="45.02334" lon="6.29846">
        <ele>2066.49</ele>
        <time>2017-06-24T13:55:53Z</time>
      </trkpt>
      <trkpt lat="45.02335" lon="6.29851">
        <ele>2065.53</ele>
        <time>2017-06-24T13:55:55Z</time>
      </trkpt>
      <trkpt lat="45.02338" lon="6.29855">
        <ele>2065.05</ele>
        <time>2017-06-24T13:55:57Z</time>
      </trkpt>
      <trkpt lat="45.02343" lon="6.29864">
        <ele>2065.05</ele>
        <time>2017-06-24T13:56:02Z</time>
      </trkpt>
      <trkpt lat="45.0235" lon="6.29874">
        <ele>2062.17</ele>
        <time>2017-06-24T13:56:07Z</time>
      </trkpt>
      <trkpt lat="45.02353" lon="6.29877">
        <ele>2062.17</ele>
        <time>2017-06-24T13:56:09Z</time>
      </trkpt>
      <trkpt lat="45.02361" lon="6.29887">
        <ele>2057.36</ele>
        <time>2017-06-24T13:56:16Z</time>
      </trkpt>
      <trkpt lat="45.02365" lon="6.2989">
        <ele>2055.92</ele>
        <time>2017-06-24T13:56:19Z</time>
      </trkpt>
      <trkpt lat="45.02367" lon="6.29896">
        <ele>2053.51</ele>
        <time>2017-06-24T13:56:25Z</time>
      </trkpt>
      <trkpt lat="45.02368" lon="6.29898">
        <ele>2053.51</ele>
        <time>2017-06-24T13:56:26Z</time>
      </trkpt>
      <trkpt lat="45.0237" lon="6.299">
        <ele>2051.59</ele>
        <time>2017-06-24T13:56:28Z</time>
      </trkpt>
      <trkpt lat="45.02372" lon="6.29901">
        <ele>2050.63</ele>
        <time>2017-06-24T13:56:30Z</time>
      </trkpt>
      <trkpt lat="45.02375" lon="6.29904">
        <ele>2046.78</ele>
        <time>2017-06-24T13:56:36Z</time>
      </trkpt>
      <trkpt lat="45.02378" lon="6.29908">
        <ele>2044.38</ele>
        <time>2017-06-24T13:56:39Z</time>
      </trkpt>
      <trkpt lat="45.0238" lon="6.29914">
        <ele>2041.02</ele>
        <time>2017-06-24T13:56:44Z</time>
      </trkpt>
      <trkpt lat="45.02383" lon="6.29918">
        <ele>2039.09</ele>
        <time>2017-06-24T13:56:49Z</time>
      </trkpt>
      <trkpt lat="45.02384" lon="6.29921">
        <ele>2038.13</ele>
        <time>2017-06-24T13:56:51Z</time>
      </trkpt>
      <trkpt lat="45.02385" lon="6.29926">
        <ele>2036.69</ele>
        <time>2017-06-24T13:56:54Z</time>
      </trkpt>
      <trkpt lat="45.02386" lon="6.29935">
        <ele>2033.81</ele>
        <time>2017-06-24T13:56:59Z</time>
      </trkpt>
      <trkpt lat="45.02391" lon="6.29945">
        <ele>2032.36</ele>
        <time>2017-06-24T13:57:05Z</time>
      </trkpt>
      <trkpt lat="45.02389" lon="6.29953">
        <ele>2029.48</ele>
        <time>2017-06-24T13:57:11Z</time>
      </trkpt>
      <trkpt lat="45.02391" lon="6.29961">
        <ele>2027.56</ele>
        <time>2017-06-24T13:57:17Z</time>
      </trkpt>
      <trkpt lat="45.02392" lon="6.29967">
        <ele>2026.6</ele>
        <time>2017-06-24T13:57:20Z</time>
      </trkpt>
      <trkpt lat="45.02393" lon="6.29972">
        <ele>2025.64</ele>
        <time>2017-06-24T13:57:24Z</time>
      </trkpt>
      <trkpt lat="45.02391" lon="6.29976">
        <ele>2024.19</ele>
        <time>2017-06-24T13:57:28Z</time>
      </trkpt>
      <trkpt lat="45.02394" lon="6.29985">
        <ele>2024.19</ele>
        <time>2017-06-24T13:57:32Z</time>
      </trkpt>
      <trkpt lat="45.02398" lon="6.29993">
        <ele>2020.83</ele>
        <time>2017-06-24T13:57:38Z</time>
      </trkpt>
      <trkpt lat="45.024" lon="6.30001">
        <ele>2018.91</ele>
        <time>2017-06-24T13:57:43Z</time>
      </trkpt>
      <trkpt lat="45.02403" lon="6.30007">
        <ele>2016.02</ele>
        <time>2017-06-24T13:57:48Z</time>
      </trkpt>
      <trkpt lat="45.02404" lon="6.30009">
        <ele>2015.54</ele>
        <time>2017-06-24T13:57:49Z</time>
      </trkpt>
      <trkpt lat="45.02406" lon="6.30018">
        <ele>2013.14</ele>
        <time>2017-06-24T13:57:54Z</time>
      </trkpt>
      <trkpt lat="45.0241" lon="6.30022">
        <ele>2012.18</ele>
        <time>2017-06-24T13:57:57Z</time>
      </trkpt>
      <trkpt lat="45.02415" lon="6.30027">
        <ele>2010.73</ele>
        <time>2017-06-24T13:58:00Z</time>
      </trkpt>
      <trkpt lat="45.02421" lon="6.30042">
        <ele>2004.49</ele>
        <time>2017-06-24T13:58:09Z</time>
      </trkpt>
      <trkpt lat="45.02423" lon="6.30052">
        <ele>2001.6</ele>
        <time>2017-06-24T13:58:14Z</time>
      </trkpt>
      <trkpt lat="45.02424" lon="6.30062">
        <ele>1997.28</ele>
        <time>2017-06-24T13:58:19Z</time>
      </trkpt>
      <trkpt lat="45.02431" lon="6.30075">
        <ele>1994.39</ele>
        <time>2017-06-24T13:58:25Z</time>
      </trkpt>
      <trkpt lat="45.02436" lon="6.30082">
        <ele>1992.95</ele>
        <time>2017-06-24T13:58:29Z</time>
      </trkpt>
      <trkpt lat="45.02436" lon="6.30087">
        <ele>1990.07</ele>
        <time>2017-06-24T13:58:34Z</time>
      </trkpt>
      <trkpt lat="45.02435" lon="6.30089">
        <ele>1989.59</ele>
        <time>2017-06-24T13:58:35Z</time>
      </trkpt>
      <trkpt lat="45.02438" lon="6.30096">
        <ele>1989.59</ele>
        <time>2017-06-24T13:58:38Z</time>
      </trkpt>
      <trkpt lat="45.02436" lon="6.30107">
        <ele>1988.62</ele>
        <time>2017-06-24T13:58:44Z</time>
      </trkpt>
      <trkpt lat="45.02436" lon="6.30116">
        <ele>1986.22</ele>
        <time>2017-06-24T13:58:51Z</time>
      </trkpt>
      <trkpt lat="45.0243" lon="6.30119">
        <ele>1985.74</ele>
        <time>2017-06-24T13:58:57Z</time>
      </trkpt>
      <trkpt lat="45.0242" lon="6.30116">
        <ele>1987.18</ele>
        <time>2017-06-24T13:59:06Z</time>
      </trkpt>
      <trkpt lat="45.02417" lon="6.30116">
        <ele>1989.1</ele>
        <time>2017-06-24T13:59:09Z</time>
      </trkpt>
      <trkpt lat="45.02414" lon="6.3012">
        <ele>1990.55</ele>
        <time>2017-06-24T13:59:15Z</time>
      </trkpt>
      <trkpt lat="45.02412" lon="6.30125">
        <ele>1991.03</ele>
        <time>2017-06-24T13:59:21Z</time>
      </trkpt>
      <trkpt lat="45.02414" lon="6.30123">
        <ele>1991.51</ele>
        <time>2017-06-24T13:59:27Z</time>
      </trkpt>
      <trkpt lat="45.02414" lon="6.30124">
        <ele>1991.99</ele>
        <time>2017-06-24T13:59:31Z</time>
      </trkpt>
      <trkpt lat="45.02413" lon="6.30125">
        <ele>1990.55</ele>
        <time>2017-06-24T13:59:37Z</time>
      </trkpt>
      <trkpt lat="45.02414" lon="6.30123">
        <ele>1988.14</ele>
        <time>2017-06-24T13:59:42Z</time>
      </trkpt>
      <trkpt lat="45.02414" lon="6.3012">
        <ele>1988.62</ele>
        <time>2017-06-24T13:59:57Z</time>
      </trkpt>
      <trkpt lat="45.02415" lon="6.3012">
        <ele>1988.14</ele>
        <time>2017-06-24T14:00:05Z</time>
      </trkpt>
      <trkpt lat="45.02415" lon="6.3012">
        <ele>1989.1</ele>
        <time>2017-06-24T14:00:15Z</time>
      </trkpt>
      <trkpt lat="45.02414" lon="6.3012">
        <ele>1987.66</ele>
        <time>2017-06-24T14:00:22Z</time>
      </trkpt>
      <trkpt lat="45.02413" lon="6.30122">
        <ele>1987.66</ele>
        <time>2017-06-24T14:00:35Z</time>
      </trkpt>
      <trkpt lat="45.02413" lon="6.30124">
        <ele>1988.62</ele>
        <time>2017-06-24T14:00:44Z</time>
      </trkpt>
      <trkpt lat="45.02413" lon="6.30125">
        <ele>1989.1</ele>
        <time>2017-06-24T14:00:55Z</time>
      </trkpt>
      <trkpt lat="45.02412" lon="6.30126">
        <ele>1989.59</ele>
        <time>2017-06-24T14:01:06Z</time>
      </trkpt>
      <trkpt lat="45.02412" lon="6.30126">
        <ele>1990.07</ele>
        <time>2017-06-24T14:01:13Z</time>
      </trkpt>
      <trkpt lat="45.02412" lon="6.30127">
        <ele>1990.07</ele>
        <time>2017-06-24T14:01:25Z</time>
      </trkpt>
      <trkpt lat="45.02412" lon="6.30127">
        <ele>1991.99</ele>
        <time>2017-06-24T14:01:38Z</time>
      </trkpt>
      <trkpt lat="45.02411" lon="6.30127">
        <ele>1993.43</ele>
        <time>2017-06-24T14:01:48Z</time>
      </trkpt>
      <trkpt lat="45.02411" lon="6.30127">
        <ele>1995.35</ele>
        <time>2017-06-24T14:02:00Z</time>
      </trkpt>
      <trkpt lat="45.02411" lon="6.30127">
        <ele>1995.35</ele>
        <time>2017-06-24T14:02:17Z</time>
      </trkpt>
      <trkpt lat="45.02413" lon="6.30129">
        <ele>1997.28</ele>
        <time>2017-06-24T14:02:27Z</time>
      </trkpt>
      <trkpt lat="45.02413" lon="6.30129">
        <ele>1997.28</ele>
        <time>2017-06-24T14:02:38Z</time>
      </trkpt>
      <trkpt lat="45.02414" lon="6.30129">
        <ele>1997.28</ele>
        <time>2017-06-24T14:02:50Z</time>
      </trkpt>
      <trkpt lat="45.02417" lon="6.30134">
        <ele>1996.32</ele>
        <time>2017-06-24T14:02:58Z</time>
      </trkpt>
      <trkpt lat="45.02419" lon="6.30135">
        <ele>1995.35</ele>
        <time>2017-06-24T14:03:01Z</time>
      </trkpt>
      <trkpt lat="45.02423" lon="6.30139">
        <ele>1993.91</ele>
        <time>2017-06-24T14:03:04Z</time>
      </trkpt>
      <trkpt lat="45.02432" lon="6.30145">
        <ele>1993.91</ele>
        <time>2017-06-24T14:03:11Z</time>
      </trkpt>
      <trkpt lat="45.02437" lon="6.30149">
        <ele>1992.95</ele>
        <time>2017-06-24T14:03:17Z</time>
      </trkpt>
      <trkpt lat="45.02436" lon="6.30151">
        <ele>1992.95</ele>
        <time>2017-06-24T14:03:23Z</time>
      </trkpt>
      <trkpt lat="45.02436" lon="6.30156">
        <ele>1992.95</ele>
        <time>2017-06-24T14:03:29Z</time>
      </trkpt>
      <trkpt lat="45.0244" lon="6.30162">
        <ele>1994.87</ele>
        <time>2017-06-24T14:03:33Z</time>
      </trkpt>
      <trkpt lat="45.02444" lon="6.30169">
        <ele>1995.35</ele>
        <time>2017-06-24T14:03:38Z</time>
      </trkpt>
      <trkpt lat="45.02449" lon="6.30181">
        <ele>1994.39</ele>
        <time>2017-06-24T14:03:48Z</time>
      </trkpt>
      <trkpt lat="45.0245" lon="6.30186">
        <ele>1993.91</ele>
        <time>2017-06-24T14:03:51Z</time>
      </trkpt>
      <trkpt lat="45.02448" lon="6.30198">
        <ele>1992.47</ele>
        <time>2017-06-24T14:03:57Z</time>
      </trkpt>
      <trkpt lat="45.02446" lon="6.30207">
        <ele>1991.51</ele>
        <time>2017-06-24T14:04:01Z</time>
      </trkpt>
      <trkpt lat="45.02447" lon="6.30217">
        <ele>1990.55</ele>
        <time>2017-06-24T14:04:05Z</time>
      </trkpt>
      <trkpt lat="45.02447" lon="6.30223">
        <ele>1989.59</ele>
        <time>2017-06-24T14:04:08Z</time>
      </trkpt>
      <trkpt lat="45.0245" lon="6.3024">
        <ele>1991.03</ele>
        <time>2017-06-24T14:04:14Z</time>
      </trkpt>
      <trkpt lat="45.02458" lon="6.30246">
        <ele>1992.95</ele>
        <time>2017-06-24T14:04:19Z</time>
      </trkpt>
      <trkpt lat="45.02472" lon="6.30255">
        <ele>1991.51</ele>
        <time>2017-06-24T14:04:27Z</time>
      </trkpt>
      <trkpt lat="45.02479" lon="6.30259">
        <ele>1991.51</ele>
        <time>2017-06-24T14:04:32Z</time>
      </trkpt>
      <trkpt lat="45.02482" lon="6.30259">
        <ele>1991.03</ele>
        <time>2017-06-24T14:04:34Z</time>
      </trkpt>
      <trkpt lat="45.02491" lon="6.30257">
        <ele>1988.62</ele>
        <time>2017-06-24T14:04:40Z</time>
      </trkpt>
      <trkpt lat="45.02496" lon="6.30255">
        <ele>1987.18</ele>
        <time>2017-06-24T14:04:44Z</time>
      </trkpt>
      <trkpt lat="45.02505" lon="6.30254">
        <ele>1983.82</ele>
        <time>2017-06-24T14:04:51Z</time>
      </trkpt>
      <trkpt lat="45.02508" lon="6.30253">
        <ele>1981.9</ele>
        <time>2017-06-24T14:04:55Z</time>
      </trkpt>
      <trkpt lat="45.02509" lon="6.30255">
        <ele>1980.93</ele>
        <time>2017-06-24T14:04:57Z</time>
      </trkpt>
      <trkpt lat="45.02511" lon="6.30255">
        <ele>1979.97</ele>
        <time>2017-06-24T14:04:59Z</time>
      </trkpt>
      <trkpt lat="45.02513" lon="6.3025">
        <ele>1978.05</ele>
        <time>2017-06-24T14:05:03Z</time>
      </trkpt>
      <trkpt lat="45.02517" lon="6.30249">
        <ele>1973.72</ele>
        <time>2017-06-24T14:05:09Z</time>
      </trkpt>
      <trkpt lat="45.02521" lon="6.30252">
        <ele>1970.36</ele>
        <time>2017-06-24T14:05:14Z</time>
      </trkpt>
      <trkpt lat="45.02527" lon="6.30251">
        <ele>1967.96</ele>
        <time>2017-06-24T14:05:20Z</time>
      </trkpt>
      <trkpt lat="45.02529" lon="6.30249">
        <ele>1968.44</ele>
        <time>2017-06-24T14:05:22Z</time>
      </trkpt>
      <trkpt lat="45.02536" lon="6.30258">
        <ele>1967.96</ele>
        <time>2017-06-24T14:05:28Z</time>
      </trkpt>
      <trkpt lat="45.02537" lon="6.30259">
        <ele>1967.48</ele>
        <time>2017-06-24T14:05:29Z</time>
      </trkpt>
      <trkpt lat="45.02541" lon="6.30265">
        <ele>1964.59</ele>
        <time>2017-06-24T14:05:34Z</time>
      </trkpt>
      <trkpt lat="45.02547" lon="6.30271">
        <ele>1962.67</ele>
        <time>2017-06-24T14:05:39Z</time>
      </trkpt>
      <trkpt lat="45.02551" lon="6.30271">
        <ele>1962.19</ele>
        <time>2017-06-24T14:05:41Z</time>
      </trkpt>
      <trkpt lat="45.02559" lon="6.30273">
        <ele>1961.23</ele>
        <time>2017-06-24T14:05:47Z</time>
      </trkpt>
      <trkpt lat="45.02564" lon="6.3027">
        <ele>1959.3</ele>
        <time>2017-06-24T14:05:52Z</time>
      </trkpt>
      <trkpt lat="45.0257" lon="6.30273">
        <ele>1956.42</ele>
        <time>2017-06-24T14:05:57Z</time>
      </trkpt>
      <trkpt lat="45.02576" lon="6.30277">
        <ele>1954.5</ele>
        <time>2017-06-24T14:06:02Z</time>
      </trkpt>
      <trkpt lat="45.02583" lon="6.30274">
        <ele>1952.57</ele>
        <time>2017-06-24T14:06:07Z</time>
      </trkpt>
      <trkpt lat="45.0259" lon="6.3027">
        <ele>1949.69</ele>
        <time>2017-06-24T14:06:14Z</time>
      </trkpt>
      <trkpt lat="45.02597" lon="6.30274">
        <ele>1946.81</ele>
        <time>2017-06-24T14:06:19Z</time>
      </trkpt>
      <trkpt lat="45.02599" lon="6.30276">
        <ele>1946.33</ele>
        <time>2017-06-24T14:06:20Z</time>
      </trkpt>
      <trkpt lat="45.02606" lon="6.3028">
        <ele>1943.44</ele>
        <time>2017-06-24T14:06:25Z</time>
      </trkpt>
      <trkpt lat="45.0261" lon="6.30283">
        <ele>1941.52</ele>
        <time>2017-06-24T14:06:28Z</time>
      </trkpt>
      <trkpt lat="45.02617" lon="6.30285">
        <ele>1938.64</ele>
        <time>2017-06-24T14:06:32Z</time>
      </trkpt>
      <trkpt lat="45.02626" lon="6.30285">
        <ele>1935.27</ele>
        <time>2017-06-24T14:06:38Z</time>
      </trkpt>
      <trkpt lat="45.02635" lon="6.30291">
        <ele>1930.46</ele>
        <time>2017-06-24T14:06:44Z</time>
      </trkpt>
      <trkpt lat="45.02641" lon="6.30296">
        <ele>1928.54</ele>
        <time>2017-06-24T14:06:48Z</time>
      </trkpt>
      <trkpt lat="45.0265" lon="6.30298">
        <ele>1927.58</ele>
        <time>2017-06-24T14:06:53Z</time>
      </trkpt>
      <trkpt lat="45.02659" lon="6.30307">
        <ele>1924.22</ele>
        <time>2017-06-24T14:07:00Z</time>
      </trkpt>
      <trkpt lat="45.02661" lon="6.30308">
        <ele>1924.22</ele>
        <time>2017-06-24T14:07:01Z</time>
      </trkpt>
      <trkpt lat="45.02666" lon="6.30313">
        <ele>1922.77</ele>
        <time>2017-06-24T14:07:05Z</time>
      </trkpt>
      <trkpt lat="45.02675" lon="6.3032">
        <ele>1920.37</ele>
        <time>2017-06-24T14:07:11Z</time>
      </trkpt>
      <trkpt lat="45.02687" lon="6.30326">
        <ele>1919.89</ele>
        <time>2017-06-24T14:07:16Z</time>
      </trkpt>
      <trkpt lat="45.02697" lon="6.30331">
        <ele>1918.93</ele>
        <time>2017-06-24T14:07:21Z</time>
      </trkpt>
      <trkpt lat="45.02699" lon="6.30332">
        <ele>1918.45</ele>
        <time>2017-06-24T14:07:22Z</time>
      </trkpt>
      <trkpt lat="45.02709" lon="6.30341">
        <ele>1916.04</ele>
        <time>2017-06-24T14:07:28Z</time>
      </trkpt>
      <trkpt lat="45.02716" lon="6.30338">
        <ele>1914.6</ele>
        <time>2017-06-24T14:07:32Z</time>
      </trkpt>
      <trkpt lat="45.02725" lon="6.30331">
        <ele>1912.2</ele>
        <time>2017-06-24T14:07:38Z</time>
      </trkpt>
      <trkpt lat="45.02729" lon="6.30327">
        <ele>1910.76</ele>
        <time>2017-06-24T14:07:41Z</time>
      </trkpt>
      <trkpt lat="45.02735" lon="6.3033">
        <ele>1907.87</ele>
        <time>2017-06-24T14:07:47Z</time>
      </trkpt>
      <trkpt lat="45.0274" lon="6.30329">
        <ele>1906.43</ele>
        <time>2017-06-24T14:07:51Z</time>
      </trkpt>
      <trkpt lat="45.02749" lon="6.30334">
        <ele>1903.55</ele>
        <time>2017-06-24T14:07:59Z</time>
      </trkpt>
      <trkpt lat="45.0275" lon="6.30335">
        <ele>1903.07</ele>
        <time>2017-06-24T14:08:00Z</time>
      </trkpt>
      <trkpt lat="45.02752" lon="6.30338">
        <ele>1902.11</ele>
        <time>2017-06-24T14:08:02Z</time>
      </trkpt>
      <trkpt lat="45.02762" lon="6.30337">
        <ele>1900.66</ele>
        <time>2017-06-24T14:08:08Z</time>
      </trkpt>
      <trkpt lat="45.02764" lon="6.30335">
        <ele>1898.74</ele>
        <time>2017-06-24T14:08:11Z</time>
      </trkpt>
      <trkpt lat="45.02768" lon="6.30339">
        <ele>1897.3</ele>
        <time>2017-06-24T14:08:15Z</time>
      </trkpt>
      <trkpt lat="45.02772" lon="6.3035">
        <ele>1891.53</ele>
        <time>2017-06-24T14:08:21Z</time>
      </trkpt>
      <trkpt lat="45.02777" lon="6.30355">
        <ele>1889.61</ele>
        <time>2017-06-24T14:08:24Z</time>
      </trkpt>
      <trkpt lat="45.02785" lon="6.30366">
        <ele>1887.69</ele>
        <time>2017-06-24T14:08:30Z</time>
      </trkpt>
      <trkpt lat="45.02787" lon="6.30367">
        <ele>1887.69</ele>
        <time>2017-06-24T14:08:31Z</time>
      </trkpt>
      <trkpt lat="45.028" lon="6.30376">
        <ele>1886.72</ele>
        <time>2017-06-24T14:08:40Z</time>
      </trkpt>
      <trkpt lat="45.02803" lon="6.30379">
        <ele>1886.72</ele>
        <time>2017-06-24T14:08:43Z</time>
      </trkpt>
      <trkpt lat="45.02806" lon="6.30376">
        <ele>1885.76</ele>
        <time>2017-06-24T14:08:46Z</time>
      </trkpt>
      <trkpt lat="45.02818" lon="6.30377">
        <ele>1884.32</ele>
        <time>2017-06-24T14:08:54Z</time>
      </trkpt>
      <trkpt lat="45.02822" lon="6.30381">
        <ele>1882.88</ele>
        <time>2017-06-24T14:08:57Z</time>
      </trkpt>
      <trkpt lat="45.02826" lon="6.30383">
        <ele>1882.4</ele>
        <time>2017-06-24T14:09:01Z</time>
      </trkpt>
      <trkpt lat="45.02834" lon="6.30395">
        <ele>1882.4</ele>
        <time>2017-06-24T14:09:08Z</time>
      </trkpt>
      <trkpt lat="45.02841" lon="6.30408">
        <ele>1881.44</ele>
        <time>2017-06-24T14:09:15Z</time>
      </trkpt>
      <trkpt lat="45.02842" lon="6.3041">
        <ele>1881.44</ele>
        <time>2017-06-24T14:09:16Z</time>
      </trkpt>
      <trkpt lat="45.02845" lon="6.30414">
        <ele>1880.96</ele>
        <time>2017-06-24T14:09:18Z</time>
      </trkpt>
      <trkpt lat="45.02856" lon="6.30426">
        <ele>1878.55</ele>
        <time>2017-06-24T14:09:25Z</time>
      </trkpt>
      <trkpt lat="45.02863" lon="6.30437">
        <ele>1878.07</ele>
        <time>2017-06-24T14:09:31Z</time>
      </trkpt>
      <trkpt lat="45.02865" lon="6.30441">
        <ele>1878.07</ele>
        <time>2017-06-24T14:09:33Z</time>
      </trkpt>
      <trkpt lat="45.02874" lon="6.30455">
        <ele>1877.59</ele>
        <time>2017-06-24T14:09:40Z</time>
      </trkpt>
      <trkpt lat="45.02878" lon="6.30455">
        <ele>1876.63</ele>
        <time>2017-06-24T14:09:43Z</time>
      </trkpt>
      <trkpt lat="45.02882" lon="6.30452">
        <ele>1875.67</ele>
        <time>2017-06-24T14:09:45Z</time>
      </trkpt>
      <trkpt lat="45.02897" lon="6.30451">
        <ele>1874.71</ele>
        <time>2017-06-24T14:09:52Z</time>
      </trkpt>
      <trkpt lat="45.02902" lon="6.30458">
        <ele>1873.27</ele>
        <time>2017-06-24T14:09:56Z</time>
      </trkpt>
      <trkpt lat="45.02908" lon="6.30466">
        <ele>1871.82</ele>
        <time>2017-06-24T14:10:01Z</time>
      </trkpt>
      <trkpt lat="45.02917" lon="6.30466">
        <ele>1869.9</ele>
        <time>2017-06-24T14:10:07Z</time>
      </trkpt>
      <trkpt lat="45.02922" lon="6.30466">
        <ele>1867.02</ele>
        <time>2017-06-24T14:10:11Z</time>
      </trkpt>
      <trkpt lat="45.02925" lon="6.30467">
        <ele>1865.58</ele>
        <time>2017-06-24T14:10:13Z</time>
      </trkpt>
      <trkpt lat="45.02927" lon="6.30472">
        <ele>1863.17</ele>
        <time>2017-06-24T14:10:16Z</time>
      </trkpt>
      <trkpt lat="45.02937" lon="6.30483">
        <ele>1861.25</ele>
        <time>2017-06-24T14:10:23Z</time>
      </trkpt>
      <trkpt lat="45.02939" lon="6.30486">
        <ele>1861.25</ele>
        <time>2017-06-24T14:10:26Z</time>
      </trkpt>
      <trkpt lat="45.02943" lon="6.30493">
        <ele>1861.25</ele>
        <time>2017-06-24T14:10:31Z</time>
      </trkpt>
      <trkpt lat="45.02947" lon="6.30498">
        <ele>1859.33</ele>
        <time>2017-06-24T14:10:36Z</time>
      </trkpt>
      <trkpt lat="45.0295" lon="6.30503">
        <ele>1858.37</ele>
        <time>2017-06-24T14:10:39Z</time>
      </trkpt>
      <trkpt lat="45.02957" lon="6.30509">
        <ele>1856.92</ele>
        <time>2017-06-24T14:10:43Z</time>
      </trkpt>
      <trkpt lat="45.02971" lon="6.3051">
        <ele>1855.48</ele>
        <time>2017-06-24T14:10:50Z</time>
      </trkpt>
      <trkpt lat="45.02982" lon="6.3051">
        <ele>1853.56</ele>
        <time>2017-06-24T14:10:56Z</time>
      </trkpt>
      <trkpt lat="45.02993" lon="6.30516">
        <ele>1852.12</ele>
        <time>2017-06-24T14:11:00Z</time>
      </trkpt>
      <trkpt lat="45.03008" lon="6.30522">
        <ele>1852.6</ele>
        <time>2017-06-24T14:11:07Z</time>
      </trkpt>
      <trkpt lat="45.03021" lon="6.30528">
        <ele>1852.6</ele>
        <time>2017-06-24T14:11:14Z</time>
      </trkpt>
      <trkpt lat="45.03028" lon="6.30534">
        <ele>1852.6</ele>
        <time>2017-06-24T14:11:18Z</time>
      </trkpt>
      <trkpt lat="45.03031" lon="6.30538">
        <ele>1852.12</ele>
        <time>2017-06-24T14:11:20Z</time>
      </trkpt>
      <trkpt lat="45.03042" lon="6.30542">
        <ele>1850.68</ele>
        <time>2017-06-24T14:11:25Z</time>
      </trkpt>
      <trkpt lat="45.03057" lon="6.30542">
        <ele>1848.75</ele>
        <time>2017-06-24T14:11:32Z</time>
      </trkpt>
      <trkpt lat="45.03067" lon="6.3054">
        <ele>1847.79</ele>
        <time>2017-06-24T14:11:37Z</time>
      </trkpt>
      <trkpt lat="45.03078" lon="6.30534">
        <ele>1845.39</ele>
        <time>2017-06-24T14:11:43Z</time>
      </trkpt>
      <trkpt lat="45.03089" lon="6.30524">
        <ele>1842.98</ele>
        <time>2017-06-24T14:11:49Z</time>
      </trkpt>
      <trkpt lat="45.03103" lon="6.30517">
        <ele>1840.58</ele>
        <time>2017-06-24T14:11:55Z</time>
      </trkpt>
      <trkpt lat="45.03118" lon="6.30517">
        <ele>1838.18</ele>
        <time>2017-06-24T14:12:02Z</time>
      </trkpt>
      <trkpt lat="45.03133" lon="6.30513">
        <ele>1836.74</ele>
        <time>2017-06-24T14:12:09Z</time>
      </trkpt>
      <trkpt lat="45.03144" lon="6.30512">
        <ele>1839.62</ele>
        <time>2017-06-24T14:12:12Z</time>
      </trkpt>
      <trkpt lat="45.03163" lon="6.30518">
        <ele>1838.18</ele>
        <time>2017-06-24T14:12:21Z</time>
      </trkpt>
      <trkpt lat="45.03174" lon="6.30522">
        <ele>1835.29</ele>
        <time>2017-06-24T14:12:28Z</time>
      </trkpt>
      <trkpt lat="45.03181" lon="6.30525">
        <ele>1833.37</ele>
        <time>2017-06-24T14:12:35Z</time>
      </trkpt>
      <trkpt lat="45.03184" lon="6.30527">
        <ele>1832.89</ele>
        <time>2017-06-24T14:12:40Z</time>
      </trkpt>
      <trkpt lat="45.03187" lon="6.30529">
        <ele>1831.93</ele>
        <time>2017-06-24T14:12:43Z</time>
      </trkpt>
      <trkpt lat="45.03191" lon="6.30533">
        <ele>1830.97</ele>
        <time>2017-06-24T14:12:46Z</time>
      </trkpt>
      <trkpt lat="45.03199" lon="6.30535">
        <ele>1826.16</ele>
        <time>2017-06-24T14:12:54Z</time>
      </trkpt>
      <trkpt lat="45.03203" lon="6.30539">
        <ele>1822.32</ele>
        <time>2017-06-24T14:12:58Z</time>
      </trkpt>
      <trkpt lat="45.03211" lon="6.30548">
        <ele>1817.99</ele>
        <time>2017-06-24T14:13:04Z</time>
      </trkpt>
      <trkpt lat="45.03218" lon="6.30551">
        <ele>1814.63</ele>
        <time>2017-06-24T14:13:10Z</time>
      </trkpt>
      <trkpt lat="45.0322" lon="6.30552">
        <ele>1813.66</ele>
        <time>2017-06-24T14:13:11Z</time>
      </trkpt>
      <trkpt lat="45.03222" lon="6.30555">
        <ele>1812.7</ele>
        <time>2017-06-24T14:13:13Z</time>
      </trkpt>
      <trkpt lat="45.03226" lon="6.30553">
        <ele>1811.26</ele>
        <time>2017-06-24T14:13:16Z</time>
      </trkpt>
      <trkpt lat="45.03236" lon="6.30551">
        <ele>1807.42</ele>
        <time>2017-06-24T14:13:24Z</time>
      </trkpt>
      <trkpt lat="45.03241" lon="6.30552">
        <ele>1805.01</ele>
        <time>2017-06-24T14:13:28Z</time>
      </trkpt>
      <trkpt lat="45.03246" lon="6.3055">
        <ele>1802.61</ele>
        <time>2017-06-24T14:13:32Z</time>
      </trkpt>
      <trkpt lat="45.0325" lon="6.30552">
        <ele>1800.21</ele>
        <time>2017-06-24T14:13:36Z</time>
      </trkpt>
      <trkpt lat="45.03261" lon="6.3056">
        <ele>1801.17</ele>
        <time>2017-06-24T14:13:43Z</time>
      </trkpt>
      <trkpt lat="45.03269" lon="6.30563">
        <ele>1798.28</ele>
        <time>2017-06-24T14:13:49Z</time>
      </trkpt>
      <trkpt lat="45.03277" lon="6.30565">
        <ele>1793.96</ele>
        <time>2017-06-24T14:13:56Z</time>
      </trkpt>
      <trkpt lat="45.03284" lon="6.30565">
        <ele>1789.15</ele>
        <time>2017-06-24T14:14:02Z</time>
      </trkpt>
      <trkpt lat="45.03285" lon="6.30557">
        <ele>1784.82</ele>
        <time>2017-06-24T14:14:07Z</time>
      </trkpt>
      <trkpt lat="45.03283" lon="6.30551">
        <ele>1781.46</ele>
        <time>2017-06-24T14:14:12Z</time>
      </trkpt>
      <trkpt lat="45.0329" lon="6.30551">
        <ele>1775.69</ele>
        <time>2017-06-24T14:14:19Z</time>
      </trkpt>
      <trkpt lat="45.03292" lon="6.30554">
        <ele>1774.73</ele>
        <time>2017-06-24T14:14:22Z</time>
      </trkpt>
      <trkpt lat="45.033" lon="6.30555">
        <ele>1773.29</ele>
        <time>2017-06-24T14:14:27Z</time>
      </trkpt>
      <trkpt lat="45.03311" lon="6.30549">
        <ele>1770.89</ele>
        <time>2017-06-24T14:14:34Z</time>
      </trkpt>
      <trkpt lat="45.03322" lon="6.30554">
        <ele>1765.12</ele>
        <time>2017-06-24T14:14:42Z</time>
      </trkpt>
      <trkpt lat="45.03323" lon="6.30556">
        <ele>1763.68</ele>
        <time>2017-06-24T14:14:44Z</time>
      </trkpt>
      <trkpt lat="45.03331" lon="6.30558">
        <ele>1757.91</ele>
        <time>2017-06-24T14:14:50Z</time>
      </trkpt>
      <trkpt lat="45.03325" lon="6.30543">
        <ele>1750.7</ele>
        <time>2017-06-24T14:14:57Z</time>
      </trkpt>
      <trkpt lat="45.03324" lon="6.30541">
        <ele>1749.74</ele>
        <time>2017-06-24T14:14:58Z</time>
      </trkpt>
      <trkpt lat="45.03319" lon="6.30521">
        <ele>1742.53</ele>
        <time>2017-06-24T14:15:06Z</time>
      </trkpt>
      <trkpt lat="45.03323" lon="6.3051">
        <ele>1743.49</ele>
        <time>2017-06-24T14:15:11Z</time>
      </trkpt>
      <trkpt lat="45.03335" lon="6.30514">
        <ele>1743.97</ele>
        <time>2017-06-24T14:15:19Z</time>
      </trkpt>
      <trkpt lat="45.03339" lon="6.30518">
        <ele>1743.97</ele>
        <time>2017-06-24T14:15:23Z</time>
      </trkpt>
      <trkpt lat="45.0334" lon="6.30522">
        <ele>1743.97</ele>
        <time>2017-06-24T14:15:25Z</time>
      </trkpt>
      <trkpt lat="45.03354" lon="6.30531">
        <ele>1743.01</ele>
        <time>2017-06-24T14:15:33Z</time>
      </trkpt>
      <trkpt lat="45.03357" lon="6.30531">
        <ele>1742.53</ele>
        <time>2017-06-24T14:15:35Z</time>
      </trkpt>
      <trkpt lat="45.03366" lon="6.30536">
        <ele>1740.6</ele>
        <time>2017-06-24T14:15:40Z</time>
      </trkpt>
      <trkpt lat="45.03377" lon="6.30541">
        <ele>1738.68</ele>
        <time>2017-06-24T14:15:46Z</time>
      </trkpt>
      <trkpt lat="45.03382" lon="6.30545">
        <ele>1737.24</ele>
        <time>2017-06-24T14:15:49Z</time>
      </trkpt>
      <trkpt lat="45.03396" lon="6.30554">
        <ele>1730.03</ele>
        <time>2017-06-24T14:15:58Z</time>
      </trkpt>
      <trkpt lat="45.034" lon="6.3056">
        <ele>1725.7</ele>
        <time>2017-06-24T14:16:03Z</time>
      </trkpt>
      <trkpt lat="45.03409" lon="6.30565">
        <ele>1721.38</ele>
        <time>2017-06-24T14:16:09Z</time>
      </trkpt>
      <trkpt lat="45.03411" lon="6.30566">
        <ele>1720.9</ele>
        <time>2017-06-24T14:16:10Z</time>
      </trkpt>
      <trkpt lat="45.03419" lon="6.30567">
        <ele>1718.49</ele>
        <time>2017-06-24T14:16:14Z</time>
      </trkpt>
      <trkpt lat="45.03432" lon="6.30581">
        <ele>1713.21</ele>
        <time>2017-06-24T14:16:22Z</time>
      </trkpt>
      <trkpt lat="45.03433" lon="6.30581">
        <ele>1712.73</ele>
        <time>2017-06-24T14:16:23Z</time>
      </trkpt>
      <trkpt lat="45.03436" lon="6.30573">
        <ele>1709.36</ele>
        <time>2017-06-24T14:16:29Z</time>
      </trkpt>
      <trkpt lat="45.0344" lon="6.30557">
        <ele>1710.32</ele>
        <time>2017-06-24T14:16:36Z</time>
      </trkpt>
      <trkpt lat="45.0344" lon="6.30547">
        <ele>1708.88</ele>
        <time>2017-06-24T14:16:40Z</time>
      </trkpt>
      <trkpt lat="45.03444" lon="6.30528">
        <ele>1706.96</ele>
        <time>2017-06-24T14:16:47Z</time>
      </trkpt>
      <trkpt lat="45.03452" lon="6.30509">
        <ele>1703.11</ele>
        <time>2017-06-24T14:16:55Z</time>
      </trkpt>
      <trkpt lat="45.03453" lon="6.30509">
        <ele>1702.63</ele>
        <time>2017-06-24T14:16:56Z</time>
      </trkpt>
      <trkpt lat="45.03455" lon="6.30515">
        <ele>1698.79</ele>
        <time>2017-06-24T14:17:00Z</time>
      </trkpt>
      <trkpt lat="45.03462" lon="6.30522">
        <ele>1694.94</ele>
        <time>2017-06-24T14:17:06Z</time>
      </trkpt>
      <trkpt lat="45.03466" lon="6.30528">
        <ele>1691.58</ele>
        <time>2017-06-24T14:17:11Z</time>
      </trkpt>
      <trkpt lat="45.03466" lon="6.30526">
        <ele>1691.1</ele>
        <time>2017-06-24T14:17:12Z</time>
      </trkpt>
      <trkpt lat="45.0347" lon="6.3051">
        <ele>1690.14</ele>
        <time>2017-06-24T14:17:19Z</time>
      </trkpt>
      <trkpt lat="45.03471" lon="6.30508">
        <ele>1690.14</ele>
        <time>2017-06-24T14:17:20Z</time>
      </trkpt>
      <trkpt lat="45.03479" lon="6.30508">
        <ele>1687.73</ele>
        <time>2017-06-24T14:17:25Z</time>
      </trkpt>
      <trkpt lat="45.03484" lon="6.30516">
        <ele>1684.37</ele>
        <time>2017-06-24T14:17:30Z</time>
      </trkpt>
      <trkpt lat="45.03495" lon="6.30522">
        <ele>1682.44</ele>
        <time>2017-06-24T14:17:37Z</time>
      </trkpt>
      <trkpt lat="45.03507" lon="6.3052">
        <ele>1679.56</ele>
        <time>2017-06-24T14:17:43Z</time>
      </trkpt>
      <trkpt lat="45.0351" lon="6.30523">
        <ele>1677.16</ele>
        <time>2017-06-24T14:17:46Z</time>
      </trkpt>
      <trkpt lat="45.03522" lon="6.30526">
        <ele>1672.35</ele>
        <time>2017-06-24T14:17:54Z</time>
      </trkpt>
      <trkpt lat="45.03539" lon="6.30534">
        <ele>1666.58</ele>
        <time>2017-06-24T14:18:02Z</time>
      </trkpt>
      <trkpt lat="45.03555" lon="6.30534">
        <ele>1663.7</ele>
        <time>2017-06-24T14:18:09Z</time>
      </trkpt>
      <trkpt lat="45.03567" lon="6.30533">
        <ele>1661.78</ele>
        <time>2017-06-24T14:18:14Z</time>
      </trkpt>
      <trkpt lat="45.03584" lon="6.3053">
        <ele>1661.78</ele>
        <time>2017-06-24T14:18:22Z</time>
      </trkpt>
      <trkpt lat="45.03592" lon="6.30534">
        <ele>1661.78</ele>
        <time>2017-06-24T14:18:28Z</time>
      </trkpt>
      <trkpt lat="45.03608" lon="6.3054">
        <ele>1658.89</ele>
        <time>2017-06-24T14:18:36Z</time>
      </trkpt>
      <trkpt lat="45.03625" lon="6.30542">
        <ele>1657.45</ele>
        <time>2017-06-24T14:18:43Z</time>
      </trkpt>
      <trkpt lat="45.0364" lon="6.30546">
        <ele>1657.45</ele>
        <time>2017-06-24T14:18:49Z</time>
      </trkpt>
      <trkpt lat="45.0365" lon="6.3056">
        <ele>1655.05</ele>
        <time>2017-06-24T14:18:55Z</time>
      </trkpt>
      <trkpt lat="45.03664" lon="6.30551">
        <ele>1650.72</ele>
        <time>2017-06-24T14:19:02Z</time>
      </trkpt>
      <trkpt lat="45.03679" lon="6.3055">
        <ele>1647.84</ele>
        <time>2017-06-24T14:19:10Z</time>
      </trkpt>
      <trkpt lat="45.03695" lon="6.30544">
        <ele>1646.88</ele>
        <time>2017-06-24T14:19:18Z</time>
      </trkpt>
      <trkpt lat="45.03709" lon="6.3054">
        <ele>1646.4</ele>
        <time>2017-06-24T14:19:25Z</time>
      </trkpt>
      <trkpt lat="45.03725" lon="6.30529">
        <ele>1645.91</ele>
        <time>2017-06-24T14:19:33Z</time>
      </trkpt>
      <trkpt lat="45.03741" lon="6.30514">
        <ele>1644.95</ele>
        <time>2017-06-24T14:19:41Z</time>
      </trkpt>
      <trkpt lat="45.03754" lon="6.30502">
        <ele>1643.03</ele>
        <time>2017-06-24T14:19:47Z</time>
      </trkpt>
      <trkpt lat="45.03764" lon="6.30495">
        <ele>1642.55</ele>
        <time>2017-06-24T14:19:51Z</time>
      </trkpt>
      <trkpt lat="45.03773" lon="6.30489">
        <ele>1642.07</ele>
        <time>2017-06-24T14:19:56Z</time>
      </trkpt>
      <trkpt lat="45.03788" lon="6.30481">
        <ele>1641.59</ele>
        <time>2017-06-24T14:20:04Z</time>
      </trkpt>
      <trkpt lat="45.03802" lon="6.30485">
        <ele>1640.15</ele>
        <time>2017-06-24T14:20:11Z</time>
      </trkpt>
      <trkpt lat="45.03812" lon="6.3048">
        <ele>1639.19</ele>
        <time>2017-06-24T14:20:17Z</time>
      </trkpt>
      <trkpt lat="45.03826" lon="6.30471">
        <ele>1637.26</ele>
        <time>2017-06-24T14:20:25Z</time>
      </trkpt>
      <trkpt lat="45.03839" lon="6.30463">
        <ele>1635.34</ele>
        <time>2017-06-24T14:20:34Z</time>
      </trkpt>
      <trkpt lat="45.0385" lon="6.30459">
        <ele>1634.86</ele>
        <time>2017-06-24T14:20:41Z</time>
      </trkpt>
      <trkpt lat="45.03861" lon="6.30453">
        <ele>1633.42</ele>
        <time>2017-06-24T14:20:48Z</time>
      </trkpt>
      <trkpt lat="45.03875" lon="6.30449">
        <ele>1632.94</ele>
        <time>2017-06-24T14:20:54Z</time>
      </trkpt>
      <trkpt lat="45.03891" lon="6.30443">
        <ele>1631.49</ele>
        <time>2017-06-24T14:21:01Z</time>
      </trkpt>
      <trkpt lat="45.03893" lon="6.30443">
        <ele>1631.01</ele>
        <time>2017-06-24T14:21:02Z</time>
      </trkpt>
      <trkpt lat="45.03903" lon="6.30444">
        <ele>1630.53</ele>
        <time>2017-06-24T14:21:08Z</time>
      </trkpt>
      <trkpt lat="45.03913" lon="6.30446">
        <ele>1629.09</ele>
        <time>2017-06-24T14:21:14Z</time>
      </trkpt>
      <trkpt lat="45.03926" lon="6.30445">
        <ele>1628.13</ele>
        <time>2017-06-24T14:21:20Z</time>
      </trkpt>
      <trkpt lat="45.03937" lon="6.30439">
        <ele>1625.73</ele>
        <time>2017-06-24T14:21:24Z</time>
      </trkpt>
      <trkpt lat="45.03952" lon="6.30463">
        <ele>1621.88</ele>
        <time>2017-06-24T14:21:30Z</time>
      </trkpt>
      <trkpt lat="45.03964" lon="6.30487">
        <ele>1615.15</ele>
        <time>2017-06-24T14:21:37Z</time>
      </trkpt>
      <trkpt lat="45.03974" lon="6.30503">
        <ele>1607.94</ele>
        <time>2017-06-24T14:21:44Z</time>
      </trkpt>
      <trkpt lat="45.03986" lon="6.30521">
        <ele>1597.37</ele>
        <time>2017-06-24T14:21:52Z</time>
      </trkpt>
      <trkpt lat="45.03999" lon="6.30532">
        <ele>1588.72</ele>
        <time>2017-06-24T14:22:00Z</time>
      </trkpt>
      <trkpt lat="45.0401" lon="6.30546">
        <ele>1580.06</ele>
        <time>2017-06-24T14:22:08Z</time>
      </trkpt>
      <trkpt lat="45.04012" lon="6.30548">
        <ele>1579.1</ele>
        <time>2017-06-24T14:22:09Z</time>
      </trkpt>
      <trkpt lat="45.04022" lon="6.30565">
        <ele>1575.74</ele>
        <time>2017-06-24T14:22:17Z</time>
      </trkpt>
      <trkpt lat="45.04031" lon="6.30583">
        <ele>1576.22</ele>
        <time>2017-06-24T14:22:24Z</time>
      </trkpt>
      <trkpt lat="45.04036" lon="6.30592">
        <ele>1575.74</ele>
        <time>2017-06-24T14:22:27Z</time>
      </trkpt>
      <trkpt lat="45.0404" lon="6.30601">
        <ele>1575.74</ele>
        <time>2017-06-24T14:22:31Z</time>
      </trkpt>
      <trkpt lat="45.04046" lon="6.30622">
        <ele>1575.26</ele>
        <time>2017-06-24T14:22:39Z</time>
      </trkpt>
      <trkpt lat="45.04049" lon="6.30631">
        <ele>1575.26</ele>
        <time>2017-06-24T14:22:42Z</time>
      </trkpt>
      <trkpt lat="45.04055" lon="6.30647">
        <ele>1573.33</ele>
        <time>2017-06-24T14:22:48Z</time>
      </trkpt>
      <trkpt lat="45.0406" lon="6.30656">
        <ele>1572.85</ele>
        <time>2017-06-24T14:22:52Z</time>
      </trkpt>
      <trkpt lat="45.04067" lon="6.30667">
        <ele>1574.78</ele>
        <time>2017-06-24T14:22:58Z</time>
      </trkpt>
      <trkpt lat="45.04078" lon="6.30679">
        <ele>1575.26</ele>
        <time>2017-06-24T14:23:05Z</time>
      </trkpt>
      <trkpt lat="45.04082" lon="6.30683">
        <ele>1575.26</ele>
        <time>2017-06-24T14:23:07Z</time>
      </trkpt>
      <trkpt lat="45.04087" lon="6.30691">
        <ele>1573.82</ele>
        <time>2017-06-24T14:23:10Z</time>
      </trkpt>
      <trkpt lat="45.04094" lon="6.30711">
        <ele>1570.45</ele>
        <time>2017-06-24T14:23:17Z</time>
      </trkpt>
      <trkpt lat="45.04096" lon="6.30729">
        <ele>1569.97</ele>
        <time>2017-06-24T14:23:23Z</time>
      </trkpt>
      <trkpt lat="45.04104" lon="6.30749">
        <ele>1569.49</ele>
        <time>2017-06-24T14:23:30Z</time>
      </trkpt>
      <trkpt lat="45.0411" lon="6.30758">
        <ele>1568.53</ele>
        <time>2017-06-24T14:23:34Z</time>
      </trkpt>
      <trkpt lat="45.04118" lon="6.30773">
        <ele>1564.68</ele>
        <time>2017-06-24T14:23:40Z</time>
      </trkpt>
      <trkpt lat="45.04128" lon="6.30794">
        <ele>1558.43</ele>
        <time>2017-06-24T14:23:48Z</time>
      </trkpt>
      <trkpt lat="45.04139" lon="6.30804">
        <ele>1555.55</ele>
        <time>2017-06-24T14:23:53Z</time>
      </trkpt>
      <trkpt lat="45.04145" lon="6.30814">
        <ele>1550.74</ele>
        <time>2017-06-24T14:23:58Z</time>
      </trkpt>
      <trkpt lat="45.04153" lon="6.30822">
        <ele>1547.38</ele>
        <time>2017-06-24T14:24:03Z</time>
      </trkpt>
      <trkpt lat="45.04158" lon="6.3083">
        <ele>1542.57</ele>
        <time>2017-06-24T14:24:08Z</time>
      </trkpt>
      <trkpt lat="45.0416" lon="6.30834">
        <ele>1542.57</ele>
        <time>2017-06-24T14:24:10Z</time>
      </trkpt>
      <trkpt lat="45.04166" lon="6.30842">
        <ele>1540.17</ele>
        <time>2017-06-24T14:24:15Z</time>
      </trkpt>
      <trkpt lat="45.04175" lon="6.30855">
        <ele>1535.84</ele>
        <time>2017-06-24T14:24:24Z</time>
      </trkpt>
      <trkpt lat="45.04183" lon="6.30861">
        <ele>1535.36</ele>
        <time>2017-06-24T14:24:28Z</time>
      </trkpt>
      <trkpt lat="45.04185" lon="6.30863">
        <ele>1534.88</ele>
        <time>2017-06-24T14:24:30Z</time>
      </trkpt>
      <trkpt lat="45.04189" lon="6.30863">
        <ele>1533.44</ele>
        <time>2017-06-24T14:24:33Z</time>
      </trkpt>
      <trkpt lat="45.04196" lon="6.30851">
        <ele>1528.63</ele>
        <time>2017-06-24T14:24:40Z</time>
      </trkpt>
      <trkpt lat="45.04196" lon="6.3085">
        <ele>1527.19</ele>
        <time>2017-06-24T14:24:49Z</time>
      </trkpt>
      <trkpt lat="45.04197" lon="6.3085">
        <ele>1527.19</ele>
        <time>2017-06-24T14:24:50Z</time>
      </trkpt>
      <trkpt lat="45.04201" lon="6.3086">
        <ele>1524.79</ele>
        <time>2017-06-24T14:24:57Z</time>
      </trkpt>
      <trkpt lat="45.04202" lon="6.30858">
        <ele>1522.39</ele>
        <time>2017-06-24T14:24:59Z</time>
      </trkpt>
      <trkpt lat="45.04211" lon="6.3085">
        <ele>1516.62</ele>
        <time>2017-06-24T14:25:04Z</time>
      </trkpt>
      <trkpt lat="45.04216" lon="6.30846">
        <ele>1513.25</ele>
        <time>2017-06-24T14:25:07Z</time>
      </trkpt>
      <trkpt lat="45.04213" lon="6.30833">
        <ele>1511.33</ele>
        <time>2017-06-24T14:25:14Z</time>
      </trkpt>
      <trkpt lat="45.04218" lon="6.30823">
        <ele>1510.85</ele>
        <time>2017-06-24T14:25:17Z</time>
      </trkpt>
      <trkpt lat="45.04225" lon="6.30811">
        <ele>1509.41</ele>
        <time>2017-06-24T14:25:22Z</time>
      </trkpt>
      <trkpt lat="45.04227" lon="6.308">
        <ele>1507.97</ele>
        <time>2017-06-24T14:25:26Z</time>
      </trkpt>
      <trkpt lat="45.0423" lon="6.30798">
        <ele>1507.48</ele>
        <time>2017-06-24T14:25:28Z</time>
      </trkpt>
      <trkpt lat="45.04238" lon="6.30803">
        <ele>1506.52</ele>
        <time>2017-06-24T14:25:34Z</time>
      </trkpt>
      <trkpt lat="45.04239" lon="6.30806">
        <ele>1506.52</ele>
        <time>2017-06-24T14:25:35Z</time>
      </trkpt>
      <trkpt lat="45.0424" lon="6.30813">
        <ele>1506.52</ele>
        <time>2017-06-24T14:25:39Z</time>
      </trkpt>
      <trkpt lat="45.04243" lon="6.30834">
        <ele>1505.08</ele>
        <time>2017-06-24T14:25:47Z</time>
      </trkpt>
      <trkpt lat="45.04244" lon="6.30837">
        <ele>1505.08</ele>
        <time>2017-06-24T14:25:48Z</time>
      </trkpt>
      <trkpt lat="45.04254" lon="6.30852">
        <ele>1503.16</ele>
        <time>2017-06-24T14:25:54Z</time>
      </trkpt>
      <trkpt lat="45.04254" lon="6.3087">
        <ele>1501.72</ele>
        <time>2017-06-24T14:26:00Z</time>
      </trkpt>
      <trkpt lat="45.04256" lon="6.30877">
        <ele>1501.24</ele>
        <time>2017-06-24T14:26:03Z</time>
      </trkpt>
      <trkpt lat="45.04266" lon="6.30872">
        <ele>1499.31</ele>
        <time>2017-06-24T14:26:09Z</time>
      </trkpt>
      <trkpt lat="45.04276" lon="6.30867">
        <ele>1497.39</ele>
        <time>2017-06-24T14:26:15Z</time>
      </trkpt>
      <trkpt lat="45.04288" lon="6.3085">
        <ele>1494.51</ele>
        <time>2017-06-24T14:26:22Z</time>
      </trkpt>
      <trkpt lat="45.04289" lon="6.30847">
        <ele>1494.03</ele>
        <time>2017-06-24T14:26:23Z</time>
      </trkpt>
      <trkpt lat="45.0429" lon="6.30837">
        <ele>1491.62</ele>
        <time>2017-06-24T14:26:28Z</time>
      </trkpt>
      <trkpt lat="45.04301" lon="6.30824">
        <ele>1489.7</ele>
        <time>2017-06-24T14:26:35Z</time>
      </trkpt>
      <trkpt lat="45.04306" lon="6.30808">
        <ele>1488.74</ele>
        <time>2017-06-24T14:26:40Z</time>
      </trkpt>
      <trkpt lat="45.04311" lon="6.30796">
        <ele>1487.78</ele>
        <time>2017-06-24T14:26:45Z</time>
      </trkpt>
      <trkpt lat="45.04313" lon="6.30793">
        <ele>1487.3</ele>
        <time>2017-06-24T14:26:46Z</time>
      </trkpt>
      <trkpt lat="45.04314" lon="6.30785">
        <ele>1486.34</ele>
        <time>2017-06-24T14:26:50Z</time>
      </trkpt>
      <trkpt lat="45.04321" lon="6.30774">
        <ele>1485.85</ele>
        <time>2017-06-24T14:26:56Z</time>
      </trkpt>
      <trkpt lat="45.04322" lon="6.3077">
        <ele>1485.37</ele>
        <time>2017-06-24T14:26:59Z</time>
      </trkpt>
      <trkpt lat="45.0433" lon="6.30764">
        <ele>1484.41</ele>
        <time>2017-06-24T14:27:04Z</time>
      </trkpt>
      <trkpt lat="45.04332" lon="6.3076">
        <ele>1483.45</ele>
        <time>2017-06-24T14:27:07Z</time>
      </trkpt>
      <trkpt lat="45.04336" lon="6.30743">
        <ele>1482.01</ele>
        <time>2017-06-24T14:27:13Z</time>
      </trkpt>
      <trkpt lat="45.04338" lon="6.3074">
        <ele>1481.53</ele>
        <time>2017-06-24T14:27:14Z</time>
      </trkpt>
      <trkpt lat="45.04355" lon="6.30719">
        <ele>1477.2</ele>
        <time>2017-06-24T14:27:21Z</time>
      </trkpt>
      <trkpt lat="45.04365" lon="6.30701">
        <ele>1472.4</ele>
        <time>2017-06-24T14:27:27Z</time>
      </trkpt>
      <trkpt lat="45.04368" lon="6.30697">
        <ele>1471.44</ele>
        <time>2017-06-24T14:27:28Z</time>
      </trkpt>
      <trkpt lat="45.04374" lon="6.30694">
        <ele>1470.47</ele>
        <time>2017-06-24T14:27:31Z</time>
      </trkpt>
      <trkpt lat="45.04383" lon="6.30684">
        <ele>1468.07</ele>
        <time>2017-06-24T14:27:37Z</time>
      </trkpt>
      <trkpt lat="45.04384" lon="6.30676">
        <ele>1467.59</ele>
        <time>2017-06-24T14:27:40Z</time>
      </trkpt>
      <trkpt lat="45.04381" lon="6.30652">
        <ele>1465.67</ele>
        <time>2017-06-24T14:27:48Z</time>
      </trkpt>
      <trkpt lat="45.04375" lon="6.30629">
        <ele>1462.78</ele>
        <time>2017-06-24T14:27:55Z</time>
      </trkpt>
      <trkpt lat="45.04368" lon="6.30611">
        <ele>1462.3</ele>
        <time>2017-06-24T14:28:01Z</time>
      </trkpt>
      <trkpt lat="45.04362" lon="6.30593">
        <ele>1462.3</ele>
        <time>2017-06-24T14:28:07Z</time>
      </trkpt>
      <trkpt lat="45.04361" lon="6.30578">
        <ele>1460.38</ele>
        <time>2017-06-24T14:28:12Z</time>
      </trkpt>
      <trkpt lat="45.04364" lon="6.30556">
        <ele>1457.5</ele>
        <time>2017-06-24T14:28:19Z</time>
      </trkpt>
      <trkpt lat="45.0437" lon="6.30537">
        <ele>1454.13</ele>
        <time>2017-06-24T14:28:25Z</time>
      </trkpt>
      <trkpt lat="45.04373" lon="6.30518">
        <ele>1451.25</ele>
        <time>2017-06-24T14:28:31Z</time>
      </trkpt>
      <trkpt lat="45.04376" lon="6.3049">
        <ele>1444.04</ele>
        <time>2017-06-24T14:28:40Z</time>
      </trkpt>
      <trkpt lat="45.04375" lon="6.3047">
        <ele>1441.63</ele>
        <time>2017-06-24T14:28:46Z</time>
      </trkpt>
      <trkpt lat="45.04374" lon="6.30467">
        <ele>1441.15</ele>
        <time>2017-06-24T14:28:47Z</time>
      </trkpt>
      <trkpt lat="45.04365" lon="6.30454">
        <ele>1437.79</ele>
        <time>2017-06-24T14:28:53Z</time>
      </trkpt>
      <trkpt lat="45.04353" lon="6.30448">
        <ele>1435.87</ele>
        <time>2017-06-24T14:28:59Z</time>
      </trkpt>
      <trkpt lat="45.04342" lon="6.30444">
        <ele>1435.87</ele>
        <time>2017-06-24T14:29:04Z</time>
      </trkpt>
      <trkpt lat="45.04343" lon="6.30431">
        <ele>1435.87</ele>
        <time>2017-06-24T14:29:09Z</time>
      </trkpt>
      <trkpt lat="45.04348" lon="6.30431">
        <ele>1435.39</ele>
        <time>2017-06-24T14:29:11Z</time>
      </trkpt>
      <trkpt lat="45.04365" lon="6.30429">
        <ele>1434.91</ele>
        <time>2017-06-24T14:29:18Z</time>
      </trkpt>
      <trkpt lat="45.04376" lon="6.30422">
        <ele>1433.94</ele>
        <time>2017-06-24T14:29:24Z</time>
      </trkpt>
      <trkpt lat="45.04378" lon="6.30419">
        <ele>1433.46</ele>
        <time>2017-06-24T14:29:26Z</time>
      </trkpt>
      <trkpt lat="45.04388" lon="6.30404">
        <ele>1432.98</ele>
        <time>2017-06-24T14:29:33Z</time>
      </trkpt>
      <trkpt lat="45.04393" lon="6.30396">
        <ele>1432.98</ele>
        <time>2017-06-24T14:29:38Z</time>
      </trkpt>
      <trkpt lat="45.04403" lon="6.30389">
        <ele>1432.98</ele>
        <time>2017-06-24T14:29:45Z</time>
      </trkpt>
      <trkpt lat="45.0441" lon="6.30385">
        <ele>1432.5</ele>
        <time>2017-06-24T14:29:52Z</time>
      </trkpt>
      <trkpt lat="45.04413" lon="6.30384">
        <ele>1432.5</ele>
        <time>2017-06-24T14:29:55Z</time>
      </trkpt>
      <trkpt lat="45.04422" lon="6.3038">
        <ele>1432.5</ele>
        <time>2017-06-24T14:30:05Z</time>
      </trkpt>
      <trkpt lat="45.04423" lon="6.3038">
        <ele>1432.5</ele>
        <time>2017-06-24T14:30:06Z</time>
      </trkpt>
      <trkpt lat="45.04429" lon="6.30385">
        <ele>1432.5</ele>
        <time>2017-06-24T14:30:12Z</time>
      </trkpt>
      <trkpt lat="45.04434" lon="6.30392">
        <ele>1432.02</ele>
        <time>2017-06-24T14:30:20Z</time>
      </trkpt>
      <trkpt lat="45.04441" lon="6.30399">
        <ele>1432.5</ele>
        <time>2017-06-24T14:30:28Z</time>
      </trkpt>
      <trkpt lat="45.04445" lon="6.30407">
        <ele>1432.5</ele>
        <time>2017-06-24T14:30:36Z</time>
      </trkpt>
      <trkpt lat="45.04447" lon="6.30411">
        <ele>1432.5</ele>
        <time>2017-06-24T14:30:41Z</time>
      </trkpt>
      <trkpt lat="45.04449" lon="6.30415">
        <ele>1434.42</ele>
        <time>2017-06-24T14:30:48Z</time>
      </trkpt>
      <trkpt lat="45.0445" lon="6.30414">
        <ele>1434.91</ele>
        <time>2017-06-24T14:30:56Z</time>
      </trkpt>
      <trkpt lat="45.0445" lon="6.30413">
        <ele>1435.39</ele>
        <time>2017-06-24T14:30:58Z</time>
      </trkpt>
      <trkpt lat="45.04452" lon="6.30409">
        <ele>1432.5</ele>
        <time>2017-06-24T14:31:05Z</time>
      </trkpt>
      <trkpt lat="45.04452" lon="6.30406">
        <ele>1433.46</ele>
        <time>2017-06-24T14:31:12Z</time>
      </trkpt>
      <trkpt lat="45.04452" lon="6.30402">
        <ele>1434.91</ele>
        <time>2017-06-24T14:31:20Z</time>
      </trkpt>
      <trkpt lat="45.04452" lon="6.30399">
        <ele>1435.39</ele>
        <time>2017-06-24T14:31:27Z</time>
      </trkpt>
      <trkpt lat="45.04455" lon="6.30397">
        <ele>1436.83</ele>
        <time>2017-06-24T14:31:34Z</time>
      </trkpt>
      <trkpt lat="45.04458" lon="6.30394">
        <ele>1441.15</ele>
        <time>2017-06-24T14:31:37Z</time>
      </trkpt>
      <trkpt lat="45.04464" lon="6.30393">
        <ele>1445</ele>
        <time>2017-06-24T14:31:45Z</time>
      </trkpt>
      <trkpt lat="45.04462" lon="6.30386">
        <ele>1445.48</ele>
        <time>2017-06-24T14:31:50Z</time>
      </trkpt>
      <trkpt lat="45.04458" lon="6.30378">
        <ele>1445.96</ele>
        <time>2017-06-24T14:31:57Z</time>
      </trkpt>
      <trkpt lat="45.04455" lon="6.30368">
        <ele>1445.96</ele>
        <time>2017-06-24T14:32:05Z</time>
      </trkpt>
      <trkpt lat="45.04454" lon="6.30366">
        <ele>1445.48</ele>
        <time>2017-06-24T14:32:07Z</time>
      </trkpt>
      <trkpt lat="45.04449" lon="6.30357">
        <ele>1445</ele>
        <time>2017-06-24T14:32:15Z</time>
      </trkpt>
      <trkpt lat="45.04447" lon="6.30352">
        <ele>1445.48</ele>
        <time>2017-06-24T14:32:19Z</time>
      </trkpt>
      <trkpt lat="45.0445" lon="6.30326">
        <ele>1449.32</ele>
        <time>2017-06-24T14:32:29Z</time>
      </trkpt>
      <trkpt lat="45.0445" lon="6.3031">
        <ele>1450.29</ele>
        <time>2017-06-24T14:32:35Z</time>
      </trkpt>
      <trkpt lat="45.0445" lon="6.30307">
        <ele>1450.77</ele>
        <time>2017-06-24T14:32:36Z</time>
      </trkpt>
      <trkpt lat="45.04454" lon="6.30297">
        <ele>1451.73</ele>
        <time>2017-06-24T14:32:40Z</time>
      </trkpt>
      <trkpt lat="45.04466" lon="6.30285">
        <ele>1454.61</ele>
        <time>2017-06-24T14:32:47Z</time>
      </trkpt>
      <trkpt lat="45.0447" lon="6.30277">
        <ele>1457.5</ele>
        <time>2017-06-24T14:32:54Z</time>
      </trkpt>
      <trkpt lat="45.04475" lon="6.30271">
        <ele>1459.42</ele>
        <time>2017-06-24T14:33:01Z</time>
      </trkpt>
      <trkpt lat="45.04479" lon="6.30266">
        <ele>1462.3</ele>
        <time>2017-06-24T14:33:09Z</time>
      </trkpt>
      <trkpt lat="45.04485" lon="6.30264">
        <ele>1464.71</ele>
        <time>2017-06-24T14:33:15Z</time>
      </trkpt>
      <trkpt lat="45.04491" lon="6.30269">
        <ele>1466.15</ele>
        <time>2017-06-24T14:33:21Z</time>
      </trkpt>
    </trkseg>
  </trk>
</gpx>